<?xml version="1.0" encoding="UTF-8" standalone="no" ?>
<gpx xmlns="http://www.topografix.com/GPX/1/1" xmlns:xsi="http://www.w3.org/2001/XMLSchema-instance" xsi:schemaLocation="http://www.topografix.com/GPX/1/1 http://www.topografix.com/GPX/1/1/gpx.xsd" version="1.1" creator="VisuGPX - https://www.visugpx.com">
  <metadata>
    <name>Chateaux Arnoux</name>
    <desc><![CDATA[Trop chaud ! Pour la petite der avant le retour, on ressort [url=https://www.visugpx.com/yCUFCYgHAI]un ancien topo[/url] fait en musculaire en 2024. 
Texte prochainement xxx
Fin de sortie à : 63% de 625 Wh (Nadine) et 54% de 750 Wh (Alain)
Dénivelé mesuré : 646 M]]></desc>
  </metadata>
  <trk>
    <name><![CDATA[Chateaux Arnoux 20 km 01-07-26]]></name>
    <trkseg>
      <trkpt lat="44.09519" lon="6.00958">
        <ele>444.4</ele>
        <time>2026-07-01T07:09:14Z</time>
      </trkpt>
      <trkpt lat="44.09516" lon="6.0096">
        <ele>441.23</ele>
        <time>2026-07-01T07:09:28Z</time>
      </trkpt>
      <trkpt lat="44.09494" lon="6.00961">
        <ele>438.22</ele>
        <time>2026-07-01T07:09:40Z</time>
      </trkpt>
      <trkpt lat="44.09497" lon="6.00965">
        <ele>441.28</ele>
        <time>2026-07-01T07:09:49Z</time>
      </trkpt>
      <trkpt lat="44.09498" lon="6.00963">
        <ele>444.66</ele>
        <time>2026-07-01T07:10:00Z</time>
      </trkpt>
      <trkpt lat="44.09496" lon="6.00959">
        <ele>447.78</ele>
        <time>2026-07-01T07:10:12Z</time>
      </trkpt>
      <trkpt lat="44.09496" lon="6.00955">
        <ele>450.83</ele>
        <time>2026-07-01T07:10:27Z</time>
      </trkpt>
      <trkpt lat="44.09496" lon="6.00954">
        <ele>453.84</ele>
        <time>2026-07-01T07:10:56Z</time>
      </trkpt>
      <trkpt lat="44.09495" lon="6.00956">
        <ele>454.28</ele>
        <time>2026-07-01T07:12:09Z</time>
      </trkpt>
      <trkpt lat="44.09494" lon="6.00959">
        <ele>453.98</ele>
        <time>2026-07-01T07:12:52Z</time>
      </trkpt>
      <trkpt lat="44.09491" lon="6.00971">
        <ele>453.93</ele>
        <time>2026-07-01T07:12:59Z</time>
      </trkpt>
      <trkpt lat="44.09489" lon="6.00971">
        <ele>453.93</ele>
        <time>2026-07-01T07:13:00Z</time>
      </trkpt>
      <trkpt lat="44.09487" lon="6.00971">
        <ele>453.93</ele>
        <time>2026-07-01T07:13:01Z</time>
      </trkpt>
      <trkpt lat="44.09485" lon="6.0097">
        <ele>453.93</ele>
        <time>2026-07-01T07:13:02Z</time>
      </trkpt>
      <trkpt lat="44.09484" lon="6.00968">
        <ele>453.93</ele>
        <time>2026-07-01T07:13:03Z</time>
      </trkpt>
      <trkpt lat="44.09456" lon="6.00966">
        <ele>454.48</ele>
        <time>2026-07-01T07:13:14Z</time>
      </trkpt>
      <trkpt lat="44.09429" lon="6.00972">
        <ele>455.24</ele>
        <time>2026-07-01T07:13:28Z</time>
      </trkpt>
      <trkpt lat="44.094" lon="6.00974">
        <ele>454.13</ele>
        <time>2026-07-01T07:13:40Z</time>
      </trkpt>
      <trkpt lat="44.09396" lon="6.00975">
        <ele>454.03</ele>
        <time>2026-07-01T07:13:43Z</time>
      </trkpt>
      <trkpt lat="44.09393" lon="6.00973">
        <ele>454.08</ele>
        <time>2026-07-01T07:13:44Z</time>
      </trkpt>
      <trkpt lat="44.09389" lon="6.00971">
        <ele>454.01</ele>
        <time>2026-07-01T07:13:45Z</time>
      </trkpt>
      <trkpt lat="44.09353" lon="6.00947">
        <ele>456.12</ele>
        <time>2026-07-01T07:13:57Z</time>
      </trkpt>
      <trkpt lat="44.09311" lon="6.00915">
        <ele>459.17</ele>
        <time>2026-07-01T07:14:11Z</time>
      </trkpt>
      <trkpt lat="44.0929" lon="6.00891">
        <ele>459.18</ele>
        <time>2026-07-01T07:14:21Z</time>
      </trkpt>
      <trkpt lat="44.0929" lon="6.00887">
        <ele>459.23</ele>
        <time>2026-07-01T07:14:22Z</time>
      </trkpt>
      <trkpt lat="44.0929" lon="6.00883">
        <ele>459.61</ele>
        <time>2026-07-01T07:14:23Z</time>
      </trkpt>
      <trkpt lat="44.09291" lon="6.00879">
        <ele>459.57</ele>
        <time>2026-07-01T07:14:24Z</time>
      </trkpt>
      <trkpt lat="44.09292" lon="6.00876">
        <ele>459.58</ele>
        <time>2026-07-01T07:14:25Z</time>
      </trkpt>
      <trkpt lat="44.09293" lon="6.00872">
        <ele>459.58</ele>
        <time>2026-07-01T07:14:26Z</time>
      </trkpt>
      <trkpt lat="44.09293" lon="6.00868">
        <ele>459.58</ele>
        <time>2026-07-01T07:14:27Z</time>
      </trkpt>
      <trkpt lat="44.09294" lon="6.00864">
        <ele>459.58</ele>
        <time>2026-07-01T07:14:28Z</time>
      </trkpt>
      <trkpt lat="44.09311" lon="6.00803">
        <ele>462.3</ele>
        <time>2026-07-01T07:14:46Z</time>
      </trkpt>
      <trkpt lat="44.09329" lon="6.00754">
        <ele>465.37</ele>
        <time>2026-07-01T07:15:02Z</time>
      </trkpt>
      <trkpt lat="44.09346" lon="6.00705">
        <ele>468.54</ele>
        <time>2026-07-01T07:15:18Z</time>
      </trkpt>
      <trkpt lat="44.0937" lon="6.00669">
        <ele>470.11</ele>
        <time>2026-07-01T07:15:33Z</time>
      </trkpt>
      <trkpt lat="44.0937" lon="6.00647">
        <ele>471.44</ele>
        <time>2026-07-01T07:15:40Z</time>
      </trkpt>
      <trkpt lat="44.0937" lon="6.00644">
        <ele>471.53</ele>
        <time>2026-07-01T07:15:41Z</time>
      </trkpt>
      <trkpt lat="44.09371" lon="6.00641">
        <ele>471.56</ele>
        <time>2026-07-01T07:15:42Z</time>
      </trkpt>
      <trkpt lat="44.09372" lon="6.00637">
        <ele>471.69</ele>
        <time>2026-07-01T07:15:43Z</time>
      </trkpt>
      <trkpt lat="44.09373" lon="6.00634">
        <ele>471.85</ele>
        <time>2026-07-01T07:15:44Z</time>
      </trkpt>
      <trkpt lat="44.0939" lon="6.00597">
        <ele>475</ele>
        <time>2026-07-01T07:15:58Z</time>
      </trkpt>
      <trkpt lat="44.09419" lon="6.00575">
        <ele>476.42</ele>
        <time>2026-07-01T07:16:12Z</time>
      </trkpt>
      <trkpt lat="44.09447" lon="6.00564">
        <ele>478.08</ele>
        <time>2026-07-01T07:16:26Z</time>
      </trkpt>
      <trkpt lat="44.09473" lon="6.00556">
        <ele>479.55</ele>
        <time>2026-07-01T07:16:40Z</time>
      </trkpt>
      <trkpt lat="44.09496" lon="6.00582">
        <ele>481.59</ele>
        <time>2026-07-01T07:16:52Z</time>
      </trkpt>
      <trkpt lat="44.09501" lon="6.00586">
        <ele>482.01</ele>
        <time>2026-07-01T07:16:55Z</time>
      </trkpt>
      <trkpt lat="44.09503" lon="6.00586">
        <ele>482.21</ele>
        <time>2026-07-01T07:16:56Z</time>
      </trkpt>
      <trkpt lat="44.09505" lon="6.00585">
        <ele>482.44</ele>
        <time>2026-07-01T07:16:57Z</time>
      </trkpt>
      <trkpt lat="44.09506" lon="6.00584">
        <ele>482.51</ele>
        <time>2026-07-01T07:16:58Z</time>
      </trkpt>
      <trkpt lat="44.09508" lon="6.00583">
        <ele>482.65</ele>
        <time>2026-07-01T07:16:59Z</time>
      </trkpt>
      <trkpt lat="44.0951" lon="6.00582">
        <ele>482.66</ele>
        <time>2026-07-01T07:17:00Z</time>
      </trkpt>
      <trkpt lat="44.09537" lon="6.00561">
        <ele>483.62</ele>
        <time>2026-07-01T07:17:13Z</time>
      </trkpt>
      <trkpt lat="44.09569" lon="6.00537">
        <ele>484.3</ele>
        <time>2026-07-01T07:17:28Z</time>
      </trkpt>
      <trkpt lat="44.09599" lon="6.00519">
        <ele>484.54</ele>
        <time>2026-07-01T07:17:42Z</time>
      </trkpt>
      <trkpt lat="44.09623" lon="6.0051">
        <ele>485.76</ele>
        <time>2026-07-01T07:17:52Z</time>
      </trkpt>
      <trkpt lat="44.09626" lon="6.0051">
        <ele>485.83</ele>
        <time>2026-07-01T07:17:53Z</time>
      </trkpt>
      <trkpt lat="44.09628" lon="6.00509">
        <ele>485.52</ele>
        <time>2026-07-01T07:17:54Z</time>
      </trkpt>
      <trkpt lat="44.09631" lon="6.00508">
        <ele>485.51</ele>
        <time>2026-07-01T07:17:55Z</time>
      </trkpt>
      <trkpt lat="44.09634" lon="6.00507">
        <ele>485.58</ele>
        <time>2026-07-01T07:17:56Z</time>
      </trkpt>
      <trkpt lat="44.09636" lon="6.00507">
        <ele>485.58</ele>
        <time>2026-07-01T07:17:57Z</time>
      </trkpt>
      <trkpt lat="44.09638" lon="6.00507">
        <ele>485.57</ele>
        <time>2026-07-01T07:17:58Z</time>
      </trkpt>
      <trkpt lat="44.0964" lon="6.00504">
        <ele>485.57</ele>
        <time>2026-07-01T07:17:59Z</time>
      </trkpt>
      <trkpt lat="44.09643" lon="6.00501">
        <ele>485.57</ele>
        <time>2026-07-01T07:18:00Z</time>
      </trkpt>
      <trkpt lat="44.09646" lon="6.00499">
        <ele>485.92</ele>
        <time>2026-07-01T07:18:01Z</time>
      </trkpt>
      <trkpt lat="44.09655" lon="6.00465">
        <ele>486.34</ele>
        <time>2026-07-01T07:18:13Z</time>
      </trkpt>
      <trkpt lat="44.09651" lon="6.00449">
        <ele>486.51</ele>
        <time>2026-07-01T07:18:19Z</time>
      </trkpt>
      <trkpt lat="44.09651" lon="6.00447">
        <ele>486.13</ele>
        <time>2026-07-01T07:18:37Z</time>
      </trkpt>
      <trkpt lat="44.09647" lon="6.00443">
        <ele>486.46</ele>
        <time>2026-07-01T07:19:41Z</time>
      </trkpt>
      <trkpt lat="44.09646" lon="6.00441">
        <ele>486.5</ele>
        <time>2026-07-01T07:19:42Z</time>
      </trkpt>
      <trkpt lat="44.09645" lon="6.00439">
        <ele>486.63</ele>
        <time>2026-07-01T07:19:43Z</time>
      </trkpt>
      <trkpt lat="44.09631" lon="6.00391">
        <ele>488.24</ele>
        <time>2026-07-01T07:19:57Z</time>
      </trkpt>
      <trkpt lat="44.09609" lon="6.00341">
        <ele>490.48</ele>
        <time>2026-07-01T07:20:13Z</time>
      </trkpt>
      <trkpt lat="44.09571" lon="6.00305">
        <ele>492.81</ele>
        <time>2026-07-01T07:20:31Z</time>
      </trkpt>
      <trkpt lat="44.09543" lon="6.00273">
        <ele>496.08</ele>
        <time>2026-07-01T07:20:46Z</time>
      </trkpt>
      <trkpt lat="44.09524" lon="6.00226">
        <ele>499.05</ele>
        <time>2026-07-01T07:21:04Z</time>
      </trkpt>
      <trkpt lat="44.09517" lon="6.00162">
        <ele>500.81</ele>
        <time>2026-07-01T07:21:24Z</time>
      </trkpt>
      <trkpt lat="44.09515" lon="6.00103">
        <ele>502.85</ele>
        <time>2026-07-01T07:21:41Z</time>
      </trkpt>
      <trkpt lat="44.09519" lon="6.00036">
        <ele>503.88</ele>
        <time>2026-07-01T07:22:00Z</time>
      </trkpt>
      <trkpt lat="44.0952" lon="6.00015">
        <ele>506.91</ele>
        <time>2026-07-01T07:22:06Z</time>
      </trkpt>
      <trkpt lat="44.09522" lon="5.99962">
        <ele>508.24</ele>
        <time>2026-07-01T07:22:23Z</time>
      </trkpt>
      <trkpt lat="44.09514" lon="5.99925">
        <ele>510.7</ele>
        <time>2026-07-01T07:22:37Z</time>
      </trkpt>
      <trkpt lat="44.09502" lon="5.99894">
        <ele>513.77</ele>
        <time>2026-07-01T07:22:50Z</time>
      </trkpt>
      <trkpt lat="44.09491" lon="5.99862">
        <ele>516.53</ele>
        <time>2026-07-01T07:23:03Z</time>
      </trkpt>
      <trkpt lat="44.09489" lon="5.99828">
        <ele>518.09</ele>
        <time>2026-07-01T07:23:14Z</time>
      </trkpt>
      <trkpt lat="44.09481" lon="5.99764">
        <ele>520.98</ele>
        <time>2026-07-01T07:23:34Z</time>
      </trkpt>
      <trkpt lat="44.09473" lon="5.99706">
        <ele>523.78</ele>
        <time>2026-07-01T07:23:53Z</time>
      </trkpt>
      <trkpt lat="44.09465" lon="5.99658">
        <ele>526.91</ele>
        <time>2026-07-01T07:24:10Z</time>
      </trkpt>
      <trkpt lat="44.09452" lon="5.99616">
        <ele>530.13</ele>
        <time>2026-07-01T07:24:25Z</time>
      </trkpt>
      <trkpt lat="44.09426" lon="5.99573">
        <ele>533.32</ele>
        <time>2026-07-01T07:24:43Z</time>
      </trkpt>
      <trkpt lat="44.09405" lon="5.99517">
        <ele>534.18</ele>
        <time>2026-07-01T07:25:00Z</time>
      </trkpt>
      <trkpt lat="44.0936" lon="5.99441">
        <ele>534.89</ele>
        <time>2026-07-01T07:25:23Z</time>
      </trkpt>
      <trkpt lat="44.09319" lon="5.99378">
        <ele>536.08</ele>
        <time>2026-07-01T07:25:43Z</time>
      </trkpt>
      <trkpt lat="44.09279" lon="5.99304">
        <ele>536.68</ele>
        <time>2026-07-01T07:26:04Z</time>
      </trkpt>
      <trkpt lat="44.09264" lon="5.99238">
        <ele>537.06</ele>
        <time>2026-07-01T07:26:20Z</time>
      </trkpt>
      <trkpt lat="44.09265" lon="5.99159">
        <ele>539.22</ele>
        <time>2026-07-01T07:26:39Z</time>
      </trkpt>
      <trkpt lat="44.09266" lon="5.99078">
        <ele>540.14</ele>
        <time>2026-07-01T07:26:59Z</time>
      </trkpt>
      <trkpt lat="44.09268" lon="5.98986">
        <ele>539.95</ele>
        <time>2026-07-01T07:27:19Z</time>
      </trkpt>
      <trkpt lat="44.09277" lon="5.98936">
        <ele>539.17</ele>
        <time>2026-07-01T07:27:28Z</time>
      </trkpt>
      <trkpt lat="44.0928" lon="5.98912">
        <ele>538.71</ele>
        <time>2026-07-01T07:27:33Z</time>
      </trkpt>
      <trkpt lat="44.09281" lon="5.98909">
        <ele>538.73</ele>
        <time>2026-07-01T07:27:34Z</time>
      </trkpt>
      <trkpt lat="44.0928" lon="5.98906">
        <ele>538.83</ele>
        <time>2026-07-01T07:27:48Z</time>
      </trkpt>
      <trkpt lat="44.0928" lon="5.98902">
        <ele>538.72</ele>
        <time>2026-07-01T07:28:27Z</time>
      </trkpt>
      <trkpt lat="44.09281" lon="5.98901">
        <ele>538.71</ele>
        <time>2026-07-01T07:28:34Z</time>
      </trkpt>
      <trkpt lat="44.0928" lon="5.98899">
        <ele>538.92</ele>
        <time>2026-07-01T07:28:35Z</time>
      </trkpt>
      <trkpt lat="44.0928" lon="5.98896">
        <ele>538.93</ele>
        <time>2026-07-01T07:28:36Z</time>
      </trkpt>
      <trkpt lat="44.09279" lon="5.98893">
        <ele>538.97</ele>
        <time>2026-07-01T07:28:37Z</time>
      </trkpt>
      <trkpt lat="44.09279" lon="5.98889">
        <ele>538.99</ele>
        <time>2026-07-01T07:28:38Z</time>
      </trkpt>
      <trkpt lat="44.09278" lon="5.98882">
        <ele>538.85</ele>
        <time>2026-07-01T07:28:40Z</time>
      </trkpt>
      <trkpt lat="44.09278" lon="5.9888">
        <ele>538.91</ele>
        <time>2026-07-01T07:28:41Z</time>
      </trkpt>
      <trkpt lat="44.09279" lon="5.98878">
        <ele>538.88</ele>
        <time>2026-07-01T07:28:53Z</time>
      </trkpt>
      <trkpt lat="44.09278" lon="5.98872">
        <ele>537.77</ele>
        <time>2026-07-01T07:28:56Z</time>
      </trkpt>
      <trkpt lat="44.09278" lon="5.98869">
        <ele>537.77</ele>
        <time>2026-07-01T07:28:57Z</time>
      </trkpt>
      <trkpt lat="44.09279" lon="5.98866">
        <ele>539.33</ele>
        <time>2026-07-01T07:28:58Z</time>
      </trkpt>
      <trkpt lat="44.0928" lon="5.98863">
        <ele>539.28</ele>
        <time>2026-07-01T07:28:59Z</time>
      </trkpt>
      <trkpt lat="44.09288" lon="5.98822">
        <ele>540.64</ele>
        <time>2026-07-01T07:29:11Z</time>
      </trkpt>
      <trkpt lat="44.09287" lon="5.98807">
        <ele>542.29</ele>
        <time>2026-07-01T07:29:16Z</time>
      </trkpt>
      <trkpt lat="44.09287" lon="5.98805">
        <ele>542.4</ele>
        <time>2026-07-01T07:29:17Z</time>
      </trkpt>
      <trkpt lat="44.09288" lon="5.98802">
        <ele>542.56</ele>
        <time>2026-07-01T07:29:18Z</time>
      </trkpt>
      <trkpt lat="44.09296" lon="5.98775">
        <ele>543.76</ele>
        <time>2026-07-01T07:29:29Z</time>
      </trkpt>
      <trkpt lat="44.09298" lon="5.98773">
        <ele>544.21</ele>
        <time>2026-07-01T07:29:30Z</time>
      </trkpt>
      <trkpt lat="44.09299" lon="5.98772">
        <ele>544.44</ele>
        <time>2026-07-01T07:29:31Z</time>
      </trkpt>
      <trkpt lat="44.093" lon="5.9877">
        <ele>544.79</ele>
        <time>2026-07-01T07:29:32Z</time>
      </trkpt>
      <trkpt lat="44.09301" lon="5.98768">
        <ele>545.28</ele>
        <time>2026-07-01T07:29:33Z</time>
      </trkpt>
      <trkpt lat="44.09315" lon="5.98745">
        <ele>548.36</ele>
        <time>2026-07-01T07:29:46Z</time>
      </trkpt>
      <trkpt lat="44.09319" lon="5.98742">
        <ele>548.48</ele>
        <time>2026-07-01T07:30:00Z</time>
      </trkpt>
      <trkpt lat="44.09327" lon="5.98732">
        <ele>549.5</ele>
        <time>2026-07-01T07:30:11Z</time>
      </trkpt>
      <trkpt lat="44.09332" lon="5.98715">
        <ele>551.61</ele>
        <time>2026-07-01T07:30:24Z</time>
      </trkpt>
      <trkpt lat="44.09333" lon="5.98707">
        <ele>551.51</ele>
        <time>2026-07-01T07:30:43Z</time>
      </trkpt>
      <trkpt lat="44.09334" lon="5.98706">
        <ele>551.73</ele>
        <time>2026-07-01T07:30:44Z</time>
      </trkpt>
      <trkpt lat="44.09334" lon="5.98704">
        <ele>551.9</ele>
        <time>2026-07-01T07:30:45Z</time>
      </trkpt>
      <trkpt lat="44.09336" lon="5.98692">
        <ele>552.35</ele>
        <time>2026-07-01T07:30:51Z</time>
      </trkpt>
      <trkpt lat="44.09337" lon="5.9869">
        <ele>552.46</ele>
        <time>2026-07-01T07:30:52Z</time>
      </trkpt>
      <trkpt lat="44.09337" lon="5.98689">
        <ele>552.55</ele>
        <time>2026-07-01T07:30:53Z</time>
      </trkpt>
      <trkpt lat="44.09338" lon="5.98686">
        <ele>552.6</ele>
        <time>2026-07-01T07:30:54Z</time>
      </trkpt>
      <trkpt lat="44.09338" lon="5.98684">
        <ele>552.74</ele>
        <time>2026-07-01T07:30:55Z</time>
      </trkpt>
      <trkpt lat="44.09338" lon="5.98682">
        <ele>552.88</ele>
        <time>2026-07-01T07:30:56Z</time>
      </trkpt>
      <trkpt lat="44.09339" lon="5.9868">
        <ele>552.97</ele>
        <time>2026-07-01T07:30:57Z</time>
      </trkpt>
      <trkpt lat="44.0934" lon="5.98678">
        <ele>553.29</ele>
        <time>2026-07-01T07:30:58Z</time>
      </trkpt>
      <trkpt lat="44.09341" lon="5.98676">
        <ele>553.49</ele>
        <time>2026-07-01T07:30:59Z</time>
      </trkpt>
      <trkpt lat="44.09341" lon="5.98673">
        <ele>553.77</ele>
        <time>2026-07-01T07:31:00Z</time>
      </trkpt>
      <trkpt lat="44.09342" lon="5.98671">
        <ele>553.85</ele>
        <time>2026-07-01T07:31:01Z</time>
      </trkpt>
      <trkpt lat="44.09343" lon="5.98669">
        <ele>554.09</ele>
        <time>2026-07-01T07:31:02Z</time>
      </trkpt>
      <trkpt lat="44.09344" lon="5.98666">
        <ele>554.24</ele>
        <time>2026-07-01T07:31:03Z</time>
      </trkpt>
      <trkpt lat="44.09345" lon="5.98664">
        <ele>554.47</ele>
        <time>2026-07-01T07:31:04Z</time>
      </trkpt>
      <trkpt lat="44.09346" lon="5.98661">
        <ele>554.53</ele>
        <time>2026-07-01T07:31:05Z</time>
      </trkpt>
      <trkpt lat="44.09346" lon="5.98659">
        <ele>554.81</ele>
        <time>2026-07-01T07:31:06Z</time>
      </trkpt>
      <trkpt lat="44.09347" lon="5.98657">
        <ele>554.85</ele>
        <time>2026-07-01T07:31:07Z</time>
      </trkpt>
      <trkpt lat="44.09348" lon="5.98655">
        <ele>554.9</ele>
        <time>2026-07-01T07:31:08Z</time>
      </trkpt>
      <trkpt lat="44.09349" lon="5.98653">
        <ele>554.91</ele>
        <time>2026-07-01T07:31:09Z</time>
      </trkpt>
      <trkpt lat="44.09363" lon="5.98627">
        <ele>556.96</ele>
        <time>2026-07-01T07:31:23Z</time>
      </trkpt>
      <trkpt lat="44.09364" lon="5.98626">
        <ele>557.39</ele>
        <time>2026-07-01T07:31:24Z</time>
      </trkpt>
      <trkpt lat="44.09365" lon="5.98624">
        <ele>557.69</ele>
        <time>2026-07-01T07:31:25Z</time>
      </trkpt>
      <trkpt lat="44.09378" lon="5.98599">
        <ele>559.05</ele>
        <time>2026-07-01T07:31:38Z</time>
      </trkpt>
      <trkpt lat="44.09394" lon="5.98573">
        <ele>560.52</ele>
        <time>2026-07-01T07:31:52Z</time>
      </trkpt>
      <trkpt lat="44.09403" lon="5.98549">
        <ele>563.56</ele>
        <time>2026-07-01T07:32:04Z</time>
      </trkpt>
      <trkpt lat="44.09406" lon="5.98544">
        <ele>563.84</ele>
        <time>2026-07-01T07:32:07Z</time>
      </trkpt>
      <trkpt lat="44.09407" lon="5.98542">
        <ele>563.83</ele>
        <time>2026-07-01T07:32:08Z</time>
      </trkpt>
      <trkpt lat="44.09408" lon="5.9854">
        <ele>563.92</ele>
        <time>2026-07-01T07:32:09Z</time>
      </trkpt>
      <trkpt lat="44.09408" lon="5.98539">
        <ele>563.9</ele>
        <time>2026-07-01T07:32:10Z</time>
      </trkpt>
      <trkpt lat="44.09409" lon="5.98537">
        <ele>564.04</ele>
        <time>2026-07-01T07:32:11Z</time>
      </trkpt>
      <trkpt lat="44.09413" lon="5.98511">
        <ele>565.07</ele>
        <time>2026-07-01T07:32:24Z</time>
      </trkpt>
      <trkpt lat="44.09414" lon="5.98509">
        <ele>565.29</ele>
        <time>2026-07-01T07:32:25Z</time>
      </trkpt>
      <trkpt lat="44.09414" lon="5.98507">
        <ele>565.31</ele>
        <time>2026-07-01T07:32:26Z</time>
      </trkpt>
      <trkpt lat="44.09415" lon="5.98505">
        <ele>565.43</ele>
        <time>2026-07-01T07:32:27Z</time>
      </trkpt>
      <trkpt lat="44.09416" lon="5.98503">
        <ele>565.63</ele>
        <time>2026-07-01T07:32:28Z</time>
      </trkpt>
      <trkpt lat="44.09416" lon="5.98501">
        <ele>565.62</ele>
        <time>2026-07-01T07:32:29Z</time>
      </trkpt>
      <trkpt lat="44.09417" lon="5.98499">
        <ele>565.94</ele>
        <time>2026-07-01T07:32:30Z</time>
      </trkpt>
      <trkpt lat="44.09418" lon="5.98487">
        <ele>566.84</ele>
        <time>2026-07-01T07:32:36Z</time>
      </trkpt>
      <trkpt lat="44.09419" lon="5.98483">
        <ele>566.96</ele>
        <time>2026-07-01T07:32:38Z</time>
      </trkpt>
      <trkpt lat="44.09419" lon="5.98481">
        <ele>567.05</ele>
        <time>2026-07-01T07:32:39Z</time>
      </trkpt>
      <trkpt lat="44.09419" lon="5.98479">
        <ele>567.19</ele>
        <time>2026-07-01T07:32:40Z</time>
      </trkpt>
      <trkpt lat="44.0942" lon="5.98477">
        <ele>567.36</ele>
        <time>2026-07-01T07:32:41Z</time>
      </trkpt>
      <trkpt lat="44.0942" lon="5.98474">
        <ele>567.74</ele>
        <time>2026-07-01T07:32:42Z</time>
      </trkpt>
      <trkpt lat="44.0942" lon="5.98471">
        <ele>568.01</ele>
        <time>2026-07-01T07:32:43Z</time>
      </trkpt>
      <trkpt lat="44.0942" lon="5.98469">
        <ele>568.35</ele>
        <time>2026-07-01T07:32:44Z</time>
      </trkpt>
      <trkpt lat="44.09419" lon="5.98466">
        <ele>568.56</ele>
        <time>2026-07-01T07:32:45Z</time>
      </trkpt>
      <trkpt lat="44.09419" lon="5.98464">
        <ele>568.74</ele>
        <time>2026-07-01T07:32:46Z</time>
      </trkpt>
      <trkpt lat="44.09419" lon="5.98462">
        <ele>568.47</ele>
        <time>2026-07-01T07:32:47Z</time>
      </trkpt>
      <trkpt lat="44.09419" lon="5.98458">
        <ele>568.4</ele>
        <time>2026-07-01T07:32:58Z</time>
      </trkpt>
      <trkpt lat="44.09419" lon="5.98457">
        <ele>568.49</ele>
        <time>2026-07-01T07:32:59Z</time>
      </trkpt>
      <trkpt lat="44.09419" lon="5.98455">
        <ele>568.33</ele>
        <time>2026-07-01T07:33:00Z</time>
      </trkpt>
      <trkpt lat="44.09419" lon="5.98452">
        <ele>568.37</ele>
        <time>2026-07-01T07:33:01Z</time>
      </trkpt>
      <trkpt lat="44.09419" lon="5.9845">
        <ele>568.2</ele>
        <time>2026-07-01T07:33:02Z</time>
      </trkpt>
      <trkpt lat="44.09419" lon="5.98447">
        <ele>568.33</ele>
        <time>2026-07-01T07:33:03Z</time>
      </trkpt>
      <trkpt lat="44.09419" lon="5.98444">
        <ele>568.42</ele>
        <time>2026-07-01T07:33:04Z</time>
      </trkpt>
      <trkpt lat="44.09419" lon="5.98442">
        <ele>568.45</ele>
        <time>2026-07-01T07:33:05Z</time>
      </trkpt>
      <trkpt lat="44.09419" lon="5.98439">
        <ele>568.31</ele>
        <time>2026-07-01T07:33:06Z</time>
      </trkpt>
      <trkpt lat="44.09419" lon="5.98437">
        <ele>568.49</ele>
        <time>2026-07-01T07:33:07Z</time>
      </trkpt>
      <trkpt lat="44.09419" lon="5.98435">
        <ele>568.64</ele>
        <time>2026-07-01T07:33:08Z</time>
      </trkpt>
      <trkpt lat="44.09418" lon="5.98433">
        <ele>568.83</ele>
        <time>2026-07-01T07:33:09Z</time>
      </trkpt>
      <trkpt lat="44.09418" lon="5.98431">
        <ele>568.74</ele>
        <time>2026-07-01T07:33:10Z</time>
      </trkpt>
      <trkpt lat="44.09418" lon="5.98429">
        <ele>568.9</ele>
        <time>2026-07-01T07:33:11Z</time>
      </trkpt>
      <trkpt lat="44.09418" lon="5.98427">
        <ele>569.15</ele>
        <time>2026-07-01T07:33:12Z</time>
      </trkpt>
      <trkpt lat="44.09418" lon="5.98425">
        <ele>569.17</ele>
        <time>2026-07-01T07:33:13Z</time>
      </trkpt>
      <trkpt lat="44.09417" lon="5.98423">
        <ele>569.37</ele>
        <time>2026-07-01T07:33:14Z</time>
      </trkpt>
      <trkpt lat="44.09415" lon="5.98399">
        <ele>570.49</ele>
        <time>2026-07-01T07:33:24Z</time>
      </trkpt>
      <trkpt lat="44.09415" lon="5.98391">
        <ele>570.69</ele>
        <time>2026-07-01T07:33:27Z</time>
      </trkpt>
      <trkpt lat="44.09415" lon="5.98389">
        <ele>570.92</ele>
        <time>2026-07-01T07:33:28Z</time>
      </trkpt>
      <trkpt lat="44.09415" lon="5.98387">
        <ele>570.8</ele>
        <time>2026-07-01T07:33:29Z</time>
      </trkpt>
      <trkpt lat="44.09415" lon="5.98383">
        <ele>570.92</ele>
        <time>2026-07-01T07:33:46Z</time>
      </trkpt>
      <trkpt lat="44.09414" lon="5.9838">
        <ele>571.03</ele>
        <time>2026-07-01T07:34:05Z</time>
      </trkpt>
      <trkpt lat="44.09414" lon="5.98377">
        <ele>571.02</ele>
        <time>2026-07-01T07:34:08Z</time>
      </trkpt>
      <trkpt lat="44.09414" lon="5.98376">
        <ele>570.98</ele>
        <time>2026-07-01T07:34:09Z</time>
      </trkpt>
      <trkpt lat="44.09415" lon="5.98374">
        <ele>571.03</ele>
        <time>2026-07-01T07:34:10Z</time>
      </trkpt>
      <trkpt lat="44.09415" lon="5.98372">
        <ele>571.08</ele>
        <time>2026-07-01T07:34:11Z</time>
      </trkpt>
      <trkpt lat="44.09416" lon="5.98369">
        <ele>571.04</ele>
        <time>2026-07-01T07:34:12Z</time>
      </trkpt>
      <trkpt lat="44.09421" lon="5.98339">
        <ele>571.91</ele>
        <time>2026-07-01T07:34:25Z</time>
      </trkpt>
      <trkpt lat="44.09422" lon="5.98334">
        <ele>572.23</ele>
        <time>2026-07-01T07:34:32Z</time>
      </trkpt>
      <trkpt lat="44.09422" lon="5.98332">
        <ele>572.4</ele>
        <time>2026-07-01T07:34:33Z</time>
      </trkpt>
      <trkpt lat="44.09422" lon="5.9833">
        <ele>572.49</ele>
        <time>2026-07-01T07:34:34Z</time>
      </trkpt>
      <trkpt lat="44.09423" lon="5.98327">
        <ele>572.73</ele>
        <time>2026-07-01T07:34:35Z</time>
      </trkpt>
      <trkpt lat="44.09424" lon="5.98325">
        <ele>573.18</ele>
        <time>2026-07-01T07:34:36Z</time>
      </trkpt>
      <trkpt lat="44.09428" lon="5.98301">
        <ele>575.39</ele>
        <time>2026-07-01T07:34:47Z</time>
      </trkpt>
      <trkpt lat="44.09427" lon="5.98297">
        <ele>575.87</ele>
        <time>2026-07-01T07:34:49Z</time>
      </trkpt>
      <trkpt lat="44.09427" lon="5.98295">
        <ele>576.17</ele>
        <time>2026-07-01T07:34:50Z</time>
      </trkpt>
      <trkpt lat="44.09428" lon="5.98292">
        <ele>576.11</ele>
        <time>2026-07-01T07:34:51Z</time>
      </trkpt>
      <trkpt lat="44.09428" lon="5.9829">
        <ele>576.24</ele>
        <time>2026-07-01T07:34:52Z</time>
      </trkpt>
      <trkpt lat="44.09429" lon="5.98288">
        <ele>576.32</ele>
        <time>2026-07-01T07:34:53Z</time>
      </trkpt>
      <trkpt lat="44.09429" lon="5.98286">
        <ele>576.39</ele>
        <time>2026-07-01T07:34:54Z</time>
      </trkpt>
      <trkpt lat="44.09429" lon="5.98284">
        <ele>576.62</ele>
        <time>2026-07-01T07:34:55Z</time>
      </trkpt>
      <trkpt lat="44.0943" lon="5.98283">
        <ele>576.58</ele>
        <time>2026-07-01T07:34:56Z</time>
      </trkpt>
      <trkpt lat="44.0943" lon="5.98281">
        <ele>576.83</ele>
        <time>2026-07-01T07:34:57Z</time>
      </trkpt>
      <trkpt lat="44.09432" lon="5.98276">
        <ele>576.12</ele>
        <time>2026-07-01T07:35:15Z</time>
      </trkpt>
      <trkpt lat="44.09431" lon="5.98274">
        <ele>576.37</ele>
        <time>2026-07-01T07:35:36Z</time>
      </trkpt>
      <trkpt lat="44.09431" lon="5.98272">
        <ele>576.31</ele>
        <time>2026-07-01T07:35:37Z</time>
      </trkpt>
      <trkpt lat="44.0943" lon="5.9827">
        <ele>576.44</ele>
        <time>2026-07-01T07:35:38Z</time>
      </trkpt>
      <trkpt lat="44.09429" lon="5.98267">
        <ele>576.63</ele>
        <time>2026-07-01T07:35:39Z</time>
      </trkpt>
      <trkpt lat="44.09429" lon="5.98265">
        <ele>576.83</ele>
        <time>2026-07-01T07:35:40Z</time>
      </trkpt>
      <trkpt lat="44.09429" lon="5.98262">
        <ele>577.17</ele>
        <time>2026-07-01T07:35:41Z</time>
      </trkpt>
      <trkpt lat="44.09429" lon="5.98259">
        <ele>577.24</ele>
        <time>2026-07-01T07:35:42Z</time>
      </trkpt>
      <trkpt lat="44.09429" lon="5.98256">
        <ele>577.52</ele>
        <time>2026-07-01T07:35:43Z</time>
      </trkpt>
      <trkpt lat="44.0943" lon="5.98253">
        <ele>577.62</ele>
        <time>2026-07-01T07:35:44Z</time>
      </trkpt>
      <trkpt lat="44.09432" lon="5.98251">
        <ele>578.38</ele>
        <time>2026-07-01T07:35:45Z</time>
      </trkpt>
      <trkpt lat="44.09433" lon="5.98249">
        <ele>578.56</ele>
        <time>2026-07-01T07:35:46Z</time>
      </trkpt>
      <trkpt lat="44.09434" lon="5.98247">
        <ele>578.88</ele>
        <time>2026-07-01T07:35:47Z</time>
      </trkpt>
      <trkpt lat="44.09437" lon="5.98238">
        <ele>579.65</ele>
        <time>2026-07-01T07:35:51Z</time>
      </trkpt>
      <trkpt lat="44.09436" lon="5.98235">
        <ele>579.75</ele>
        <time>2026-07-01T07:35:52Z</time>
      </trkpt>
      <trkpt lat="44.0943" lon="5.98212">
        <ele>580.37</ele>
        <time>2026-07-01T07:36:02Z</time>
      </trkpt>
      <trkpt lat="44.0943" lon="5.98209">
        <ele>580.51</ele>
        <time>2026-07-01T07:36:03Z</time>
      </trkpt>
      <trkpt lat="44.09431" lon="5.98208">
        <ele>580.78</ele>
        <time>2026-07-01T07:36:04Z</time>
      </trkpt>
      <trkpt lat="44.09432" lon="5.98206">
        <ele>580.8</ele>
        <time>2026-07-01T07:36:05Z</time>
      </trkpt>
      <trkpt lat="44.09432" lon="5.98204">
        <ele>580.97</ele>
        <time>2026-07-01T07:36:06Z</time>
      </trkpt>
      <trkpt lat="44.09433" lon="5.98201">
        <ele>581.29</ele>
        <time>2026-07-01T07:36:07Z</time>
      </trkpt>
      <trkpt lat="44.09434" lon="5.98199">
        <ele>581.48</ele>
        <time>2026-07-01T07:36:08Z</time>
      </trkpt>
      <trkpt lat="44.09434" lon="5.98196">
        <ele>581.92</ele>
        <time>2026-07-01T07:36:09Z</time>
      </trkpt>
      <trkpt lat="44.09434" lon="5.98194">
        <ele>581.97</ele>
        <time>2026-07-01T07:36:10Z</time>
      </trkpt>
      <trkpt lat="44.09434" lon="5.98191">
        <ele>582.15</ele>
        <time>2026-07-01T07:36:11Z</time>
      </trkpt>
      <trkpt lat="44.09434" lon="5.98189">
        <ele>582.25</ele>
        <time>2026-07-01T07:36:12Z</time>
      </trkpt>
      <trkpt lat="44.09434" lon="5.98186">
        <ele>582.28</ele>
        <time>2026-07-01T07:36:13Z</time>
      </trkpt>
      <trkpt lat="44.09434" lon="5.98183">
        <ele>582.38</ele>
        <time>2026-07-01T07:36:14Z</time>
      </trkpt>
      <trkpt lat="44.09434" lon="5.9818">
        <ele>582.49</ele>
        <time>2026-07-01T07:36:15Z</time>
      </trkpt>
      <trkpt lat="44.09434" lon="5.98177">
        <ele>582.6</ele>
        <time>2026-07-01T07:36:16Z</time>
      </trkpt>
      <trkpt lat="44.09434" lon="5.98174">
        <ele>582.98</ele>
        <time>2026-07-01T07:36:17Z</time>
      </trkpt>
      <trkpt lat="44.09434" lon="5.9817">
        <ele>583.4</ele>
        <time>2026-07-01T07:36:18Z</time>
      </trkpt>
      <trkpt lat="44.09434" lon="5.98168">
        <ele>583.6</ele>
        <time>2026-07-01T07:36:19Z</time>
      </trkpt>
      <trkpt lat="44.09434" lon="5.98165">
        <ele>583.9</ele>
        <time>2026-07-01T07:36:20Z</time>
      </trkpt>
      <trkpt lat="44.09435" lon="5.98148">
        <ele>584.68</ele>
        <time>2026-07-01T07:36:33Z</time>
      </trkpt>
      <trkpt lat="44.09443" lon="5.9813">
        <ele>585.24</ele>
        <time>2026-07-01T07:36:49Z</time>
      </trkpt>
      <trkpt lat="44.09456" lon="5.98113">
        <ele>586.57</ele>
        <time>2026-07-01T07:36:58Z</time>
      </trkpt>
      <trkpt lat="44.09456" lon="5.98112">
        <ele>586.75</ele>
        <time>2026-07-01T07:36:59Z</time>
      </trkpt>
      <trkpt lat="44.09456" lon="5.9811">
        <ele>586.89</ele>
        <time>2026-07-01T07:37:00Z</time>
      </trkpt>
      <trkpt lat="44.09457" lon="5.98107">
        <ele>587.01</ele>
        <time>2026-07-01T07:37:01Z</time>
      </trkpt>
      <trkpt lat="44.09457" lon="5.98105">
        <ele>587.19</ele>
        <time>2026-07-01T07:37:02Z</time>
      </trkpt>
      <trkpt lat="44.09461" lon="5.98095">
        <ele>587.17</ele>
        <time>2026-07-01T07:37:10Z</time>
      </trkpt>
      <trkpt lat="44.09462" lon="5.98094">
        <ele>587.24</ele>
        <time>2026-07-01T07:37:11Z</time>
      </trkpt>
      <trkpt lat="44.09464" lon="5.98093">
        <ele>587.42</ele>
        <time>2026-07-01T07:37:12Z</time>
      </trkpt>
      <trkpt lat="44.09474" lon="5.98087">
        <ele>589.28</ele>
        <time>2026-07-01T07:37:22Z</time>
      </trkpt>
      <trkpt lat="44.09479" lon="5.98084">
        <ele>589.74</ele>
        <time>2026-07-01T07:37:27Z</time>
      </trkpt>
      <trkpt lat="44.0948" lon="5.98084">
        <ele>589.45</ele>
        <time>2026-07-01T07:37:46Z</time>
      </trkpt>
      <trkpt lat="44.0948" lon="5.98082">
        <ele>589.93</ele>
        <time>2026-07-01T07:37:58Z</time>
      </trkpt>
      <trkpt lat="44.09482" lon="5.98078">
        <ele>589.93</ele>
        <time>2026-07-01T07:38:00Z</time>
      </trkpt>
      <trkpt lat="44.09484" lon="5.98076">
        <ele>590.26</ele>
        <time>2026-07-01T07:38:01Z</time>
      </trkpt>
      <trkpt lat="44.09485" lon="5.98074">
        <ele>590.37</ele>
        <time>2026-07-01T07:38:02Z</time>
      </trkpt>
      <trkpt lat="44.09486" lon="5.98073">
        <ele>590.66</ele>
        <time>2026-07-01T07:38:03Z</time>
      </trkpt>
      <trkpt lat="44.09487" lon="5.98071">
        <ele>590.6</ele>
        <time>2026-07-01T07:38:04Z</time>
      </trkpt>
      <trkpt lat="44.09489" lon="5.9807">
        <ele>590.83</ele>
        <time>2026-07-01T07:38:05Z</time>
      </trkpt>
      <trkpt lat="44.09491" lon="5.9807">
        <ele>590.96</ele>
        <time>2026-07-01T07:38:06Z</time>
      </trkpt>
      <trkpt lat="44.09513" lon="5.98048">
        <ele>593.6</ele>
        <time>2026-07-01T07:38:20Z</time>
      </trkpt>
      <trkpt lat="44.09515" lon="5.98047">
        <ele>593.54</ele>
        <time>2026-07-01T07:38:21Z</time>
      </trkpt>
      <trkpt lat="44.09516" lon="5.98046">
        <ele>593.57</ele>
        <time>2026-07-01T07:38:22Z</time>
      </trkpt>
      <trkpt lat="44.09518" lon="5.98045">
        <ele>594.06</ele>
        <time>2026-07-01T07:38:23Z</time>
      </trkpt>
      <trkpt lat="44.0952" lon="5.98044">
        <ele>594.02</ele>
        <time>2026-07-01T07:38:24Z</time>
      </trkpt>
      <trkpt lat="44.09521" lon="5.98042">
        <ele>594.21</ele>
        <time>2026-07-01T07:38:25Z</time>
      </trkpt>
      <trkpt lat="44.09523" lon="5.9804">
        <ele>594.49</ele>
        <time>2026-07-01T07:38:26Z</time>
      </trkpt>
      <trkpt lat="44.09524" lon="5.98038">
        <ele>594.65</ele>
        <time>2026-07-01T07:38:27Z</time>
      </trkpt>
      <trkpt lat="44.09525" lon="5.98036">
        <ele>594.86</ele>
        <time>2026-07-01T07:38:28Z</time>
      </trkpt>
      <trkpt lat="44.09526" lon="5.98034">
        <ele>595.15</ele>
        <time>2026-07-01T07:38:29Z</time>
      </trkpt>
      <trkpt lat="44.09526" lon="5.98031">
        <ele>595.28</ele>
        <time>2026-07-01T07:38:30Z</time>
      </trkpt>
      <trkpt lat="44.09546" lon="5.98009">
        <ele>597.31</ele>
        <time>2026-07-01T07:38:44Z</time>
      </trkpt>
      <trkpt lat="44.0955" lon="5.98005">
        <ele>597.72</ele>
        <time>2026-07-01T07:38:47Z</time>
      </trkpt>
      <trkpt lat="44.09551" lon="5.98003">
        <ele>597.79</ele>
        <time>2026-07-01T07:38:48Z</time>
      </trkpt>
      <trkpt lat="44.09552" lon="5.98001">
        <ele>597.88</ele>
        <time>2026-07-01T07:38:49Z</time>
      </trkpt>
      <trkpt lat="44.09554" lon="5.97999">
        <ele>597.89</ele>
        <time>2026-07-01T07:38:50Z</time>
      </trkpt>
      <trkpt lat="44.09555" lon="5.97997">
        <ele>597.87</ele>
        <time>2026-07-01T07:38:51Z</time>
      </trkpt>
      <trkpt lat="44.09558" lon="5.97996">
        <ele>597.67</ele>
        <time>2026-07-01T07:38:52Z</time>
      </trkpt>
      <trkpt lat="44.0956" lon="5.97995">
        <ele>597.51</ele>
        <time>2026-07-01T07:38:53Z</time>
      </trkpt>
      <trkpt lat="44.09596" lon="5.97984">
        <ele>594.49</ele>
        <time>2026-07-01T07:39:05Z</time>
      </trkpt>
      <trkpt lat="44.09597" lon="5.97986">
        <ele>594.43</ele>
        <time>2026-07-01T07:39:06Z</time>
      </trkpt>
      <trkpt lat="44.09598" lon="5.97988">
        <ele>594.26</ele>
        <time>2026-07-01T07:39:07Z</time>
      </trkpt>
      <trkpt lat="44.09598" lon="5.9799">
        <ele>594.27</ele>
        <time>2026-07-01T07:39:08Z</time>
      </trkpt>
      <trkpt lat="44.09598" lon="5.97992">
        <ele>593.97</ele>
        <time>2026-07-01T07:39:09Z</time>
      </trkpt>
      <trkpt lat="44.09597" lon="5.97994">
        <ele>593.88</ele>
        <time>2026-07-01T07:39:10Z</time>
      </trkpt>
      <trkpt lat="44.09596" lon="5.97996">
        <ele>593.92</ele>
        <time>2026-07-01T07:39:11Z</time>
      </trkpt>
      <trkpt lat="44.09591" lon="5.98013">
        <ele>595.49</ele>
        <time>2026-07-01T07:39:20Z</time>
      </trkpt>
      <trkpt lat="44.0959" lon="5.98015">
        <ele>595.73</ele>
        <time>2026-07-01T07:39:21Z</time>
      </trkpt>
      <trkpt lat="44.0959" lon="5.98021">
        <ele>596.06</ele>
        <time>2026-07-01T07:39:25Z</time>
      </trkpt>
      <trkpt lat="44.0959" lon="5.98023">
        <ele>595.98</ele>
        <time>2026-07-01T07:39:26Z</time>
      </trkpt>
      <trkpt lat="44.09591" lon="5.98032">
        <ele>596.67</ele>
        <time>2026-07-01T07:39:31Z</time>
      </trkpt>
      <trkpt lat="44.09592" lon="5.98034">
        <ele>596.75</ele>
        <time>2026-07-01T07:39:32Z</time>
      </trkpt>
      <trkpt lat="44.09592" lon="5.98036">
        <ele>596.7</ele>
        <time>2026-07-01T07:39:33Z</time>
      </trkpt>
      <trkpt lat="44.09593" lon="5.98038">
        <ele>596.75</ele>
        <time>2026-07-01T07:39:34Z</time>
      </trkpt>
      <trkpt lat="44.09594" lon="5.9804">
        <ele>596.65</ele>
        <time>2026-07-01T07:39:35Z</time>
      </trkpt>
      <trkpt lat="44.09596" lon="5.98041">
        <ele>596.92</ele>
        <time>2026-07-01T07:39:36Z</time>
      </trkpt>
      <trkpt lat="44.09597" lon="5.98042">
        <ele>597</ele>
        <time>2026-07-01T07:39:37Z</time>
      </trkpt>
      <trkpt lat="44.09599" lon="5.98043">
        <ele>597.16</ele>
        <time>2026-07-01T07:39:38Z</time>
      </trkpt>
      <trkpt lat="44.096" lon="5.98044">
        <ele>597.34</ele>
        <time>2026-07-01T07:39:39Z</time>
      </trkpt>
      <trkpt lat="44.09602" lon="5.98045">
        <ele>597.83</ele>
        <time>2026-07-01T07:39:40Z</time>
      </trkpt>
      <trkpt lat="44.09604" lon="5.98045">
        <ele>598.06</ele>
        <time>2026-07-01T07:39:42Z</time>
      </trkpt>
      <trkpt lat="44.09623" lon="5.9805">
        <ele>599.9</ele>
        <time>2026-07-01T07:39:53Z</time>
      </trkpt>
      <trkpt lat="44.09624" lon="5.98049">
        <ele>599.96</ele>
        <time>2026-07-01T07:39:54Z</time>
      </trkpt>
      <trkpt lat="44.09625" lon="5.98048">
        <ele>600.12</ele>
        <time>2026-07-01T07:39:55Z</time>
      </trkpt>
      <trkpt lat="44.09625" lon="5.98046">
        <ele>600.27</ele>
        <time>2026-07-01T07:39:56Z</time>
      </trkpt>
      <trkpt lat="44.09626" lon="5.98042">
        <ele>600.39</ele>
        <time>2026-07-01T07:40:02Z</time>
      </trkpt>
      <trkpt lat="44.09626" lon="5.9804">
        <ele>600.45</ele>
        <time>2026-07-01T07:40:03Z</time>
      </trkpt>
      <trkpt lat="44.09626" lon="5.98038">
        <ele>600.4</ele>
        <time>2026-07-01T07:40:04Z</time>
      </trkpt>
      <trkpt lat="44.09627" lon="5.98037">
        <ele>600.24</ele>
        <time>2026-07-01T07:40:05Z</time>
      </trkpt>
      <trkpt lat="44.09628" lon="5.98035">
        <ele>600.44</ele>
        <time>2026-07-01T07:40:06Z</time>
      </trkpt>
      <trkpt lat="44.09628" lon="5.98033">
        <ele>600.69</ele>
        <time>2026-07-01T07:40:07Z</time>
      </trkpt>
      <trkpt lat="44.09628" lon="5.98031">
        <ele>600.9</ele>
        <time>2026-07-01T07:40:08Z</time>
      </trkpt>
      <trkpt lat="44.09629" lon="5.98029">
        <ele>600.99</ele>
        <time>2026-07-01T07:40:09Z</time>
      </trkpt>
      <trkpt lat="44.0963" lon="5.98027">
        <ele>600.74</ele>
        <time>2026-07-01T07:40:10Z</time>
      </trkpt>
      <trkpt lat="44.09631" lon="5.98024">
        <ele>600.94</ele>
        <time>2026-07-01T07:40:11Z</time>
      </trkpt>
      <trkpt lat="44.09632" lon="5.98022">
        <ele>601.36</ele>
        <time>2026-07-01T07:40:12Z</time>
      </trkpt>
      <trkpt lat="44.09641" lon="5.97982">
        <ele>603.58</ele>
        <time>2026-07-01T07:40:29Z</time>
      </trkpt>
      <trkpt lat="44.09661" lon="5.9796">
        <ele>606.66</ele>
        <time>2026-07-01T07:40:44Z</time>
      </trkpt>
      <trkpt lat="44.0968" lon="5.97919">
        <ele>609.62</ele>
        <time>2026-07-01T07:41:03Z</time>
      </trkpt>
      <trkpt lat="44.09694" lon="5.97883">
        <ele>611.25</ele>
        <time>2026-07-01T07:41:18Z</time>
      </trkpt>
      <trkpt lat="44.09697" lon="5.97882">
        <ele>611.4</ele>
        <time>2026-07-01T07:41:19Z</time>
      </trkpt>
      <trkpt lat="44.09699" lon="5.97882">
        <ele>611.41</ele>
        <time>2026-07-01T07:41:20Z</time>
      </trkpt>
      <trkpt lat="44.09708" lon="5.97881">
        <ele>613.19</ele>
        <time>2026-07-01T07:41:24Z</time>
      </trkpt>
      <trkpt lat="44.0971" lon="5.97903">
        <ele>614.68</ele>
        <time>2026-07-01T07:41:35Z</time>
      </trkpt>
      <trkpt lat="44.09707" lon="5.9792">
        <ele>616.27</ele>
        <time>2026-07-01T07:41:49Z</time>
      </trkpt>
      <trkpt lat="44.09706" lon="5.97924">
        <ele>616.26</ele>
        <time>2026-07-01T07:42:00Z</time>
      </trkpt>
      <trkpt lat="44.09705" lon="5.97926">
        <ele>616.3</ele>
        <time>2026-07-01T07:42:01Z</time>
      </trkpt>
      <trkpt lat="44.09704" lon="5.97929">
        <ele>616.73</ele>
        <time>2026-07-01T07:42:02Z</time>
      </trkpt>
      <trkpt lat="44.09703" lon="5.97931">
        <ele>616.96</ele>
        <time>2026-07-01T07:42:03Z</time>
      </trkpt>
      <trkpt lat="44.09702" lon="5.97934">
        <ele>617.28</ele>
        <time>2026-07-01T07:42:04Z</time>
      </trkpt>
      <trkpt lat="44.09702" lon="5.97978">
        <ele>619.72</ele>
        <time>2026-07-01T07:42:21Z</time>
      </trkpt>
      <trkpt lat="44.09726" lon="5.97994">
        <ele>622.37</ele>
        <time>2026-07-01T07:42:35Z</time>
      </trkpt>
      <trkpt lat="44.09751" lon="5.9799">
        <ele>624.55</ele>
        <time>2026-07-01T07:42:48Z</time>
      </trkpt>
      <trkpt lat="44.09771" lon="5.97973">
        <ele>625.42</ele>
        <time>2026-07-01T07:43:00Z</time>
      </trkpt>
      <trkpt lat="44.09794" lon="5.97937">
        <ele>625.99</ele>
        <time>2026-07-01T07:43:16Z</time>
      </trkpt>
      <trkpt lat="44.09818" lon="5.97901">
        <ele>628.93</ele>
        <time>2026-07-01T07:43:33Z</time>
      </trkpt>
      <trkpt lat="44.09834" lon="5.97871">
        <ele>631.56</ele>
        <time>2026-07-01T07:43:46Z</time>
      </trkpt>
      <trkpt lat="44.09842" lon="5.97839">
        <ele>634.73</ele>
        <time>2026-07-01T07:43:59Z</time>
      </trkpt>
      <trkpt lat="44.09843" lon="5.97833">
        <ele>634.92</ele>
        <time>2026-07-01T07:44:01Z</time>
      </trkpt>
      <trkpt lat="44.09844" lon="5.97831">
        <ele>635.09</ele>
        <time>2026-07-01T07:44:02Z</time>
      </trkpt>
      <trkpt lat="44.09844" lon="5.97828">
        <ele>635.39</ele>
        <time>2026-07-01T07:44:03Z</time>
      </trkpt>
      <trkpt lat="44.09845" lon="5.97826">
        <ele>635.38</ele>
        <time>2026-07-01T07:44:04Z</time>
      </trkpt>
      <trkpt lat="44.09846" lon="5.97824">
        <ele>635.69</ele>
        <time>2026-07-01T07:44:05Z</time>
      </trkpt>
      <trkpt lat="44.09867" lon="5.97796">
        <ele>638.19</ele>
        <time>2026-07-01T07:44:20Z</time>
      </trkpt>
      <trkpt lat="44.0988" lon="5.97762">
        <ele>639.13</ele>
        <time>2026-07-01T07:44:34Z</time>
      </trkpt>
      <trkpt lat="44.09892" lon="5.97725">
        <ele>640.47</ele>
        <time>2026-07-01T07:44:49Z</time>
      </trkpt>
      <trkpt lat="44.09905" lon="5.97684">
        <ele>642.33</ele>
        <time>2026-07-01T07:45:06Z</time>
      </trkpt>
      <trkpt lat="44.09919" lon="5.97633">
        <ele>645.29</ele>
        <time>2026-07-01T07:45:27Z</time>
      </trkpt>
      <trkpt lat="44.09939" lon="5.97596">
        <ele>647.91</ele>
        <time>2026-07-01T07:45:45Z</time>
      </trkpt>
      <trkpt lat="44.09966" lon="5.97569">
        <ele>650.31</ele>
        <time>2026-07-01T07:46:02Z</time>
      </trkpt>
      <trkpt lat="44.09991" lon="5.9756">
        <ele>653.07</ele>
        <time>2026-07-01T07:46:17Z</time>
      </trkpt>
      <trkpt lat="44.10004" lon="5.9755">
        <ele>656.46</ele>
        <time>2026-07-01T07:46:26Z</time>
      </trkpt>
      <trkpt lat="44.10007" lon="5.97549">
        <ele>657.41</ele>
        <time>2026-07-01T07:46:28Z</time>
      </trkpt>
      <trkpt lat="44.10008" lon="5.9755">
        <ele>657.61</ele>
        <time>2026-07-01T07:46:29Z</time>
      </trkpt>
      <trkpt lat="44.10007" lon="5.97556">
        <ele>657.18</ele>
        <time>2026-07-01T07:46:35Z</time>
      </trkpt>
      <trkpt lat="44.10006" lon="5.97561">
        <ele>656.99</ele>
        <time>2026-07-01T07:46:37Z</time>
      </trkpt>
      <trkpt lat="44.10007" lon="5.97564">
        <ele>657.15</ele>
        <time>2026-07-01T07:46:38Z</time>
      </trkpt>
      <trkpt lat="44.10007" lon="5.97567">
        <ele>657.5</ele>
        <time>2026-07-01T07:46:39Z</time>
      </trkpt>
      <trkpt lat="44.10007" lon="5.9757">
        <ele>657.99</ele>
        <time>2026-07-01T07:46:40Z</time>
      </trkpt>
      <trkpt lat="44.10007" lon="5.97572">
        <ele>658.23</ele>
        <time>2026-07-01T07:46:41Z</time>
      </trkpt>
      <trkpt lat="44.10007" lon="5.97575">
        <ele>658.76</ele>
        <time>2026-07-01T07:46:42Z</time>
      </trkpt>
      <trkpt lat="44.10006" lon="5.97578">
        <ele>659.38</ele>
        <time>2026-07-01T07:46:44Z</time>
      </trkpt>
      <trkpt lat="44.09998" lon="5.97596">
        <ele>662.42</ele>
        <time>2026-07-01T07:46:53Z</time>
      </trkpt>
      <trkpt lat="44.09996" lon="5.97603">
        <ele>662.94</ele>
        <time>2026-07-01T07:46:59Z</time>
      </trkpt>
      <trkpt lat="44.09997" lon="5.97603">
        <ele>663.18</ele>
        <time>2026-07-01T07:47:00Z</time>
      </trkpt>
      <trkpt lat="44.10004" lon="5.976">
        <ele>663.96</ele>
        <time>2026-07-01T07:47:15Z</time>
      </trkpt>
      <trkpt lat="44.10011" lon="5.97598">
        <ele>664.07</ele>
        <time>2026-07-01T07:47:43Z</time>
      </trkpt>
      <trkpt lat="44.10012" lon="5.97597">
        <ele>664.2</ele>
        <time>2026-07-01T07:47:58Z</time>
      </trkpt>
      <trkpt lat="44.10014" lon="5.97597">
        <ele>664.23</ele>
        <time>2026-07-01T07:47:59Z</time>
      </trkpt>
      <trkpt lat="44.10015" lon="5.97597">
        <ele>664.2</ele>
        <time>2026-07-01T07:48:00Z</time>
      </trkpt>
      <trkpt lat="44.10017" lon="5.97597">
        <ele>664.44</ele>
        <time>2026-07-01T07:48:01Z</time>
      </trkpt>
      <trkpt lat="44.10018" lon="5.97596">
        <ele>664.62</ele>
        <time>2026-07-01T07:48:02Z</time>
      </trkpt>
      <trkpt lat="44.10019" lon="5.97595">
        <ele>664.84</ele>
        <time>2026-07-01T07:48:03Z</time>
      </trkpt>
      <trkpt lat="44.10021" lon="5.97595">
        <ele>665.09</ele>
        <time>2026-07-01T07:48:04Z</time>
      </trkpt>
      <trkpt lat="44.10022" lon="5.97594">
        <ele>665.12</ele>
        <time>2026-07-01T07:48:05Z</time>
      </trkpt>
      <trkpt lat="44.10024" lon="5.97592">
        <ele>665.24</ele>
        <time>2026-07-01T07:48:06Z</time>
      </trkpt>
      <trkpt lat="44.10025" lon="5.9759">
        <ele>665.44</ele>
        <time>2026-07-01T07:48:07Z</time>
      </trkpt>
      <trkpt lat="44.10026" lon="5.97588">
        <ele>665.42</ele>
        <time>2026-07-01T07:48:08Z</time>
      </trkpt>
      <trkpt lat="44.10027" lon="5.97587">
        <ele>665.63</ele>
        <time>2026-07-01T07:48:09Z</time>
      </trkpt>
      <trkpt lat="44.10028" lon="5.97586">
        <ele>665.75</ele>
        <time>2026-07-01T07:48:10Z</time>
      </trkpt>
      <trkpt lat="44.1003" lon="5.97584">
        <ele>666.04</ele>
        <time>2026-07-01T07:48:11Z</time>
      </trkpt>
      <trkpt lat="44.10031" lon="5.97584">
        <ele>666</ele>
        <time>2026-07-01T07:48:12Z</time>
      </trkpt>
      <trkpt lat="44.10033" lon="5.97584">
        <ele>666.22</ele>
        <time>2026-07-01T07:48:13Z</time>
      </trkpt>
      <trkpt lat="44.1005" lon="5.97581">
        <ele>669.02</ele>
        <time>2026-07-01T07:48:22Z</time>
      </trkpt>
      <trkpt lat="44.1007" lon="5.97564">
        <ele>670.63</ele>
        <time>2026-07-01T07:48:35Z</time>
      </trkpt>
      <trkpt lat="44.10094" lon="5.97543">
        <ele>672.25</ele>
        <time>2026-07-01T07:48:49Z</time>
      </trkpt>
      <trkpt lat="44.10116" lon="5.97523">
        <ele>672.98</ele>
        <time>2026-07-01T07:49:00Z</time>
      </trkpt>
      <trkpt lat="44.10137" lon="5.9749">
        <ele>674.79</ele>
        <time>2026-07-01T07:49:15Z</time>
      </trkpt>
      <trkpt lat="44.10155" lon="5.97462">
        <ele>676.61</ele>
        <time>2026-07-01T07:49:28Z</time>
      </trkpt>
      <trkpt lat="44.10163" lon="5.97434">
        <ele>679.43</ele>
        <time>2026-07-01T07:49:39Z</time>
      </trkpt>
      <trkpt lat="44.10164" lon="5.97433">
        <ele>679.7</ele>
        <time>2026-07-01T07:49:40Z</time>
      </trkpt>
      <trkpt lat="44.10177" lon="5.9742">
        <ele>680.39</ele>
        <time>2026-07-01T07:49:49Z</time>
      </trkpt>
      <trkpt lat="44.10177" lon="5.97417">
        <ele>680.62</ele>
        <time>2026-07-01T07:49:50Z</time>
      </trkpt>
      <trkpt lat="44.10178" lon="5.97415">
        <ele>680.47</ele>
        <time>2026-07-01T07:49:51Z</time>
      </trkpt>
      <trkpt lat="44.10179" lon="5.97413">
        <ele>680.69</ele>
        <time>2026-07-01T07:49:52Z</time>
      </trkpt>
      <trkpt lat="44.1018" lon="5.97412">
        <ele>680.58</ele>
        <time>2026-07-01T07:49:53Z</time>
      </trkpt>
      <trkpt lat="44.10182" lon="5.9741">
        <ele>680.86</ele>
        <time>2026-07-01T07:49:54Z</time>
      </trkpt>
      <trkpt lat="44.10183" lon="5.97409">
        <ele>681.02</ele>
        <time>2026-07-01T07:49:55Z</time>
      </trkpt>
      <trkpt lat="44.10184" lon="5.97406">
        <ele>681.01</ele>
        <time>2026-07-01T07:49:56Z</time>
      </trkpt>
      <trkpt lat="44.10185" lon="5.97403">
        <ele>681.06</ele>
        <time>2026-07-01T07:49:57Z</time>
      </trkpt>
      <trkpt lat="44.10187" lon="5.97395">
        <ele>682.55</ele>
        <time>2026-07-01T07:50:00Z</time>
      </trkpt>
      <trkpt lat="44.10187" lon="5.97389">
        <ele>683.26</ele>
        <time>2026-07-01T07:50:02Z</time>
      </trkpt>
      <trkpt lat="44.10199" lon="5.97363">
        <ele>684.95</ele>
        <time>2026-07-01T07:50:13Z</time>
      </trkpt>
      <trkpt lat="44.10209" lon="5.97354">
        <ele>685.31</ele>
        <time>2026-07-01T07:50:19Z</time>
      </trkpt>
      <trkpt lat="44.10213" lon="5.9735">
        <ele>685.4</ele>
        <time>2026-07-01T07:50:27Z</time>
      </trkpt>
      <trkpt lat="44.10215" lon="5.9735">
        <ele>685.7</ele>
        <time>2026-07-01T07:50:28Z</time>
      </trkpt>
      <trkpt lat="44.10216" lon="5.97349">
        <ele>685.71</ele>
        <time>2026-07-01T07:50:29Z</time>
      </trkpt>
      <trkpt lat="44.10214" lon="5.97349">
        <ele>685.63</ele>
        <time>2026-07-01T07:50:39Z</time>
      </trkpt>
      <trkpt lat="44.10208" lon="5.97349">
        <ele>684.89</ele>
        <time>2026-07-01T07:50:59Z</time>
      </trkpt>
      <trkpt lat="44.10206" lon="5.97348">
        <ele>684.36</ele>
        <time>2026-07-01T07:51:00Z</time>
      </trkpt>
      <trkpt lat="44.10203" lon="5.97349">
        <ele>683.63</ele>
        <time>2026-07-01T07:51:01Z</time>
      </trkpt>
      <trkpt lat="44.102" lon="5.97349">
        <ele>683.33</ele>
        <time>2026-07-01T07:51:02Z</time>
      </trkpt>
      <trkpt lat="44.10198" lon="5.97349">
        <ele>682.93</ele>
        <time>2026-07-01T07:51:03Z</time>
      </trkpt>
      <trkpt lat="44.10196" lon="5.97348">
        <ele>682.81</ele>
        <time>2026-07-01T07:51:04Z</time>
      </trkpt>
      <trkpt lat="44.10195" lon="5.97348">
        <ele>682.55</ele>
        <time>2026-07-01T07:51:05Z</time>
      </trkpt>
      <trkpt lat="44.10193" lon="5.97347">
        <ele>682.03</ele>
        <time>2026-07-01T07:51:06Z</time>
      </trkpt>
      <trkpt lat="44.10191" lon="5.97348">
        <ele>681.03</ele>
        <time>2026-07-01T07:51:07Z</time>
      </trkpt>
      <trkpt lat="44.10189" lon="5.97349">
        <ele>680.57</ele>
        <time>2026-07-01T07:51:08Z</time>
      </trkpt>
      <trkpt lat="44.10183" lon="5.97353">
        <ele>679.54</ele>
        <time>2026-07-01T07:51:16Z</time>
      </trkpt>
      <trkpt lat="44.10179" lon="5.97351">
        <ele>679.62</ele>
        <time>2026-07-01T07:52:12Z</time>
      </trkpt>
      <trkpt lat="44.10177" lon="5.97351">
        <ele>679.15</ele>
        <time>2026-07-01T07:52:13Z</time>
      </trkpt>
      <trkpt lat="44.10174" lon="5.97352">
        <ele>678.33</ele>
        <time>2026-07-01T07:52:14Z</time>
      </trkpt>
      <trkpt lat="44.10172" lon="5.97353">
        <ele>677.65</ele>
        <time>2026-07-01T07:52:15Z</time>
      </trkpt>
      <trkpt lat="44.10168" lon="5.97356">
        <ele>677.17</ele>
        <time>2026-07-01T07:52:16Z</time>
      </trkpt>
      <trkpt lat="44.10166" lon="5.97356">
        <ele>676.96</ele>
        <time>2026-07-01T07:52:17Z</time>
      </trkpt>
      <trkpt lat="44.10164" lon="5.97355">
        <ele>676.74</ele>
        <time>2026-07-01T07:52:18Z</time>
      </trkpt>
      <trkpt lat="44.1016" lon="5.97353">
        <ele>675.88</ele>
        <time>2026-07-01T07:52:19Z</time>
      </trkpt>
      <trkpt lat="44.10152" lon="5.9735">
        <ele>673.72</ele>
        <time>2026-07-01T07:52:22Z</time>
      </trkpt>
      <trkpt lat="44.10151" lon="5.97348">
        <ele>673.02</ele>
        <time>2026-07-01T07:52:23Z</time>
      </trkpt>
      <trkpt lat="44.10151" lon="5.97345">
        <ele>672.42</ele>
        <time>2026-07-01T07:52:24Z</time>
      </trkpt>
      <trkpt lat="44.10152" lon="5.9734">
        <ele>671.76</ele>
        <time>2026-07-01T07:52:36Z</time>
      </trkpt>
      <trkpt lat="44.10151" lon="5.97334">
        <ele>671.25</ele>
        <time>2026-07-01T07:52:46Z</time>
      </trkpt>
      <trkpt lat="44.10149" lon="5.97332">
        <ele>670.13</ele>
        <time>2026-07-01T07:52:47Z</time>
      </trkpt>
      <trkpt lat="44.10147" lon="5.97329">
        <ele>669.62</ele>
        <time>2026-07-01T07:52:48Z</time>
      </trkpt>
      <trkpt lat="44.10145" lon="5.97327">
        <ele>669.27</ele>
        <time>2026-07-01T07:52:49Z</time>
      </trkpt>
      <trkpt lat="44.10144" lon="5.97325">
        <ele>669.94</ele>
        <time>2026-07-01T07:52:50Z</time>
      </trkpt>
      <trkpt lat="44.10142" lon="5.97324">
        <ele>671.05</ele>
        <time>2026-07-01T07:52:51Z</time>
      </trkpt>
      <trkpt lat="44.10142" lon="5.97321">
        <ele>671.23</ele>
        <time>2026-07-01T07:52:52Z</time>
      </trkpt>
      <trkpt lat="44.10141" lon="5.97318">
        <ele>671.5</ele>
        <time>2026-07-01T07:52:53Z</time>
      </trkpt>
      <trkpt lat="44.1014" lon="5.97315">
        <ele>671.91</ele>
        <time>2026-07-01T07:52:54Z</time>
      </trkpt>
      <trkpt lat="44.10138" lon="5.97314">
        <ele>672.34</ele>
        <time>2026-07-01T07:52:55Z</time>
      </trkpt>
      <trkpt lat="44.10128" lon="5.9732">
        <ele>673.37</ele>
        <time>2026-07-01T07:53:01Z</time>
      </trkpt>
      <trkpt lat="44.1012" lon="5.97319">
        <ele>674.42</ele>
        <time>2026-07-01T07:53:06Z</time>
      </trkpt>
      <trkpt lat="44.10115" lon="5.97318">
        <ele>674.57</ele>
        <time>2026-07-01T07:53:09Z</time>
      </trkpt>
      <trkpt lat="44.10114" lon="5.97312">
        <ele>674.88</ele>
        <time>2026-07-01T07:53:19Z</time>
      </trkpt>
      <trkpt lat="44.10114" lon="5.97311">
        <ele>675.04</ele>
        <time>2026-07-01T07:53:24Z</time>
      </trkpt>
      <trkpt lat="44.10112" lon="5.97298">
        <ele>676.48</ele>
        <time>2026-07-01T07:53:33Z</time>
      </trkpt>
      <trkpt lat="44.10112" lon="5.97294">
        <ele>677.27</ele>
        <time>2026-07-01T07:53:35Z</time>
      </trkpt>
      <trkpt lat="44.1011" lon="5.97285">
        <ele>678.55</ele>
        <time>2026-07-01T07:53:39Z</time>
      </trkpt>
      <trkpt lat="44.10096" lon="5.97264">
        <ele>681.85</ele>
        <time>2026-07-01T07:53:53Z</time>
      </trkpt>
      <trkpt lat="44.10088" lon="5.97263">
        <ele>683.5</ele>
        <time>2026-07-01T07:53:58Z</time>
      </trkpt>
      <trkpt lat="44.10066" lon="5.97265">
        <ele>685.65</ele>
        <time>2026-07-01T07:54:11Z</time>
      </trkpt>
      <trkpt lat="44.10062" lon="5.97265">
        <ele>685.81</ele>
        <time>2026-07-01T07:54:13Z</time>
      </trkpt>
      <trkpt lat="44.10055" lon="5.97257">
        <ele>688.05</ele>
        <time>2026-07-01T07:54:23Z</time>
      </trkpt>
      <trkpt lat="44.1006" lon="5.97244">
        <ele>689.62</ele>
        <time>2026-07-01T07:54:36Z</time>
      </trkpt>
      <trkpt lat="44.10071" lon="5.97224">
        <ele>692.75</ele>
        <time>2026-07-01T07:54:47Z</time>
      </trkpt>
      <trkpt lat="44.10072" lon="5.97221">
        <ele>692.92</ele>
        <time>2026-07-01T07:54:48Z</time>
      </trkpt>
      <trkpt lat="44.10088" lon="5.97198">
        <ele>695.15</ele>
        <time>2026-07-01T07:55:01Z</time>
      </trkpt>
      <trkpt lat="44.10091" lon="5.97189">
        <ele>696.61</ele>
        <time>2026-07-01T07:55:05Z</time>
      </trkpt>
      <trkpt lat="44.10094" lon="5.97182">
        <ele>697.44</ele>
        <time>2026-07-01T07:55:09Z</time>
      </trkpt>
      <trkpt lat="44.10113" lon="5.9716">
        <ele>700.54</ele>
        <time>2026-07-01T07:55:23Z</time>
      </trkpt>
      <trkpt lat="44.10137" lon="5.97146">
        <ele>701.05</ele>
        <time>2026-07-01T07:55:35Z</time>
      </trkpt>
      <trkpt lat="44.10171" lon="5.9713">
        <ele>703.39</ele>
        <time>2026-07-01T07:55:53Z</time>
      </trkpt>
      <trkpt lat="44.10193" lon="5.9712">
        <ele>706.47</ele>
        <time>2026-07-01T07:56:06Z</time>
      </trkpt>
      <trkpt lat="44.10194" lon="5.97118">
        <ele>706.56</ele>
        <time>2026-07-01T07:56:07Z</time>
      </trkpt>
      <trkpt lat="44.10195" lon="5.97116">
        <ele>706.85</ele>
        <time>2026-07-01T07:56:08Z</time>
      </trkpt>
      <trkpt lat="44.10195" lon="5.97115">
        <ele>706.97</ele>
        <time>2026-07-01T07:56:09Z</time>
      </trkpt>
      <trkpt lat="44.10197" lon="5.97107">
        <ele>707.03</ele>
        <time>2026-07-01T07:56:14Z</time>
      </trkpt>
      <trkpt lat="44.10196" lon="5.97105">
        <ele>707.26</ele>
        <time>2026-07-01T07:56:15Z</time>
      </trkpt>
      <trkpt lat="44.10194" lon="5.97103">
        <ele>707.69</ele>
        <time>2026-07-01T07:56:16Z</time>
      </trkpt>
      <trkpt lat="44.10193" lon="5.97102">
        <ele>708.1</ele>
        <time>2026-07-01T07:56:17Z</time>
      </trkpt>
      <trkpt lat="44.10191" lon="5.97102">
        <ele>708.42</ele>
        <time>2026-07-01T07:56:18Z</time>
      </trkpt>
      <trkpt lat="44.1019" lon="5.97102">
        <ele>708.61</ele>
        <time>2026-07-01T07:56:19Z</time>
      </trkpt>
      <trkpt lat="44.10189" lon="5.97101">
        <ele>708.78</ele>
        <time>2026-07-01T07:56:35Z</time>
      </trkpt>
      <trkpt lat="44.10188" lon="5.97102">
        <ele>708.6</ele>
        <time>2026-07-01T07:56:49Z</time>
      </trkpt>
      <trkpt lat="44.10188" lon="5.971">
        <ele>709.25</ele>
        <time>2026-07-01T07:57:45Z</time>
      </trkpt>
      <trkpt lat="44.10181" lon="5.97097">
        <ele>710.5</ele>
        <time>2026-07-01T07:57:58Z</time>
      </trkpt>
      <trkpt lat="44.1018" lon="5.97096">
        <ele>711.2</ele>
        <time>2026-07-01T07:58:11Z</time>
      </trkpt>
      <trkpt lat="44.10179" lon="5.97095">
        <ele>711.53</ele>
        <time>2026-07-01T07:58:12Z</time>
      </trkpt>
      <trkpt lat="44.10177" lon="5.97093">
        <ele>712.09</ele>
        <time>2026-07-01T07:58:13Z</time>
      </trkpt>
      <trkpt lat="44.10159" lon="5.97081">
        <ele>714.83</ele>
        <time>2026-07-01T07:58:25Z</time>
      </trkpt>
      <trkpt lat="44.10153" lon="5.97076">
        <ele>715.42</ele>
        <time>2026-07-01T07:58:38Z</time>
      </trkpt>
      <trkpt lat="44.10153" lon="5.97077">
        <ele>714.72</ele>
        <time>2026-07-01T07:58:59Z</time>
      </trkpt>
      <trkpt lat="44.10149" lon="5.97073">
        <ele>715.47</ele>
        <time>2026-07-01T07:59:05Z</time>
      </trkpt>
      <trkpt lat="44.10147" lon="5.97072">
        <ele>715.66</ele>
        <time>2026-07-01T07:59:06Z</time>
      </trkpt>
      <trkpt lat="44.10145" lon="5.97072">
        <ele>715.51</ele>
        <time>2026-07-01T07:59:07Z</time>
      </trkpt>
      <trkpt lat="44.1014" lon="5.97072">
        <ele>715.77</ele>
        <time>2026-07-01T07:59:19Z</time>
      </trkpt>
      <trkpt lat="44.1014" lon="5.97074">
        <ele>715.84</ele>
        <time>2026-07-01T07:59:57Z</time>
      </trkpt>
      <trkpt lat="44.10143" lon="5.97073">
        <ele>715.94</ele>
        <time>2026-07-01T08:00:09Z</time>
      </trkpt>
      <trkpt lat="44.10137" lon="5.97072">
        <ele>717.31</ele>
        <time>2026-07-01T08:00:12Z</time>
      </trkpt>
      <trkpt lat="44.10135" lon="5.97073">
        <ele>717.63</ele>
        <time>2026-07-01T08:00:13Z</time>
      </trkpt>
      <trkpt lat="44.10134" lon="5.97074">
        <ele>718.03</ele>
        <time>2026-07-01T08:00:14Z</time>
      </trkpt>
      <trkpt lat="44.10132" lon="5.97075">
        <ele>718.06</ele>
        <time>2026-07-01T08:00:15Z</time>
      </trkpt>
      <trkpt lat="44.10131" lon="5.97078">
        <ele>718.68</ele>
        <time>2026-07-01T08:00:16Z</time>
      </trkpt>
      <trkpt lat="44.1013" lon="5.9708">
        <ele>718.98</ele>
        <time>2026-07-01T08:00:17Z</time>
      </trkpt>
      <trkpt lat="44.10129" lon="5.97082">
        <ele>719.39</ele>
        <time>2026-07-01T08:00:18Z</time>
      </trkpt>
      <trkpt lat="44.10128" lon="5.97085">
        <ele>719.7</ele>
        <time>2026-07-01T08:00:19Z</time>
      </trkpt>
      <trkpt lat="44.1011" lon="5.97096">
        <ele>719.75</ele>
        <time>2026-07-01T08:00:30Z</time>
      </trkpt>
      <trkpt lat="44.10097" lon="5.97106">
        <ele>719.46</ele>
        <time>2026-07-01T08:00:36Z</time>
      </trkpt>
      <trkpt lat="44.1009" lon="5.97107">
        <ele>722.18</ele>
        <time>2026-07-01T08:00:40Z</time>
      </trkpt>
      <trkpt lat="44.10091" lon="5.97105">
        <ele>723.02</ele>
        <time>2026-07-01T08:00:42Z</time>
      </trkpt>
      <trkpt lat="44.10093" lon="5.97103">
        <ele>722.57</ele>
        <time>2026-07-01T08:00:55Z</time>
      </trkpt>
      <trkpt lat="44.10096" lon="5.971">
        <ele>722.5</ele>
        <time>2026-07-01T08:01:22Z</time>
      </trkpt>
      <trkpt lat="44.10097" lon="5.97098">
        <ele>722.18</ele>
        <time>2026-07-01T08:01:23Z</time>
      </trkpt>
      <trkpt lat="44.10099" lon="5.97096">
        <ele>722.55</ele>
        <time>2026-07-01T08:01:24Z</time>
      </trkpt>
      <trkpt lat="44.101" lon="5.97094">
        <ele>722.66</ele>
        <time>2026-07-01T08:01:25Z</time>
      </trkpt>
      <trkpt lat="44.10101" lon="5.97092">
        <ele>722.98</ele>
        <time>2026-07-01T08:01:26Z</time>
      </trkpt>
      <trkpt lat="44.101" lon="5.97088">
        <ele>724.4</ele>
        <time>2026-07-01T08:01:29Z</time>
      </trkpt>
      <trkpt lat="44.10099" lon="5.97089">
        <ele>724.53</ele>
        <time>2026-07-01T08:01:30Z</time>
      </trkpt>
      <trkpt lat="44.10098" lon="5.9709">
        <ele>724.7</ele>
        <time>2026-07-01T08:01:31Z</time>
      </trkpt>
      <trkpt lat="44.10097" lon="5.97089">
        <ele>724.74</ele>
        <time>2026-07-01T08:01:43Z</time>
      </trkpt>
      <trkpt lat="44.10096" lon="5.9709">
        <ele>724.97</ele>
        <time>2026-07-01T08:01:57Z</time>
      </trkpt>
      <trkpt lat="44.10095" lon="5.97091">
        <ele>725.21</ele>
        <time>2026-07-01T08:01:58Z</time>
      </trkpt>
      <trkpt lat="44.10093" lon="5.97091">
        <ele>725.29</ele>
        <time>2026-07-01T08:01:59Z</time>
      </trkpt>
      <trkpt lat="44.10091" lon="5.97091">
        <ele>725.88</ele>
        <time>2026-07-01T08:02:00Z</time>
      </trkpt>
      <trkpt lat="44.10089" lon="5.97092">
        <ele>726.32</ele>
        <time>2026-07-01T08:02:01Z</time>
      </trkpt>
      <trkpt lat="44.10087" lon="5.97093">
        <ele>726.74</ele>
        <time>2026-07-01T08:02:02Z</time>
      </trkpt>
      <trkpt lat="44.10085" lon="5.97095">
        <ele>726.94</ele>
        <time>2026-07-01T08:02:03Z</time>
      </trkpt>
      <trkpt lat="44.10083" lon="5.97096">
        <ele>727.31</ele>
        <time>2026-07-01T08:02:04Z</time>
      </trkpt>
      <trkpt lat="44.10081" lon="5.97096">
        <ele>727.53</ele>
        <time>2026-07-01T08:02:05Z</time>
      </trkpt>
      <trkpt lat="44.10079" lon="5.97096">
        <ele>728.07</ele>
        <time>2026-07-01T08:02:06Z</time>
      </trkpt>
      <trkpt lat="44.10078" lon="5.97096">
        <ele>728.67</ele>
        <time>2026-07-01T08:02:07Z</time>
      </trkpt>
      <trkpt lat="44.10076" lon="5.97097">
        <ele>729.16</ele>
        <time>2026-07-01T08:02:08Z</time>
      </trkpt>
      <trkpt lat="44.10075" lon="5.97097">
        <ele>729.86</ele>
        <time>2026-07-01T08:02:09Z</time>
      </trkpt>
      <trkpt lat="44.10073" lon="5.97099">
        <ele>729.88</ele>
        <time>2026-07-01T08:02:10Z</time>
      </trkpt>
      <trkpt lat="44.10071" lon="5.971">
        <ele>729.97</ele>
        <time>2026-07-01T08:02:11Z</time>
      </trkpt>
      <trkpt lat="44.1007" lon="5.97101">
        <ele>730.1</ele>
        <time>2026-07-01T08:02:12Z</time>
      </trkpt>
      <trkpt lat="44.10068" lon="5.97102">
        <ele>729.73</ele>
        <time>2026-07-01T08:02:16Z</time>
      </trkpt>
      <trkpt lat="44.10067" lon="5.97104">
        <ele>729.76</ele>
        <time>2026-07-01T08:02:17Z</time>
      </trkpt>
      <trkpt lat="44.10065" lon="5.97106">
        <ele>729.55</ele>
        <time>2026-07-01T08:02:18Z</time>
      </trkpt>
      <trkpt lat="44.10062" lon="5.97108">
        <ele>729.27</ele>
        <time>2026-07-01T08:02:19Z</time>
      </trkpt>
      <trkpt lat="44.1006" lon="5.97109">
        <ele>729.45</ele>
        <time>2026-07-01T08:02:20Z</time>
      </trkpt>
      <trkpt lat="44.10058" lon="5.97111">
        <ele>729.58</ele>
        <time>2026-07-01T08:02:21Z</time>
      </trkpt>
      <trkpt lat="44.10056" lon="5.97112">
        <ele>729.73</ele>
        <time>2026-07-01T08:02:22Z</time>
      </trkpt>
      <trkpt lat="44.10053" lon="5.97114">
        <ele>729.41</ele>
        <time>2026-07-01T08:02:23Z</time>
      </trkpt>
      <trkpt lat="44.1005" lon="5.97116">
        <ele>729.47</ele>
        <time>2026-07-01T08:02:24Z</time>
      </trkpt>
      <trkpt lat="44.10047" lon="5.97117">
        <ele>729.38</ele>
        <time>2026-07-01T08:02:25Z</time>
      </trkpt>
      <trkpt lat="44.10022" lon="5.97127">
        <ele>730.46</ele>
        <time>2026-07-01T08:02:36Z</time>
      </trkpt>
      <trkpt lat="44.10017" lon="5.97127">
        <ele>730.67</ele>
        <time>2026-07-01T08:02:38Z</time>
      </trkpt>
      <trkpt lat="44.10015" lon="5.97126">
        <ele>730.76</ele>
        <time>2026-07-01T08:02:39Z</time>
      </trkpt>
      <trkpt lat="44.10014" lon="5.97123">
        <ele>730.88</ele>
        <time>2026-07-01T08:02:40Z</time>
      </trkpt>
      <trkpt lat="44.10015" lon="5.97121">
        <ele>730.96</ele>
        <time>2026-07-01T08:02:41Z</time>
      </trkpt>
      <trkpt lat="44.10015" lon="5.97118">
        <ele>731.53</ele>
        <time>2026-07-01T08:02:42Z</time>
      </trkpt>
      <trkpt lat="44.10015" lon="5.97115">
        <ele>731.77</ele>
        <time>2026-07-01T08:02:43Z</time>
      </trkpt>
      <trkpt lat="44.10016" lon="5.97113">
        <ele>731.59</ele>
        <time>2026-07-01T08:02:44Z</time>
      </trkpt>
      <trkpt lat="44.10017" lon="5.97111">
        <ele>731.79</ele>
        <time>2026-07-01T08:02:45Z</time>
      </trkpt>
      <trkpt lat="44.10018" lon="5.9711">
        <ele>731.91</ele>
        <time>2026-07-01T08:02:46Z</time>
      </trkpt>
      <trkpt lat="44.1002" lon="5.97109">
        <ele>732.21</ele>
        <time>2026-07-01T08:02:47Z</time>
      </trkpt>
      <trkpt lat="44.10021" lon="5.97108">
        <ele>732.41</ele>
        <time>2026-07-01T08:02:48Z</time>
      </trkpt>
      <trkpt lat="44.10023" lon="5.97107">
        <ele>732.64</ele>
        <time>2026-07-01T08:02:49Z</time>
      </trkpt>
      <trkpt lat="44.10033" lon="5.97099">
        <ele>733.8</ele>
        <time>2026-07-01T08:02:58Z</time>
      </trkpt>
      <trkpt lat="44.10034" lon="5.97097">
        <ele>733.81</ele>
        <time>2026-07-01T08:02:59Z</time>
      </trkpt>
      <trkpt lat="44.10035" lon="5.97096">
        <ele>734.03</ele>
        <time>2026-07-01T08:03:00Z</time>
      </trkpt>
      <trkpt lat="44.10055" lon="5.97072">
        <ele>736.74</ele>
        <time>2026-07-01T08:03:14Z</time>
      </trkpt>
      <trkpt lat="44.10057" lon="5.97051">
        <ele>737.71</ele>
        <time>2026-07-01T08:03:26Z</time>
      </trkpt>
      <trkpt lat="44.10055" lon="5.9704">
        <ele>738.14</ele>
        <time>2026-07-01T08:03:32Z</time>
      </trkpt>
      <trkpt lat="44.10026" lon="5.97004">
        <ele>737.05</ele>
        <time>2026-07-01T08:03:46Z</time>
      </trkpt>
      <trkpt lat="44.10022" lon="5.97001">
        <ele>736.49</ele>
        <time>2026-07-01T08:03:47Z</time>
      </trkpt>
      <trkpt lat="44.10018" lon="5.96998">
        <ele>736.22</ele>
        <time>2026-07-01T08:03:48Z</time>
      </trkpt>
      <trkpt lat="44.10015" lon="5.96996">
        <ele>736.09</ele>
        <time>2026-07-01T08:03:49Z</time>
      </trkpt>
      <trkpt lat="44.10011" lon="5.96994">
        <ele>736.03</ele>
        <time>2026-07-01T08:03:50Z</time>
      </trkpt>
      <trkpt lat="44.09993" lon="5.96986">
        <ele>734.13</ele>
        <time>2026-07-01T08:03:59Z</time>
      </trkpt>
      <trkpt lat="44.09993" lon="5.96986">
        <ele>734.15</ele>
        <time>2026-07-01T08:04:04Z</time>
      </trkpt>
      <trkpt lat="44.09982" lon="5.97001">
        <ele>732.14</ele>
        <time>2026-07-01T08:04:13Z</time>
      </trkpt>
      <trkpt lat="44.09968" lon="5.96993">
        <ele>730.32</ele>
        <time>2026-07-01T08:04:25Z</time>
      </trkpt>
      <trkpt lat="44.09956" lon="5.96988">
        <ele>727.14</ele>
        <time>2026-07-01T08:04:50Z</time>
      </trkpt>
      <trkpt lat="44.09953" lon="5.96987">
        <ele>725.92</ele>
        <time>2026-07-01T08:04:53Z</time>
      </trkpt>
      <trkpt lat="44.09951" lon="5.96988">
        <ele>725.26</ele>
        <time>2026-07-01T08:04:57Z</time>
      </trkpt>
      <trkpt lat="44.09951" lon="5.9699">
        <ele>724.92</ele>
        <time>2026-07-01T08:04:58Z</time>
      </trkpt>
      <trkpt lat="44.09952" lon="5.96992">
        <ele>724.45</ele>
        <time>2026-07-01T08:04:59Z</time>
      </trkpt>
      <trkpt lat="44.09953" lon="5.96995">
        <ele>724</ele>
        <time>2026-07-01T08:05:12Z</time>
      </trkpt>
      <trkpt lat="44.09955" lon="5.96996">
        <ele>723.68</ele>
        <time>2026-07-01T08:05:26Z</time>
      </trkpt>
      <trkpt lat="44.09954" lon="5.96999">
        <ele>724.11</ele>
        <time>2026-07-01T08:06:08Z</time>
      </trkpt>
      <trkpt lat="44.09957" lon="5.97006">
        <ele>723.59</ele>
        <time>2026-07-01T08:06:22Z</time>
      </trkpt>
      <trkpt lat="44.09964" lon="5.97028">
        <ele>721.41</ele>
        <time>2026-07-01T08:06:30Z</time>
      </trkpt>
      <trkpt lat="44.09963" lon="5.97025">
        <ele>721.52</ele>
        <time>2026-07-01T08:06:35Z</time>
      </trkpt>
      <trkpt lat="44.09961" lon="5.97023">
        <ele>721.33</ele>
        <time>2026-07-01T08:06:37Z</time>
      </trkpt>
      <trkpt lat="44.09954" lon="5.97017">
        <ele>720.34</ele>
        <time>2026-07-01T08:06:44Z</time>
      </trkpt>
      <trkpt lat="44.09952" lon="5.97015">
        <ele>720</ele>
        <time>2026-07-01T08:06:45Z</time>
      </trkpt>
      <trkpt lat="44.09949" lon="5.97012">
        <ele>719.5</ele>
        <time>2026-07-01T08:06:46Z</time>
      </trkpt>
      <trkpt lat="44.09922" lon="5.9699">
        <ele>716.6</ele>
        <time>2026-07-01T08:06:56Z</time>
      </trkpt>
      <trkpt lat="44.09911" lon="5.96984">
        <ele>714.2</ele>
        <time>2026-07-01T08:07:04Z</time>
      </trkpt>
      <trkpt lat="44.0991" lon="5.96983">
        <ele>714.16</ele>
        <time>2026-07-01T08:07:06Z</time>
      </trkpt>
      <trkpt lat="44.09907" lon="5.9698">
        <ele>713.18</ele>
        <time>2026-07-01T08:07:20Z</time>
      </trkpt>
      <trkpt lat="44.09891" lon="5.96972">
        <ele>710.31</ele>
        <time>2026-07-01T08:07:28Z</time>
      </trkpt>
      <trkpt lat="44.09872" lon="5.9697">
        <ele>706.84</ele>
        <time>2026-07-01T08:07:33Z</time>
      </trkpt>
      <trkpt lat="44.09867" lon="5.96968">
        <ele>706.72</ele>
        <time>2026-07-01T08:07:34Z</time>
      </trkpt>
      <trkpt lat="44.09857" lon="5.96962">
        <ele>706.68</ele>
        <time>2026-07-01T08:07:42Z</time>
      </trkpt>
      <trkpt lat="44.09856" lon="5.96961">
        <ele>706.41</ele>
        <time>2026-07-01T08:07:54Z</time>
      </trkpt>
      <trkpt lat="44.09853" lon="5.9696">
        <ele>706.12</ele>
        <time>2026-07-01T08:07:55Z</time>
      </trkpt>
      <trkpt lat="44.09851" lon="5.96959">
        <ele>705.78</ele>
        <time>2026-07-01T08:07:56Z</time>
      </trkpt>
      <trkpt lat="44.09848" lon="5.96959">
        <ele>705.68</ele>
        <time>2026-07-01T08:07:57Z</time>
      </trkpt>
      <trkpt lat="44.09846" lon="5.96959">
        <ele>705.7</ele>
        <time>2026-07-01T08:07:58Z</time>
      </trkpt>
      <trkpt lat="44.09832" lon="5.96948">
        <ele>705.7</ele>
        <time>2026-07-01T08:08:06Z</time>
      </trkpt>
      <trkpt lat="44.09831" lon="5.96946">
        <ele>705.65</ele>
        <time>2026-07-01T08:08:07Z</time>
      </trkpt>
      <trkpt lat="44.0983" lon="5.96943">
        <ele>705.41</ele>
        <time>2026-07-01T08:08:08Z</time>
      </trkpt>
      <trkpt lat="44.09829" lon="5.96941">
        <ele>704.86</ele>
        <time>2026-07-01T08:08:09Z</time>
      </trkpt>
      <trkpt lat="44.09827" lon="5.96939">
        <ele>704.65</ele>
        <time>2026-07-01T08:08:10Z</time>
      </trkpt>
      <trkpt lat="44.09816" lon="5.96931">
        <ele>701.29</ele>
        <time>2026-07-01T08:08:15Z</time>
      </trkpt>
      <trkpt lat="44.09808" lon="5.96931">
        <ele>699.94</ele>
        <time>2026-07-01T08:08:18Z</time>
      </trkpt>
      <trkpt lat="44.09806" lon="5.96933">
        <ele>699.62</ele>
        <time>2026-07-01T08:08:19Z</time>
      </trkpt>
      <trkpt lat="44.09804" lon="5.96934">
        <ele>699.44</ele>
        <time>2026-07-01T08:08:20Z</time>
      </trkpt>
      <trkpt lat="44.09802" lon="5.96935">
        <ele>699.28</ele>
        <time>2026-07-01T08:08:21Z</time>
      </trkpt>
      <trkpt lat="44.098" lon="5.96935">
        <ele>698.55</ele>
        <time>2026-07-01T08:08:22Z</time>
      </trkpt>
      <trkpt lat="44.09798" lon="5.96934">
        <ele>697.59</ele>
        <time>2026-07-01T08:08:23Z</time>
      </trkpt>
      <trkpt lat="44.09797" lon="5.96931">
        <ele>697.1</ele>
        <time>2026-07-01T08:08:24Z</time>
      </trkpt>
      <trkpt lat="44.09796" lon="5.96928">
        <ele>696.67</ele>
        <time>2026-07-01T08:08:25Z</time>
      </trkpt>
      <trkpt lat="44.09796" lon="5.96925">
        <ele>696.16</ele>
        <time>2026-07-01T08:08:26Z</time>
      </trkpt>
      <trkpt lat="44.09797" lon="5.96922">
        <ele>695.91</ele>
        <time>2026-07-01T08:08:27Z</time>
      </trkpt>
      <trkpt lat="44.09798" lon="5.96921">
        <ele>695.65</ele>
        <time>2026-07-01T08:08:44Z</time>
      </trkpt>
      <trkpt lat="44.09799" lon="5.9692">
        <ele>695.56</ele>
        <time>2026-07-01T08:08:54Z</time>
      </trkpt>
      <trkpt lat="44.098" lon="5.96918">
        <ele>695.4</ele>
        <time>2026-07-01T08:08:55Z</time>
      </trkpt>
      <trkpt lat="44.09801" lon="5.96917">
        <ele>695.48</ele>
        <time>2026-07-01T08:08:56Z</time>
      </trkpt>
      <trkpt lat="44.09802" lon="5.96916">
        <ele>695.62</ele>
        <time>2026-07-01T08:08:57Z</time>
      </trkpt>
      <trkpt lat="44.09804" lon="5.96915">
        <ele>695.86</ele>
        <time>2026-07-01T08:08:58Z</time>
      </trkpt>
      <trkpt lat="44.09835" lon="5.9691">
        <ele>696.4</ele>
        <time>2026-07-01T08:09:11Z</time>
      </trkpt>
      <trkpt lat="44.09857" lon="5.96932">
        <ele>695.48</ele>
        <time>2026-07-01T08:09:20Z</time>
      </trkpt>
      <trkpt lat="44.09872" lon="5.96939">
        <ele>695.7</ele>
        <time>2026-07-01T08:09:28Z</time>
      </trkpt>
      <trkpt lat="44.09874" lon="5.96938">
        <ele>695.54</ele>
        <time>2026-07-01T08:09:29Z</time>
      </trkpt>
      <trkpt lat="44.09874" lon="5.96936">
        <ele>695.68</ele>
        <time>2026-07-01T08:09:30Z</time>
      </trkpt>
      <trkpt lat="44.09874" lon="5.96931">
        <ele>696.07</ele>
        <time>2026-07-01T08:09:34Z</time>
      </trkpt>
      <trkpt lat="44.09874" lon="5.96928">
        <ele>696.3</ele>
        <time>2026-07-01T08:09:35Z</time>
      </trkpt>
      <trkpt lat="44.09875" lon="5.96926">
        <ele>696.53</ele>
        <time>2026-07-01T08:09:36Z</time>
      </trkpt>
      <trkpt lat="44.09875" lon="5.96925">
        <ele>696.47</ele>
        <time>2026-07-01T08:09:37Z</time>
      </trkpt>
      <trkpt lat="44.09876" lon="5.96923">
        <ele>696.26</ele>
        <time>2026-07-01T08:09:38Z</time>
      </trkpt>
      <trkpt lat="44.09878" lon="5.96922">
        <ele>696.15</ele>
        <time>2026-07-01T08:09:39Z</time>
      </trkpt>
      <trkpt lat="44.09879" lon="5.96921">
        <ele>696.25</ele>
        <time>2026-07-01T08:09:40Z</time>
      </trkpt>
      <trkpt lat="44.09881" lon="5.9692">
        <ele>696.26</ele>
        <time>2026-07-01T08:09:41Z</time>
      </trkpt>
      <trkpt lat="44.09883" lon="5.9692">
        <ele>696.1</ele>
        <time>2026-07-01T08:09:42Z</time>
      </trkpt>
      <trkpt lat="44.09886" lon="5.96921">
        <ele>696.37</ele>
        <time>2026-07-01T08:09:43Z</time>
      </trkpt>
      <trkpt lat="44.09888" lon="5.96922">
        <ele>696.62</ele>
        <time>2026-07-01T08:09:44Z</time>
      </trkpt>
      <trkpt lat="44.0989" lon="5.96923">
        <ele>696.55</ele>
        <time>2026-07-01T08:09:45Z</time>
      </trkpt>
      <trkpt lat="44.09892" lon="5.96924">
        <ele>696.27</ele>
        <time>2026-07-01T08:09:46Z</time>
      </trkpt>
      <trkpt lat="44.09895" lon="5.96924">
        <ele>696.26</ele>
        <time>2026-07-01T08:09:47Z</time>
      </trkpt>
      <trkpt lat="44.09908" lon="5.96918">
        <ele>694.33</ele>
        <time>2026-07-01T08:09:53Z</time>
      </trkpt>
      <trkpt lat="44.09908" lon="5.96914">
        <ele>694.64</ele>
        <time>2026-07-01T08:09:54Z</time>
      </trkpt>
      <trkpt lat="44.09908" lon="5.96896">
        <ele>695.43</ele>
        <time>2026-07-01T08:10:06Z</time>
      </trkpt>
      <trkpt lat="44.09908" lon="5.96894">
        <ele>695.19</ele>
        <time>2026-07-01T08:10:07Z</time>
      </trkpt>
      <trkpt lat="44.09908" lon="5.96893">
        <ele>694.84</ele>
        <time>2026-07-01T08:10:08Z</time>
      </trkpt>
      <trkpt lat="44.09908" lon="5.9689">
        <ele>694.53</ele>
        <time>2026-07-01T08:10:09Z</time>
      </trkpt>
      <trkpt lat="44.09908" lon="5.96887">
        <ele>693.98</ele>
        <time>2026-07-01T08:10:10Z</time>
      </trkpt>
      <trkpt lat="44.09909" lon="5.96884">
        <ele>693.4</ele>
        <time>2026-07-01T08:10:11Z</time>
      </trkpt>
      <trkpt lat="44.0991" lon="5.96881">
        <ele>693</ele>
        <time>2026-07-01T08:10:12Z</time>
      </trkpt>
      <trkpt lat="44.09917" lon="5.96842">
        <ele>690.3</ele>
        <time>2026-07-01T08:10:22Z</time>
      </trkpt>
      <trkpt lat="44.09921" lon="5.96829">
        <ele>687.91</ele>
        <time>2026-07-01T08:10:33Z</time>
      </trkpt>
      <trkpt lat="44.09921" lon="5.96829">
        <ele>687.91</ele>
        <time>2026-07-01T08:10:36Z</time>
      </trkpt>
      <trkpt lat="44.09922" lon="5.96827">
        <ele>687.85</ele>
        <time>2026-07-01T08:10:37Z</time>
      </trkpt>
      <trkpt lat="44.09923" lon="5.96825">
        <ele>687.85</ele>
        <time>2026-07-01T08:10:38Z</time>
      </trkpt>
      <trkpt lat="44.09924" lon="5.96823">
        <ele>687.65</ele>
        <time>2026-07-01T08:10:39Z</time>
      </trkpt>
      <trkpt lat="44.09925" lon="5.96822">
        <ele>687.75</ele>
        <time>2026-07-01T08:10:40Z</time>
      </trkpt>
      <trkpt lat="44.09934" lon="5.96809">
        <ele>684.7</ele>
        <time>2026-07-01T08:10:46Z</time>
      </trkpt>
      <trkpt lat="44.09934" lon="5.96803">
        <ele>683.38</ele>
        <time>2026-07-01T08:10:56Z</time>
      </trkpt>
      <trkpt lat="44.09933" lon="5.96803">
        <ele>682.93</ele>
        <time>2026-07-01T08:10:57Z</time>
      </trkpt>
      <trkpt lat="44.09932" lon="5.96803">
        <ele>682.35</ele>
        <time>2026-07-01T08:10:58Z</time>
      </trkpt>
      <trkpt lat="44.0993" lon="5.96803">
        <ele>682.04</ele>
        <time>2026-07-01T08:10:59Z</time>
      </trkpt>
      <trkpt lat="44.09929" lon="5.96803">
        <ele>681.39</ele>
        <time>2026-07-01T08:11:01Z</time>
      </trkpt>
      <trkpt lat="44.09928" lon="5.96805">
        <ele>681.14</ele>
        <time>2026-07-01T08:11:16Z</time>
      </trkpt>
      <trkpt lat="44.09927" lon="5.96804">
        <ele>681.21</ele>
        <time>2026-07-01T08:12:03Z</time>
      </trkpt>
      <trkpt lat="44.09926" lon="5.96803">
        <ele>680.81</ele>
        <time>2026-07-01T08:12:05Z</time>
      </trkpt>
      <trkpt lat="44.09924" lon="5.96803">
        <ele>680.32</ele>
        <time>2026-07-01T08:12:06Z</time>
      </trkpt>
      <trkpt lat="44.09922" lon="5.96803">
        <ele>680.12</ele>
        <time>2026-07-01T08:12:07Z</time>
      </trkpt>
      <trkpt lat="44.0992" lon="5.96802">
        <ele>679.92</ele>
        <time>2026-07-01T08:12:08Z</time>
      </trkpt>
      <trkpt lat="44.0992" lon="5.96797">
        <ele>677.93</ele>
        <time>2026-07-01T08:12:17Z</time>
      </trkpt>
      <trkpt lat="44.09922" lon="5.96796">
        <ele>677.8</ele>
        <time>2026-07-01T08:12:18Z</time>
      </trkpt>
      <trkpt lat="44.09925" lon="5.96796">
        <ele>676.72</ele>
        <time>2026-07-01T08:12:30Z</time>
      </trkpt>
      <trkpt lat="44.09926" lon="5.96794">
        <ele>677.13</ele>
        <time>2026-07-01T08:13:12Z</time>
      </trkpt>
      <trkpt lat="44.09943" lon="5.96774">
        <ele>676.36</ele>
        <time>2026-07-01T08:13:21Z</time>
      </trkpt>
      <trkpt lat="44.09948" lon="5.96771">
        <ele>676.32</ele>
        <time>2026-07-01T08:13:30Z</time>
      </trkpt>
      <trkpt lat="44.09957" lon="5.96769">
        <ele>676.74</ele>
        <time>2026-07-01T08:13:49Z</time>
      </trkpt>
      <trkpt lat="44.0997" lon="5.96768">
        <ele>676.18</ele>
        <time>2026-07-01T08:13:54Z</time>
      </trkpt>
      <trkpt lat="44.09974" lon="5.96763">
        <ele>675.3</ele>
        <time>2026-07-01T08:14:04Z</time>
      </trkpt>
      <trkpt lat="44.09971" lon="5.96768">
        <ele>676.24</ele>
        <time>2026-07-01T08:14:15Z</time>
      </trkpt>
      <trkpt lat="44.09969" lon="5.96769">
        <ele>676.14</ele>
        <time>2026-07-01T08:14:16Z</time>
      </trkpt>
      <trkpt lat="44.09968" lon="5.9677">
        <ele>676.26</ele>
        <time>2026-07-01T08:14:17Z</time>
      </trkpt>
      <trkpt lat="44.09967" lon="5.9677">
        <ele>676.26</ele>
        <time>2026-07-01T08:14:18Z</time>
      </trkpt>
      <trkpt lat="44.09966" lon="5.9677">
        <ele>676.51</ele>
        <time>2026-07-01T08:14:19Z</time>
      </trkpt>
      <trkpt lat="44.09964" lon="5.96769">
        <ele>676.57</ele>
        <time>2026-07-01T08:14:20Z</time>
      </trkpt>
      <trkpt lat="44.09962" lon="5.96767">
        <ele>676.5</ele>
        <time>2026-07-01T08:14:24Z</time>
      </trkpt>
      <trkpt lat="44.09962" lon="5.96766">
        <ele>676.16</ele>
        <time>2026-07-01T08:14:25Z</time>
      </trkpt>
      <trkpt lat="44.09962" lon="5.96764">
        <ele>675.95</ele>
        <time>2026-07-01T08:14:26Z</time>
      </trkpt>
      <trkpt lat="44.09958" lon="5.96762">
        <ele>674.53</ele>
        <time>2026-07-01T08:14:32Z</time>
      </trkpt>
      <trkpt lat="44.09957" lon="5.96761">
        <ele>674.09</ele>
        <time>2026-07-01T08:14:33Z</time>
      </trkpt>
      <trkpt lat="44.09953" lon="5.96759">
        <ele>672.89</ele>
        <time>2026-07-01T08:14:48Z</time>
      </trkpt>
      <trkpt lat="44.09952" lon="5.96758">
        <ele>673.06</ele>
        <time>2026-07-01T08:16:12Z</time>
      </trkpt>
      <trkpt lat="44.09952" lon="5.96757">
        <ele>673.04</ele>
        <time>2026-07-01T08:17:31Z</time>
      </trkpt>
      <trkpt lat="44.09947" lon="5.96749">
        <ele>671.23</ele>
        <time>2026-07-01T08:17:44Z</time>
      </trkpt>
      <trkpt lat="44.09946" lon="5.96746">
        <ele>670.13</ele>
        <time>2026-07-01T08:17:55Z</time>
      </trkpt>
      <trkpt lat="44.09945" lon="5.96745">
        <ele>669.77</ele>
        <time>2026-07-01T08:17:56Z</time>
      </trkpt>
      <trkpt lat="44.09938" lon="5.96739">
        <ele>666.61</ele>
        <time>2026-07-01T08:18:08Z</time>
      </trkpt>
      <trkpt lat="44.09936" lon="5.96738">
        <ele>666.03</ele>
        <time>2026-07-01T08:18:09Z</time>
      </trkpt>
      <trkpt lat="44.09934" lon="5.96737">
        <ele>665.75</ele>
        <time>2026-07-01T08:18:10Z</time>
      </trkpt>
      <trkpt lat="44.09926" lon="5.96732">
        <ele>663.11</ele>
        <time>2026-07-01T08:18:16Z</time>
      </trkpt>
      <trkpt lat="44.09926" lon="5.9673">
        <ele>662.71</ele>
        <time>2026-07-01T08:18:17Z</time>
      </trkpt>
      <trkpt lat="44.09927" lon="5.96727">
        <ele>662.44</ele>
        <time>2026-07-01T08:18:18Z</time>
      </trkpt>
      <trkpt lat="44.09927" lon="5.96725">
        <ele>662.4</ele>
        <time>2026-07-01T08:18:19Z</time>
      </trkpt>
      <trkpt lat="44.09926" lon="5.96722">
        <ele>662.56</ele>
        <time>2026-07-01T08:18:20Z</time>
      </trkpt>
      <trkpt lat="44.09926" lon="5.9672">
        <ele>662.82</ele>
        <time>2026-07-01T08:18:21Z</time>
      </trkpt>
      <trkpt lat="44.09925" lon="5.96717">
        <ele>663.01</ele>
        <time>2026-07-01T08:18:22Z</time>
      </trkpt>
      <trkpt lat="44.09924" lon="5.96714">
        <ele>662.43</ele>
        <time>2026-07-01T08:18:23Z</time>
      </trkpt>
      <trkpt lat="44.09923" lon="5.96711">
        <ele>661.31</ele>
        <time>2026-07-01T08:18:24Z</time>
      </trkpt>
      <trkpt lat="44.09922" lon="5.96709">
        <ele>660.59</ele>
        <time>2026-07-01T08:18:25Z</time>
      </trkpt>
      <trkpt lat="44.09923" lon="5.96706">
        <ele>660.17</ele>
        <time>2026-07-01T08:18:26Z</time>
      </trkpt>
      <trkpt lat="44.09923" lon="5.96703">
        <ele>658.8</ele>
        <time>2026-07-01T08:18:27Z</time>
      </trkpt>
      <trkpt lat="44.09923" lon="5.96701">
        <ele>658.74</ele>
        <time>2026-07-01T08:18:28Z</time>
      </trkpt>
      <trkpt lat="44.09925" lon="5.96699">
        <ele>658.01</ele>
        <time>2026-07-01T08:18:30Z</time>
      </trkpt>
      <trkpt lat="44.09927" lon="5.96692">
        <ele>657.38</ele>
        <time>2026-07-01T08:18:35Z</time>
      </trkpt>
      <trkpt lat="44.09927" lon="5.9669">
        <ele>656.63</ele>
        <time>2026-07-01T08:18:37Z</time>
      </trkpt>
      <trkpt lat="44.09926" lon="5.96689">
        <ele>656.16</ele>
        <time>2026-07-01T08:18:48Z</time>
      </trkpt>
      <trkpt lat="44.09927" lon="5.9669">
        <ele>656.6</ele>
        <time>2026-07-01T08:19:55Z</time>
      </trkpt>
      <trkpt lat="44.09928" lon="5.96688">
        <ele>657.14</ele>
        <time>2026-07-01T08:20:27Z</time>
      </trkpt>
      <trkpt lat="44.09929" lon="5.96686">
        <ele>657.08</ele>
        <time>2026-07-01T08:20:28Z</time>
      </trkpt>
      <trkpt lat="44.09931" lon="5.9668">
        <ele>656.12</ele>
        <time>2026-07-01T08:20:40Z</time>
      </trkpt>
      <trkpt lat="44.09932" lon="5.96679">
        <ele>656.15</ele>
        <time>2026-07-01T08:20:43Z</time>
      </trkpt>
      <trkpt lat="44.09934" lon="5.96674">
        <ele>656.6</ele>
        <time>2026-07-01T08:20:45Z</time>
      </trkpt>
      <trkpt lat="44.09935" lon="5.96672">
        <ele>656.72</ele>
        <time>2026-07-01T08:20:46Z</time>
      </trkpt>
      <trkpt lat="44.09937" lon="5.9667">
        <ele>656.73</ele>
        <time>2026-07-01T08:20:47Z</time>
      </trkpt>
      <trkpt lat="44.09939" lon="5.96669">
        <ele>656.89</ele>
        <time>2026-07-01T08:20:48Z</time>
      </trkpt>
      <trkpt lat="44.09941" lon="5.96668">
        <ele>657.2</ele>
        <time>2026-07-01T08:20:49Z</time>
      </trkpt>
      <trkpt lat="44.09943" lon="5.96667">
        <ele>657.41</ele>
        <time>2026-07-01T08:20:50Z</time>
      </trkpt>
      <trkpt lat="44.09953" lon="5.96641">
        <ele>658.35</ele>
        <time>2026-07-01T08:21:00Z</time>
      </trkpt>
      <trkpt lat="44.09951" lon="5.96638">
        <ele>657.03</ele>
        <time>2026-07-01T08:21:01Z</time>
      </trkpt>
      <trkpt lat="44.09948" lon="5.96636">
        <ele>656.4</ele>
        <time>2026-07-01T08:21:02Z</time>
      </trkpt>
      <trkpt lat="44.09944" lon="5.96635">
        <ele>655.84</ele>
        <time>2026-07-01T08:21:03Z</time>
      </trkpt>
      <trkpt lat="44.0994" lon="5.96633">
        <ele>655.39</ele>
        <time>2026-07-01T08:21:04Z</time>
      </trkpt>
      <trkpt lat="44.09938" lon="5.96629">
        <ele>654.91</ele>
        <time>2026-07-01T08:21:05Z</time>
      </trkpt>
      <trkpt lat="44.09936" lon="5.96625">
        <ele>654.27</ele>
        <time>2026-07-01T08:21:06Z</time>
      </trkpt>
      <trkpt lat="44.09936" lon="5.96622">
        <ele>653.89</ele>
        <time>2026-07-01T08:21:07Z</time>
      </trkpt>
      <trkpt lat="44.09935" lon="5.96616">
        <ele>652.79</ele>
        <time>2026-07-01T08:21:17Z</time>
      </trkpt>
      <trkpt lat="44.09935" lon="5.96613">
        <ele>652.5</ele>
        <time>2026-07-01T08:21:19Z</time>
      </trkpt>
      <trkpt lat="44.09944" lon="5.96578">
        <ele>651.18</ele>
        <time>2026-07-01T08:21:29Z</time>
      </trkpt>
      <trkpt lat="44.09962" lon="5.96561">
        <ele>651.23</ele>
        <time>2026-07-01T08:21:39Z</time>
      </trkpt>
      <trkpt lat="44.09984" lon="5.96548">
        <ele>652.06</ele>
        <time>2026-07-01T08:21:50Z</time>
      </trkpt>
      <trkpt lat="44.09994" lon="5.96552">
        <ele>653.18</ele>
        <time>2026-07-01T08:21:55Z</time>
      </trkpt>
      <trkpt lat="44.10014" lon="5.96581">
        <ele>654.8</ele>
        <time>2026-07-01T08:22:09Z</time>
      </trkpt>
      <trkpt lat="44.1003" lon="5.96608">
        <ele>654.15</ele>
        <time>2026-07-01T08:22:19Z</time>
      </trkpt>
      <trkpt lat="44.10032" lon="5.96614">
        <ele>653.88</ele>
        <time>2026-07-01T08:22:20Z</time>
      </trkpt>
      <trkpt lat="44.10034" lon="5.96619">
        <ele>653.81</ele>
        <time>2026-07-01T08:22:21Z</time>
      </trkpt>
      <trkpt lat="44.1004" lon="5.96644">
        <ele>652.26</ele>
        <time>2026-07-01T08:22:27Z</time>
      </trkpt>
      <trkpt lat="44.10043" lon="5.96649">
        <ele>651.56</ele>
        <time>2026-07-01T08:22:28Z</time>
      </trkpt>
      <trkpt lat="44.10046" lon="5.96653">
        <ele>650.95</ele>
        <time>2026-07-01T08:22:29Z</time>
      </trkpt>
      <trkpt lat="44.1005" lon="5.96656">
        <ele>650.84</ele>
        <time>2026-07-01T08:22:30Z</time>
      </trkpt>
      <trkpt lat="44.10054" lon="5.96658">
        <ele>650.52</ele>
        <time>2026-07-01T08:22:31Z</time>
      </trkpt>
      <trkpt lat="44.10058" lon="5.96659">
        <ele>650.24</ele>
        <time>2026-07-01T08:22:32Z</time>
      </trkpt>
      <trkpt lat="44.1006" lon="5.96658">
        <ele>650.12</ele>
        <time>2026-07-01T08:22:33Z</time>
      </trkpt>
      <trkpt lat="44.10063" lon="5.96658">
        <ele>650.22</ele>
        <time>2026-07-01T08:22:34Z</time>
      </trkpt>
      <trkpt lat="44.10074" lon="5.96658">
        <ele>652.47</ele>
        <time>2026-07-01T08:22:45Z</time>
      </trkpt>
      <trkpt lat="44.10091" lon="5.9666">
        <ele>652.66</ele>
        <time>2026-07-01T08:22:54Z</time>
      </trkpt>
      <trkpt lat="44.10095" lon="5.96659">
        <ele>652.25</ele>
        <time>2026-07-01T08:22:56Z</time>
      </trkpt>
      <trkpt lat="44.10103" lon="5.9666">
        <ele>650.99</ele>
        <time>2026-07-01T08:23:04Z</time>
      </trkpt>
      <trkpt lat="44.10109" lon="5.96659">
        <ele>650.68</ele>
        <time>2026-07-01T08:23:07Z</time>
      </trkpt>
      <trkpt lat="44.10111" lon="5.96657">
        <ele>650.77</ele>
        <time>2026-07-01T08:23:08Z</time>
      </trkpt>
      <trkpt lat="44.10129" lon="5.96654">
        <ele>650.97</ele>
        <time>2026-07-01T08:23:17Z</time>
      </trkpt>
      <trkpt lat="44.10131" lon="5.96653">
        <ele>651.09</ele>
        <time>2026-07-01T08:23:18Z</time>
      </trkpt>
      <trkpt lat="44.10134" lon="5.96652">
        <ele>651.48</ele>
        <time>2026-07-01T08:23:19Z</time>
      </trkpt>
      <trkpt lat="44.10137" lon="5.96652">
        <ele>651.07</ele>
        <time>2026-07-01T08:23:20Z</time>
      </trkpt>
      <trkpt lat="44.10139" lon="5.96653">
        <ele>650.95</ele>
        <time>2026-07-01T08:23:21Z</time>
      </trkpt>
      <trkpt lat="44.10142" lon="5.96654">
        <ele>650.85</ele>
        <time>2026-07-01T08:23:22Z</time>
      </trkpt>
      <trkpt lat="44.10145" lon="5.96654">
        <ele>650.92</ele>
        <time>2026-07-01T08:23:23Z</time>
      </trkpt>
      <trkpt lat="44.10148" lon="5.96653">
        <ele>651.02</ele>
        <time>2026-07-01T08:23:24Z</time>
      </trkpt>
      <trkpt lat="44.10151" lon="5.96652">
        <ele>651.08</ele>
        <time>2026-07-01T08:23:25Z</time>
      </trkpt>
      <trkpt lat="44.10154" lon="5.96652">
        <ele>650.85</ele>
        <time>2026-07-01T08:23:26Z</time>
      </trkpt>
      <trkpt lat="44.10157" lon="5.96652">
        <ele>650.63</ele>
        <time>2026-07-01T08:23:27Z</time>
      </trkpt>
      <trkpt lat="44.1016" lon="5.96652">
        <ele>650.53</ele>
        <time>2026-07-01T08:23:28Z</time>
      </trkpt>
      <trkpt lat="44.10176" lon="5.96656">
        <ele>649.35</ele>
        <time>2026-07-01T08:23:36Z</time>
      </trkpt>
      <trkpt lat="44.10191" lon="5.9667">
        <ele>647.28</ele>
        <time>2026-07-01T08:23:41Z</time>
      </trkpt>
      <trkpt lat="44.10205" lon="5.96683">
        <ele>643.97</ele>
        <time>2026-07-01T08:23:48Z</time>
      </trkpt>
      <trkpt lat="44.10208" lon="5.96684">
        <ele>643.68</ele>
        <time>2026-07-01T08:23:49Z</time>
      </trkpt>
      <trkpt lat="44.10211" lon="5.96687">
        <ele>643.21</ele>
        <time>2026-07-01T08:23:50Z</time>
      </trkpt>
      <trkpt lat="44.10212" lon="5.96691">
        <ele>643.01</ele>
        <time>2026-07-01T08:23:51Z</time>
      </trkpt>
      <trkpt lat="44.10214" lon="5.96695">
        <ele>642.78</ele>
        <time>2026-07-01T08:23:52Z</time>
      </trkpt>
      <trkpt lat="44.10217" lon="5.96698">
        <ele>642.62</ele>
        <time>2026-07-01T08:23:53Z</time>
      </trkpt>
      <trkpt lat="44.1022" lon="5.967">
        <ele>642.29</ele>
        <time>2026-07-01T08:23:54Z</time>
      </trkpt>
      <trkpt lat="44.10227" lon="5.96706">
        <ele>641.56</ele>
        <time>2026-07-01T08:24:01Z</time>
      </trkpt>
      <trkpt lat="44.10234" lon="5.96712">
        <ele>640.65</ele>
        <time>2026-07-01T08:24:06Z</time>
      </trkpt>
      <trkpt lat="44.10235" lon="5.96715">
        <ele>640.4</ele>
        <time>2026-07-01T08:24:07Z</time>
      </trkpt>
      <trkpt lat="44.10237" lon="5.96717">
        <ele>640.4</ele>
        <time>2026-07-01T08:24:08Z</time>
      </trkpt>
      <trkpt lat="44.10263" lon="5.96747">
        <ele>637.75</ele>
        <time>2026-07-01T08:24:20Z</time>
      </trkpt>
      <trkpt lat="44.10292" lon="5.96775">
        <ele>634.73</ele>
        <time>2026-07-01T08:24:30Z</time>
      </trkpt>
      <trkpt lat="44.10305" lon="5.96787">
        <ele>631.12</ele>
        <time>2026-07-01T08:24:36Z</time>
      </trkpt>
      <trkpt lat="44.10308" lon="5.96791">
        <ele>630.54</ele>
        <time>2026-07-01T08:24:37Z</time>
      </trkpt>
      <trkpt lat="44.10329" lon="5.96808">
        <ele>626.95</ele>
        <time>2026-07-01T08:24:46Z</time>
      </trkpt>
      <trkpt lat="44.10331" lon="5.9681">
        <ele>626.18</ele>
        <time>2026-07-01T08:24:47Z</time>
      </trkpt>
      <trkpt lat="44.10332" lon="5.96813">
        <ele>626.1</ele>
        <time>2026-07-01T08:24:48Z</time>
      </trkpt>
      <trkpt lat="44.10348" lon="5.96827">
        <ele>626.35</ele>
        <time>2026-07-01T08:24:58Z</time>
      </trkpt>
      <trkpt lat="44.10354" lon="5.96829">
        <ele>625.89</ele>
        <time>2026-07-01T08:25:18Z</time>
      </trkpt>
      <trkpt lat="44.10356" lon="5.96829">
        <ele>625.7</ele>
        <time>2026-07-01T08:25:19Z</time>
      </trkpt>
      <trkpt lat="44.10387" lon="5.96824">
        <ele>623.29</ele>
        <time>2026-07-01T08:25:28Z</time>
      </trkpt>
      <trkpt lat="44.10391" lon="5.96823">
        <ele>623.18</ele>
        <time>2026-07-01T08:25:29Z</time>
      </trkpt>
      <trkpt lat="44.10395" lon="5.96821">
        <ele>623.13</ele>
        <time>2026-07-01T08:25:30Z</time>
      </trkpt>
      <trkpt lat="44.10398" lon="5.9682">
        <ele>623.08</ele>
        <time>2026-07-01T08:25:31Z</time>
      </trkpt>
      <trkpt lat="44.10401" lon="5.96819">
        <ele>623.07</ele>
        <time>2026-07-01T08:25:32Z</time>
      </trkpt>
      <trkpt lat="44.10436" lon="5.96802">
        <ele>622.42</ele>
        <time>2026-07-01T08:25:44Z</time>
      </trkpt>
      <trkpt lat="44.10459" lon="5.96799">
        <ele>621.48</ele>
        <time>2026-07-01T08:25:51Z</time>
      </trkpt>
      <trkpt lat="44.10461" lon="5.96798">
        <ele>621.3</ele>
        <time>2026-07-01T08:25:52Z</time>
      </trkpt>
      <trkpt lat="44.10463" lon="5.96797">
        <ele>621.42</ele>
        <time>2026-07-01T08:25:53Z</time>
      </trkpt>
      <trkpt lat="44.10466" lon="5.96797">
        <ele>621.49</ele>
        <time>2026-07-01T08:25:54Z</time>
      </trkpt>
      <trkpt lat="44.10469" lon="5.96796">
        <ele>621.48</ele>
        <time>2026-07-01T08:25:55Z</time>
      </trkpt>
      <trkpt lat="44.10472" lon="5.96796">
        <ele>620.76</ele>
        <time>2026-07-01T08:25:56Z</time>
      </trkpt>
      <trkpt lat="44.10476" lon="5.96795">
        <ele>620.38</ele>
        <time>2026-07-01T08:25:57Z</time>
      </trkpt>
      <trkpt lat="44.10479" lon="5.96794">
        <ele>620.8</ele>
        <time>2026-07-01T08:25:58Z</time>
      </trkpt>
      <trkpt lat="44.10482" lon="5.96793">
        <ele>621.3</ele>
        <time>2026-07-01T08:25:59Z</time>
      </trkpt>
      <trkpt lat="44.10485" lon="5.96794">
        <ele>621.38</ele>
        <time>2026-07-01T08:26:00Z</time>
      </trkpt>
      <trkpt lat="44.10488" lon="5.96794">
        <ele>621.26</ele>
        <time>2026-07-01T08:26:01Z</time>
      </trkpt>
      <trkpt lat="44.10491" lon="5.96794">
        <ele>621.15</ele>
        <time>2026-07-01T08:26:02Z</time>
      </trkpt>
      <trkpt lat="44.10494" lon="5.96793">
        <ele>621.07</ele>
        <time>2026-07-01T08:26:03Z</time>
      </trkpt>
      <trkpt lat="44.10497" lon="5.96791">
        <ele>621.15</ele>
        <time>2026-07-01T08:26:04Z</time>
      </trkpt>
      <trkpt lat="44.10499" lon="5.96789">
        <ele>620.76</ele>
        <time>2026-07-01T08:26:05Z</time>
      </trkpt>
      <trkpt lat="44.10501" lon="5.96787">
        <ele>620.78</ele>
        <time>2026-07-01T08:26:06Z</time>
      </trkpt>
      <trkpt lat="44.10503" lon="5.96785">
        <ele>621.33</ele>
        <time>2026-07-01T08:26:07Z</time>
      </trkpt>
      <trkpt lat="44.10506" lon="5.96784">
        <ele>621.3</ele>
        <time>2026-07-01T08:26:08Z</time>
      </trkpt>
      <trkpt lat="44.10508" lon="5.96782">
        <ele>620.93</ele>
        <time>2026-07-01T08:26:09Z</time>
      </trkpt>
      <trkpt lat="44.10526" lon="5.96777">
        <ele>620.12</ele>
        <time>2026-07-01T08:26:16Z</time>
      </trkpt>
      <trkpt lat="44.10528" lon="5.96778">
        <ele>619.71</ele>
        <time>2026-07-01T08:26:17Z</time>
      </trkpt>
      <trkpt lat="44.10531" lon="5.96777">
        <ele>619.1</ele>
        <time>2026-07-01T08:26:18Z</time>
      </trkpt>
      <trkpt lat="44.10532" lon="5.96776">
        <ele>618.8</ele>
        <time>2026-07-01T08:26:19Z</time>
      </trkpt>
      <trkpt lat="44.10535" lon="5.96777">
        <ele>618.13</ele>
        <time>2026-07-01T08:26:20Z</time>
      </trkpt>
      <trkpt lat="44.10538" lon="5.96778">
        <ele>617.83</ele>
        <time>2026-07-01T08:26:21Z</time>
      </trkpt>
      <trkpt lat="44.10541" lon="5.96778">
        <ele>617.46</ele>
        <time>2026-07-01T08:26:22Z</time>
      </trkpt>
      <trkpt lat="44.10543" lon="5.96778">
        <ele>617.33</ele>
        <time>2026-07-01T08:26:23Z</time>
      </trkpt>
      <trkpt lat="44.10545" lon="5.96778">
        <ele>617.36</ele>
        <time>2026-07-01T08:26:24Z</time>
      </trkpt>
      <trkpt lat="44.10546" lon="5.96778">
        <ele>617.2</ele>
        <time>2026-07-01T08:26:25Z</time>
      </trkpt>
      <trkpt lat="44.10547" lon="5.96777">
        <ele>616.5</ele>
        <time>2026-07-01T08:26:26Z</time>
      </trkpt>
      <trkpt lat="44.10549" lon="5.96776">
        <ele>615.74</ele>
        <time>2026-07-01T08:26:27Z</time>
      </trkpt>
      <trkpt lat="44.10552" lon="5.96774">
        <ele>614.5</ele>
        <time>2026-07-01T08:26:28Z</time>
      </trkpt>
      <trkpt lat="44.10555" lon="5.96773">
        <ele>614.15</ele>
        <time>2026-07-01T08:26:29Z</time>
      </trkpt>
      <trkpt lat="44.10565" lon="5.96771">
        <ele>613.49</ele>
        <time>2026-07-01T08:26:37Z</time>
      </trkpt>
      <trkpt lat="44.10567" lon="5.96771">
        <ele>613.32</ele>
        <time>2026-07-01T08:26:38Z</time>
      </trkpt>
      <trkpt lat="44.10569" lon="5.9677">
        <ele>613.29</ele>
        <time>2026-07-01T08:26:39Z</time>
      </trkpt>
      <trkpt lat="44.10572" lon="5.96769">
        <ele>613.09</ele>
        <time>2026-07-01T08:26:40Z</time>
      </trkpt>
      <trkpt lat="44.10574" lon="5.96768">
        <ele>612.78</ele>
        <time>2026-07-01T08:26:41Z</time>
      </trkpt>
      <trkpt lat="44.10599" lon="5.9676">
        <ele>610.78</ele>
        <time>2026-07-01T08:26:50Z</time>
      </trkpt>
      <trkpt lat="44.10604" lon="5.9676">
        <ele>610.49</ele>
        <time>2026-07-01T08:26:51Z</time>
      </trkpt>
      <trkpt lat="44.1061" lon="5.96758">
        <ele>610.1</ele>
        <time>2026-07-01T08:26:52Z</time>
      </trkpt>
      <trkpt lat="44.10639" lon="5.96756">
        <ele>610.84</ele>
        <time>2026-07-01T08:27:01Z</time>
      </trkpt>
      <trkpt lat="44.10665" lon="5.96747">
        <ele>611.42</ele>
        <time>2026-07-01T08:27:13Z</time>
      </trkpt>
      <trkpt lat="44.10665" lon="5.96745">
        <ele>611.61</ele>
        <time>2026-07-01T08:27:14Z</time>
      </trkpt>
      <trkpt lat="44.10663" lon="5.96745">
        <ele>611.25</ele>
        <time>2026-07-01T08:27:15Z</time>
      </trkpt>
      <trkpt lat="44.10661" lon="5.96745">
        <ele>611.21</ele>
        <time>2026-07-01T08:27:16Z</time>
      </trkpt>
      <trkpt lat="44.10658" lon="5.96746">
        <ele>610.87</ele>
        <time>2026-07-01T08:27:17Z</time>
      </trkpt>
      <trkpt lat="44.10656" lon="5.96746">
        <ele>610.87</ele>
        <time>2026-07-01T08:27:18Z</time>
      </trkpt>
      <trkpt lat="44.10654" lon="5.96746">
        <ele>610.76</ele>
        <time>2026-07-01T08:27:19Z</time>
      </trkpt>
      <trkpt lat="44.10654" lon="5.96743">
        <ele>610.2</ele>
        <time>2026-07-01T08:27:21Z</time>
      </trkpt>
      <trkpt lat="44.10654" lon="5.96741">
        <ele>609.79</ele>
        <time>2026-07-01T08:27:22Z</time>
      </trkpt>
      <trkpt lat="44.10655" lon="5.96739">
        <ele>608.85</ele>
        <time>2026-07-01T08:27:23Z</time>
      </trkpt>
      <trkpt lat="44.10657" lon="5.96737">
        <ele>608.34</ele>
        <time>2026-07-01T08:27:24Z</time>
      </trkpt>
      <trkpt lat="44.10659" lon="5.96735">
        <ele>608.29</ele>
        <time>2026-07-01T08:27:25Z</time>
      </trkpt>
      <trkpt lat="44.1066" lon="5.96734">
        <ele>608.27</ele>
        <time>2026-07-01T08:27:26Z</time>
      </trkpt>
      <trkpt lat="44.10662" lon="5.96733">
        <ele>608.43</ele>
        <time>2026-07-01T08:27:39Z</time>
      </trkpt>
      <trkpt lat="44.10677" lon="5.96728">
        <ele>609.04</ele>
        <time>2026-07-01T08:27:54Z</time>
      </trkpt>
      <trkpt lat="44.10702" lon="5.96713">
        <ele>609.76</ele>
        <time>2026-07-01T08:28:05Z</time>
      </trkpt>
      <trkpt lat="44.10732" lon="5.96696">
        <ele>612.27</ele>
        <time>2026-07-01T08:28:20Z</time>
      </trkpt>
      <trkpt lat="44.10734" lon="5.96695">
        <ele>612.35</ele>
        <time>2026-07-01T08:28:21Z</time>
      </trkpt>
      <trkpt lat="44.10735" lon="5.96694">
        <ele>612.36</ele>
        <time>2026-07-01T08:28:22Z</time>
      </trkpt>
      <trkpt lat="44.10737" lon="5.96694">
        <ele>612.44</ele>
        <time>2026-07-01T08:28:23Z</time>
      </trkpt>
      <trkpt lat="44.10739" lon="5.96694">
        <ele>612.66</ele>
        <time>2026-07-01T08:28:24Z</time>
      </trkpt>
      <trkpt lat="44.10748" lon="5.96694">
        <ele>612.73</ele>
        <time>2026-07-01T08:28:28Z</time>
      </trkpt>
      <trkpt lat="44.1075" lon="5.96694">
        <ele>612.59</ele>
        <time>2026-07-01T08:28:29Z</time>
      </trkpt>
      <trkpt lat="44.10752" lon="5.96694">
        <ele>612.34</ele>
        <time>2026-07-01T08:28:30Z</time>
      </trkpt>
      <trkpt lat="44.10754" lon="5.96691">
        <ele>612.05</ele>
        <time>2026-07-01T08:28:31Z</time>
      </trkpt>
      <trkpt lat="44.10756" lon="5.96687">
        <ele>611.45</ele>
        <time>2026-07-01T08:28:32Z</time>
      </trkpt>
      <trkpt lat="44.1076" lon="5.96676">
        <ele>609.24</ele>
        <time>2026-07-01T08:28:37Z</time>
      </trkpt>
      <trkpt lat="44.10762" lon="5.96677">
        <ele>608.69</ele>
        <time>2026-07-01T08:28:38Z</time>
      </trkpt>
      <trkpt lat="44.10763" lon="5.96677">
        <ele>608.42</ele>
        <time>2026-07-01T08:28:39Z</time>
      </trkpt>
      <trkpt lat="44.10772" lon="5.96678">
        <ele>607.62</ele>
        <time>2026-07-01T08:28:53Z</time>
      </trkpt>
      <trkpt lat="44.10777" lon="5.96678">
        <ele>607.8</ele>
        <time>2026-07-01T08:29:12Z</time>
      </trkpt>
      <trkpt lat="44.10778" lon="5.96679">
        <ele>607.76</ele>
        <time>2026-07-01T08:29:13Z</time>
      </trkpt>
      <trkpt lat="44.1078" lon="5.96681">
        <ele>607.54</ele>
        <time>2026-07-01T08:29:14Z</time>
      </trkpt>
      <trkpt lat="44.10782" lon="5.96682">
        <ele>607.37</ele>
        <time>2026-07-01T08:29:15Z</time>
      </trkpt>
      <trkpt lat="44.10786" lon="5.96679">
        <ele>606.92</ele>
        <time>2026-07-01T08:29:17Z</time>
      </trkpt>
      <trkpt lat="44.10792" lon="5.96688">
        <ele>605.7</ele>
        <time>2026-07-01T08:29:25Z</time>
      </trkpt>
      <trkpt lat="44.10793" lon="5.96688">
        <ele>605.61</ele>
        <time>2026-07-01T08:29:27Z</time>
      </trkpt>
      <trkpt lat="44.10798" lon="5.96686">
        <ele>604.62</ele>
        <time>2026-07-01T08:29:30Z</time>
      </trkpt>
      <trkpt lat="44.108" lon="5.96686">
        <ele>604.03</ele>
        <time>2026-07-01T08:29:31Z</time>
      </trkpt>
      <trkpt lat="44.10802" lon="5.96687">
        <ele>603.9</ele>
        <time>2026-07-01T08:29:32Z</time>
      </trkpt>
      <trkpt lat="44.10804" lon="5.9669">
        <ele>603.56</ele>
        <time>2026-07-01T08:29:33Z</time>
      </trkpt>
      <trkpt lat="44.10807" lon="5.96693">
        <ele>603.43</ele>
        <time>2026-07-01T08:29:34Z</time>
      </trkpt>
      <trkpt lat="44.10825" lon="5.96721">
        <ele>603.87</ele>
        <time>2026-07-01T08:29:45Z</time>
      </trkpt>
      <trkpt lat="44.10826" lon="5.96723">
        <ele>603.88</ele>
        <time>2026-07-01T08:29:46Z</time>
      </trkpt>
      <trkpt lat="44.10829" lon="5.96725">
        <ele>603.87</ele>
        <time>2026-07-01T08:29:47Z</time>
      </trkpt>
      <trkpt lat="44.10831" lon="5.96726">
        <ele>603.59</ele>
        <time>2026-07-01T08:29:48Z</time>
      </trkpt>
      <trkpt lat="44.10835" lon="5.96727">
        <ele>603.3</ele>
        <time>2026-07-01T08:29:49Z</time>
      </trkpt>
      <trkpt lat="44.10839" lon="5.96729">
        <ele>603.14</ele>
        <time>2026-07-01T08:29:50Z</time>
      </trkpt>
      <trkpt lat="44.10842" lon="5.96731">
        <ele>602.67</ele>
        <time>2026-07-01T08:29:51Z</time>
      </trkpt>
      <trkpt lat="44.10844" lon="5.96732">
        <ele>602.5</ele>
        <time>2026-07-01T08:29:52Z</time>
      </trkpt>
      <trkpt lat="44.10846" lon="5.96733">
        <ele>602.11</ele>
        <time>2026-07-01T08:29:53Z</time>
      </trkpt>
      <trkpt lat="44.10846" lon="5.96731">
        <ele>601.81</ele>
        <time>2026-07-01T08:29:54Z</time>
      </trkpt>
      <trkpt lat="44.10846" lon="5.96728">
        <ele>601.36</ele>
        <time>2026-07-01T08:29:55Z</time>
      </trkpt>
      <trkpt lat="44.10847" lon="5.96726">
        <ele>601.15</ele>
        <time>2026-07-01T08:29:56Z</time>
      </trkpt>
      <trkpt lat="44.10851" lon="5.96725">
        <ele>600.24</ele>
        <time>2026-07-01T08:30:02Z</time>
      </trkpt>
      <trkpt lat="44.10856" lon="5.96722">
        <ele>599.1</ele>
        <time>2026-07-01T08:30:05Z</time>
      </trkpt>
      <trkpt lat="44.10858" lon="5.96723">
        <ele>598.6</ele>
        <time>2026-07-01T08:30:06Z</time>
      </trkpt>
      <trkpt lat="44.10861" lon="5.96723">
        <ele>598.26</ele>
        <time>2026-07-01T08:30:07Z</time>
      </trkpt>
      <trkpt lat="44.10864" lon="5.96725">
        <ele>598.17</ele>
        <time>2026-07-01T08:30:08Z</time>
      </trkpt>
      <trkpt lat="44.10866" lon="5.96726">
        <ele>598.12</ele>
        <time>2026-07-01T08:30:09Z</time>
      </trkpt>
      <trkpt lat="44.10869" lon="5.96727">
        <ele>597.9</ele>
        <time>2026-07-01T08:30:10Z</time>
      </trkpt>
      <trkpt lat="44.10872" lon="5.96728">
        <ele>597.39</ele>
        <time>2026-07-01T08:30:11Z</time>
      </trkpt>
      <trkpt lat="44.10887" lon="5.96734">
        <ele>596.6</ele>
        <time>2026-07-01T08:30:15Z</time>
      </trkpt>
      <trkpt lat="44.10891" lon="5.96736">
        <ele>596.29</ele>
        <time>2026-07-01T08:30:16Z</time>
      </trkpt>
      <trkpt lat="44.10894" lon="5.96738">
        <ele>595.9</ele>
        <time>2026-07-01T08:30:17Z</time>
      </trkpt>
      <trkpt lat="44.10898" lon="5.96738">
        <ele>595.46</ele>
        <time>2026-07-01T08:30:18Z</time>
      </trkpt>
      <trkpt lat="44.10901" lon="5.96737">
        <ele>594.88</ele>
        <time>2026-07-01T08:30:19Z</time>
      </trkpt>
      <trkpt lat="44.10902" lon="5.96735">
        <ele>594.46</ele>
        <time>2026-07-01T08:30:20Z</time>
      </trkpt>
      <trkpt lat="44.10903" lon="5.96733">
        <ele>593.85</ele>
        <time>2026-07-01T08:30:21Z</time>
      </trkpt>
      <trkpt lat="44.10902" lon="5.96731">
        <ele>593.48</ele>
        <time>2026-07-01T08:30:22Z</time>
      </trkpt>
      <trkpt lat="44.10902" lon="5.96729">
        <ele>593.2</ele>
        <time>2026-07-01T08:30:23Z</time>
      </trkpt>
      <trkpt lat="44.10905" lon="5.96727">
        <ele>592.58</ele>
        <time>2026-07-01T08:30:25Z</time>
      </trkpt>
      <trkpt lat="44.10907" lon="5.96727">
        <ele>592.45</ele>
        <time>2026-07-01T08:30:26Z</time>
      </trkpt>
      <trkpt lat="44.10912" lon="5.96727">
        <ele>591.66</ele>
        <time>2026-07-01T08:30:37Z</time>
      </trkpt>
      <trkpt lat="44.10921" lon="5.96727">
        <ele>591.66</ele>
        <time>2026-07-01T08:30:56Z</time>
      </trkpt>
      <trkpt lat="44.10923" lon="5.96724">
        <ele>591.43</ele>
        <time>2026-07-01T08:30:57Z</time>
      </trkpt>
      <trkpt lat="44.10925" lon="5.9672">
        <ele>590.78</ele>
        <time>2026-07-01T08:30:58Z</time>
      </trkpt>
      <trkpt lat="44.10925" lon="5.96717">
        <ele>590.86</ele>
        <time>2026-07-01T08:30:59Z</time>
      </trkpt>
      <trkpt lat="44.10927" lon="5.96715">
        <ele>590.31</ele>
        <time>2026-07-01T08:31:00Z</time>
      </trkpt>
      <trkpt lat="44.10929" lon="5.96715">
        <ele>590.05</ele>
        <time>2026-07-01T08:31:01Z</time>
      </trkpt>
      <trkpt lat="44.10932" lon="5.96714">
        <ele>589.64</ele>
        <time>2026-07-01T08:31:02Z</time>
      </trkpt>
      <trkpt lat="44.10936" lon="5.96714">
        <ele>589.24</ele>
        <time>2026-07-01T08:31:03Z</time>
      </trkpt>
      <trkpt lat="44.10938" lon="5.96715">
        <ele>589.07</ele>
        <time>2026-07-01T08:31:04Z</time>
      </trkpt>
      <trkpt lat="44.10941" lon="5.96714">
        <ele>588.61</ele>
        <time>2026-07-01T08:31:05Z</time>
      </trkpt>
      <trkpt lat="44.10943" lon="5.96712">
        <ele>588.22</ele>
        <time>2026-07-01T08:31:06Z</time>
      </trkpt>
      <trkpt lat="44.10946" lon="5.96712">
        <ele>587.92</ele>
        <time>2026-07-01T08:31:07Z</time>
      </trkpt>
      <trkpt lat="44.10947" lon="5.96714">
        <ele>587.39</ele>
        <time>2026-07-01T08:31:08Z</time>
      </trkpt>
      <trkpt lat="44.10948" lon="5.96717">
        <ele>587.24</ele>
        <time>2026-07-01T08:31:09Z</time>
      </trkpt>
      <trkpt lat="44.10949" lon="5.9672">
        <ele>587.05</ele>
        <time>2026-07-01T08:31:10Z</time>
      </trkpt>
      <trkpt lat="44.1095" lon="5.96722">
        <ele>587.02</ele>
        <time>2026-07-01T08:31:11Z</time>
      </trkpt>
      <trkpt lat="44.10952" lon="5.96725">
        <ele>586.66</ele>
        <time>2026-07-01T08:31:12Z</time>
      </trkpt>
      <trkpt lat="44.10954" lon="5.96727">
        <ele>586.49</ele>
        <time>2026-07-01T08:31:13Z</time>
      </trkpt>
      <trkpt lat="44.10956" lon="5.96727">
        <ele>585.89</ele>
        <time>2026-07-01T08:31:14Z</time>
      </trkpt>
      <trkpt lat="44.10957" lon="5.96725">
        <ele>585.39</ele>
        <time>2026-07-01T08:31:15Z</time>
      </trkpt>
      <trkpt lat="44.1096" lon="5.96724">
        <ele>584.76</ele>
        <time>2026-07-01T08:31:16Z</time>
      </trkpt>
      <trkpt lat="44.10964" lon="5.96722">
        <ele>584.21</ele>
        <time>2026-07-01T08:31:17Z</time>
      </trkpt>
      <trkpt lat="44.10966" lon="5.96719">
        <ele>584.09</ele>
        <time>2026-07-01T08:31:18Z</time>
      </trkpt>
      <trkpt lat="44.10968" lon="5.96716">
        <ele>584.22</ele>
        <time>2026-07-01T08:31:19Z</time>
      </trkpt>
      <trkpt lat="44.10969" lon="5.96714">
        <ele>584.22</ele>
        <time>2026-07-01T08:31:20Z</time>
      </trkpt>
      <trkpt lat="44.10971" lon="5.96713">
        <ele>584.06</ele>
        <time>2026-07-01T08:31:21Z</time>
      </trkpt>
      <trkpt lat="44.10974" lon="5.96714">
        <ele>584</ele>
        <time>2026-07-01T08:31:22Z</time>
      </trkpt>
      <trkpt lat="44.10976" lon="5.96716">
        <ele>583.59</ele>
        <time>2026-07-01T08:31:23Z</time>
      </trkpt>
      <trkpt lat="44.10979" lon="5.96717">
        <ele>582.85</ele>
        <time>2026-07-01T08:31:24Z</time>
      </trkpt>
      <trkpt lat="44.10982" lon="5.96717">
        <ele>582.32</ele>
        <time>2026-07-01T08:31:25Z</time>
      </trkpt>
      <trkpt lat="44.10984" lon="5.96716">
        <ele>582.1</ele>
        <time>2026-07-01T08:31:26Z</time>
      </trkpt>
      <trkpt lat="44.10988" lon="5.96715">
        <ele>581.86</ele>
        <time>2026-07-01T08:31:27Z</time>
      </trkpt>
      <trkpt lat="44.1099" lon="5.96711">
        <ele>581.48</ele>
        <time>2026-07-01T08:31:28Z</time>
      </trkpt>
      <trkpt lat="44.10992" lon="5.96707">
        <ele>581.18</ele>
        <time>2026-07-01T08:31:29Z</time>
      </trkpt>
      <trkpt lat="44.10995" lon="5.96705">
        <ele>581.03</ele>
        <time>2026-07-01T08:31:30Z</time>
      </trkpt>
      <trkpt lat="44.10997" lon="5.96704">
        <ele>580.56</ele>
        <time>2026-07-01T08:31:31Z</time>
      </trkpt>
      <trkpt lat="44.11003" lon="5.96703">
        <ele>579.5</ele>
        <time>2026-07-01T08:31:33Z</time>
      </trkpt>
      <trkpt lat="44.11005" lon="5.96705">
        <ele>579.02</ele>
        <time>2026-07-01T08:31:34Z</time>
      </trkpt>
      <trkpt lat="44.1101" lon="5.96711">
        <ele>578.68</ele>
        <time>2026-07-01T08:31:37Z</time>
      </trkpt>
      <trkpt lat="44.11013" lon="5.96712">
        <ele>578.61</ele>
        <time>2026-07-01T08:31:38Z</time>
      </trkpt>
      <trkpt lat="44.11016" lon="5.96713">
        <ele>578.17</ele>
        <time>2026-07-01T08:31:39Z</time>
      </trkpt>
      <trkpt lat="44.11018" lon="5.96714">
        <ele>578.11</ele>
        <time>2026-07-01T08:31:40Z</time>
      </trkpt>
      <trkpt lat="44.11021" lon="5.96716">
        <ele>577.63</ele>
        <time>2026-07-01T08:31:41Z</time>
      </trkpt>
      <trkpt lat="44.11023" lon="5.96718">
        <ele>577.37</ele>
        <time>2026-07-01T08:31:42Z</time>
      </trkpt>
      <trkpt lat="44.11026" lon="5.9672">
        <ele>576.66</ele>
        <time>2026-07-01T08:31:43Z</time>
      </trkpt>
      <trkpt lat="44.1103" lon="5.96721">
        <ele>576.29</ele>
        <time>2026-07-01T08:31:44Z</time>
      </trkpt>
      <trkpt lat="44.11034" lon="5.96721">
        <ele>575.55</ele>
        <time>2026-07-01T08:31:45Z</time>
      </trkpt>
      <trkpt lat="44.11038" lon="5.96722">
        <ele>575.26</ele>
        <time>2026-07-01T08:31:46Z</time>
      </trkpt>
      <trkpt lat="44.11043" lon="5.96724">
        <ele>574.57</ele>
        <time>2026-07-01T08:31:47Z</time>
      </trkpt>
      <trkpt lat="44.11046" lon="5.96725">
        <ele>574.05</ele>
        <time>2026-07-01T08:31:48Z</time>
      </trkpt>
      <trkpt lat="44.11048" lon="5.96724">
        <ele>573.75</ele>
        <time>2026-07-01T08:31:49Z</time>
      </trkpt>
      <trkpt lat="44.11057" lon="5.96724">
        <ele>573.22</ele>
        <time>2026-07-01T08:32:06Z</time>
      </trkpt>
      <trkpt lat="44.11059" lon="5.96727">
        <ele>573.22</ele>
        <time>2026-07-01T08:32:07Z</time>
      </trkpt>
      <trkpt lat="44.11062" lon="5.96729">
        <ele>573.11</ele>
        <time>2026-07-01T08:32:08Z</time>
      </trkpt>
      <trkpt lat="44.11066" lon="5.9673">
        <ele>572.77</ele>
        <time>2026-07-01T08:32:09Z</time>
      </trkpt>
      <trkpt lat="44.1107" lon="5.96732">
        <ele>572.78</ele>
        <time>2026-07-01T08:32:10Z</time>
      </trkpt>
      <trkpt lat="44.11074" lon="5.96734">
        <ele>572.4</ele>
        <time>2026-07-01T08:32:11Z</time>
      </trkpt>
      <trkpt lat="44.11079" lon="5.96734">
        <ele>572.02</ele>
        <time>2026-07-01T08:32:12Z</time>
      </trkpt>
      <trkpt lat="44.11083" lon="5.96734">
        <ele>571.62</ele>
        <time>2026-07-01T08:32:13Z</time>
      </trkpt>
      <trkpt lat="44.11086" lon="5.96734">
        <ele>570.97</ele>
        <time>2026-07-01T08:32:14Z</time>
      </trkpt>
      <trkpt lat="44.11089" lon="5.96736">
        <ele>570.61</ele>
        <time>2026-07-01T08:32:15Z</time>
      </trkpt>
      <trkpt lat="44.1109" lon="5.96739">
        <ele>570.2</ele>
        <time>2026-07-01T08:32:16Z</time>
      </trkpt>
      <trkpt lat="44.1109" lon="5.96742">
        <ele>569.92</ele>
        <time>2026-07-01T08:32:17Z</time>
      </trkpt>
      <trkpt lat="44.11089" lon="5.9675">
        <ele>569.52</ele>
        <time>2026-07-01T08:32:19Z</time>
      </trkpt>
      <trkpt lat="44.1109" lon="5.96753">
        <ele>569.14</ele>
        <time>2026-07-01T08:32:20Z</time>
      </trkpt>
      <trkpt lat="44.11093" lon="5.96755">
        <ele>568.76</ele>
        <time>2026-07-01T08:32:21Z</time>
      </trkpt>
      <trkpt lat="44.11096" lon="5.96755">
        <ele>568.57</ele>
        <time>2026-07-01T08:32:22Z</time>
      </trkpt>
      <trkpt lat="44.111" lon="5.96755">
        <ele>568.27</ele>
        <time>2026-07-01T08:32:23Z</time>
      </trkpt>
      <trkpt lat="44.11103" lon="5.96755">
        <ele>567.96</ele>
        <time>2026-07-01T08:32:24Z</time>
      </trkpt>
      <trkpt lat="44.11106" lon="5.96756">
        <ele>567.26</ele>
        <time>2026-07-01T08:32:25Z</time>
      </trkpt>
      <trkpt lat="44.11108" lon="5.96759">
        <ele>566.59</ele>
        <time>2026-07-01T08:32:26Z</time>
      </trkpt>
      <trkpt lat="44.11109" lon="5.96763">
        <ele>566.04</ele>
        <time>2026-07-01T08:32:27Z</time>
      </trkpt>
      <trkpt lat="44.1111" lon="5.96766">
        <ele>565.94</ele>
        <time>2026-07-01T08:32:28Z</time>
      </trkpt>
      <trkpt lat="44.11112" lon="5.96768">
        <ele>565.9</ele>
        <time>2026-07-01T08:32:29Z</time>
      </trkpt>
      <trkpt lat="44.11115" lon="5.9677">
        <ele>565.64</ele>
        <time>2026-07-01T08:32:30Z</time>
      </trkpt>
      <trkpt lat="44.11118" lon="5.96773">
        <ele>565.12</ele>
        <time>2026-07-01T08:32:31Z</time>
      </trkpt>
      <trkpt lat="44.11121" lon="5.96776">
        <ele>564.55</ele>
        <time>2026-07-01T08:32:32Z</time>
      </trkpt>
      <trkpt lat="44.11125" lon="5.96777">
        <ele>564.12</ele>
        <time>2026-07-01T08:32:33Z</time>
      </trkpt>
      <trkpt lat="44.11127" lon="5.96776">
        <ele>563.76</ele>
        <time>2026-07-01T08:32:34Z</time>
      </trkpt>
      <trkpt lat="44.11129" lon="5.96775">
        <ele>563.57</ele>
        <time>2026-07-01T08:32:35Z</time>
      </trkpt>
      <trkpt lat="44.11132" lon="5.96774">
        <ele>563.03</ele>
        <time>2026-07-01T08:32:36Z</time>
      </trkpt>
      <trkpt lat="44.11135" lon="5.96774">
        <ele>562.77</ele>
        <time>2026-07-01T08:32:37Z</time>
      </trkpt>
      <trkpt lat="44.11137" lon="5.96773">
        <ele>562.18</ele>
        <time>2026-07-01T08:32:38Z</time>
      </trkpt>
      <trkpt lat="44.11139" lon="5.96771">
        <ele>562.16</ele>
        <time>2026-07-01T08:32:39Z</time>
      </trkpt>
      <trkpt lat="44.1114" lon="5.96768">
        <ele>561.28</ele>
        <time>2026-07-01T08:32:40Z</time>
      </trkpt>
      <trkpt lat="44.11141" lon="5.96766">
        <ele>560.61</ele>
        <time>2026-07-01T08:32:41Z</time>
      </trkpt>
      <trkpt lat="44.11142" lon="5.96764">
        <ele>560.08</ele>
        <time>2026-07-01T08:32:42Z</time>
      </trkpt>
      <trkpt lat="44.11143" lon="5.96762">
        <ele>559.7</ele>
        <time>2026-07-01T08:32:43Z</time>
      </trkpt>
      <trkpt lat="44.11146" lon="5.96761">
        <ele>558.48</ele>
        <time>2026-07-01T08:32:47Z</time>
      </trkpt>
      <trkpt lat="44.11148" lon="5.96762">
        <ele>558.02</ele>
        <time>2026-07-01T08:32:48Z</time>
      </trkpt>
      <trkpt lat="44.11149" lon="5.96764">
        <ele>557.71</ele>
        <time>2026-07-01T08:32:49Z</time>
      </trkpt>
      <trkpt lat="44.11152" lon="5.96768">
        <ele>558.06</ele>
        <time>2026-07-01T08:33:00Z</time>
      </trkpt>
      <trkpt lat="44.11154" lon="5.96769">
        <ele>557.94</ele>
        <time>2026-07-01T08:33:02Z</time>
      </trkpt>
      <trkpt lat="44.11155" lon="5.9677">
        <ele>558</ele>
        <time>2026-07-01T08:33:03Z</time>
      </trkpt>
      <trkpt lat="44.11156" lon="5.9677">
        <ele>557.83</ele>
        <time>2026-07-01T08:33:04Z</time>
      </trkpt>
      <trkpt lat="44.11158" lon="5.96771">
        <ele>557.64</ele>
        <time>2026-07-01T08:33:05Z</time>
      </trkpt>
      <trkpt lat="44.11159" lon="5.96772">
        <ele>557.46</ele>
        <time>2026-07-01T08:33:06Z</time>
      </trkpt>
      <trkpt lat="44.11162" lon="5.96774">
        <ele>556.74</ele>
        <time>2026-07-01T08:33:08Z</time>
      </trkpt>
      <trkpt lat="44.11163" lon="5.96774">
        <ele>556.29</ele>
        <time>2026-07-01T08:33:09Z</time>
      </trkpt>
      <trkpt lat="44.11164" lon="5.96772">
        <ele>555.98</ele>
        <time>2026-07-01T08:33:10Z</time>
      </trkpt>
      <trkpt lat="44.11163" lon="5.9677">
        <ele>555.4</ele>
        <time>2026-07-01T08:33:11Z</time>
      </trkpt>
      <trkpt lat="44.11163" lon="5.96768">
        <ele>555.05</ele>
        <time>2026-07-01T08:33:12Z</time>
      </trkpt>
      <trkpt lat="44.11163" lon="5.96766">
        <ele>554.49</ele>
        <time>2026-07-01T08:33:13Z</time>
      </trkpt>
      <trkpt lat="44.11165" lon="5.96764">
        <ele>553.22</ele>
        <time>2026-07-01T08:33:16Z</time>
      </trkpt>
      <trkpt lat="44.11166" lon="5.96762">
        <ele>552.85</ele>
        <time>2026-07-01T08:33:17Z</time>
      </trkpt>
      <trkpt lat="44.11166" lon="5.9676">
        <ele>552.36</ele>
        <time>2026-07-01T08:33:18Z</time>
      </trkpt>
      <trkpt lat="44.11166" lon="5.96758">
        <ele>551.84</ele>
        <time>2026-07-01T08:33:19Z</time>
      </trkpt>
      <trkpt lat="44.11165" lon="5.96757">
        <ele>551.7</ele>
        <time>2026-07-01T08:33:20Z</time>
      </trkpt>
      <trkpt lat="44.11164" lon="5.96756">
        <ele>552.15</ele>
        <time>2026-07-01T08:33:21Z</time>
      </trkpt>
      <trkpt lat="44.11162" lon="5.96754">
        <ele>552.32</ele>
        <time>2026-07-01T08:33:22Z</time>
      </trkpt>
      <trkpt lat="44.11161" lon="5.96753">
        <ele>552.14</ele>
        <time>2026-07-01T08:33:23Z</time>
      </trkpt>
      <trkpt lat="44.11159" lon="5.9675">
        <ele>551.9</ele>
        <time>2026-07-01T08:33:24Z</time>
      </trkpt>
      <trkpt lat="44.11158" lon="5.96747">
        <ele>551.54</ele>
        <time>2026-07-01T08:33:25Z</time>
      </trkpt>
      <trkpt lat="44.11157" lon="5.96743">
        <ele>551.05</ele>
        <time>2026-07-01T08:33:27Z</time>
      </trkpt>
      <trkpt lat="44.11156" lon="5.96735">
        <ele>549.86</ele>
        <time>2026-07-01T08:33:37Z</time>
      </trkpt>
      <trkpt lat="44.1116" lon="5.96732">
        <ele>550.06</ele>
        <time>2026-07-01T08:33:53Z</time>
      </trkpt>
      <trkpt lat="44.11166" lon="5.96734">
        <ele>549.34</ele>
        <time>2026-07-01T08:34:14Z</time>
      </trkpt>
      <trkpt lat="44.1117" lon="5.96737">
        <ele>548.68</ele>
        <time>2026-07-01T08:34:34Z</time>
      </trkpt>
      <trkpt lat="44.11172" lon="5.96738">
        <ele>548.35</ele>
        <time>2026-07-01T08:34:35Z</time>
      </trkpt>
      <trkpt lat="44.11175" lon="5.9674">
        <ele>548.07</ele>
        <time>2026-07-01T08:34:36Z</time>
      </trkpt>
      <trkpt lat="44.1119" lon="5.96753">
        <ele>545.51</ele>
        <time>2026-07-01T08:34:43Z</time>
      </trkpt>
      <trkpt lat="44.11191" lon="5.96753">
        <ele>545.26</ele>
        <time>2026-07-01T08:34:44Z</time>
      </trkpt>
      <trkpt lat="44.11191" lon="5.9675">
        <ele>543.99</ele>
        <time>2026-07-01T08:34:46Z</time>
      </trkpt>
      <trkpt lat="44.1119" lon="5.96749">
        <ele>543.61</ele>
        <time>2026-07-01T08:34:47Z</time>
      </trkpt>
      <trkpt lat="44.1119" lon="5.96748">
        <ele>543.58</ele>
        <time>2026-07-01T08:34:48Z</time>
      </trkpt>
      <trkpt lat="44.11189" lon="5.96747">
        <ele>543.77</ele>
        <time>2026-07-01T08:34:49Z</time>
      </trkpt>
      <trkpt lat="44.11188" lon="5.96747">
        <ele>543.86</ele>
        <time>2026-07-01T08:34:50Z</time>
      </trkpt>
      <trkpt lat="44.11186" lon="5.96745">
        <ele>543.76</ele>
        <time>2026-07-01T08:34:51Z</time>
      </trkpt>
      <trkpt lat="44.11185" lon="5.96743">
        <ele>543.57</ele>
        <time>2026-07-01T08:34:52Z</time>
      </trkpt>
      <trkpt lat="44.11185" lon="5.96736">
        <ele>542.06</ele>
        <time>2026-07-01T08:35:02Z</time>
      </trkpt>
      <trkpt lat="44.11189" lon="5.96734">
        <ele>541.02</ele>
        <time>2026-07-01T08:35:21Z</time>
      </trkpt>
      <trkpt lat="44.1119" lon="5.96735">
        <ele>541.11</ele>
        <time>2026-07-01T08:35:27Z</time>
      </trkpt>
      <trkpt lat="44.11192" lon="5.96736">
        <ele>540.96</ele>
        <time>2026-07-01T08:35:28Z</time>
      </trkpt>
      <trkpt lat="44.11194" lon="5.96738">
        <ele>540.89</ele>
        <time>2026-07-01T08:35:29Z</time>
      </trkpt>
      <trkpt lat="44.112" lon="5.96741">
        <ele>539.89</ele>
        <time>2026-07-01T08:35:34Z</time>
      </trkpt>
      <trkpt lat="44.11201" lon="5.9674">
        <ele>539.49</ele>
        <time>2026-07-01T08:35:35Z</time>
      </trkpt>
      <trkpt lat="44.112" lon="5.96738">
        <ele>539</ele>
        <time>2026-07-01T08:35:36Z</time>
      </trkpt>
      <trkpt lat="44.11201" lon="5.9673">
        <ele>538.61</ele>
        <time>2026-07-01T08:35:46Z</time>
      </trkpt>
      <trkpt lat="44.11206" lon="5.96734">
        <ele>538.02</ele>
        <time>2026-07-01T08:35:59Z</time>
      </trkpt>
      <trkpt lat="44.11208" lon="5.96735">
        <ele>537.74</ele>
        <time>2026-07-01T08:36:02Z</time>
      </trkpt>
      <trkpt lat="44.11209" lon="5.96735">
        <ele>537.69</ele>
        <time>2026-07-01T08:36:03Z</time>
      </trkpt>
      <trkpt lat="44.1121" lon="5.96737">
        <ele>537.46</ele>
        <time>2026-07-01T08:36:04Z</time>
      </trkpt>
      <trkpt lat="44.11211" lon="5.96739">
        <ele>537.24</ele>
        <time>2026-07-01T08:36:05Z</time>
      </trkpt>
      <trkpt lat="44.11212" lon="5.96741">
        <ele>536.85</ele>
        <time>2026-07-01T08:36:06Z</time>
      </trkpt>
      <trkpt lat="44.11214" lon="5.9674">
        <ele>536.65</ele>
        <time>2026-07-01T08:36:07Z</time>
      </trkpt>
      <trkpt lat="44.11214" lon="5.96739">
        <ele>536.39</ele>
        <time>2026-07-01T08:36:08Z</time>
      </trkpt>
      <trkpt lat="44.11214" lon="5.96737">
        <ele>536.16</ele>
        <time>2026-07-01T08:36:09Z</time>
      </trkpt>
      <trkpt lat="44.11214" lon="5.96735">
        <ele>536.03</ele>
        <time>2026-07-01T08:36:10Z</time>
      </trkpt>
      <trkpt lat="44.11217" lon="5.96733">
        <ele>533.85</ele>
        <time>2026-07-01T08:36:21Z</time>
      </trkpt>
      <trkpt lat="44.11218" lon="5.96729">
        <ele>532.42</ele>
        <time>2026-07-01T08:36:36Z</time>
      </trkpt>
      <trkpt lat="44.1122" lon="5.96727">
        <ele>531.57</ele>
        <time>2026-07-01T08:36:40Z</time>
      </trkpt>
      <trkpt lat="44.11222" lon="5.96728">
        <ele>531.34</ele>
        <time>2026-07-01T08:36:41Z</time>
      </trkpt>
      <trkpt lat="44.11222" lon="5.9673">
        <ele>530.96</ele>
        <time>2026-07-01T08:36:42Z</time>
      </trkpt>
      <trkpt lat="44.11223" lon="5.96732">
        <ele>530.71</ele>
        <time>2026-07-01T08:36:43Z</time>
      </trkpt>
      <trkpt lat="44.11225" lon="5.96733">
        <ele>530.26</ele>
        <time>2026-07-01T08:36:44Z</time>
      </trkpt>
      <trkpt lat="44.11226" lon="5.96732">
        <ele>529.82</ele>
        <time>2026-07-01T08:36:45Z</time>
      </trkpt>
      <trkpt lat="44.11227" lon="5.96731">
        <ele>529.59</ele>
        <time>2026-07-01T08:36:46Z</time>
      </trkpt>
      <trkpt lat="44.11227" lon="5.96729">
        <ele>528.83</ele>
        <time>2026-07-01T08:36:47Z</time>
      </trkpt>
      <trkpt lat="44.11227" lon="5.96727">
        <ele>528.52</ele>
        <time>2026-07-01T08:36:48Z</time>
      </trkpt>
      <trkpt lat="44.11226" lon="5.96722">
        <ele>527.69</ele>
        <time>2026-07-01T08:37:01Z</time>
      </trkpt>
      <trkpt lat="44.11224" lon="5.96722">
        <ele>527.41</ele>
        <time>2026-07-01T08:37:55Z</time>
      </trkpt>
      <trkpt lat="44.11222" lon="5.96717">
        <ele>526.48</ele>
        <time>2026-07-01T08:38:35Z</time>
      </trkpt>
      <trkpt lat="44.11223" lon="5.96716">
        <ele>526.04</ele>
        <time>2026-07-01T08:38:37Z</time>
      </trkpt>
      <trkpt lat="44.11224" lon="5.96717">
        <ele>526.04</ele>
        <time>2026-07-01T08:38:38Z</time>
      </trkpt>
      <trkpt lat="44.11225" lon="5.9672">
        <ele>525.94</ele>
        <time>2026-07-01T08:38:39Z</time>
      </trkpt>
      <trkpt lat="44.11226" lon="5.96721">
        <ele>525.91</ele>
        <time>2026-07-01T08:38:40Z</time>
      </trkpt>
      <trkpt lat="44.11227" lon="5.96723">
        <ele>525.99</ele>
        <time>2026-07-01T08:38:41Z</time>
      </trkpt>
      <trkpt lat="44.11229" lon="5.96725">
        <ele>525.87</ele>
        <time>2026-07-01T08:38:42Z</time>
      </trkpt>
      <trkpt lat="44.1123" lon="5.96726">
        <ele>525.61</ele>
        <time>2026-07-01T08:38:43Z</time>
      </trkpt>
      <trkpt lat="44.11234" lon="5.96728">
        <ele>525.3</ele>
        <time>2026-07-01T08:38:58Z</time>
      </trkpt>
      <trkpt lat="44.11234" lon="5.9673">
        <ele>525.3</ele>
        <time>2026-07-01T08:38:59Z</time>
      </trkpt>
      <trkpt lat="44.11235" lon="5.96731">
        <ele>525.12</ele>
        <time>2026-07-01T08:39:00Z</time>
      </trkpt>
      <trkpt lat="44.11235" lon="5.96733">
        <ele>525.06</ele>
        <time>2026-07-01T08:39:01Z</time>
      </trkpt>
      <trkpt lat="44.11235" lon="5.96735">
        <ele>523.91</ele>
        <time>2026-07-01T08:39:18Z</time>
      </trkpt>
      <trkpt lat="44.11235" lon="5.9674">
        <ele>524.47</ele>
        <time>2026-07-01T08:40:26Z</time>
      </trkpt>
      <trkpt lat="44.11236" lon="5.9674">
        <ele>524.27</ele>
        <time>2026-07-01T08:40:31Z</time>
      </trkpt>
      <trkpt lat="44.11236" lon="5.96746">
        <ele>524.29</ele>
        <time>2026-07-01T08:40:41Z</time>
      </trkpt>
      <trkpt lat="44.11235" lon="5.96748">
        <ele>524.09</ele>
        <time>2026-07-01T08:40:42Z</time>
      </trkpt>
      <trkpt lat="44.11235" lon="5.9675">
        <ele>523.86</ele>
        <time>2026-07-01T08:40:43Z</time>
      </trkpt>
      <trkpt lat="44.11234" lon="5.96752">
        <ele>523.82</ele>
        <time>2026-07-01T08:40:44Z</time>
      </trkpt>
      <trkpt lat="44.11234" lon="5.96754">
        <ele>523.83</ele>
        <time>2026-07-01T08:40:45Z</time>
      </trkpt>
      <trkpt lat="44.11233" lon="5.96755">
        <ele>523.88</ele>
        <time>2026-07-01T08:40:46Z</time>
      </trkpt>
      <trkpt lat="44.11232" lon="5.96757">
        <ele>523.83</ele>
        <time>2026-07-01T08:40:47Z</time>
      </trkpt>
      <trkpt lat="44.11231" lon="5.9676">
        <ele>523.71</ele>
        <time>2026-07-01T08:40:49Z</time>
      </trkpt>
      <trkpt lat="44.11234" lon="5.96766">
        <ele>524.15</ele>
        <time>2026-07-01T08:41:01Z</time>
      </trkpt>
      <trkpt lat="44.11234" lon="5.96765">
        <ele>523.77</ele>
        <time>2026-07-01T08:41:12Z</time>
      </trkpt>
      <trkpt lat="44.11242" lon="5.96761">
        <ele>526.04</ele>
        <time>2026-07-01T08:41:23Z</time>
      </trkpt>
      <trkpt lat="44.11248" lon="5.96755">
        <ele>528.36</ele>
        <time>2026-07-01T08:41:37Z</time>
      </trkpt>
      <trkpt lat="44.11252" lon="5.96751">
        <ele>528.97</ele>
        <time>2026-07-01T08:41:54Z</time>
      </trkpt>
      <trkpt lat="44.11253" lon="5.96748">
        <ele>529.57</ele>
        <time>2026-07-01T08:43:07Z</time>
      </trkpt>
      <trkpt lat="44.11254" lon="5.96751">
        <ele>529.78</ele>
        <time>2026-07-01T08:43:24Z</time>
      </trkpt>
      <trkpt lat="44.11256" lon="5.96751">
        <ele>529.96</ele>
        <time>2026-07-01T08:43:25Z</time>
      </trkpt>
      <trkpt lat="44.11259" lon="5.96751">
        <ele>530.33</ele>
        <time>2026-07-01T08:43:26Z</time>
      </trkpt>
      <trkpt lat="44.11261" lon="5.9675">
        <ele>530.92</ele>
        <time>2026-07-01T08:43:27Z</time>
      </trkpt>
      <trkpt lat="44.11262" lon="5.96749">
        <ele>531.7</ele>
        <time>2026-07-01T08:43:28Z</time>
      </trkpt>
      <trkpt lat="44.11263" lon="5.96747">
        <ele>531.87</ele>
        <time>2026-07-01T08:43:29Z</time>
      </trkpt>
      <trkpt lat="44.11263" lon="5.96744">
        <ele>532.38</ele>
        <time>2026-07-01T08:43:30Z</time>
      </trkpt>
      <trkpt lat="44.11264" lon="5.96741">
        <ele>532.73</ele>
        <time>2026-07-01T08:43:31Z</time>
      </trkpt>
      <trkpt lat="44.11265" lon="5.96739">
        <ele>533.34</ele>
        <time>2026-07-01T08:43:32Z</time>
      </trkpt>
      <trkpt lat="44.11267" lon="5.96739">
        <ele>533.98</ele>
        <time>2026-07-01T08:43:33Z</time>
      </trkpt>
      <trkpt lat="44.11268" lon="5.9674">
        <ele>534.43</ele>
        <time>2026-07-01T08:43:34Z</time>
      </trkpt>
      <trkpt lat="44.11273" lon="5.96745">
        <ele>534.7</ele>
        <time>2026-07-01T08:43:44Z</time>
      </trkpt>
      <trkpt lat="44.11276" lon="5.96748">
        <ele>534.79</ele>
        <time>2026-07-01T08:43:55Z</time>
      </trkpt>
      <trkpt lat="44.1128" lon="5.96751">
        <ele>534.77</ele>
        <time>2026-07-01T08:44:09Z</time>
      </trkpt>
      <trkpt lat="44.11282" lon="5.9675">
        <ele>534.73</ele>
        <time>2026-07-01T08:44:10Z</time>
      </trkpt>
      <trkpt lat="44.11283" lon="5.96751">
        <ele>534.63</ele>
        <time>2026-07-01T08:44:11Z</time>
      </trkpt>
      <trkpt lat="44.11284" lon="5.96752">
        <ele>534.67</ele>
        <time>2026-07-01T08:44:12Z</time>
      </trkpt>
      <trkpt lat="44.11284" lon="5.96754">
        <ele>534.7</ele>
        <time>2026-07-01T08:44:13Z</time>
      </trkpt>
      <trkpt lat="44.11283" lon="5.96756">
        <ele>534.59</ele>
        <time>2026-07-01T08:44:14Z</time>
      </trkpt>
      <trkpt lat="44.11282" lon="5.96759">
        <ele>534.37</ele>
        <time>2026-07-01T08:44:15Z</time>
      </trkpt>
      <trkpt lat="44.11282" lon="5.96761">
        <ele>534.46</ele>
        <time>2026-07-01T08:44:16Z</time>
      </trkpt>
      <trkpt lat="44.11282" lon="5.96763">
        <ele>534.35</ele>
        <time>2026-07-01T08:44:17Z</time>
      </trkpt>
      <trkpt lat="44.11283" lon="5.96765">
        <ele>534.58</ele>
        <time>2026-07-01T08:44:18Z</time>
      </trkpt>
      <trkpt lat="44.11284" lon="5.96766">
        <ele>534.53</ele>
        <time>2026-07-01T08:44:19Z</time>
      </trkpt>
      <trkpt lat="44.11285" lon="5.96767">
        <ele>534.36</ele>
        <time>2026-07-01T08:44:20Z</time>
      </trkpt>
      <trkpt lat="44.11288" lon="5.96771">
        <ele>534.31</ele>
        <time>2026-07-01T08:44:37Z</time>
      </trkpt>
      <trkpt lat="44.11291" lon="5.96774">
        <ele>533.96</ele>
        <time>2026-07-01T08:44:38Z</time>
      </trkpt>
      <trkpt lat="44.11293" lon="5.96777">
        <ele>533.81</ele>
        <time>2026-07-01T08:44:39Z</time>
      </trkpt>
      <trkpt lat="44.11294" lon="5.9678">
        <ele>534.23</ele>
        <time>2026-07-01T08:44:40Z</time>
      </trkpt>
      <trkpt lat="44.11297" lon="5.96785">
        <ele>534.47</ele>
        <time>2026-07-01T08:44:50Z</time>
      </trkpt>
      <trkpt lat="44.11299" lon="5.96791">
        <ele>535.16</ele>
        <time>2026-07-01T08:44:55Z</time>
      </trkpt>
      <trkpt lat="44.11303" lon="5.96794">
        <ele>536.24</ele>
        <time>2026-07-01T08:45:00Z</time>
      </trkpt>
      <trkpt lat="44.11304" lon="5.96794">
        <ele>536.32</ele>
        <time>2026-07-01T08:45:01Z</time>
      </trkpt>
      <trkpt lat="44.11305" lon="5.96794">
        <ele>536.65</ele>
        <time>2026-07-01T08:45:02Z</time>
      </trkpt>
      <trkpt lat="44.11306" lon="5.96795">
        <ele>536.31</ele>
        <time>2026-07-01T08:45:15Z</time>
      </trkpt>
      <trkpt lat="44.11308" lon="5.96792">
        <ele>537.41</ele>
        <time>2026-07-01T08:45:52Z</time>
      </trkpt>
      <trkpt lat="44.11309" lon="5.96791">
        <ele>537.39</ele>
        <time>2026-07-01T08:45:53Z</time>
      </trkpt>
      <trkpt lat="44.11315" lon="5.96789">
        <ele>538.22</ele>
        <time>2026-07-01T08:45:58Z</time>
      </trkpt>
      <trkpt lat="44.11317" lon="5.9679">
        <ele>539.25</ele>
        <time>2026-07-01T08:46:09Z</time>
      </trkpt>
      <trkpt lat="44.11319" lon="5.96789">
        <ele>539.7</ele>
        <time>2026-07-01T08:46:14Z</time>
      </trkpt>
      <trkpt lat="44.1132" lon="5.96787">
        <ele>540.02</ele>
        <time>2026-07-01T08:46:15Z</time>
      </trkpt>
      <trkpt lat="44.1132" lon="5.9676">
        <ele>543.05</ele>
        <time>2026-07-01T08:46:25Z</time>
      </trkpt>
      <trkpt lat="44.11321" lon="5.96754">
        <ele>543.88</ele>
        <time>2026-07-01T08:46:27Z</time>
      </trkpt>
      <trkpt lat="44.11321" lon="5.96732">
        <ele>546.89</ele>
        <time>2026-07-01T08:46:35Z</time>
      </trkpt>
      <trkpt lat="44.11319" lon="5.96704">
        <ele>550.39</ele>
        <time>2026-07-01T08:46:45Z</time>
      </trkpt>
      <trkpt lat="44.11319" lon="5.9668">
        <ele>554.01</ele>
        <time>2026-07-01T08:46:54Z</time>
      </trkpt>
      <trkpt lat="44.1132" lon="5.96677">
        <ele>554.23</ele>
        <time>2026-07-01T08:46:55Z</time>
      </trkpt>
      <trkpt lat="44.11325" lon="5.96651">
        <ele>557.61</ele>
        <time>2026-07-01T08:47:05Z</time>
      </trkpt>
      <trkpt lat="44.11347" lon="5.96634">
        <ele>558.67</ele>
        <time>2026-07-01T08:47:18Z</time>
      </trkpt>
      <trkpt lat="44.11378" lon="5.9662">
        <ele>558.99</ele>
        <time>2026-07-01T08:47:33Z</time>
      </trkpt>
      <trkpt lat="44.11391" lon="5.96596">
        <ele>562.23</ele>
        <time>2026-07-01T08:47:45Z</time>
      </trkpt>
      <trkpt lat="44.1141" lon="5.96576">
        <ele>564.7</ele>
        <time>2026-07-01T08:48:00Z</time>
      </trkpt>
      <trkpt lat="44.11424" lon="5.96556">
        <ele>564.24</ele>
        <time>2026-07-01T08:48:09Z</time>
      </trkpt>
      <trkpt lat="44.11408" lon="5.96516">
        <ele>563.84</ele>
        <time>2026-07-01T08:48:22Z</time>
      </trkpt>
      <trkpt lat="44.11383" lon="5.96474">
        <ele>563.69</ele>
        <time>2026-07-01T08:48:38Z</time>
      </trkpt>
      <trkpt lat="44.11357" lon="5.9642">
        <ele>565.39</ele>
        <time>2026-07-01T08:48:56Z</time>
      </trkpt>
      <trkpt lat="44.1135" lon="5.96369">
        <ele>565.09</ele>
        <time>2026-07-01T08:49:09Z</time>
      </trkpt>
      <trkpt lat="44.11372" lon="5.96325">
        <ele>564.47</ele>
        <time>2026-07-01T08:49:24Z</time>
      </trkpt>
      <trkpt lat="44.11392" lon="5.96276">
        <ele>564.29</ele>
        <time>2026-07-01T08:49:37Z</time>
      </trkpt>
      <trkpt lat="44.11394" lon="5.96273">
        <ele>564.18</ele>
        <time>2026-07-01T08:49:47Z</time>
      </trkpt>
      <trkpt lat="44.11413" lon="5.96264">
        <ele>564.72</ele>
        <time>2026-07-01T08:49:56Z</time>
      </trkpt>
      <trkpt lat="44.11423" lon="5.96266">
        <ele>565.4</ele>
        <time>2026-07-01T08:50:00Z</time>
      </trkpt>
      <trkpt lat="44.11451" lon="5.96289">
        <ele>568.01</ele>
        <time>2026-07-01T08:50:16Z</time>
      </trkpt>
      <trkpt lat="44.11484" lon="5.96264">
        <ele>568.5</ele>
        <time>2026-07-01T08:50:31Z</time>
      </trkpt>
      <trkpt lat="44.11494" lon="5.9625">
        <ele>567.16</ele>
        <time>2026-07-01T08:50:36Z</time>
      </trkpt>
      <trkpt lat="44.11502" lon="5.96232">
        <ele>568.89</ele>
        <time>2026-07-01T08:50:41Z</time>
      </trkpt>
      <trkpt lat="44.11521" lon="5.96193">
        <ele>570.84</ele>
        <time>2026-07-01T08:50:55Z</time>
      </trkpt>
      <trkpt lat="44.11533" lon="5.96192">
        <ele>570.74</ele>
        <time>2026-07-01T08:51:35Z</time>
      </trkpt>
      <trkpt lat="44.1154" lon="5.96192">
        <ele>572.07</ele>
        <time>2026-07-01T08:51:44Z</time>
      </trkpt>
      <trkpt lat="44.11535" lon="5.96188">
        <ele>571.29</ele>
        <time>2026-07-01T08:52:06Z</time>
      </trkpt>
      <trkpt lat="44.11538" lon="5.96182">
        <ele>572.44</ele>
        <time>2026-07-01T08:52:20Z</time>
      </trkpt>
      <trkpt lat="44.11537" lon="5.96182">
        <ele>571.62</ele>
        <time>2026-07-01T08:52:35Z</time>
      </trkpt>
      <trkpt lat="44.11533" lon="5.96185">
        <ele>571.92</ele>
        <time>2026-07-01T08:52:49Z</time>
      </trkpt>
      <trkpt lat="44.11528" lon="5.96191">
        <ele>571.39</ele>
        <time>2026-07-01T08:52:53Z</time>
      </trkpt>
      <trkpt lat="44.11526" lon="5.9619">
        <ele>571.31</ele>
        <time>2026-07-01T08:52:54Z</time>
      </trkpt>
      <trkpt lat="44.11525" lon="5.96187">
        <ele>571.29</ele>
        <time>2026-07-01T08:52:55Z</time>
      </trkpt>
      <trkpt lat="44.11525" lon="5.96183">
        <ele>571.28</ele>
        <time>2026-07-01T08:52:56Z</time>
      </trkpt>
      <trkpt lat="44.11526" lon="5.9618">
        <ele>571.36</ele>
        <time>2026-07-01T08:52:57Z</time>
      </trkpt>
      <trkpt lat="44.11529" lon="5.96178">
        <ele>571.63</ele>
        <time>2026-07-01T08:52:58Z</time>
      </trkpt>
      <trkpt lat="44.11532" lon="5.96178">
        <ele>571.58</ele>
        <time>2026-07-01T08:52:59Z</time>
      </trkpt>
      <trkpt lat="44.11535" lon="5.96178">
        <ele>572.18</ele>
        <time>2026-07-01T08:53:00Z</time>
      </trkpt>
      <trkpt lat="44.11541" lon="5.96178">
        <ele>573.94</ele>
        <time>2026-07-01T08:53:03Z</time>
      </trkpt>
      <trkpt lat="44.11543" lon="5.96178">
        <ele>574.55</ele>
        <time>2026-07-01T08:53:04Z</time>
      </trkpt>
      <trkpt lat="44.11545" lon="5.96177">
        <ele>574.77</ele>
        <time>2026-07-01T08:53:05Z</time>
      </trkpt>
      <trkpt lat="44.11548" lon="5.96177">
        <ele>575.08</ele>
        <time>2026-07-01T08:53:06Z</time>
      </trkpt>
      <trkpt lat="44.11549" lon="5.96177">
        <ele>575.61</ele>
        <time>2026-07-01T08:53:07Z</time>
      </trkpt>
      <trkpt lat="44.11551" lon="5.96176">
        <ele>575.64</ele>
        <time>2026-07-01T08:53:08Z</time>
      </trkpt>
      <trkpt lat="44.11553" lon="5.96174">
        <ele>576.05</ele>
        <time>2026-07-01T08:53:09Z</time>
      </trkpt>
      <trkpt lat="44.11554" lon="5.96173">
        <ele>576.71</ele>
        <time>2026-07-01T08:53:10Z</time>
      </trkpt>
      <trkpt lat="44.11556" lon="5.96172">
        <ele>577.25</ele>
        <time>2026-07-01T08:53:11Z</time>
      </trkpt>
      <trkpt lat="44.11558" lon="5.96171">
        <ele>577.31</ele>
        <time>2026-07-01T08:53:12Z</time>
      </trkpt>
      <trkpt lat="44.11559" lon="5.9617">
        <ele>577.56</ele>
        <time>2026-07-01T08:53:13Z</time>
      </trkpt>
      <trkpt lat="44.1156" lon="5.96168">
        <ele>577.99</ele>
        <time>2026-07-01T08:53:14Z</time>
      </trkpt>
      <trkpt lat="44.11561" lon="5.96165">
        <ele>578.62</ele>
        <time>2026-07-01T08:53:15Z</time>
      </trkpt>
      <trkpt lat="44.11562" lon="5.96162">
        <ele>578.99</ele>
        <time>2026-07-01T08:53:16Z</time>
      </trkpt>
      <trkpt lat="44.11563" lon="5.96159">
        <ele>579.61</ele>
        <time>2026-07-01T08:53:17Z</time>
      </trkpt>
      <trkpt lat="44.11564" lon="5.96158">
        <ele>580</ele>
        <time>2026-07-01T08:53:18Z</time>
      </trkpt>
      <trkpt lat="44.11566" lon="5.96159">
        <ele>580.37</ele>
        <time>2026-07-01T08:53:19Z</time>
      </trkpt>
      <trkpt lat="44.11568" lon="5.96161">
        <ele>580.68</ele>
        <time>2026-07-01T08:53:20Z</time>
      </trkpt>
      <trkpt lat="44.11569" lon="5.96163">
        <ele>581.5</ele>
        <time>2026-07-01T08:53:21Z</time>
      </trkpt>
      <trkpt lat="44.1157" lon="5.96164">
        <ele>582.04</ele>
        <time>2026-07-01T08:53:22Z</time>
      </trkpt>
      <trkpt lat="44.11572" lon="5.96164">
        <ele>582.22</ele>
        <time>2026-07-01T08:53:23Z</time>
      </trkpt>
      <trkpt lat="44.11578" lon="5.96165">
        <ele>582.09</ele>
        <time>2026-07-01T08:53:26Z</time>
      </trkpt>
      <trkpt lat="44.1158" lon="5.96164">
        <ele>582.15</ele>
        <time>2026-07-01T08:53:27Z</time>
      </trkpt>
      <trkpt lat="44.11581" lon="5.96164">
        <ele>582.55</ele>
        <time>2026-07-01T08:53:28Z</time>
      </trkpt>
      <trkpt lat="44.11581" lon="5.96166">
        <ele>582.13</ele>
        <time>2026-07-01T08:53:41Z</time>
      </trkpt>
      <trkpt lat="44.11582" lon="5.96167">
        <ele>582.06</ele>
        <time>2026-07-01T08:53:42Z</time>
      </trkpt>
      <trkpt lat="44.11586" lon="5.96166">
        <ele>581.42</ele>
        <time>2026-07-01T08:53:52Z</time>
      </trkpt>
      <trkpt lat="44.11587" lon="5.96165">
        <ele>581.78</ele>
        <time>2026-07-01T08:53:53Z</time>
      </trkpt>
      <trkpt lat="44.11588" lon="5.96163">
        <ele>582.2</ele>
        <time>2026-07-01T08:53:54Z</time>
      </trkpt>
      <trkpt lat="44.1159" lon="5.96162">
        <ele>581.88</ele>
        <time>2026-07-01T08:53:55Z</time>
      </trkpt>
      <trkpt lat="44.11592" lon="5.96162">
        <ele>582.25</ele>
        <time>2026-07-01T08:53:56Z</time>
      </trkpt>
      <trkpt lat="44.11602" lon="5.96149">
        <ele>584.14</ele>
        <time>2026-07-01T08:54:02Z</time>
      </trkpt>
      <trkpt lat="44.11602" lon="5.96146">
        <ele>584.62</ele>
        <time>2026-07-01T08:54:03Z</time>
      </trkpt>
      <trkpt lat="44.11602" lon="5.96144">
        <ele>585.4</ele>
        <time>2026-07-01T08:54:04Z</time>
      </trkpt>
      <trkpt lat="44.11603" lon="5.96143">
        <ele>586.11</ele>
        <time>2026-07-01T08:54:05Z</time>
      </trkpt>
      <trkpt lat="44.11604" lon="5.96142">
        <ele>586.06</ele>
        <time>2026-07-01T08:54:06Z</time>
      </trkpt>
      <trkpt lat="44.11606" lon="5.9614">
        <ele>586.18</ele>
        <time>2026-07-01T08:54:07Z</time>
      </trkpt>
      <trkpt lat="44.11607" lon="5.96138">
        <ele>586.58</ele>
        <time>2026-07-01T08:54:08Z</time>
      </trkpt>
      <trkpt lat="44.11608" lon="5.96136">
        <ele>587.34</ele>
        <time>2026-07-01T08:54:09Z</time>
      </trkpt>
      <trkpt lat="44.11608" lon="5.96134">
        <ele>587.68</ele>
        <time>2026-07-01T08:54:10Z</time>
      </trkpt>
      <trkpt lat="44.1161" lon="5.96133">
        <ele>587.93</ele>
        <time>2026-07-01T08:54:11Z</time>
      </trkpt>
      <trkpt lat="44.11612" lon="5.96134">
        <ele>588.19</ele>
        <time>2026-07-01T08:54:12Z</time>
      </trkpt>
      <trkpt lat="44.11613" lon="5.96135">
        <ele>588.09</ele>
        <time>2026-07-01T08:54:13Z</time>
      </trkpt>
      <trkpt lat="44.11615" lon="5.96136">
        <ele>587.99</ele>
        <time>2026-07-01T08:54:14Z</time>
      </trkpt>
      <trkpt lat="44.11618" lon="5.96136">
        <ele>587.95</ele>
        <time>2026-07-01T08:54:15Z</time>
      </trkpt>
      <trkpt lat="44.1162" lon="5.96136">
        <ele>587.7</ele>
        <time>2026-07-01T08:54:16Z</time>
      </trkpt>
      <trkpt lat="44.11623" lon="5.96133">
        <ele>588.32</ele>
        <time>2026-07-01T08:54:21Z</time>
      </trkpt>
      <trkpt lat="44.11624" lon="5.96131">
        <ele>588.61</ele>
        <time>2026-07-01T08:54:22Z</time>
      </trkpt>
      <trkpt lat="44.11625" lon="5.9613">
        <ele>588.68</ele>
        <time>2026-07-01T08:54:23Z</time>
      </trkpt>
      <trkpt lat="44.11626" lon="5.96128">
        <ele>588.69</ele>
        <time>2026-07-01T08:54:24Z</time>
      </trkpt>
      <trkpt lat="44.11627" lon="5.96126">
        <ele>589.28</ele>
        <time>2026-07-01T08:54:25Z</time>
      </trkpt>
      <trkpt lat="44.11627" lon="5.96124">
        <ele>589.81</ele>
        <time>2026-07-01T08:54:26Z</time>
      </trkpt>
      <trkpt lat="44.11627" lon="5.96121">
        <ele>589.89</ele>
        <time>2026-07-01T08:54:27Z</time>
      </trkpt>
      <trkpt lat="44.1163" lon="5.96115">
        <ele>591.16</ele>
        <time>2026-07-01T08:54:30Z</time>
      </trkpt>
      <trkpt lat="44.11632" lon="5.96114">
        <ele>591.3</ele>
        <time>2026-07-01T08:54:31Z</time>
      </trkpt>
      <trkpt lat="44.11634" lon="5.96113">
        <ele>591.49</ele>
        <time>2026-07-01T08:54:32Z</time>
      </trkpt>
      <trkpt lat="44.11653" lon="5.96103">
        <ele>594.43</ele>
        <time>2026-07-01T08:54:43Z</time>
      </trkpt>
      <trkpt lat="44.11653" lon="5.96101">
        <ele>594.67</ele>
        <time>2026-07-01T08:54:44Z</time>
      </trkpt>
      <trkpt lat="44.11653" lon="5.96099">
        <ele>594.84</ele>
        <time>2026-07-01T08:54:45Z</time>
      </trkpt>
      <trkpt lat="44.11652" lon="5.96098">
        <ele>595.38</ele>
        <time>2026-07-01T08:54:46Z</time>
      </trkpt>
      <trkpt lat="44.11651" lon="5.96097">
        <ele>595.53</ele>
        <time>2026-07-01T08:54:47Z</time>
      </trkpt>
      <trkpt lat="44.11649" lon="5.96096">
        <ele>595.79</ele>
        <time>2026-07-01T08:54:48Z</time>
      </trkpt>
      <trkpt lat="44.11647" lon="5.96096">
        <ele>595.91</ele>
        <time>2026-07-01T08:54:49Z</time>
      </trkpt>
      <trkpt lat="44.11642" lon="5.96094">
        <ele>596.21</ele>
        <time>2026-07-01T08:54:52Z</time>
      </trkpt>
      <trkpt lat="44.11641" lon="5.96092">
        <ele>596.49</ele>
        <time>2026-07-01T08:54:53Z</time>
      </trkpt>
      <trkpt lat="44.11642" lon="5.9609">
        <ele>596.63</ele>
        <time>2026-07-01T08:54:54Z</time>
      </trkpt>
      <trkpt lat="44.11643" lon="5.96088">
        <ele>597.09</ele>
        <time>2026-07-01T08:54:55Z</time>
      </trkpt>
      <trkpt lat="44.11644" lon="5.96087">
        <ele>597.27</ele>
        <time>2026-07-01T08:54:56Z</time>
      </trkpt>
      <trkpt lat="44.11646" lon="5.96087">
        <ele>597.58</ele>
        <time>2026-07-01T08:54:57Z</time>
      </trkpt>
      <trkpt lat="44.11648" lon="5.96087">
        <ele>597.77</ele>
        <time>2026-07-01T08:54:58Z</time>
      </trkpt>
      <trkpt lat="44.1165" lon="5.96087">
        <ele>597.87</ele>
        <time>2026-07-01T08:54:59Z</time>
      </trkpt>
      <trkpt lat="44.11651" lon="5.96088">
        <ele>597.75</ele>
        <time>2026-07-01T08:55:15Z</time>
      </trkpt>
      <trkpt lat="44.11653" lon="5.96088">
        <ele>597.29</ele>
        <time>2026-07-01T08:55:30Z</time>
      </trkpt>
      <trkpt lat="44.1168" lon="5.96085">
        <ele>599.13</ele>
        <time>2026-07-01T08:55:42Z</time>
      </trkpt>
      <trkpt lat="44.11692" lon="5.96071">
        <ele>602.48</ele>
        <time>2026-07-01T08:55:50Z</time>
      </trkpt>
      <trkpt lat="44.11694" lon="5.9607">
        <ele>602.48</ele>
        <time>2026-07-01T08:55:51Z</time>
      </trkpt>
      <trkpt lat="44.11696" lon="5.9607">
        <ele>602.85</ele>
        <time>2026-07-01T08:55:52Z</time>
      </trkpt>
      <trkpt lat="44.11706" lon="5.96071">
        <ele>601.89</ele>
        <time>2026-07-01T08:56:00Z</time>
      </trkpt>
      <trkpt lat="44.11708" lon="5.96071">
        <ele>601.84</ele>
        <time>2026-07-01T08:56:01Z</time>
      </trkpt>
      <trkpt lat="44.1171" lon="5.96072">
        <ele>601.74</ele>
        <time>2026-07-01T08:56:02Z</time>
      </trkpt>
      <trkpt lat="44.11713" lon="5.96072">
        <ele>601.8</ele>
        <time>2026-07-01T08:56:03Z</time>
      </trkpt>
      <trkpt lat="44.11716" lon="5.96073">
        <ele>601.79</ele>
        <time>2026-07-01T08:56:04Z</time>
      </trkpt>
      <trkpt lat="44.11749" lon="5.96076">
        <ele>602.33</ele>
        <time>2026-07-01T08:56:18Z</time>
      </trkpt>
      <trkpt lat="44.11751" lon="5.96076">
        <ele>602.56</ele>
        <time>2026-07-01T08:56:19Z</time>
      </trkpt>
      <trkpt lat="44.11752" lon="5.96077">
        <ele>602.75</ele>
        <time>2026-07-01T08:56:20Z</time>
      </trkpt>
      <trkpt lat="44.11754" lon="5.96079">
        <ele>603.17</ele>
        <time>2026-07-01T08:56:21Z</time>
      </trkpt>
      <trkpt lat="44.11783" lon="5.961">
        <ele>601.4</ele>
        <time>2026-07-01T08:56:32Z</time>
      </trkpt>
      <trkpt lat="44.11787" lon="5.96099">
        <ele>600.81</ele>
        <time>2026-07-01T08:56:33Z</time>
      </trkpt>
      <trkpt lat="44.11792" lon="5.96097">
        <ele>600.72</ele>
        <time>2026-07-01T08:56:34Z</time>
      </trkpt>
      <trkpt lat="44.11819" lon="5.96088">
        <ele>600.3</ele>
        <time>2026-07-01T08:56:43Z</time>
      </trkpt>
      <trkpt lat="44.11844" lon="5.96089">
        <ele>601.13</ele>
        <time>2026-07-01T08:56:52Z</time>
      </trkpt>
      <trkpt lat="44.11859" lon="5.96088">
        <ele>603.68</ele>
        <time>2026-07-01T08:57:00Z</time>
      </trkpt>
      <trkpt lat="44.11865" lon="5.96091">
        <ele>602</ele>
        <time>2026-07-01T08:57:22Z</time>
      </trkpt>
      <trkpt lat="44.11896" lon="5.96116">
        <ele>602.56</ele>
        <time>2026-07-01T08:57:33Z</time>
      </trkpt>
      <trkpt lat="44.11899" lon="5.9612">
        <ele>602.3</ele>
        <time>2026-07-01T08:57:34Z</time>
      </trkpt>
      <trkpt lat="44.11901" lon="5.96125">
        <ele>601.71</ele>
        <time>2026-07-01T08:57:35Z</time>
      </trkpt>
      <trkpt lat="44.11903" lon="5.96131">
        <ele>601.39</ele>
        <time>2026-07-01T08:57:36Z</time>
      </trkpt>
      <trkpt lat="44.11906" lon="5.96136">
        <ele>600.44</ele>
        <time>2026-07-01T08:57:37Z</time>
      </trkpt>
      <trkpt lat="44.11909" lon="5.96142">
        <ele>600.01</ele>
        <time>2026-07-01T08:57:38Z</time>
      </trkpt>
      <trkpt lat="44.11914" lon="5.96146">
        <ele>599.85</ele>
        <time>2026-07-01T08:57:39Z</time>
      </trkpt>
      <trkpt lat="44.1192" lon="5.96148">
        <ele>599.26</ele>
        <time>2026-07-01T08:57:40Z</time>
      </trkpt>
      <trkpt lat="44.11925" lon="5.96148">
        <ele>598.31</ele>
        <time>2026-07-01T08:57:41Z</time>
      </trkpt>
      <trkpt lat="44.11931" lon="5.96147">
        <ele>597.48</ele>
        <time>2026-07-01T08:57:42Z</time>
      </trkpt>
      <trkpt lat="44.11935" lon="5.96146">
        <ele>597.47</ele>
        <time>2026-07-01T08:57:43Z</time>
      </trkpt>
      <trkpt lat="44.11939" lon="5.96145">
        <ele>597.78</ele>
        <time>2026-07-01T08:57:44Z</time>
      </trkpt>
      <trkpt lat="44.11942" lon="5.96144">
        <ele>597.84</ele>
        <time>2026-07-01T08:57:45Z</time>
      </trkpt>
      <trkpt lat="44.11968" lon="5.96138">
        <ele>600.82</ele>
        <time>2026-07-01T08:57:56Z</time>
      </trkpt>
      <trkpt lat="44.11979" lon="5.96145">
        <ele>599.11</ele>
        <time>2026-07-01T08:58:03Z</time>
      </trkpt>
      <trkpt lat="44.11982" lon="5.96149">
        <ele>598.91</ele>
        <time>2026-07-01T08:58:05Z</time>
      </trkpt>
      <trkpt lat="44.11992" lon="5.96163">
        <ele>600.51</ele>
        <time>2026-07-01T08:58:15Z</time>
      </trkpt>
      <trkpt lat="44.11993" lon="5.96166">
        <ele>599.64</ele>
        <time>2026-07-01T08:58:31Z</time>
      </trkpt>
      <trkpt lat="44.11997" lon="5.96169">
        <ele>598.79</ele>
        <time>2026-07-01T08:58:34Z</time>
      </trkpt>
      <trkpt lat="44.11998" lon="5.96172">
        <ele>597.85</ele>
        <time>2026-07-01T08:58:35Z</time>
      </trkpt>
      <trkpt lat="44.11998" lon="5.96175">
        <ele>596.99</ele>
        <time>2026-07-01T08:58:36Z</time>
      </trkpt>
      <trkpt lat="44.11998" lon="5.9618">
        <ele>596.1</ele>
        <time>2026-07-01T08:58:37Z</time>
      </trkpt>
      <trkpt lat="44.11998" lon="5.96184">
        <ele>595.33</ele>
        <time>2026-07-01T08:58:38Z</time>
      </trkpt>
      <trkpt lat="44.11996" lon="5.96189">
        <ele>594.4</ele>
        <time>2026-07-01T08:58:39Z</time>
      </trkpt>
      <trkpt lat="44.11994" lon="5.96192">
        <ele>593.75</ele>
        <time>2026-07-01T08:58:40Z</time>
      </trkpt>
      <trkpt lat="44.11993" lon="5.96196">
        <ele>593.57</ele>
        <time>2026-07-01T08:58:41Z</time>
      </trkpt>
      <trkpt lat="44.1199" lon="5.96223">
        <ele>592.3</ele>
        <time>2026-07-01T08:58:49Z</time>
      </trkpt>
      <trkpt lat="44.1199" lon="5.96226">
        <ele>592.49</ele>
        <time>2026-07-01T08:58:50Z</time>
      </trkpt>
      <trkpt lat="44.11989" lon="5.96228">
        <ele>592.51</ele>
        <time>2026-07-01T08:58:51Z</time>
      </trkpt>
      <trkpt lat="44.11987" lon="5.96234">
        <ele>591.82</ele>
        <time>2026-07-01T08:59:02Z</time>
      </trkpt>
      <trkpt lat="44.11986" lon="5.96236">
        <ele>591.54</ele>
        <time>2026-07-01T08:59:03Z</time>
      </trkpt>
      <trkpt lat="44.11979" lon="5.96258">
        <ele>591.98</ele>
        <time>2026-07-01T08:59:14Z</time>
      </trkpt>
      <trkpt lat="44.11981" lon="5.96269">
        <ele>592.28</ele>
        <time>2026-07-01T08:59:18Z</time>
      </trkpt>
      <trkpt lat="44.11989" lon="5.96289">
        <ele>590</ele>
        <time>2026-07-01T08:59:26Z</time>
      </trkpt>
      <trkpt lat="44.11989" lon="5.96291">
        <ele>589.66</ele>
        <time>2026-07-01T08:59:27Z</time>
      </trkpt>
      <trkpt lat="44.11991" lon="5.96294">
        <ele>589.2</ele>
        <time>2026-07-01T08:59:28Z</time>
      </trkpt>
      <trkpt lat="44.11997" lon="5.96318">
        <ele>585.96</ele>
        <time>2026-07-01T08:59:36Z</time>
      </trkpt>
      <trkpt lat="44.11996" lon="5.96331">
        <ele>582.9</ele>
        <time>2026-07-01T08:59:41Z</time>
      </trkpt>
      <trkpt lat="44.11996" lon="5.96342">
        <ele>580.25</ele>
        <time>2026-07-01T08:59:45Z</time>
      </trkpt>
      <trkpt lat="44.11995" lon="5.96344">
        <ele>579.48</ele>
        <time>2026-07-01T08:59:46Z</time>
      </trkpt>
      <trkpt lat="44.11993" lon="5.96346">
        <ele>579.21</ele>
        <time>2026-07-01T08:59:47Z</time>
      </trkpt>
      <trkpt lat="44.11992" lon="5.96347">
        <ele>579.66</ele>
        <time>2026-07-01T08:59:48Z</time>
      </trkpt>
      <trkpt lat="44.11991" lon="5.96348">
        <ele>579.87</ele>
        <time>2026-07-01T08:59:49Z</time>
      </trkpt>
      <trkpt lat="44.11989" lon="5.96349">
        <ele>580.22</ele>
        <time>2026-07-01T08:59:50Z</time>
      </trkpt>
      <trkpt lat="44.11987" lon="5.9635">
        <ele>580.97</ele>
        <time>2026-07-01T08:59:51Z</time>
      </trkpt>
      <trkpt lat="44.11985" lon="5.96351">
        <ele>581.38</ele>
        <time>2026-07-01T08:59:52Z</time>
      </trkpt>
      <trkpt lat="44.11985" lon="5.96359">
        <ele>580.66</ele>
        <time>2026-07-01T09:00:06Z</time>
      </trkpt>
      <trkpt lat="44.11983" lon="5.96366">
        <ele>581.45</ele>
        <time>2026-07-01T09:00:19Z</time>
      </trkpt>
      <trkpt lat="44.11984" lon="5.96369">
        <ele>580.87</ele>
        <time>2026-07-01T09:00:20Z</time>
      </trkpt>
      <trkpt lat="44.11985" lon="5.96371">
        <ele>580.52</ele>
        <time>2026-07-01T09:00:21Z</time>
      </trkpt>
      <trkpt lat="44.11992" lon="5.96392">
        <ele>580.37</ele>
        <time>2026-07-01T09:00:28Z</time>
      </trkpt>
      <trkpt lat="44.11993" lon="5.96394">
        <ele>580.53</ele>
        <time>2026-07-01T09:00:29Z</time>
      </trkpt>
      <trkpt lat="44.11993" lon="5.96397">
        <ele>580.44</ele>
        <time>2026-07-01T09:00:30Z</time>
      </trkpt>
      <trkpt lat="44.11993" lon="5.964">
        <ele>580.83</ele>
        <time>2026-07-01T09:00:31Z</time>
      </trkpt>
      <trkpt lat="44.11994" lon="5.96402">
        <ele>581.19</ele>
        <time>2026-07-01T09:00:32Z</time>
      </trkpt>
      <trkpt lat="44.11995" lon="5.96405">
        <ele>581.45</ele>
        <time>2026-07-01T09:00:33Z</time>
      </trkpt>
      <trkpt lat="44.11996" lon="5.96408">
        <ele>581.46</ele>
        <time>2026-07-01T09:00:34Z</time>
      </trkpt>
      <trkpt lat="44.11997" lon="5.96411">
        <ele>581.44</ele>
        <time>2026-07-01T09:00:35Z</time>
      </trkpt>
      <trkpt lat="44.11997" lon="5.96414">
        <ele>581.48</ele>
        <time>2026-07-01T09:00:36Z</time>
      </trkpt>
      <trkpt lat="44.11999" lon="5.9643">
        <ele>582.04</ele>
        <time>2026-07-01T09:00:41Z</time>
      </trkpt>
      <trkpt lat="44.11999" lon="5.96433">
        <ele>582.54</ele>
        <time>2026-07-01T09:00:42Z</time>
      </trkpt>
      <trkpt lat="44.11998" lon="5.96437">
        <ele>582.85</ele>
        <time>2026-07-01T09:00:43Z</time>
      </trkpt>
      <trkpt lat="44.11998" lon="5.9644">
        <ele>583.16</ele>
        <time>2026-07-01T09:00:44Z</time>
      </trkpt>
      <trkpt lat="44.11997" lon="5.96443">
        <ele>583.33</ele>
        <time>2026-07-01T09:00:45Z</time>
      </trkpt>
      <trkpt lat="44.11995" lon="5.96451">
        <ele>583.95</ele>
        <time>2026-07-01T09:00:51Z</time>
      </trkpt>
      <trkpt lat="44.11995" lon="5.96454">
        <ele>583.8</ele>
        <time>2026-07-01T09:00:52Z</time>
      </trkpt>
      <trkpt lat="44.11994" lon="5.96458">
        <ele>583.66</ele>
        <time>2026-07-01T09:00:53Z</time>
      </trkpt>
      <trkpt lat="44.11992" lon="5.96461">
        <ele>583.22</ele>
        <time>2026-07-01T09:00:54Z</time>
      </trkpt>
      <trkpt lat="44.1199" lon="5.96465">
        <ele>582.64</ele>
        <time>2026-07-01T09:00:55Z</time>
      </trkpt>
      <trkpt lat="44.11975" lon="5.96482">
        <ele>581.63</ele>
        <time>2026-07-01T09:01:00Z</time>
      </trkpt>
      <trkpt lat="44.11971" lon="5.96485">
        <ele>580.79</ele>
        <time>2026-07-01T09:01:01Z</time>
      </trkpt>
      <trkpt lat="44.11967" lon="5.96487">
        <ele>580.75</ele>
        <time>2026-07-01T09:01:02Z</time>
      </trkpt>
      <trkpt lat="44.11963" lon="5.96487">
        <ele>580.55</ele>
        <time>2026-07-01T09:01:03Z</time>
      </trkpt>
      <trkpt lat="44.11959" lon="5.96488">
        <ele>580.45</ele>
        <time>2026-07-01T09:01:04Z</time>
      </trkpt>
      <trkpt lat="44.11953" lon="5.96489">
        <ele>580.46</ele>
        <time>2026-07-01T09:01:06Z</time>
      </trkpt>
      <trkpt lat="44.11952" lon="5.9649">
        <ele>580.35</ele>
        <time>2026-07-01T09:01:07Z</time>
      </trkpt>
      <trkpt lat="44.11951" lon="5.96493">
        <ele>580.21</ele>
        <time>2026-07-01T09:01:08Z</time>
      </trkpt>
      <trkpt lat="44.11951" lon="5.96495">
        <ele>579.84</ele>
        <time>2026-07-01T09:01:09Z</time>
      </trkpt>
      <trkpt lat="44.11952" lon="5.96496">
        <ele>579.43</ele>
        <time>2026-07-01T09:01:10Z</time>
      </trkpt>
      <trkpt lat="44.11955" lon="5.96502">
        <ele>578.42</ele>
        <time>2026-07-01T09:01:14Z</time>
      </trkpt>
      <trkpt lat="44.11955" lon="5.96505">
        <ele>577.65</ele>
        <time>2026-07-01T09:01:15Z</time>
      </trkpt>
      <trkpt lat="44.11955" lon="5.96508">
        <ele>577.1</ele>
        <time>2026-07-01T09:01:16Z</time>
      </trkpt>
      <trkpt lat="44.11954" lon="5.96512">
        <ele>576.66</ele>
        <time>2026-07-01T09:01:17Z</time>
      </trkpt>
      <trkpt lat="44.11952" lon="5.96515">
        <ele>576.16</ele>
        <time>2026-07-01T09:01:18Z</time>
      </trkpt>
      <trkpt lat="44.11949" lon="5.96519">
        <ele>575.43</ele>
        <time>2026-07-01T09:01:19Z</time>
      </trkpt>
      <trkpt lat="44.11946" lon="5.96522">
        <ele>574.68</ele>
        <time>2026-07-01T09:01:20Z</time>
      </trkpt>
      <trkpt lat="44.11943" lon="5.96524">
        <ele>574.33</ele>
        <time>2026-07-01T09:01:21Z</time>
      </trkpt>
      <trkpt lat="44.11939" lon="5.96525">
        <ele>573.91</ele>
        <time>2026-07-01T09:01:22Z</time>
      </trkpt>
      <trkpt lat="44.11935" lon="5.96527">
        <ele>573.4</ele>
        <time>2026-07-01T09:01:23Z</time>
      </trkpt>
      <trkpt lat="44.11931" lon="5.96529">
        <ele>573.43</ele>
        <time>2026-07-01T09:01:24Z</time>
      </trkpt>
      <trkpt lat="44.11906" lon="5.96543">
        <ele>571.24</ele>
        <time>2026-07-01T09:01:33Z</time>
      </trkpt>
      <trkpt lat="44.11905" lon="5.96545">
        <ele>571.24</ele>
        <time>2026-07-01T09:01:34Z</time>
      </trkpt>
      <trkpt lat="44.11904" lon="5.96548">
        <ele>571.26</ele>
        <time>2026-07-01T09:01:35Z</time>
      </trkpt>
      <trkpt lat="44.11904" lon="5.96551">
        <ele>570.85</ele>
        <time>2026-07-01T09:01:36Z</time>
      </trkpt>
      <trkpt lat="44.11903" lon="5.96555">
        <ele>570.56</ele>
        <time>2026-07-01T09:01:37Z</time>
      </trkpt>
      <trkpt lat="44.11903" lon="5.96557">
        <ele>570.6</ele>
        <time>2026-07-01T09:01:38Z</time>
      </trkpt>
      <trkpt lat="44.11902" lon="5.96559">
        <ele>570.47</ele>
        <time>2026-07-01T09:01:39Z</time>
      </trkpt>
      <trkpt lat="44.11902" lon="5.96561">
        <ele>570.25</ele>
        <time>2026-07-01T09:01:40Z</time>
      </trkpt>
      <trkpt lat="44.11902" lon="5.96563">
        <ele>570.08</ele>
        <time>2026-07-01T09:01:41Z</time>
      </trkpt>
      <trkpt lat="44.11903" lon="5.96564">
        <ele>569.7</ele>
        <time>2026-07-01T09:01:42Z</time>
      </trkpt>
      <trkpt lat="44.11904" lon="5.96565">
        <ele>569.03</ele>
        <time>2026-07-01T09:01:43Z</time>
      </trkpt>
      <trkpt lat="44.11904" lon="5.96566">
        <ele>568.47</ele>
        <time>2026-07-01T09:01:44Z</time>
      </trkpt>
      <trkpt lat="44.11904" lon="5.96568">
        <ele>567.96</ele>
        <time>2026-07-01T09:01:45Z</time>
      </trkpt>
      <trkpt lat="44.11903" lon="5.96569">
        <ele>567.36</ele>
        <time>2026-07-01T09:01:46Z</time>
      </trkpt>
      <trkpt lat="44.119" lon="5.96575">
        <ele>565.68</ele>
        <time>2026-07-01T09:01:56Z</time>
      </trkpt>
      <trkpt lat="44.11898" lon="5.96578">
        <ele>565.33</ele>
        <time>2026-07-01T09:01:57Z</time>
      </trkpt>
      <trkpt lat="44.11897" lon="5.96581">
        <ele>565.64</ele>
        <time>2026-07-01T09:01:58Z</time>
      </trkpt>
      <trkpt lat="44.11896" lon="5.96586">
        <ele>566.9</ele>
        <time>2026-07-01T09:02:01Z</time>
      </trkpt>
      <trkpt lat="44.11896" lon="5.96587">
        <ele>567</ele>
        <time>2026-07-01T09:02:02Z</time>
      </trkpt>
      <trkpt lat="44.11895" lon="5.96595">
        <ele>565.98</ele>
        <time>2026-07-01T09:02:17Z</time>
      </trkpt>
      <trkpt lat="44.11896" lon="5.96599">
        <ele>566.18</ele>
        <time>2026-07-01T09:02:24Z</time>
      </trkpt>
      <trkpt lat="44.11897" lon="5.96601">
        <ele>565.92</ele>
        <time>2026-07-01T09:02:25Z</time>
      </trkpt>
      <trkpt lat="44.11899" lon="5.96602">
        <ele>565.52</ele>
        <time>2026-07-01T09:02:26Z</time>
      </trkpt>
      <trkpt lat="44.119" lon="5.96603">
        <ele>565.43</ele>
        <time>2026-07-01T09:02:27Z</time>
      </trkpt>
      <trkpt lat="44.11901" lon="5.96604">
        <ele>564.87</ele>
        <time>2026-07-01T09:02:28Z</time>
      </trkpt>
      <trkpt lat="44.11903" lon="5.96604">
        <ele>564.64</ele>
        <time>2026-07-01T09:02:29Z</time>
      </trkpt>
      <trkpt lat="44.11905" lon="5.96605">
        <ele>564</ele>
        <time>2026-07-01T09:02:30Z</time>
      </trkpt>
      <trkpt lat="44.11907" lon="5.96606">
        <ele>563.17</ele>
        <time>2026-07-01T09:02:31Z</time>
      </trkpt>
      <trkpt lat="44.11909" lon="5.96607">
        <ele>562.55</ele>
        <time>2026-07-01T09:02:32Z</time>
      </trkpt>
      <trkpt lat="44.11911" lon="5.96609">
        <ele>562.29</ele>
        <time>2026-07-01T09:02:33Z</time>
      </trkpt>
      <trkpt lat="44.11912" lon="5.9661">
        <ele>561.99</ele>
        <time>2026-07-01T09:02:34Z</time>
      </trkpt>
      <trkpt lat="44.11913" lon="5.96612">
        <ele>561.65</ele>
        <time>2026-07-01T09:02:35Z</time>
      </trkpt>
      <trkpt lat="44.11915" lon="5.96613">
        <ele>561.11</ele>
        <time>2026-07-01T09:02:36Z</time>
      </trkpt>
      <trkpt lat="44.11916" lon="5.96615">
        <ele>560.7</ele>
        <time>2026-07-01T09:02:37Z</time>
      </trkpt>
      <trkpt lat="44.11918" lon="5.96617">
        <ele>560.35</ele>
        <time>2026-07-01T09:02:38Z</time>
      </trkpt>
      <trkpt lat="44.11919" lon="5.96619">
        <ele>559.76</ele>
        <time>2026-07-01T09:02:39Z</time>
      </trkpt>
      <trkpt lat="44.11922" lon="5.96624">
        <ele>559.14</ele>
        <time>2026-07-01T09:02:43Z</time>
      </trkpt>
      <trkpt lat="44.11924" lon="5.96626">
        <ele>559.07</ele>
        <time>2026-07-01T09:02:44Z</time>
      </trkpt>
      <trkpt lat="44.11925" lon="5.96629">
        <ele>559</ele>
        <time>2026-07-01T09:02:45Z</time>
      </trkpt>
      <trkpt lat="44.11927" lon="5.96631">
        <ele>558.97</ele>
        <time>2026-07-01T09:02:46Z</time>
      </trkpt>
      <trkpt lat="44.11929" lon="5.96634">
        <ele>558.98</ele>
        <time>2026-07-01T09:02:47Z</time>
      </trkpt>
      <trkpt lat="44.11931" lon="5.96637">
        <ele>558.92</ele>
        <time>2026-07-01T09:02:48Z</time>
      </trkpt>
      <trkpt lat="44.11949" lon="5.96676">
        <ele>557.49</ele>
        <time>2026-07-01T09:02:58Z</time>
      </trkpt>
      <trkpt lat="44.11948" lon="5.96679">
        <ele>557.38</ele>
        <time>2026-07-01T09:02:59Z</time>
      </trkpt>
      <trkpt lat="44.11947" lon="5.96683">
        <ele>557.09</ele>
        <time>2026-07-01T09:03:00Z</time>
      </trkpt>
      <trkpt lat="44.11945" lon="5.96686">
        <ele>556.8</ele>
        <time>2026-07-01T09:03:01Z</time>
      </trkpt>
      <trkpt lat="44.11943" lon="5.96689">
        <ele>556.4</ele>
        <time>2026-07-01T09:03:02Z</time>
      </trkpt>
      <trkpt lat="44.11921" lon="5.96706">
        <ele>555.25</ele>
        <time>2026-07-01T09:03:10Z</time>
      </trkpt>
      <trkpt lat="44.1192" lon="5.96709">
        <ele>554.78</ele>
        <time>2026-07-01T09:03:11Z</time>
      </trkpt>
      <trkpt lat="44.11923" lon="5.96716">
        <ele>553.89</ele>
        <time>2026-07-01T09:03:13Z</time>
      </trkpt>
      <trkpt lat="44.11926" lon="5.96719">
        <ele>554.08</ele>
        <time>2026-07-01T09:03:14Z</time>
      </trkpt>
      <trkpt lat="44.11929" lon="5.96723">
        <ele>552.32</ele>
        <time>2026-07-01T09:03:15Z</time>
      </trkpt>
      <trkpt lat="44.11937" lon="5.96734">
        <ele>551.66</ele>
        <time>2026-07-01T09:03:17Z</time>
      </trkpt>
      <trkpt lat="44.11942" lon="5.96737">
        <ele>551.09</ele>
        <time>2026-07-01T09:03:18Z</time>
      </trkpt>
      <trkpt lat="44.11946" lon="5.96738">
        <ele>550.44</ele>
        <time>2026-07-01T09:03:19Z</time>
      </trkpt>
      <trkpt lat="44.1195" lon="5.96738">
        <ele>549.99</ele>
        <time>2026-07-01T09:03:20Z</time>
      </trkpt>
      <trkpt lat="44.11955" lon="5.96736">
        <ele>549.78</ele>
        <time>2026-07-01T09:03:21Z</time>
      </trkpt>
      <trkpt lat="44.11959" lon="5.96733">
        <ele>549.52</ele>
        <time>2026-07-01T09:03:22Z</time>
      </trkpt>
      <trkpt lat="44.11962" lon="5.9673">
        <ele>549.83</ele>
        <time>2026-07-01T09:03:23Z</time>
      </trkpt>
      <trkpt lat="44.11983" lon="5.96734">
        <ele>548.44</ele>
        <time>2026-07-01T09:03:32Z</time>
      </trkpt>
      <trkpt lat="44.11983" lon="5.96737">
        <ele>547.96</ele>
        <time>2026-07-01T09:03:33Z</time>
      </trkpt>
      <trkpt lat="44.11982" lon="5.96741">
        <ele>547.6</ele>
        <time>2026-07-01T09:03:34Z</time>
      </trkpt>
      <trkpt lat="44.1198" lon="5.96744">
        <ele>546.68</ele>
        <time>2026-07-01T09:03:35Z</time>
      </trkpt>
      <trkpt lat="44.11979" lon="5.96747">
        <ele>545.96</ele>
        <time>2026-07-01T09:03:36Z</time>
      </trkpt>
      <trkpt lat="44.11979" lon="5.9675">
        <ele>545.39</ele>
        <time>2026-07-01T09:03:37Z</time>
      </trkpt>
      <trkpt lat="44.1198" lon="5.96753">
        <ele>544.68</ele>
        <time>2026-07-01T09:03:38Z</time>
      </trkpt>
      <trkpt lat="44.11979" lon="5.96756">
        <ele>543.88</ele>
        <time>2026-07-01T09:03:39Z</time>
      </trkpt>
      <trkpt lat="44.11978" lon="5.96759">
        <ele>543.61</ele>
        <time>2026-07-01T09:03:40Z</time>
      </trkpt>
      <trkpt lat="44.11977" lon="5.96762">
        <ele>542.28</ele>
        <time>2026-07-01T09:03:41Z</time>
      </trkpt>
      <trkpt lat="44.11974" lon="5.96765">
        <ele>541.78</ele>
        <time>2026-07-01T09:03:42Z</time>
      </trkpt>
      <trkpt lat="44.11972" lon="5.96767">
        <ele>541.9</ele>
        <time>2026-07-01T09:03:43Z</time>
      </trkpt>
      <trkpt lat="44.11971" lon="5.96769">
        <ele>541.83</ele>
        <time>2026-07-01T09:03:44Z</time>
      </trkpt>
      <trkpt lat="44.11969" lon="5.96775">
        <ele>541.61</ele>
        <time>2026-07-01T09:03:55Z</time>
      </trkpt>
      <trkpt lat="44.11969" lon="5.9678">
        <ele>540.94</ele>
        <time>2026-07-01T09:04:21Z</time>
      </trkpt>
      <trkpt lat="44.11969" lon="5.9678">
        <ele>541.53</ele>
        <time>2026-07-01T09:04:38Z</time>
      </trkpt>
      <trkpt lat="44.11967" lon="5.96785">
        <ele>540.84</ele>
        <time>2026-07-01T09:04:42Z</time>
      </trkpt>
      <trkpt lat="44.11968" lon="5.96787">
        <ele>540.64</ele>
        <time>2026-07-01T09:04:43Z</time>
      </trkpt>
      <trkpt lat="44.11969" lon="5.96789">
        <ele>540.39</ele>
        <time>2026-07-01T09:04:44Z</time>
      </trkpt>
      <trkpt lat="44.11971" lon="5.96791">
        <ele>539.77</ele>
        <time>2026-07-01T09:04:45Z</time>
      </trkpt>
      <trkpt lat="44.11973" lon="5.96794">
        <ele>539.08</ele>
        <time>2026-07-01T09:04:46Z</time>
      </trkpt>
      <trkpt lat="44.11973" lon="5.96798">
        <ele>538.57</ele>
        <time>2026-07-01T09:04:47Z</time>
      </trkpt>
      <trkpt lat="44.11973" lon="5.96801">
        <ele>538.26</ele>
        <time>2026-07-01T09:04:48Z</time>
      </trkpt>
      <trkpt lat="44.11973" lon="5.96804">
        <ele>538.14</ele>
        <time>2026-07-01T09:04:49Z</time>
      </trkpt>
      <trkpt lat="44.11976" lon="5.96805">
        <ele>538.1</ele>
        <time>2026-07-01T09:04:50Z</time>
      </trkpt>
      <trkpt lat="44.11979" lon="5.96807">
        <ele>537.12</ele>
        <time>2026-07-01T09:04:51Z</time>
      </trkpt>
      <trkpt lat="44.11984" lon="5.96811">
        <ele>536.21</ele>
        <time>2026-07-01T09:04:52Z</time>
      </trkpt>
      <trkpt lat="44.11988" lon="5.96814">
        <ele>535.67</ele>
        <time>2026-07-01T09:04:53Z</time>
      </trkpt>
      <trkpt lat="44.11992" lon="5.96821">
        <ele>534.28</ele>
        <time>2026-07-01T09:04:55Z</time>
      </trkpt>
      <trkpt lat="44.11993" lon="5.96824">
        <ele>534.37</ele>
        <time>2026-07-01T09:04:56Z</time>
      </trkpt>
      <trkpt lat="44.11994" lon="5.96828">
        <ele>534.82</ele>
        <time>2026-07-01T09:04:57Z</time>
      </trkpt>
      <trkpt lat="44.12008" lon="5.96853">
        <ele>531.94</ele>
        <time>2026-07-01T09:05:04Z</time>
      </trkpt>
      <trkpt lat="44.12009" lon="5.96858">
        <ele>531.52</ele>
        <time>2026-07-01T09:05:05Z</time>
      </trkpt>
      <trkpt lat="44.12009" lon="5.96863">
        <ele>530.8</ele>
        <time>2026-07-01T09:05:06Z</time>
      </trkpt>
      <trkpt lat="44.1201" lon="5.96868">
        <ele>530.53</ele>
        <time>2026-07-01T09:05:07Z</time>
      </trkpt>
      <trkpt lat="44.12011" lon="5.96873">
        <ele>529.96</ele>
        <time>2026-07-01T09:05:08Z</time>
      </trkpt>
      <trkpt lat="44.12013" lon="5.96877">
        <ele>529.2</ele>
        <time>2026-07-01T09:05:09Z</time>
      </trkpt>
      <trkpt lat="44.12014" lon="5.96885">
        <ele>528.32</ele>
        <time>2026-07-01T09:05:17Z</time>
      </trkpt>
      <trkpt lat="44.1202" lon="5.96903">
        <ele>528.04</ele>
        <time>2026-07-01T09:05:37Z</time>
      </trkpt>
      <trkpt lat="44.12021" lon="5.96908">
        <ele>527.6</ele>
        <time>2026-07-01T09:05:38Z</time>
      </trkpt>
      <trkpt lat="44.12022" lon="5.96913">
        <ele>527.35</ele>
        <time>2026-07-01T09:05:39Z</time>
      </trkpt>
      <trkpt lat="44.12022" lon="5.96919">
        <ele>527.09</ele>
        <time>2026-07-01T09:05:40Z</time>
      </trkpt>
      <trkpt lat="44.12023" lon="5.96922">
        <ele>527</ele>
        <time>2026-07-01T09:05:41Z</time>
      </trkpt>
      <trkpt lat="44.12026" lon="5.96925">
        <ele>526.51</ele>
        <time>2026-07-01T09:05:42Z</time>
      </trkpt>
      <trkpt lat="44.12029" lon="5.96926">
        <ele>525.71</ele>
        <time>2026-07-01T09:05:43Z</time>
      </trkpt>
      <trkpt lat="44.12033" lon="5.96936">
        <ele>523.46</ele>
        <time>2026-07-01T09:05:46Z</time>
      </trkpt>
      <trkpt lat="44.12033" lon="5.96939">
        <ele>523.01</ele>
        <time>2026-07-01T09:05:47Z</time>
      </trkpt>
      <trkpt lat="44.12032" lon="5.96942">
        <ele>523.13</ele>
        <time>2026-07-01T09:05:48Z</time>
      </trkpt>
      <trkpt lat="44.12032" lon="5.96945">
        <ele>523.03</ele>
        <time>2026-07-01T09:05:49Z</time>
      </trkpt>
      <trkpt lat="44.12032" lon="5.96949">
        <ele>522.8</ele>
        <time>2026-07-01T09:05:50Z</time>
      </trkpt>
      <trkpt lat="44.12034" lon="5.96968">
        <ele>520.31</ele>
        <time>2026-07-01T09:05:54Z</time>
      </trkpt>
      <trkpt lat="44.12035" lon="5.96995">
        <ele>517.56</ele>
        <time>2026-07-01T09:05:58Z</time>
      </trkpt>
      <trkpt lat="44.12032" lon="5.97">
        <ele>517.17</ele>
        <time>2026-07-01T09:05:59Z</time>
      </trkpt>
      <trkpt lat="44.12024" lon="5.9701">
        <ele>516.31</ele>
        <time>2026-07-01T09:06:01Z</time>
      </trkpt>
      <trkpt lat="44.12017" lon="5.97025">
        <ele>514.12</ele>
        <time>2026-07-01T09:06:05Z</time>
      </trkpt>
      <trkpt lat="44.12018" lon="5.97028">
        <ele>513.94</ele>
        <time>2026-07-01T09:06:06Z</time>
      </trkpt>
      <trkpt lat="44.12021" lon="5.9703">
        <ele>513.64</ele>
        <time>2026-07-01T09:06:07Z</time>
      </trkpt>
      <trkpt lat="44.12024" lon="5.97032">
        <ele>512.84</ele>
        <time>2026-07-01T09:06:08Z</time>
      </trkpt>
      <trkpt lat="44.12028" lon="5.97032">
        <ele>511.92</ele>
        <time>2026-07-01T09:06:09Z</time>
      </trkpt>
      <trkpt lat="44.12031" lon="5.97033">
        <ele>511.49</ele>
        <time>2026-07-01T09:06:10Z</time>
      </trkpt>
      <trkpt lat="44.12034" lon="5.97033">
        <ele>511.23</ele>
        <time>2026-07-01T09:06:11Z</time>
      </trkpt>
      <trkpt lat="44.12035" lon="5.97034">
        <ele>510.92</ele>
        <time>2026-07-01T09:06:12Z</time>
      </trkpt>
      <trkpt lat="44.12036" lon="5.97036">
        <ele>510.51</ele>
        <time>2026-07-01T09:06:13Z</time>
      </trkpt>
      <trkpt lat="44.12037" lon="5.97038">
        <ele>510.25</ele>
        <time>2026-07-01T09:06:14Z</time>
      </trkpt>
      <trkpt lat="44.12039" lon="5.97042">
        <ele>509.79</ele>
        <time>2026-07-01T09:06:17Z</time>
      </trkpt>
      <trkpt lat="44.1204" lon="5.97053">
        <ele>506.22</ele>
        <time>2026-07-01T09:06:22Z</time>
      </trkpt>
      <trkpt lat="44.12048" lon="5.97066">
        <ele>503.22</ele>
        <time>2026-07-01T09:06:25Z</time>
      </trkpt>
      <trkpt lat="44.12049" lon="5.97068">
        <ele>503.07</ele>
        <time>2026-07-01T09:06:26Z</time>
      </trkpt>
      <trkpt lat="44.12051" lon="5.97069">
        <ele>503.22</ele>
        <time>2026-07-01T09:06:27Z</time>
      </trkpt>
      <trkpt lat="44.12053" lon="5.97068">
        <ele>503.37</ele>
        <time>2026-07-01T09:06:28Z</time>
      </trkpt>
      <trkpt lat="44.12054" lon="5.97069">
        <ele>503</ele>
        <time>2026-07-01T09:06:40Z</time>
      </trkpt>
      <trkpt lat="44.12059" lon="5.9707">
        <ele>502.69</ele>
        <time>2026-07-01T09:07:19Z</time>
      </trkpt>
      <trkpt lat="44.12062" lon="5.9707">
        <ele>503.16</ele>
        <time>2026-07-01T09:07:31Z</time>
      </trkpt>
      <trkpt lat="44.12063" lon="5.97069">
        <ele>503.16</ele>
        <time>2026-07-01T09:07:32Z</time>
      </trkpt>
      <trkpt lat="44.12065" lon="5.97069">
        <ele>503.13</ele>
        <time>2026-07-01T09:07:33Z</time>
      </trkpt>
      <trkpt lat="44.12066" lon="5.97068">
        <ele>503.49</ele>
        <time>2026-07-01T09:07:34Z</time>
      </trkpt>
      <trkpt lat="44.12068" lon="5.97068">
        <ele>503.77</ele>
        <time>2026-07-01T09:07:35Z</time>
      </trkpt>
      <trkpt lat="44.12069" lon="5.97069">
        <ele>504.22</ele>
        <time>2026-07-01T09:07:36Z</time>
      </trkpt>
      <trkpt lat="44.12096" lon="5.97079">
        <ele>507.23</ele>
        <time>2026-07-01T09:07:52Z</time>
      </trkpt>
      <trkpt lat="44.12121" lon="5.97096">
        <ele>509.22</ele>
        <time>2026-07-01T09:08:07Z</time>
      </trkpt>
      <trkpt lat="44.12154" lon="5.9711">
        <ele>511.16</ele>
        <time>2026-07-01T09:08:25Z</time>
      </trkpt>
      <trkpt lat="44.12186" lon="5.97106">
        <ele>512.97</ele>
        <time>2026-07-01T09:08:39Z</time>
      </trkpt>
      <trkpt lat="44.12214" lon="5.9709">
        <ele>515.52</ele>
        <time>2026-07-01T09:08:54Z</time>
      </trkpt>
      <trkpt lat="44.12247" lon="5.97062">
        <ele>518.69</ele>
        <time>2026-07-01T09:09:11Z</time>
      </trkpt>
      <trkpt lat="44.12289" lon="5.97035">
        <ele>521.56</ele>
        <time>2026-07-01T09:09:31Z</time>
      </trkpt>
      <trkpt lat="44.12333" lon="5.97021">
        <ele>524.78</ele>
        <time>2026-07-01T09:09:50Z</time>
      </trkpt>
      <trkpt lat="44.12375" lon="5.97017">
        <ele>526.42</ele>
        <time>2026-07-01T09:10:07Z</time>
      </trkpt>
      <trkpt lat="44.12415" lon="5.9702">
        <ele>529.68</ele>
        <time>2026-07-01T09:10:24Z</time>
      </trkpt>
      <trkpt lat="44.12442" lon="5.97022">
        <ele>530.17</ele>
        <time>2026-07-01T09:10:35Z</time>
      </trkpt>
      <trkpt lat="44.12444" lon="5.97024">
        <ele>529.96</ele>
        <time>2026-07-01T09:10:36Z</time>
      </trkpt>
      <trkpt lat="44.12445" lon="5.97027">
        <ele>529.93</ele>
        <time>2026-07-01T09:10:37Z</time>
      </trkpt>
      <trkpt lat="44.12445" lon="5.9703">
        <ele>529.97</ele>
        <time>2026-07-01T09:10:38Z</time>
      </trkpt>
      <trkpt lat="44.12445" lon="5.97033">
        <ele>530.06</ele>
        <time>2026-07-01T09:10:39Z</time>
      </trkpt>
      <trkpt lat="44.12443" lon="5.97036">
        <ele>530.1</ele>
        <time>2026-07-01T09:10:40Z</time>
      </trkpt>
      <trkpt lat="44.12442" lon="5.97038">
        <ele>530.11</ele>
        <time>2026-07-01T09:10:41Z</time>
      </trkpt>
      <trkpt lat="44.1244" lon="5.97039">
        <ele>530.15</ele>
        <time>2026-07-01T09:10:42Z</time>
      </trkpt>
      <trkpt lat="44.12438" lon="5.97039">
        <ele>530.41</ele>
        <time>2026-07-01T09:10:43Z</time>
      </trkpt>
      <trkpt lat="44.12437" lon="5.97038">
        <ele>530.6</ele>
        <time>2026-07-01T09:11:00Z</time>
      </trkpt>
      <trkpt lat="44.12436" lon="5.97037">
        <ele>530.21</ele>
        <time>2026-07-01T09:11:02Z</time>
      </trkpt>
      <trkpt lat="44.12434" lon="5.97036">
        <ele>530.38</ele>
        <time>2026-07-01T09:11:03Z</time>
      </trkpt>
      <trkpt lat="44.12433" lon="5.97035">
        <ele>530.77</ele>
        <time>2026-07-01T09:11:04Z</time>
      </trkpt>
      <trkpt lat="44.1243" lon="5.97035">
        <ele>531.15</ele>
        <time>2026-07-01T09:11:05Z</time>
      </trkpt>
      <trkpt lat="44.12428" lon="5.97035">
        <ele>531.22</ele>
        <time>2026-07-01T09:11:06Z</time>
      </trkpt>
      <trkpt lat="44.1242" lon="5.97036">
        <ele>531.01</ele>
        <time>2026-07-01T09:11:09Z</time>
      </trkpt>
      <trkpt lat="44.12418" lon="5.97038">
        <ele>530.4</ele>
        <time>2026-07-01T09:11:10Z</time>
      </trkpt>
      <trkpt lat="44.12416" lon="5.97039">
        <ele>529.93</ele>
        <time>2026-07-01T09:11:11Z</time>
      </trkpt>
      <trkpt lat="44.12413" lon="5.9704">
        <ele>529.32</ele>
        <time>2026-07-01T09:11:12Z</time>
      </trkpt>
      <trkpt lat="44.1241" lon="5.9704">
        <ele>529.31</ele>
        <time>2026-07-01T09:11:13Z</time>
      </trkpt>
      <trkpt lat="44.12408" lon="5.9704">
        <ele>529.38</ele>
        <time>2026-07-01T09:11:14Z</time>
      </trkpt>
      <trkpt lat="44.12406" lon="5.9704">
        <ele>529.24</ele>
        <time>2026-07-01T09:11:15Z</time>
      </trkpt>
      <trkpt lat="44.12376" lon="5.97042">
        <ele>527.41</ele>
        <time>2026-07-01T09:11:22Z</time>
      </trkpt>
      <trkpt lat="44.12362" lon="5.97037">
        <ele>525.74</ele>
        <time>2026-07-01T09:11:26Z</time>
      </trkpt>
      <trkpt lat="44.12358" lon="5.97038">
        <ele>524.84</ele>
        <time>2026-07-01T09:11:27Z</time>
      </trkpt>
      <trkpt lat="44.12329" lon="5.97046">
        <ele>521.95</ele>
        <time>2026-07-01T09:11:36Z</time>
      </trkpt>
      <trkpt lat="44.12314" lon="5.97054">
        <ele>520.89</ele>
        <time>2026-07-01T09:11:47Z</time>
      </trkpt>
      <trkpt lat="44.12304" lon="5.97055">
        <ele>520.85</ele>
        <time>2026-07-01T09:11:51Z</time>
      </trkpt>
      <trkpt lat="44.12302" lon="5.97057">
        <ele>520.63</ele>
        <time>2026-07-01T09:11:52Z</time>
      </trkpt>
      <trkpt lat="44.12301" lon="5.9706">
        <ele>520.28</ele>
        <time>2026-07-01T09:11:53Z</time>
      </trkpt>
      <trkpt lat="44.12299" lon="5.97064">
        <ele>520.07</ele>
        <time>2026-07-01T09:11:54Z</time>
      </trkpt>
      <trkpt lat="44.12296" lon="5.97071">
        <ele>519.95</ele>
        <time>2026-07-01T09:12:02Z</time>
      </trkpt>
      <trkpt lat="44.12296" lon="5.97068">
        <ele>519.32</ele>
        <time>2026-07-01T09:12:07Z</time>
      </trkpt>
      <trkpt lat="44.12295" lon="5.97061">
        <ele>518.96</ele>
        <time>2026-07-01T09:13:41Z</time>
      </trkpt>
      <trkpt lat="44.12288" lon="5.9706">
        <ele>518.3</ele>
        <time>2026-07-01T09:13:54Z</time>
      </trkpt>
      <trkpt lat="44.12269" lon="5.97064">
        <ele>516.33</ele>
        <time>2026-07-01T09:14:05Z</time>
      </trkpt>
      <trkpt lat="44.12268" lon="5.97066">
        <ele>516.26</ele>
        <time>2026-07-01T09:14:06Z</time>
      </trkpt>
      <trkpt lat="44.12267" lon="5.9707">
        <ele>516.1</ele>
        <time>2026-07-01T09:14:07Z</time>
      </trkpt>
      <trkpt lat="44.12266" lon="5.97073">
        <ele>516.04</ele>
        <time>2026-07-01T09:14:08Z</time>
      </trkpt>
      <trkpt lat="44.12265" lon="5.97076">
        <ele>515.99</ele>
        <time>2026-07-01T09:14:09Z</time>
      </trkpt>
      <trkpt lat="44.12261" lon="5.97075">
        <ele>515.95</ele>
        <time>2026-07-01T09:14:14Z</time>
      </trkpt>
      <trkpt lat="44.12258" lon="5.97075">
        <ele>515.47</ele>
        <time>2026-07-01T09:14:15Z</time>
      </trkpt>
      <trkpt lat="44.12256" lon="5.97077">
        <ele>515</ele>
        <time>2026-07-01T09:14:16Z</time>
      </trkpt>
      <trkpt lat="44.12254" lon="5.97079">
        <ele>514.3</ele>
        <time>2026-07-01T09:14:17Z</time>
      </trkpt>
      <trkpt lat="44.12253" lon="5.97082">
        <ele>513.74</ele>
        <time>2026-07-01T09:14:18Z</time>
      </trkpt>
      <trkpt lat="44.12253" lon="5.97086">
        <ele>513.44</ele>
        <time>2026-07-01T09:14:19Z</time>
      </trkpt>
      <trkpt lat="44.12253" lon="5.97089">
        <ele>513.22</ele>
        <time>2026-07-01T09:14:20Z</time>
      </trkpt>
      <trkpt lat="44.12253" lon="5.97092">
        <ele>513.12</ele>
        <time>2026-07-01T09:14:21Z</time>
      </trkpt>
      <trkpt lat="44.12251" lon="5.97093">
        <ele>513.03</ele>
        <time>2026-07-01T09:14:22Z</time>
      </trkpt>
      <trkpt lat="44.1225" lon="5.97094">
        <ele>512.87</ele>
        <time>2026-07-01T09:14:23Z</time>
      </trkpt>
      <trkpt lat="44.12247" lon="5.97094">
        <ele>512.68</ele>
        <time>2026-07-01T09:14:24Z</time>
      </trkpt>
      <trkpt lat="44.12245" lon="5.97095">
        <ele>512.07</ele>
        <time>2026-07-01T09:14:25Z</time>
      </trkpt>
      <trkpt lat="44.12242" lon="5.97096">
        <ele>511.36</ele>
        <time>2026-07-01T09:14:26Z</time>
      </trkpt>
      <trkpt lat="44.1224" lon="5.97097">
        <ele>511.11</ele>
        <time>2026-07-01T09:14:27Z</time>
      </trkpt>
      <trkpt lat="44.12239" lon="5.97098">
        <ele>510.65</ele>
        <time>2026-07-01T09:14:39Z</time>
      </trkpt>
      <trkpt lat="44.12238" lon="5.971">
        <ele>510.58</ele>
        <time>2026-07-01T09:14:54Z</time>
      </trkpt>
      <trkpt lat="44.12237" lon="5.97103">
        <ele>510.57</ele>
        <time>2026-07-01T09:14:55Z</time>
      </trkpt>
      <trkpt lat="44.12237" lon="5.97106">
        <ele>510.61</ele>
        <time>2026-07-01T09:14:56Z</time>
      </trkpt>
      <trkpt lat="44.12236" lon="5.97108">
        <ele>510.41</ele>
        <time>2026-07-01T09:14:57Z</time>
      </trkpt>
      <trkpt lat="44.12232" lon="5.9711">
        <ele>509.52</ele>
        <time>2026-07-01T09:15:03Z</time>
      </trkpt>
      <trkpt lat="44.12228" lon="5.97111">
        <ele>508.8</ele>
        <time>2026-07-01T09:15:12Z</time>
      </trkpt>
      <trkpt lat="44.12228" lon="5.97116">
        <ele>508.03</ele>
        <time>2026-07-01T09:15:53Z</time>
      </trkpt>
      <trkpt lat="44.12228" lon="5.97118">
        <ele>508.13</ele>
        <time>2026-07-01T09:15:55Z</time>
      </trkpt>
      <trkpt lat="44.12228" lon="5.97121">
        <ele>508.12</ele>
        <time>2026-07-01T09:15:56Z</time>
      </trkpt>
      <trkpt lat="44.12227" lon="5.97124">
        <ele>508.01</ele>
        <time>2026-07-01T09:15:57Z</time>
      </trkpt>
      <trkpt lat="44.12227" lon="5.97127">
        <ele>507.85</ele>
        <time>2026-07-01T09:15:58Z</time>
      </trkpt>
      <trkpt lat="44.12226" lon="5.9713">
        <ele>507.69</ele>
        <time>2026-07-01T09:15:59Z</time>
      </trkpt>
      <trkpt lat="44.12224" lon="5.97133">
        <ele>507.56</ele>
        <time>2026-07-01T09:16:00Z</time>
      </trkpt>
      <trkpt lat="44.12222" lon="5.97135">
        <ele>507.46</ele>
        <time>2026-07-01T09:16:01Z</time>
      </trkpt>
      <trkpt lat="44.1222" lon="5.97136">
        <ele>507.52</ele>
        <time>2026-07-01T09:16:02Z</time>
      </trkpt>
      <trkpt lat="44.12218" lon="5.97135">
        <ele>507.39</ele>
        <time>2026-07-01T09:16:03Z</time>
      </trkpt>
      <trkpt lat="44.12216" lon="5.97135">
        <ele>507.08</ele>
        <time>2026-07-01T09:16:04Z</time>
      </trkpt>
      <trkpt lat="44.12213" lon="5.97136">
        <ele>506.97</ele>
        <time>2026-07-01T09:16:05Z</time>
      </trkpt>
      <trkpt lat="44.12212" lon="5.97139">
        <ele>506.99</ele>
        <time>2026-07-01T09:16:06Z</time>
      </trkpt>
      <trkpt lat="44.12212" lon="5.97141">
        <ele>506.89</ele>
        <time>2026-07-01T09:16:07Z</time>
      </trkpt>
      <trkpt lat="44.12211" lon="5.97142">
        <ele>506.19</ele>
        <time>2026-07-01T09:16:19Z</time>
      </trkpt>
      <trkpt lat="44.12209" lon="5.97144">
        <ele>506.28</ele>
        <time>2026-07-01T09:16:24Z</time>
      </trkpt>
      <trkpt lat="44.12208" lon="5.97145">
        <ele>506.52</ele>
        <time>2026-07-01T09:16:25Z</time>
      </trkpt>
      <trkpt lat="44.12183" lon="5.97168">
        <ele>505.26</ele>
        <time>2026-07-01T09:16:38Z</time>
      </trkpt>
      <trkpt lat="44.12163" lon="5.97198">
        <ele>505.29</ele>
        <time>2026-07-01T09:16:49Z</time>
      </trkpt>
      <trkpt lat="44.12144" lon="5.9722">
        <ele>505.45</ele>
        <time>2026-07-01T09:16:59Z</time>
      </trkpt>
      <trkpt lat="44.12135" lon="5.97224">
        <ele>505.22</ele>
        <time>2026-07-01T09:17:04Z</time>
      </trkpt>
      <trkpt lat="44.12134" lon="5.97225">
        <ele>505.2</ele>
        <time>2026-07-01T09:17:05Z</time>
      </trkpt>
      <trkpt lat="44.12133" lon="5.97228">
        <ele>505.02</ele>
        <time>2026-07-01T09:17:06Z</time>
      </trkpt>
      <trkpt lat="44.12131" lon="5.97234">
        <ele>504.91</ele>
        <time>2026-07-01T09:17:08Z</time>
      </trkpt>
      <trkpt lat="44.12129" lon="5.97236">
        <ele>505.07</ele>
        <time>2026-07-01T09:17:09Z</time>
      </trkpt>
      <trkpt lat="44.12127" lon="5.97239">
        <ele>505.28</ele>
        <time>2026-07-01T09:17:10Z</time>
      </trkpt>
      <trkpt lat="44.12121" lon="5.97247">
        <ele>506.88</ele>
        <time>2026-07-01T09:17:19Z</time>
      </trkpt>
      <trkpt lat="44.12118" lon="5.97256">
        <ele>507.08</ele>
        <time>2026-07-01T09:17:28Z</time>
      </trkpt>
      <trkpt lat="44.12117" lon="5.97261">
        <ele>506.65</ele>
        <time>2026-07-01T09:17:44Z</time>
      </trkpt>
      <trkpt lat="44.12117" lon="5.97263">
        <ele>506.79</ele>
        <time>2026-07-01T09:17:51Z</time>
      </trkpt>
      <trkpt lat="44.12117" lon="5.97265">
        <ele>506.86</ele>
        <time>2026-07-01T09:17:52Z</time>
      </trkpt>
      <trkpt lat="44.12116" lon="5.97267">
        <ele>506.87</ele>
        <time>2026-07-01T09:17:53Z</time>
      </trkpt>
      <trkpt lat="44.12115" lon="5.97269">
        <ele>506.81</ele>
        <time>2026-07-01T09:17:54Z</time>
      </trkpt>
      <trkpt lat="44.12113" lon="5.97272">
        <ele>507.07</ele>
        <time>2026-07-01T09:17:55Z</time>
      </trkpt>
      <trkpt lat="44.12111" lon="5.97282">
        <ele>508.33</ele>
        <time>2026-07-01T09:17:59Z</time>
      </trkpt>
      <trkpt lat="44.12112" lon="5.97284">
        <ele>508.62</ele>
        <time>2026-07-01T09:18:00Z</time>
      </trkpt>
      <trkpt lat="44.12113" lon="5.97287">
        <ele>508.71</ele>
        <time>2026-07-01T09:18:01Z</time>
      </trkpt>
      <trkpt lat="44.12114" lon="5.9729">
        <ele>508.74</ele>
        <time>2026-07-01T09:18:02Z</time>
      </trkpt>
      <trkpt lat="44.12114" lon="5.97293">
        <ele>508.94</ele>
        <time>2026-07-01T09:18:03Z</time>
      </trkpt>
      <trkpt lat="44.1212" lon="5.97328">
        <ele>508.48</ele>
        <time>2026-07-01T09:18:13Z</time>
      </trkpt>
      <trkpt lat="44.12117" lon="5.97332">
        <ele>508.32</ele>
        <time>2026-07-01T09:18:14Z</time>
      </trkpt>
      <trkpt lat="44.12115" lon="5.97335">
        <ele>507.67</ele>
        <time>2026-07-01T09:18:15Z</time>
      </trkpt>
      <trkpt lat="44.12112" lon="5.97339">
        <ele>507.15</ele>
        <time>2026-07-01T09:18:16Z</time>
      </trkpt>
      <trkpt lat="44.1211" lon="5.97343">
        <ele>506.79</ele>
        <time>2026-07-01T09:18:17Z</time>
      </trkpt>
      <trkpt lat="44.12108" lon="5.97345">
        <ele>506.47</ele>
        <time>2026-07-01T09:18:18Z</time>
      </trkpt>
      <trkpt lat="44.12106" lon="5.97345">
        <ele>506.21</ele>
        <time>2026-07-01T09:18:19Z</time>
      </trkpt>
      <trkpt lat="44.12102" lon="5.97346">
        <ele>506.65</ele>
        <time>2026-07-01T09:18:22Z</time>
      </trkpt>
      <trkpt lat="44.12101" lon="5.97347">
        <ele>506.27</ele>
        <time>2026-07-01T09:18:23Z</time>
      </trkpt>
      <trkpt lat="44.1209" lon="5.97362">
        <ele>504.96</ele>
        <time>2026-07-01T09:18:32Z</time>
      </trkpt>
      <trkpt lat="44.12072" lon="5.9738">
        <ele>501.4</ele>
        <time>2026-07-01T09:18:39Z</time>
      </trkpt>
      <trkpt lat="44.12063" lon="5.97387">
        <ele>499.6</ele>
        <time>2026-07-01T09:18:41Z</time>
      </trkpt>
      <trkpt lat="44.1206" lon="5.97389">
        <ele>498.91</ele>
        <time>2026-07-01T09:18:42Z</time>
      </trkpt>
      <trkpt lat="44.12057" lon="5.97389">
        <ele>498.33</ele>
        <time>2026-07-01T09:18:43Z</time>
      </trkpt>
      <trkpt lat="44.12056" lon="5.9739">
        <ele>498.09</ele>
        <time>2026-07-01T09:18:44Z</time>
      </trkpt>
      <trkpt lat="44.12055" lon="5.97392">
        <ele>497.72</ele>
        <time>2026-07-01T09:18:50Z</time>
      </trkpt>
      <trkpt lat="44.12052" lon="5.97398">
        <ele>497.62</ele>
        <time>2026-07-01T09:18:53Z</time>
      </trkpt>
      <trkpt lat="44.12051" lon="5.97402">
        <ele>497.65</ele>
        <time>2026-07-01T09:18:54Z</time>
      </trkpt>
      <trkpt lat="44.1205" lon="5.97406">
        <ele>497.61</ele>
        <time>2026-07-01T09:18:55Z</time>
      </trkpt>
      <trkpt lat="44.12049" lon="5.9741">
        <ele>497.49</ele>
        <time>2026-07-01T09:18:56Z</time>
      </trkpt>
      <trkpt lat="44.12046" lon="5.97412">
        <ele>497.27</ele>
        <time>2026-07-01T09:18:57Z</time>
      </trkpt>
      <trkpt lat="44.12042" lon="5.97413">
        <ele>496.9</ele>
        <time>2026-07-01T09:18:58Z</time>
      </trkpt>
      <trkpt lat="44.12037" lon="5.97416">
        <ele>496.2</ele>
        <time>2026-07-01T09:18:59Z</time>
      </trkpt>
      <trkpt lat="44.12028" lon="5.97422">
        <ele>493.87</ele>
        <time>2026-07-01T09:19:02Z</time>
      </trkpt>
      <trkpt lat="44.12026" lon="5.97426">
        <ele>493.45</ele>
        <time>2026-07-01T09:19:03Z</time>
      </trkpt>
      <trkpt lat="44.12025" lon="5.9743">
        <ele>493.15</ele>
        <time>2026-07-01T09:19:04Z</time>
      </trkpt>
      <trkpt lat="44.12023" lon="5.97435">
        <ele>492.84</ele>
        <time>2026-07-01T09:19:05Z</time>
      </trkpt>
      <trkpt lat="44.1202" lon="5.97439">
        <ele>492.2</ele>
        <time>2026-07-01T09:19:06Z</time>
      </trkpt>
      <trkpt lat="44.12013" lon="5.97452">
        <ele>490.35</ele>
        <time>2026-07-01T09:19:09Z</time>
      </trkpt>
      <trkpt lat="44.12013" lon="5.97456">
        <ele>489.45</ele>
        <time>2026-07-01T09:19:10Z</time>
      </trkpt>
      <trkpt lat="44.12013" lon="5.9747">
        <ele>488.79</ele>
        <time>2026-07-01T09:19:12Z</time>
      </trkpt>
      <trkpt lat="44.12014" lon="5.97477">
        <ele>489.59</ele>
        <time>2026-07-01T09:19:14Z</time>
      </trkpt>
      <trkpt lat="44.12011" lon="5.97483">
        <ele>490.2</ele>
        <time>2026-07-01T09:19:25Z</time>
      </trkpt>
      <trkpt lat="44.12009" lon="5.97485">
        <ele>489.93</ele>
        <time>2026-07-01T09:19:26Z</time>
      </trkpt>
      <trkpt lat="44.12007" lon="5.97488">
        <ele>489.53</ele>
        <time>2026-07-01T09:19:27Z</time>
      </trkpt>
      <trkpt lat="44.12005" lon="5.97491">
        <ele>489.05</ele>
        <time>2026-07-01T09:19:28Z</time>
      </trkpt>
      <trkpt lat="44.12003" lon="5.97495">
        <ele>488.73</ele>
        <time>2026-07-01T09:19:29Z</time>
      </trkpt>
      <trkpt lat="44.12002" lon="5.975">
        <ele>488.47</ele>
        <time>2026-07-01T09:19:30Z</time>
      </trkpt>
      <trkpt lat="44.12001" lon="5.97504">
        <ele>488.02</ele>
        <time>2026-07-01T09:19:31Z</time>
      </trkpt>
      <trkpt lat="44.11999" lon="5.97508">
        <ele>487.87</ele>
        <time>2026-07-01T09:19:32Z</time>
      </trkpt>
      <trkpt lat="44.11996" lon="5.97521">
        <ele>486.33</ele>
        <time>2026-07-01T09:19:35Z</time>
      </trkpt>
      <trkpt lat="44.11994" lon="5.97528">
        <ele>485.2</ele>
        <time>2026-07-01T09:19:36Z</time>
      </trkpt>
      <trkpt lat="44.11992" lon="5.97534">
        <ele>485.05</ele>
        <time>2026-07-01T09:19:37Z</time>
      </trkpt>
      <trkpt lat="44.11987" lon="5.9755">
        <ele>485.35</ele>
        <time>2026-07-01T09:19:44Z</time>
      </trkpt>
      <trkpt lat="44.11987" lon="5.97551">
        <ele>485.64</ele>
        <time>2026-07-01T09:19:47Z</time>
      </trkpt>
      <trkpt lat="44.11986" lon="5.97554">
        <ele>485.44</ele>
        <time>2026-07-01T09:19:48Z</time>
      </trkpt>
      <trkpt lat="44.11985" lon="5.97556">
        <ele>485.7</ele>
        <time>2026-07-01T09:19:49Z</time>
      </trkpt>
      <trkpt lat="44.11983" lon="5.97559">
        <ele>485.67</ele>
        <time>2026-07-01T09:19:50Z</time>
      </trkpt>
      <trkpt lat="44.11981" lon="5.97561">
        <ele>485.48</ele>
        <time>2026-07-01T09:19:51Z</time>
      </trkpt>
      <trkpt lat="44.11963" lon="5.97582">
        <ele>484.7</ele>
        <time>2026-07-01T09:19:59Z</time>
      </trkpt>
      <trkpt lat="44.11962" lon="5.97586">
        <ele>483.9</ele>
        <time>2026-07-01T09:20:02Z</time>
      </trkpt>
      <trkpt lat="44.11966" lon="5.97598">
        <ele>480.23</ele>
        <time>2026-07-01T09:20:07Z</time>
      </trkpt>
      <trkpt lat="44.11966" lon="5.976">
        <ele>479.58</ele>
        <time>2026-07-01T09:20:08Z</time>
      </trkpt>
      <trkpt lat="44.11965" lon="5.97603">
        <ele>479.24</ele>
        <time>2026-07-01T09:20:09Z</time>
      </trkpt>
      <trkpt lat="44.11963" lon="5.97611">
        <ele>478.35</ele>
        <time>2026-07-01T09:20:19Z</time>
      </trkpt>
      <trkpt lat="44.11961" lon="5.97619">
        <ele>477.95</ele>
        <time>2026-07-01T09:20:46Z</time>
      </trkpt>
      <trkpt lat="44.11961" lon="5.97621">
        <ele>477.87</ele>
        <time>2026-07-01T09:20:47Z</time>
      </trkpt>
      <trkpt lat="44.11961" lon="5.97624">
        <ele>477.6</ele>
        <time>2026-07-01T09:20:49Z</time>
      </trkpt>
      <trkpt lat="44.11961" lon="5.97625">
        <ele>477.29</ele>
        <time>2026-07-01T09:20:50Z</time>
      </trkpt>
      <trkpt lat="44.11963" lon="5.97627">
        <ele>476.56</ele>
        <time>2026-07-01T09:20:51Z</time>
      </trkpt>
      <trkpt lat="44.11966" lon="5.9763">
        <ele>475.98</ele>
        <time>2026-07-01T09:20:52Z</time>
      </trkpt>
      <trkpt lat="44.11967" lon="5.97633">
        <ele>475.74</ele>
        <time>2026-07-01T09:20:53Z</time>
      </trkpt>
      <trkpt lat="44.11967" lon="5.97636">
        <ele>475.83</ele>
        <time>2026-07-01T09:20:54Z</time>
      </trkpt>
      <trkpt lat="44.11967" lon="5.97639">
        <ele>476.17</ele>
        <time>2026-07-01T09:20:55Z</time>
      </trkpt>
      <trkpt lat="44.11968" lon="5.97641">
        <ele>476.28</ele>
        <time>2026-07-01T09:20:56Z</time>
      </trkpt>
      <trkpt lat="44.11969" lon="5.97643">
        <ele>475.92</ele>
        <time>2026-07-01T09:20:57Z</time>
      </trkpt>
      <trkpt lat="44.11971" lon="5.97645">
        <ele>475.91</ele>
        <time>2026-07-01T09:20:58Z</time>
      </trkpt>
      <trkpt lat="44.11975" lon="5.97652">
        <ele>475.89</ele>
        <time>2026-07-01T09:21:08Z</time>
      </trkpt>
      <trkpt lat="44.11981" lon="5.97658">
        <ele>477.18</ele>
        <time>2026-07-01T09:21:12Z</time>
      </trkpt>
      <trkpt lat="44.11985" lon="5.97659">
        <ele>478.2</ele>
        <time>2026-07-01T09:21:14Z</time>
      </trkpt>
      <trkpt lat="44.11986" lon="5.9766">
        <ele>478.08</ele>
        <time>2026-07-01T09:21:15Z</time>
      </trkpt>
      <trkpt lat="44.11986" lon="5.97662">
        <ele>478.07</ele>
        <time>2026-07-01T09:21:16Z</time>
      </trkpt>
      <trkpt lat="44.11985" lon="5.97665">
        <ele>478.42</ele>
        <time>2026-07-01T09:21:17Z</time>
      </trkpt>
      <trkpt lat="44.11984" lon="5.97667">
        <ele>479.07</ele>
        <time>2026-07-01T09:21:18Z</time>
      </trkpt>
      <trkpt lat="44.11984" lon="5.97669">
        <ele>479.66</ele>
        <time>2026-07-01T09:21:19Z</time>
      </trkpt>
      <trkpt lat="44.11984" lon="5.9767">
        <ele>479.93</ele>
        <time>2026-07-01T09:21:20Z</time>
      </trkpt>
      <trkpt lat="44.11983" lon="5.97673">
        <ele>480.23</ele>
        <time>2026-07-01T09:21:34Z</time>
      </trkpt>
      <trkpt lat="44.11986" lon="5.9768">
        <ele>480.22</ele>
        <time>2026-07-01T09:22:12Z</time>
      </trkpt>
      <trkpt lat="44.11993" lon="5.97692">
        <ele>479.96</ele>
        <time>2026-07-01T09:22:17Z</time>
      </trkpt>
      <trkpt lat="44.11996" lon="5.97693">
        <ele>479.96</ele>
        <time>2026-07-01T09:22:18Z</time>
      </trkpt>
      <trkpt lat="44.12014" lon="5.97713">
        <ele>478.39</ele>
        <time>2026-07-01T09:22:27Z</time>
      </trkpt>
      <trkpt lat="44.12014" lon="5.97717">
        <ele>478.13</ele>
        <time>2026-07-01T09:22:28Z</time>
      </trkpt>
      <trkpt lat="44.12013" lon="5.97721">
        <ele>477.36</ele>
        <time>2026-07-01T09:22:29Z</time>
      </trkpt>
      <trkpt lat="44.12011" lon="5.97725">
        <ele>476.81</ele>
        <time>2026-07-01T09:22:30Z</time>
      </trkpt>
      <trkpt lat="44.1201" lon="5.97728">
        <ele>476.19</ele>
        <time>2026-07-01T09:22:31Z</time>
      </trkpt>
      <trkpt lat="44.12007" lon="5.97731">
        <ele>475.29</ele>
        <time>2026-07-01T09:22:32Z</time>
      </trkpt>
      <trkpt lat="44.12005" lon="5.97737">
        <ele>474.27</ele>
        <time>2026-07-01T09:22:34Z</time>
      </trkpt>
      <trkpt lat="44.12006" lon="5.97739">
        <ele>473.82</ele>
        <time>2026-07-01T09:22:35Z</time>
      </trkpt>
      <trkpt lat="44.12008" lon="5.97741">
        <ele>473.57</ele>
        <time>2026-07-01T09:22:36Z</time>
      </trkpt>
      <trkpt lat="44.1201" lon="5.97743">
        <ele>473.25</ele>
        <time>2026-07-01T09:22:37Z</time>
      </trkpt>
      <trkpt lat="44.12011" lon="5.97744">
        <ele>472.96</ele>
        <time>2026-07-01T09:22:38Z</time>
      </trkpt>
      <trkpt lat="44.12012" lon="5.97746">
        <ele>472.37</ele>
        <time>2026-07-01T09:22:39Z</time>
      </trkpt>
      <trkpt lat="44.12012" lon="5.97748">
        <ele>471.82</ele>
        <time>2026-07-01T09:22:40Z</time>
      </trkpt>
      <trkpt lat="44.12012" lon="5.9775">
        <ele>471.49</ele>
        <time>2026-07-01T09:22:41Z</time>
      </trkpt>
      <trkpt lat="44.12011" lon="5.97752">
        <ele>471.24</ele>
        <time>2026-07-01T09:22:42Z</time>
      </trkpt>
      <trkpt lat="44.12009" lon="5.97764">
        <ele>468.56</ele>
        <time>2026-07-01T09:22:48Z</time>
      </trkpt>
      <trkpt lat="44.12009" lon="5.97776">
        <ele>468.99</ele>
        <time>2026-07-01T09:23:57Z</time>
      </trkpt>
      <trkpt lat="44.12007" lon="5.97778">
        <ele>469.86</ele>
        <time>2026-07-01T09:24:28Z</time>
      </trkpt>
      <trkpt lat="44.11999" lon="5.97788">
        <ele>471.72</ele>
        <time>2026-07-01T09:24:39Z</time>
      </trkpt>
      <trkpt lat="44.11999" lon="5.97789">
        <ele>471.89</ele>
        <time>2026-07-01T09:24:40Z</time>
      </trkpt>
      <trkpt lat="44.11999" lon="5.97791">
        <ele>471.87</ele>
        <time>2026-07-01T09:24:41Z</time>
      </trkpt>
      <trkpt lat="44.11999" lon="5.97793">
        <ele>471.99</ele>
        <time>2026-07-01T09:24:42Z</time>
      </trkpt>
      <trkpt lat="44.11998" lon="5.97796">
        <ele>471.83</ele>
        <time>2026-07-01T09:24:44Z</time>
      </trkpt>
      <trkpt lat="44.11998" lon="5.97798">
        <ele>471.97</ele>
        <time>2026-07-01T09:24:45Z</time>
      </trkpt>
      <trkpt lat="44.11998" lon="5.97805">
        <ele>472.3</ele>
        <time>2026-07-01T09:24:49Z</time>
      </trkpt>
      <trkpt lat="44.11998" lon="5.97807">
        <ele>472.35</ele>
        <time>2026-07-01T09:24:50Z</time>
      </trkpt>
      <trkpt lat="44.11997" lon="5.97815">
        <ele>473.14</ele>
        <time>2026-07-01T09:24:55Z</time>
      </trkpt>
      <trkpt lat="44.11997" lon="5.97817">
        <ele>473.34</ele>
        <time>2026-07-01T09:24:56Z</time>
      </trkpt>
      <trkpt lat="44.11996" lon="5.97828">
        <ele>474.29</ele>
        <time>2026-07-01T09:25:02Z</time>
      </trkpt>
      <trkpt lat="44.11995" lon="5.9783">
        <ele>474.4</ele>
        <time>2026-07-01T09:25:03Z</time>
      </trkpt>
      <trkpt lat="44.11994" lon="5.97834">
        <ele>474.87</ele>
        <time>2026-07-01T09:25:06Z</time>
      </trkpt>
      <trkpt lat="44.11992" lon="5.97835">
        <ele>475.12</ele>
        <time>2026-07-01T09:25:08Z</time>
      </trkpt>
      <trkpt lat="44.11991" lon="5.97835">
        <ele>475.37</ele>
        <time>2026-07-01T09:25:09Z</time>
      </trkpt>
      <trkpt lat="44.1199" lon="5.97829">
        <ele>476.39</ele>
        <time>2026-07-01T09:25:13Z</time>
      </trkpt>
      <trkpt lat="44.11987" lon="5.97832">
        <ele>477.73</ele>
        <time>2026-07-01T09:25:16Z</time>
      </trkpt>
      <trkpt lat="44.11986" lon="5.97835">
        <ele>478.1</ele>
        <time>2026-07-01T09:25:18Z</time>
      </trkpt>
      <trkpt lat="44.11978" lon="5.97845">
        <ele>478.35</ele>
        <time>2026-07-01T09:25:25Z</time>
      </trkpt>
      <trkpt lat="44.11976" lon="5.97847">
        <ele>478.57</ele>
        <time>2026-07-01T09:25:26Z</time>
      </trkpt>
      <trkpt lat="44.11975" lon="5.97848">
        <ele>478.78</ele>
        <time>2026-07-01T09:25:27Z</time>
      </trkpt>
      <trkpt lat="44.11974" lon="5.97849">
        <ele>478.97</ele>
        <time>2026-07-01T09:25:28Z</time>
      </trkpt>
      <trkpt lat="44.11972" lon="5.9785">
        <ele>478.61</ele>
        <time>2026-07-01T09:25:29Z</time>
      </trkpt>
      <trkpt lat="44.11971" lon="5.97852">
        <ele>478.05</ele>
        <time>2026-07-01T09:25:30Z</time>
      </trkpt>
      <trkpt lat="44.1197" lon="5.97853">
        <ele>478.16</ele>
        <time>2026-07-01T09:25:31Z</time>
      </trkpt>
      <trkpt lat="44.1197" lon="5.9786">
        <ele>478.57</ele>
        <time>2026-07-01T09:25:35Z</time>
      </trkpt>
      <trkpt lat="44.1197" lon="5.97863">
        <ele>478.58</ele>
        <time>2026-07-01T09:25:36Z</time>
      </trkpt>
      <trkpt lat="44.11971" lon="5.97865">
        <ele>478.78</ele>
        <time>2026-07-01T09:25:37Z</time>
      </trkpt>
      <trkpt lat="44.11971" lon="5.97867">
        <ele>479.03</ele>
        <time>2026-07-01T09:25:38Z</time>
      </trkpt>
      <trkpt lat="44.11972" lon="5.97869">
        <ele>479.63</ele>
        <time>2026-07-01T09:25:39Z</time>
      </trkpt>
      <trkpt lat="44.11972" lon="5.97872">
        <ele>479.9</ele>
        <time>2026-07-01T09:25:40Z</time>
      </trkpt>
      <trkpt lat="44.11973" lon="5.97877">
        <ele>480.54</ele>
        <time>2026-07-01T09:25:42Z</time>
      </trkpt>
      <trkpt lat="44.11972" lon="5.9788">
        <ele>480.57</ele>
        <time>2026-07-01T09:25:43Z</time>
      </trkpt>
      <trkpt lat="44.11972" lon="5.97881">
        <ele>480.68</ele>
        <time>2026-07-01T09:25:44Z</time>
      </trkpt>
      <trkpt lat="44.11971" lon="5.97883">
        <ele>480.92</ele>
        <time>2026-07-01T09:25:45Z</time>
      </trkpt>
      <trkpt lat="44.11968" lon="5.97884">
        <ele>481.43</ele>
        <time>2026-07-01T09:25:47Z</time>
      </trkpt>
      <trkpt lat="44.11962" lon="5.97891">
        <ele>483.37</ele>
        <time>2026-07-01T09:25:52Z</time>
      </trkpt>
      <trkpt lat="44.11946" lon="5.97897">
        <ele>485.9</ele>
        <time>2026-07-01T09:26:03Z</time>
      </trkpt>
      <trkpt lat="44.11938" lon="5.97895">
        <ele>488.34</ele>
        <time>2026-07-01T09:26:11Z</time>
      </trkpt>
      <trkpt lat="44.11931" lon="5.97891">
        <ele>488.61</ele>
        <time>2026-07-01T09:26:24Z</time>
      </trkpt>
      <trkpt lat="44.11928" lon="5.97887">
        <ele>489.43</ele>
        <time>2026-07-01T09:26:58Z</time>
      </trkpt>
      <trkpt lat="44.11915" lon="5.97891">
        <ele>492.46</ele>
        <time>2026-07-01T09:27:08Z</time>
      </trkpt>
      <trkpt lat="44.11912" lon="5.97894">
        <ele>492.7</ele>
        <time>2026-07-01T09:27:10Z</time>
      </trkpt>
      <trkpt lat="44.11897" lon="5.97924">
        <ele>494.41</ele>
        <time>2026-07-01T09:27:22Z</time>
      </trkpt>
      <trkpt lat="44.1188" lon="5.97937">
        <ele>495.1</ele>
        <time>2026-07-01T09:27:34Z</time>
      </trkpt>
      <trkpt lat="44.11875" lon="5.9794">
        <ele>494.94</ele>
        <time>2026-07-01T09:27:44Z</time>
      </trkpt>
      <trkpt lat="44.11872" lon="5.9794">
        <ele>495.07</ele>
        <time>2026-07-01T09:27:50Z</time>
      </trkpt>
      <trkpt lat="44.1187" lon="5.9794">
        <ele>495.02</ele>
        <time>2026-07-01T09:27:51Z</time>
      </trkpt>
      <trkpt lat="44.11869" lon="5.97941">
        <ele>495.31</ele>
        <time>2026-07-01T09:27:52Z</time>
      </trkpt>
      <trkpt lat="44.11866" lon="5.97943">
        <ele>495.82</ele>
        <time>2026-07-01T09:28:08Z</time>
      </trkpt>
      <trkpt lat="44.11863" lon="5.97942">
        <ele>496.86</ele>
        <time>2026-07-01T09:28:27Z</time>
      </trkpt>
      <trkpt lat="44.11865" lon="5.97949">
        <ele>497.85</ele>
        <time>2026-07-01T09:28:41Z</time>
      </trkpt>
      <trkpt lat="44.11862" lon="5.97958">
        <ele>498.51</ele>
        <time>2026-07-01T09:29:44Z</time>
      </trkpt>
      <trkpt lat="44.11861" lon="5.97961">
        <ele>498.44</ele>
        <time>2026-07-01T09:29:53Z</time>
      </trkpt>
      <trkpt lat="44.1186" lon="5.97963">
        <ele>498.37</ele>
        <time>2026-07-01T09:29:54Z</time>
      </trkpt>
      <trkpt lat="44.11859" lon="5.97965">
        <ele>498.32</ele>
        <time>2026-07-01T09:29:55Z</time>
      </trkpt>
      <trkpt lat="44.11858" lon="5.97967">
        <ele>498.48</ele>
        <time>2026-07-01T09:29:56Z</time>
      </trkpt>
      <trkpt lat="44.11859" lon="5.97969">
        <ele>498.8</ele>
        <time>2026-07-01T09:29:57Z</time>
      </trkpt>
      <trkpt lat="44.1186" lon="5.9797">
        <ele>499.17</ele>
        <time>2026-07-01T09:29:58Z</time>
      </trkpt>
      <trkpt lat="44.11862" lon="5.97971">
        <ele>499.54</ele>
        <time>2026-07-01T09:29:59Z</time>
      </trkpt>
      <trkpt lat="44.11863" lon="5.97973">
        <ele>499.78</ele>
        <time>2026-07-01T09:30:00Z</time>
      </trkpt>
      <trkpt lat="44.11864" lon="5.97975">
        <ele>500.07</ele>
        <time>2026-07-01T09:30:01Z</time>
      </trkpt>
      <trkpt lat="44.11864" lon="5.97976">
        <ele>500.57</ele>
        <time>2026-07-01T09:30:02Z</time>
      </trkpt>
      <trkpt lat="44.11865" lon="5.97978">
        <ele>500.87</ele>
        <time>2026-07-01T09:30:03Z</time>
      </trkpt>
      <trkpt lat="44.11866" lon="5.9798">
        <ele>501.36</ele>
        <time>2026-07-01T09:30:04Z</time>
      </trkpt>
      <trkpt lat="44.11866" lon="5.97982">
        <ele>501.99</ele>
        <time>2026-07-01T09:30:05Z</time>
      </trkpt>
      <trkpt lat="44.11866" lon="5.97984">
        <ele>502.45</ele>
        <time>2026-07-01T09:30:06Z</time>
      </trkpt>
      <trkpt lat="44.11866" lon="5.97986">
        <ele>502.59</ele>
        <time>2026-07-01T09:30:07Z</time>
      </trkpt>
      <trkpt lat="44.11866" lon="5.97987">
        <ele>502.45</ele>
        <time>2026-07-01T09:30:08Z</time>
      </trkpt>
      <trkpt lat="44.11867" lon="5.97989">
        <ele>502.12</ele>
        <time>2026-07-01T09:30:09Z</time>
      </trkpt>
      <trkpt lat="44.11868" lon="5.9799">
        <ele>501.83</ele>
        <time>2026-07-01T09:30:10Z</time>
      </trkpt>
      <trkpt lat="44.1187" lon="5.97991">
        <ele>501.62</ele>
        <time>2026-07-01T09:30:11Z</time>
      </trkpt>
      <trkpt lat="44.11875" lon="5.97992">
        <ele>501</ele>
        <time>2026-07-01T09:30:15Z</time>
      </trkpt>
      <trkpt lat="44.11877" lon="5.97993">
        <ele>500.71</ele>
        <time>2026-07-01T09:30:16Z</time>
      </trkpt>
      <trkpt lat="44.1188" lon="5.97995">
        <ele>500.18</ele>
        <time>2026-07-01T09:30:17Z</time>
      </trkpt>
      <trkpt lat="44.11883" lon="5.97998">
        <ele>500.25</ele>
        <time>2026-07-01T09:30:18Z</time>
      </trkpt>
      <trkpt lat="44.11886" lon="5.98002">
        <ele>499.72</ele>
        <time>2026-07-01T09:30:19Z</time>
      </trkpt>
      <trkpt lat="44.1189" lon="5.98005">
        <ele>499.68</ele>
        <time>2026-07-01T09:30:20Z</time>
      </trkpt>
      <trkpt lat="44.11894" lon="5.98007">
        <ele>499.36</ele>
        <time>2026-07-01T09:30:21Z</time>
      </trkpt>
      <trkpt lat="44.11898" lon="5.98009">
        <ele>498.79</ele>
        <time>2026-07-01T09:30:22Z</time>
      </trkpt>
      <trkpt lat="44.11902" lon="5.98012">
        <ele>498.6</ele>
        <time>2026-07-01T09:30:23Z</time>
      </trkpt>
      <trkpt lat="44.11904" lon="5.98016">
        <ele>498.24</ele>
        <time>2026-07-01T09:30:24Z</time>
      </trkpt>
      <trkpt lat="44.11905" lon="5.98021">
        <ele>497.68</ele>
        <time>2026-07-01T09:30:25Z</time>
      </trkpt>
      <trkpt lat="44.11906" lon="5.98027">
        <ele>497.42</ele>
        <time>2026-07-01T09:30:26Z</time>
      </trkpt>
      <trkpt lat="44.11906" lon="5.98031">
        <ele>497.17</ele>
        <time>2026-07-01T09:30:27Z</time>
      </trkpt>
      <trkpt lat="44.11905" lon="5.98035">
        <ele>496.91</ele>
        <time>2026-07-01T09:30:28Z</time>
      </trkpt>
      <trkpt lat="44.11903" lon="5.98038">
        <ele>496.85</ele>
        <time>2026-07-01T09:30:29Z</time>
      </trkpt>
      <trkpt lat="44.11902" lon="5.9804">
        <ele>497.1</ele>
        <time>2026-07-01T09:30:30Z</time>
      </trkpt>
      <trkpt lat="44.11901" lon="5.98042">
        <ele>497.71</ele>
        <time>2026-07-01T09:30:31Z</time>
      </trkpt>
      <trkpt lat="44.119" lon="5.98043">
        <ele>497.87</ele>
        <time>2026-07-01T09:30:32Z</time>
      </trkpt>
      <trkpt lat="44.11899" lon="5.98044">
        <ele>498.1</ele>
        <time>2026-07-01T09:30:33Z</time>
      </trkpt>
      <trkpt lat="44.11898" lon="5.98046">
        <ele>498.51</ele>
        <time>2026-07-01T09:30:34Z</time>
      </trkpt>
      <trkpt lat="44.11896" lon="5.98047">
        <ele>498.79</ele>
        <time>2026-07-01T09:30:35Z</time>
      </trkpt>
      <trkpt lat="44.11894" lon="5.98055">
        <ele>499.55</ele>
        <time>2026-07-01T09:30:39Z</time>
      </trkpt>
      <trkpt lat="44.11894" lon="5.98059">
        <ele>499.29</ele>
        <time>2026-07-01T09:30:40Z</time>
      </trkpt>
      <trkpt lat="44.11894" lon="5.98062">
        <ele>499.14</ele>
        <time>2026-07-01T09:30:41Z</time>
      </trkpt>
      <trkpt lat="44.11895" lon="5.98065">
        <ele>499.07</ele>
        <time>2026-07-01T09:30:42Z</time>
      </trkpt>
      <trkpt lat="44.11896" lon="5.98069">
        <ele>499.08</ele>
        <time>2026-07-01T09:30:43Z</time>
      </trkpt>
      <trkpt lat="44.11897" lon="5.98072">
        <ele>499</ele>
        <time>2026-07-01T09:30:44Z</time>
      </trkpt>
      <trkpt lat="44.11897" lon="5.98076">
        <ele>499.08</ele>
        <time>2026-07-01T09:30:45Z</time>
      </trkpt>
      <trkpt lat="44.11896" lon="5.98079">
        <ele>499.06</ele>
        <time>2026-07-01T09:30:46Z</time>
      </trkpt>
      <trkpt lat="44.11896" lon="5.98083">
        <ele>498.96</ele>
        <time>2026-07-01T09:30:47Z</time>
      </trkpt>
      <trkpt lat="44.11889" lon="5.98126">
        <ele>499.12</ele>
        <time>2026-07-01T09:30:59Z</time>
      </trkpt>
      <trkpt lat="44.11887" lon="5.98131">
        <ele>499.15</ele>
        <time>2026-07-01T09:31:01Z</time>
      </trkpt>
      <trkpt lat="44.11871" lon="5.98141">
        <ele>502.17</ele>
        <time>2026-07-01T09:31:11Z</time>
      </trkpt>
      <trkpt lat="44.11855" lon="5.98143">
        <ele>504.5</ele>
        <time>2026-07-01T09:31:22Z</time>
      </trkpt>
      <trkpt lat="44.11853" lon="5.98143">
        <ele>504.63</ele>
        <time>2026-07-01T09:31:23Z</time>
      </trkpt>
      <trkpt lat="44.11852" lon="5.98142">
        <ele>504.82</ele>
        <time>2026-07-01T09:31:24Z</time>
      </trkpt>
      <trkpt lat="44.1185" lon="5.98143">
        <ele>504.93</ele>
        <time>2026-07-01T09:31:25Z</time>
      </trkpt>
      <trkpt lat="44.11849" lon="5.98144">
        <ele>505</ele>
        <time>2026-07-01T09:31:26Z</time>
      </trkpt>
      <trkpt lat="44.11847" lon="5.98145">
        <ele>505.29</ele>
        <time>2026-07-01T09:31:27Z</time>
      </trkpt>
      <trkpt lat="44.11846" lon="5.98146">
        <ele>505.45</ele>
        <time>2026-07-01T09:31:28Z</time>
      </trkpt>
      <trkpt lat="44.11844" lon="5.98147">
        <ele>505.89</ele>
        <time>2026-07-01T09:31:29Z</time>
      </trkpt>
      <trkpt lat="44.11842" lon="5.98147">
        <ele>506.03</ele>
        <time>2026-07-01T09:31:30Z</time>
      </trkpt>
      <trkpt lat="44.11841" lon="5.98148">
        <ele>506.18</ele>
        <time>2026-07-01T09:31:31Z</time>
      </trkpt>
      <trkpt lat="44.11821" lon="5.98165">
        <ele>508.81</ele>
        <time>2026-07-01T09:31:46Z</time>
      </trkpt>
      <trkpt lat="44.11803" lon="5.98185">
        <ele>510.99</ele>
        <time>2026-07-01T09:32:00Z</time>
      </trkpt>
      <trkpt lat="44.11801" lon="5.98187">
        <ele>511.11</ele>
        <time>2026-07-01T09:32:01Z</time>
      </trkpt>
      <trkpt lat="44.11799" lon="5.98188">
        <ele>511.22</ele>
        <time>2026-07-01T09:32:02Z</time>
      </trkpt>
      <trkpt lat="44.11798" lon="5.9819">
        <ele>511.59</ele>
        <time>2026-07-01T09:32:03Z</time>
      </trkpt>
      <trkpt lat="44.11796" lon="5.98191">
        <ele>511.92</ele>
        <time>2026-07-01T09:32:04Z</time>
      </trkpt>
      <trkpt lat="44.11775" lon="5.98206">
        <ele>515.32</ele>
        <time>2026-07-01T09:32:17Z</time>
      </trkpt>
      <trkpt lat="44.1177" lon="5.98211">
        <ele>516.35</ele>
        <time>2026-07-01T09:32:20Z</time>
      </trkpt>
      <trkpt lat="44.11769" lon="5.98213">
        <ele>516.43</ele>
        <time>2026-07-01T09:32:21Z</time>
      </trkpt>
      <trkpt lat="44.11768" lon="5.98214">
        <ele>516.59</ele>
        <time>2026-07-01T09:32:22Z</time>
      </trkpt>
      <trkpt lat="44.11757" lon="5.98226">
        <ele>519.78</ele>
        <time>2026-07-01T09:32:30Z</time>
      </trkpt>
      <trkpt lat="44.11755" lon="5.98226">
        <ele>519.85</ele>
        <time>2026-07-01T09:32:31Z</time>
      </trkpt>
      <trkpt lat="44.11749" lon="5.98229">
        <ele>519.49</ele>
        <time>2026-07-01T09:32:36Z</time>
      </trkpt>
      <trkpt lat="44.11747" lon="5.9823">
        <ele>519.44</ele>
        <time>2026-07-01T09:32:37Z</time>
      </trkpt>
      <trkpt lat="44.11746" lon="5.98231">
        <ele>519.48</ele>
        <time>2026-07-01T09:32:38Z</time>
      </trkpt>
      <trkpt lat="44.11744" lon="5.98232">
        <ele>519.63</ele>
        <time>2026-07-01T09:32:39Z</time>
      </trkpt>
      <trkpt lat="44.11743" lon="5.98233">
        <ele>519.82</ele>
        <time>2026-07-01T09:32:40Z</time>
      </trkpt>
      <trkpt lat="44.1174" lon="5.98236">
        <ele>520.11</ele>
        <time>2026-07-01T09:32:42Z</time>
      </trkpt>
      <trkpt lat="44.11739" lon="5.98237">
        <ele>520.39</ele>
        <time>2026-07-01T09:32:43Z</time>
      </trkpt>
      <trkpt lat="44.11738" lon="5.98238">
        <ele>520.61</ele>
        <time>2026-07-01T09:32:44Z</time>
      </trkpt>
      <trkpt lat="44.11737" lon="5.98239">
        <ele>520.82</ele>
        <time>2026-07-01T09:32:45Z</time>
      </trkpt>
      <trkpt lat="44.11736" lon="5.9824">
        <ele>521.02</ele>
        <time>2026-07-01T09:32:46Z</time>
      </trkpt>
      <trkpt lat="44.11733" lon="5.98245">
        <ele>521.58</ele>
        <time>2026-07-01T09:32:49Z</time>
      </trkpt>
      <trkpt lat="44.11732" lon="5.98247">
        <ele>521.51</ele>
        <time>2026-07-01T09:32:50Z</time>
      </trkpt>
      <trkpt lat="44.1173" lon="5.98253">
        <ele>521.53</ele>
        <time>2026-07-01T09:32:52Z</time>
      </trkpt>
      <trkpt lat="44.11729" lon="5.98255">
        <ele>521.49</ele>
        <time>2026-07-01T09:32:53Z</time>
      </trkpt>
      <trkpt lat="44.11726" lon="5.98262">
        <ele>521.73</ele>
        <time>2026-07-01T09:32:56Z</time>
      </trkpt>
      <trkpt lat="44.11725" lon="5.98263">
        <ele>521.77</ele>
        <time>2026-07-01T09:32:57Z</time>
      </trkpt>
      <trkpt lat="44.1172" lon="5.98267">
        <ele>522.39</ele>
        <time>2026-07-01T09:33:00Z</time>
      </trkpt>
      <trkpt lat="44.11718" lon="5.98269">
        <ele>522.57</ele>
        <time>2026-07-01T09:33:01Z</time>
      </trkpt>
      <trkpt lat="44.11717" lon="5.98272">
        <ele>522.63</ele>
        <time>2026-07-01T09:33:02Z</time>
      </trkpt>
      <trkpt lat="44.11716" lon="5.98275">
        <ele>522.49</ele>
        <time>2026-07-01T09:33:03Z</time>
      </trkpt>
      <trkpt lat="44.11715" lon="5.98279">
        <ele>522.14</ele>
        <time>2026-07-01T09:33:04Z</time>
      </trkpt>
      <trkpt lat="44.11713" lon="5.98284">
        <ele>522.1</ele>
        <time>2026-07-01T09:33:05Z</time>
      </trkpt>
      <trkpt lat="44.11712" lon="5.98287">
        <ele>522.27</ele>
        <time>2026-07-01T09:33:06Z</time>
      </trkpt>
      <trkpt lat="44.1171" lon="5.9829">
        <ele>522.31</ele>
        <time>2026-07-01T09:33:07Z</time>
      </trkpt>
      <trkpt lat="44.11709" lon="5.98293">
        <ele>522.43</ele>
        <time>2026-07-01T09:33:08Z</time>
      </trkpt>
      <trkpt lat="44.11705" lon="5.98297">
        <ele>522.57</ele>
        <time>2026-07-01T09:33:10Z</time>
      </trkpt>
      <trkpt lat="44.11705" lon="5.983">
        <ele>522.7</ele>
        <time>2026-07-01T09:33:11Z</time>
      </trkpt>
      <trkpt lat="44.11705" lon="5.98303">
        <ele>522.27</ele>
        <time>2026-07-01T09:33:12Z</time>
      </trkpt>
      <trkpt lat="44.11704" lon="5.98307">
        <ele>521.93</ele>
        <time>2026-07-01T09:33:13Z</time>
      </trkpt>
      <trkpt lat="44.11703" lon="5.98311">
        <ele>521.29</ele>
        <time>2026-07-01T09:33:14Z</time>
      </trkpt>
      <trkpt lat="44.11704" lon="5.98315">
        <ele>520.92</ele>
        <time>2026-07-01T09:33:15Z</time>
      </trkpt>
      <trkpt lat="44.11704" lon="5.98319">
        <ele>520.25</ele>
        <time>2026-07-01T09:33:16Z</time>
      </trkpt>
      <trkpt lat="44.11704" lon="5.98323">
        <ele>519.71</ele>
        <time>2026-07-01T09:33:17Z</time>
      </trkpt>
      <trkpt lat="44.11704" lon="5.98328">
        <ele>519.49</ele>
        <time>2026-07-01T09:33:18Z</time>
      </trkpt>
      <trkpt lat="44.11703" lon="5.98334">
        <ele>519.5</ele>
        <time>2026-07-01T09:33:19Z</time>
      </trkpt>
      <trkpt lat="44.11702" lon="5.98339">
        <ele>519.42</ele>
        <time>2026-07-01T09:33:20Z</time>
      </trkpt>
      <trkpt lat="44.11701" lon="5.98344">
        <ele>519.09</ele>
        <time>2026-07-01T09:33:21Z</time>
      </trkpt>
      <trkpt lat="44.11699" lon="5.98349">
        <ele>519.07</ele>
        <time>2026-07-01T09:33:22Z</time>
      </trkpt>
      <trkpt lat="44.11688" lon="5.98365">
        <ele>518.88</ele>
        <time>2026-07-01T09:33:28Z</time>
      </trkpt>
      <trkpt lat="44.11686" lon="5.98365">
        <ele>518.99</ele>
        <time>2026-07-01T09:33:29Z</time>
      </trkpt>
      <trkpt lat="44.11684" lon="5.98364">
        <ele>519.19</ele>
        <time>2026-07-01T09:33:30Z</time>
      </trkpt>
      <trkpt lat="44.11682" lon="5.98364">
        <ele>519.18</ele>
        <time>2026-07-01T09:33:31Z</time>
      </trkpt>
      <trkpt lat="44.11679" lon="5.98364">
        <ele>519.42</ele>
        <time>2026-07-01T09:33:32Z</time>
      </trkpt>
      <trkpt lat="44.11677" lon="5.98369">
        <ele>519.49</ele>
        <time>2026-07-01T09:33:44Z</time>
      </trkpt>
      <trkpt lat="44.11663" lon="5.98377">
        <ele>520.61</ele>
        <time>2026-07-01T09:33:52Z</time>
      </trkpt>
      <trkpt lat="44.11662" lon="5.98381">
        <ele>520.32</ele>
        <time>2026-07-01T09:34:07Z</time>
      </trkpt>
      <trkpt lat="44.1166" lon="5.98383">
        <ele>520.31</ele>
        <time>2026-07-01T09:34:08Z</time>
      </trkpt>
      <trkpt lat="44.11658" lon="5.98386">
        <ele>520.31</ele>
        <time>2026-07-01T09:34:09Z</time>
      </trkpt>
      <trkpt lat="44.11656" lon="5.98389">
        <ele>520.23</ele>
        <time>2026-07-01T09:34:10Z</time>
      </trkpt>
      <trkpt lat="44.11653" lon="5.98392">
        <ele>520.4</ele>
        <time>2026-07-01T09:34:11Z</time>
      </trkpt>
      <trkpt lat="44.11643" lon="5.98407">
        <ele>521.37</ele>
        <time>2026-07-01T09:34:23Z</time>
      </trkpt>
      <trkpt lat="44.1163" lon="5.98426">
        <ele>521.62</ele>
        <time>2026-07-01T09:34:42Z</time>
      </trkpt>
      <trkpt lat="44.11585" lon="5.98458">
        <ele>522.11</ele>
        <time>2026-07-01T09:34:58Z</time>
      </trkpt>
      <trkpt lat="44.11538" lon="5.98443">
        <ele>522.24</ele>
        <time>2026-07-01T09:35:12Z</time>
      </trkpt>
      <trkpt lat="44.11535" lon="5.98445">
        <ele>522.27</ele>
        <time>2026-07-01T09:35:13Z</time>
      </trkpt>
      <trkpt lat="44.11533" lon="5.98448">
        <ele>522.44</ele>
        <time>2026-07-01T09:35:14Z</time>
      </trkpt>
      <trkpt lat="44.11533" lon="5.98451">
        <ele>522.73</ele>
        <time>2026-07-01T09:35:15Z</time>
      </trkpt>
      <trkpt lat="44.11533" lon="5.98455">
        <ele>522.87</ele>
        <time>2026-07-01T09:35:16Z</time>
      </trkpt>
      <trkpt lat="44.11533" lon="5.98459">
        <ele>523.02</ele>
        <time>2026-07-01T09:35:17Z</time>
      </trkpt>
      <trkpt lat="44.11533" lon="5.98463">
        <ele>523.06</ele>
        <time>2026-07-01T09:35:18Z</time>
      </trkpt>
      <trkpt lat="44.11521" lon="5.98508">
        <ele>526.16</ele>
        <time>2026-07-01T09:35:32Z</time>
      </trkpt>
      <trkpt lat="44.11498" lon="5.98521">
        <ele>529.22</ele>
        <time>2026-07-01T09:35:40Z</time>
      </trkpt>
      <trkpt lat="44.11471" lon="5.98535">
        <ele>532.37</ele>
        <time>2026-07-01T09:35:50Z</time>
      </trkpt>
      <trkpt lat="44.11433" lon="5.98554">
        <ele>535.46</ele>
        <time>2026-07-01T09:36:04Z</time>
      </trkpt>
      <trkpt lat="44.11398" lon="5.98556">
        <ele>538.11</ele>
        <time>2026-07-01T09:36:17Z</time>
      </trkpt>
      <trkpt lat="44.11355" lon="5.98564">
        <ele>539.28</ele>
        <time>2026-07-01T09:36:32Z</time>
      </trkpt>
      <trkpt lat="44.11315" lon="5.98568">
        <ele>542.47</ele>
        <time>2026-07-01T09:36:48Z</time>
      </trkpt>
      <trkpt lat="44.11291" lon="5.98568">
        <ele>543.9</ele>
        <time>2026-07-01T09:36:59Z</time>
      </trkpt>
      <trkpt lat="44.11256" lon="5.98577">
        <ele>545.82</ele>
        <time>2026-07-01T09:37:14Z</time>
      </trkpt>
      <trkpt lat="44.11209" lon="5.98597">
        <ele>545.25</ele>
        <time>2026-07-01T09:37:30Z</time>
      </trkpt>
      <trkpt lat="44.11164" lon="5.98624">
        <ele>545.12</ele>
        <time>2026-07-01T09:37:45Z</time>
      </trkpt>
      <trkpt lat="44.11119" lon="5.98646">
        <ele>546.34</ele>
        <time>2026-07-01T09:38:01Z</time>
      </trkpt>
      <trkpt lat="44.11078" lon="5.9864">
        <ele>548.5</ele>
        <time>2026-07-01T09:38:17Z</time>
      </trkpt>
      <trkpt lat="44.11032" lon="5.98646">
        <ele>550.22</ele>
        <time>2026-07-01T09:38:35Z</time>
      </trkpt>
      <trkpt lat="44.1101" lon="5.98652">
        <ele>551.07</ele>
        <time>2026-07-01T09:38:48Z</time>
      </trkpt>
      <trkpt lat="44.11" lon="5.98654">
        <ele>550.68</ele>
        <time>2026-07-01T09:39:18Z</time>
      </trkpt>
      <trkpt lat="44.10997" lon="5.98655">
        <ele>550.71</ele>
        <time>2026-07-01T09:39:19Z</time>
      </trkpt>
      <trkpt lat="44.10981" lon="5.98666">
        <ele>550.82</ele>
        <time>2026-07-01T09:39:24Z</time>
      </trkpt>
      <trkpt lat="44.10978" lon="5.9867">
        <ele>550.78</ele>
        <time>2026-07-01T09:39:25Z</time>
      </trkpt>
      <trkpt lat="44.10975" lon="5.98673">
        <ele>550.59</ele>
        <time>2026-07-01T09:39:26Z</time>
      </trkpt>
      <trkpt lat="44.10972" lon="5.98676">
        <ele>550.43</ele>
        <time>2026-07-01T09:39:27Z</time>
      </trkpt>
      <trkpt lat="44.10968" lon="5.98678">
        <ele>550.36</ele>
        <time>2026-07-01T09:39:28Z</time>
      </trkpt>
      <trkpt lat="44.10965" lon="5.98678">
        <ele>550.54</ele>
        <time>2026-07-01T09:39:29Z</time>
      </trkpt>
      <trkpt lat="44.1094" lon="5.98684">
        <ele>551.45</ele>
        <time>2026-07-01T09:39:37Z</time>
      </trkpt>
      <trkpt lat="44.10937" lon="5.98682">
        <ele>551.5</ele>
        <time>2026-07-01T09:39:38Z</time>
      </trkpt>
      <trkpt lat="44.10935" lon="5.98679">
        <ele>551.58</ele>
        <time>2026-07-01T09:39:39Z</time>
      </trkpt>
      <trkpt lat="44.10933" lon="5.98676">
        <ele>551.46</ele>
        <time>2026-07-01T09:39:40Z</time>
      </trkpt>
      <trkpt lat="44.10931" lon="5.98673">
        <ele>551.52</ele>
        <time>2026-07-01T09:39:41Z</time>
      </trkpt>
      <trkpt lat="44.10929" lon="5.9867">
        <ele>551.55</ele>
        <time>2026-07-01T09:39:42Z</time>
      </trkpt>
      <trkpt lat="44.10927" lon="5.98666">
        <ele>551.85</ele>
        <time>2026-07-01T09:39:43Z</time>
      </trkpt>
      <trkpt lat="44.10925" lon="5.98662">
        <ele>551.99</ele>
        <time>2026-07-01T09:39:44Z</time>
      </trkpt>
      <trkpt lat="44.10923" lon="5.98659">
        <ele>551.85</ele>
        <time>2026-07-01T09:39:45Z</time>
      </trkpt>
      <trkpt lat="44.10921" lon="5.98656">
        <ele>551.89</ele>
        <time>2026-07-01T09:39:46Z</time>
      </trkpt>
      <trkpt lat="44.10918" lon="5.98653">
        <ele>552.64</ele>
        <time>2026-07-01T09:39:47Z</time>
      </trkpt>
      <trkpt lat="44.10915" lon="5.98651">
        <ele>552.54</ele>
        <time>2026-07-01T09:39:48Z</time>
      </trkpt>
      <trkpt lat="44.10913" lon="5.98647">
        <ele>552.32</ele>
        <time>2026-07-01T09:39:49Z</time>
      </trkpt>
      <trkpt lat="44.10911" lon="5.98643">
        <ele>552.44</ele>
        <time>2026-07-01T09:39:50Z</time>
      </trkpt>
      <trkpt lat="44.1091" lon="5.98639">
        <ele>552.52</ele>
        <time>2026-07-01T09:39:51Z</time>
      </trkpt>
      <trkpt lat="44.10895" lon="5.98594">
        <ele>551.87</ele>
        <time>2026-07-01T09:40:02Z</time>
      </trkpt>
      <trkpt lat="44.10893" lon="5.9859">
        <ele>552.04</ele>
        <time>2026-07-01T09:40:03Z</time>
      </trkpt>
      <trkpt lat="44.10891" lon="5.98587">
        <ele>551.86</ele>
        <time>2026-07-01T09:40:04Z</time>
      </trkpt>
      <trkpt lat="44.10889" lon="5.98582">
        <ele>551.67</ele>
        <time>2026-07-01T09:40:05Z</time>
      </trkpt>
      <trkpt lat="44.10888" lon="5.98577">
        <ele>551.39</ele>
        <time>2026-07-01T09:40:06Z</time>
      </trkpt>
      <trkpt lat="44.10886" lon="5.98573">
        <ele>551.27</ele>
        <time>2026-07-01T09:40:07Z</time>
      </trkpt>
      <trkpt lat="44.10884" lon="5.98569">
        <ele>551.33</ele>
        <time>2026-07-01T09:40:08Z</time>
      </trkpt>
      <trkpt lat="44.10883" lon="5.98564">
        <ele>550.96</ele>
        <time>2026-07-01T09:40:09Z</time>
      </trkpt>
      <trkpt lat="44.10881" lon="5.98558">
        <ele>550.59</ele>
        <time>2026-07-01T09:40:10Z</time>
      </trkpt>
      <trkpt lat="44.10878" lon="5.98552">
        <ele>549.82</ele>
        <time>2026-07-01T09:40:11Z</time>
      </trkpt>
      <trkpt lat="44.10876" lon="5.98545">
        <ele>549.25</ele>
        <time>2026-07-01T09:40:12Z</time>
      </trkpt>
      <trkpt lat="44.10874" lon="5.98538">
        <ele>549.4</ele>
        <time>2026-07-01T09:40:13Z</time>
      </trkpt>
      <trkpt lat="44.10872" lon="5.98534">
        <ele>549.49</ele>
        <time>2026-07-01T09:40:14Z</time>
      </trkpt>
      <trkpt lat="44.1087" lon="5.98531">
        <ele>549.52</ele>
        <time>2026-07-01T09:40:15Z</time>
      </trkpt>
      <trkpt lat="44.10868" lon="5.9853">
        <ele>549.12</ele>
        <time>2026-07-01T09:40:16Z</time>
      </trkpt>
      <trkpt lat="44.10866" lon="5.98528">
        <ele>548.36</ele>
        <time>2026-07-01T09:40:17Z</time>
      </trkpt>
      <trkpt lat="44.10865" lon="5.98525">
        <ele>547.75</ele>
        <time>2026-07-01T09:40:18Z</time>
      </trkpt>
      <trkpt lat="44.10864" lon="5.98523">
        <ele>547.48</ele>
        <time>2026-07-01T09:40:19Z</time>
      </trkpt>
      <trkpt lat="44.10863" lon="5.9852">
        <ele>547.01</ele>
        <time>2026-07-01T09:40:20Z</time>
      </trkpt>
      <trkpt lat="44.10861" lon="5.98516">
        <ele>547.31</ele>
        <time>2026-07-01T09:40:31Z</time>
      </trkpt>
      <trkpt lat="44.10855" lon="5.98509">
        <ele>549.39</ele>
        <time>2026-07-01T09:40:49Z</time>
      </trkpt>
      <trkpt lat="44.10851" lon="5.98513">
        <ele>550.56</ele>
        <time>2026-07-01T09:41:03Z</time>
      </trkpt>
      <trkpt lat="44.10849" lon="5.98516">
        <ele>550.63</ele>
        <time>2026-07-01T09:42:19Z</time>
      </trkpt>
      <trkpt lat="44.10847" lon="5.98516">
        <ele>550.94</ele>
        <time>2026-07-01T09:42:39Z</time>
      </trkpt>
      <trkpt lat="44.10846" lon="5.98517">
        <ele>551.14</ele>
        <time>2026-07-01T09:42:40Z</time>
      </trkpt>
      <trkpt lat="44.10845" lon="5.98519">
        <ele>551.34</ele>
        <time>2026-07-01T09:42:41Z</time>
      </trkpt>
      <trkpt lat="44.10843" lon="5.9852">
        <ele>551.54</ele>
        <time>2026-07-01T09:42:42Z</time>
      </trkpt>
      <trkpt lat="44.10842" lon="5.98522">
        <ele>551.65</ele>
        <time>2026-07-01T09:42:43Z</time>
      </trkpt>
      <trkpt lat="44.10841" lon="5.98524">
        <ele>551.94</ele>
        <time>2026-07-01T09:42:44Z</time>
      </trkpt>
      <trkpt lat="44.1084" lon="5.98526">
        <ele>552.24</ele>
        <time>2026-07-01T09:42:45Z</time>
      </trkpt>
      <trkpt lat="44.10839" lon="5.98527">
        <ele>552.39</ele>
        <time>2026-07-01T09:42:46Z</time>
      </trkpt>
      <trkpt lat="44.10838" lon="5.98529">
        <ele>552.87</ele>
        <time>2026-07-01T09:42:47Z</time>
      </trkpt>
      <trkpt lat="44.10837" lon="5.98531">
        <ele>552.71</ele>
        <time>2026-07-01T09:42:48Z</time>
      </trkpt>
      <trkpt lat="44.10836" lon="5.98534">
        <ele>552.91</ele>
        <time>2026-07-01T09:42:49Z</time>
      </trkpt>
      <trkpt lat="44.10836" lon="5.98537">
        <ele>552.89</ele>
        <time>2026-07-01T09:42:50Z</time>
      </trkpt>
      <trkpt lat="44.10836" lon="5.9854">
        <ele>553.29</ele>
        <time>2026-07-01T09:42:51Z</time>
      </trkpt>
      <trkpt lat="44.10836" lon="5.98543">
        <ele>553.38</ele>
        <time>2026-07-01T09:42:52Z</time>
      </trkpt>
      <trkpt lat="44.10837" lon="5.98546">
        <ele>553.38</ele>
        <time>2026-07-01T09:42:53Z</time>
      </trkpt>
      <trkpt lat="44.10837" lon="5.9855">
        <ele>553.2</ele>
        <time>2026-07-01T09:42:54Z</time>
      </trkpt>
      <trkpt lat="44.10837" lon="5.98554">
        <ele>553.06</ele>
        <time>2026-07-01T09:42:55Z</time>
      </trkpt>
      <trkpt lat="44.10838" lon="5.98559">
        <ele>552.78</ele>
        <time>2026-07-01T09:42:56Z</time>
      </trkpt>
      <trkpt lat="44.10838" lon="5.98564">
        <ele>552.6</ele>
        <time>2026-07-01T09:42:57Z</time>
      </trkpt>
      <trkpt lat="44.10838" lon="5.98569">
        <ele>552.69</ele>
        <time>2026-07-01T09:42:58Z</time>
      </trkpt>
      <trkpt lat="44.10838" lon="5.98573">
        <ele>552.73</ele>
        <time>2026-07-01T09:42:59Z</time>
      </trkpt>
      <trkpt lat="44.10838" lon="5.98618">
        <ele>551.18</ele>
        <time>2026-07-01T09:43:08Z</time>
      </trkpt>
      <trkpt lat="44.10821" lon="5.98637">
        <ele>554.41</ele>
        <time>2026-07-01T09:43:18Z</time>
      </trkpt>
      <trkpt lat="44.10817" lon="5.9864">
        <ele>555.33</ele>
        <time>2026-07-01T09:43:20Z</time>
      </trkpt>
      <trkpt lat="44.1081" lon="5.98645">
        <ele>555.99</ele>
        <time>2026-07-01T09:43:30Z</time>
      </trkpt>
      <trkpt lat="44.10806" lon="5.98651">
        <ele>555.95</ele>
        <time>2026-07-01T09:43:55Z</time>
      </trkpt>
      <trkpt lat="44.10805" lon="5.98652">
        <ele>555.92</ele>
        <time>2026-07-01T09:43:56Z</time>
      </trkpt>
      <trkpt lat="44.10804" lon="5.98654">
        <ele>556.08</ele>
        <time>2026-07-01T09:43:57Z</time>
      </trkpt>
      <trkpt lat="44.10802" lon="5.98656">
        <ele>556.18</ele>
        <time>2026-07-01T09:43:58Z</time>
      </trkpt>
      <trkpt lat="44.108" lon="5.98658">
        <ele>556.13</ele>
        <time>2026-07-01T09:43:59Z</time>
      </trkpt>
      <trkpt lat="44.10798" lon="5.9866">
        <ele>555.98</ele>
        <time>2026-07-01T09:44:00Z</time>
      </trkpt>
      <trkpt lat="44.10764" lon="5.98678">
        <ele>555.21</ele>
        <time>2026-07-01T09:44:13Z</time>
      </trkpt>
      <trkpt lat="44.10753" lon="5.9869">
        <ele>553.63</ele>
        <time>2026-07-01T09:44:17Z</time>
      </trkpt>
      <trkpt lat="44.10749" lon="5.98694">
        <ele>553.35</ele>
        <time>2026-07-01T09:44:18Z</time>
      </trkpt>
      <trkpt lat="44.10745" lon="5.98696">
        <ele>553.2</ele>
        <time>2026-07-01T09:44:19Z</time>
      </trkpt>
      <trkpt lat="44.10741" lon="5.98698">
        <ele>552.64</ele>
        <time>2026-07-01T09:44:20Z</time>
      </trkpt>
      <trkpt lat="44.10736" lon="5.98699">
        <ele>552.66</ele>
        <time>2026-07-01T09:44:21Z</time>
      </trkpt>
      <trkpt lat="44.10732" lon="5.98698">
        <ele>552.31</ele>
        <time>2026-07-01T09:44:22Z</time>
      </trkpt>
      <trkpt lat="44.10728" lon="5.98699">
        <ele>552.36</ele>
        <time>2026-07-01T09:44:23Z</time>
      </trkpt>
      <trkpt lat="44.10724" lon="5.98701">
        <ele>552.23</ele>
        <time>2026-07-01T09:44:24Z</time>
      </trkpt>
      <trkpt lat="44.10719" lon="5.98703">
        <ele>551.89</ele>
        <time>2026-07-01T09:44:25Z</time>
      </trkpt>
      <trkpt lat="44.10716" lon="5.98704">
        <ele>551.61</ele>
        <time>2026-07-01T09:44:26Z</time>
      </trkpt>
      <trkpt lat="44.10712" lon="5.98704">
        <ele>551.29</ele>
        <time>2026-07-01T09:44:27Z</time>
      </trkpt>
      <trkpt lat="44.10709" lon="5.98704">
        <ele>551.42</ele>
        <time>2026-07-01T09:44:28Z</time>
      </trkpt>
      <trkpt lat="44.10706" lon="5.98707">
        <ele>550.89</ele>
        <time>2026-07-01T09:44:29Z</time>
      </trkpt>
      <trkpt lat="44.10705" lon="5.98709">
        <ele>550.03</ele>
        <time>2026-07-01T09:44:30Z</time>
      </trkpt>
      <trkpt lat="44.10703" lon="5.98711">
        <ele>549.41</ele>
        <time>2026-07-01T09:44:32Z</time>
      </trkpt>
      <trkpt lat="44.10702" lon="5.98714">
        <ele>549.57</ele>
        <time>2026-07-01T09:44:45Z</time>
      </trkpt>
      <trkpt lat="44.107" lon="5.9872">
        <ele>548.83</ele>
        <time>2026-07-01T09:44:47Z</time>
      </trkpt>
      <trkpt lat="44.10698" lon="5.98724">
        <ele>548.49</ele>
        <time>2026-07-01T09:44:48Z</time>
      </trkpt>
      <trkpt lat="44.10696" lon="5.98729">
        <ele>548.05</ele>
        <time>2026-07-01T09:44:49Z</time>
      </trkpt>
      <trkpt lat="44.10695" lon="5.98734">
        <ele>547.61</ele>
        <time>2026-07-01T09:44:50Z</time>
      </trkpt>
      <trkpt lat="44.10693" lon="5.98739">
        <ele>547.32</ele>
        <time>2026-07-01T09:44:51Z</time>
      </trkpt>
      <trkpt lat="44.10692" lon="5.98743">
        <ele>547.03</ele>
        <time>2026-07-01T09:44:52Z</time>
      </trkpt>
      <trkpt lat="44.1069" lon="5.98746">
        <ele>546.71</ele>
        <time>2026-07-01T09:44:53Z</time>
      </trkpt>
      <trkpt lat="44.10687" lon="5.98752">
        <ele>546.16</ele>
        <time>2026-07-01T09:44:55Z</time>
      </trkpt>
      <trkpt lat="44.10684" lon="5.98754">
        <ele>545.81</ele>
        <time>2026-07-01T09:44:56Z</time>
      </trkpt>
      <trkpt lat="44.10683" lon="5.98759">
        <ele>545.24</ele>
        <time>2026-07-01T09:44:57Z</time>
      </trkpt>
      <trkpt lat="44.10682" lon="5.98764">
        <ele>544.81</ele>
        <time>2026-07-01T09:44:58Z</time>
      </trkpt>
      <trkpt lat="44.10681" lon="5.9877">
        <ele>544.46</ele>
        <time>2026-07-01T09:44:59Z</time>
      </trkpt>
      <trkpt lat="44.10686" lon="5.98801">
        <ele>541.27</ele>
        <time>2026-07-01T09:45:07Z</time>
      </trkpt>
      <trkpt lat="44.10686" lon="5.98804">
        <ele>541.1</ele>
        <time>2026-07-01T09:45:08Z</time>
      </trkpt>
      <trkpt lat="44.10685" lon="5.98806">
        <ele>540.26</ele>
        <time>2026-07-01T09:45:09Z</time>
      </trkpt>
      <trkpt lat="44.10683" lon="5.98807">
        <ele>540.07</ele>
        <time>2026-07-01T09:45:10Z</time>
      </trkpt>
      <trkpt lat="44.10681" lon="5.98809">
        <ele>539.71</ele>
        <time>2026-07-01T09:45:11Z</time>
      </trkpt>
      <trkpt lat="44.10678" lon="5.9881">
        <ele>539.43</ele>
        <time>2026-07-01T09:45:12Z</time>
      </trkpt>
      <trkpt lat="44.10676" lon="5.98811">
        <ele>539.03</ele>
        <time>2026-07-01T09:45:13Z</time>
      </trkpt>
      <trkpt lat="44.10675" lon="5.98811">
        <ele>538.66</ele>
        <time>2026-07-01T09:45:14Z</time>
      </trkpt>
      <trkpt lat="44.10673" lon="5.98811">
        <ele>538.27</ele>
        <time>2026-07-01T09:45:15Z</time>
      </trkpt>
      <trkpt lat="44.10668" lon="5.98817">
        <ele>537.93</ele>
        <time>2026-07-01T09:45:30Z</time>
      </trkpt>
      <trkpt lat="44.10666" lon="5.98816">
        <ele>537.46</ele>
        <time>2026-07-01T09:45:33Z</time>
      </trkpt>
      <trkpt lat="44.10663" lon="5.98815">
        <ele>537.31</ele>
        <time>2026-07-01T09:45:34Z</time>
      </trkpt>
      <trkpt lat="44.10661" lon="5.98813">
        <ele>537.13</ele>
        <time>2026-07-01T09:45:35Z</time>
      </trkpt>
      <trkpt lat="44.10659" lon="5.98811">
        <ele>536.9</ele>
        <time>2026-07-01T09:45:36Z</time>
      </trkpt>
      <trkpt lat="44.10658" lon="5.98809">
        <ele>536.61</ele>
        <time>2026-07-01T09:45:37Z</time>
      </trkpt>
      <trkpt lat="44.10656" lon="5.98806">
        <ele>536.36</ele>
        <time>2026-07-01T09:45:38Z</time>
      </trkpt>
      <trkpt lat="44.10653" lon="5.98803">
        <ele>535.96</ele>
        <time>2026-07-01T09:45:39Z</time>
      </trkpt>
      <trkpt lat="44.1065" lon="5.98803">
        <ele>535.65</ele>
        <time>2026-07-01T09:45:40Z</time>
      </trkpt>
      <trkpt lat="44.10648" lon="5.98804">
        <ele>535.6</ele>
        <time>2026-07-01T09:45:41Z</time>
      </trkpt>
      <trkpt lat="44.10647" lon="5.98806">
        <ele>535.22</ele>
        <time>2026-07-01T09:45:42Z</time>
      </trkpt>
      <trkpt lat="44.10647" lon="5.98808">
        <ele>535.23</ele>
        <time>2026-07-01T09:45:43Z</time>
      </trkpt>
      <trkpt lat="44.10647" lon="5.98811">
        <ele>535.15</ele>
        <time>2026-07-01T09:45:44Z</time>
      </trkpt>
      <trkpt lat="44.10647" lon="5.98814">
        <ele>535.18</ele>
        <time>2026-07-01T09:45:45Z</time>
      </trkpt>
      <trkpt lat="44.10647" lon="5.98817">
        <ele>535.2</ele>
        <time>2026-07-01T09:45:46Z</time>
      </trkpt>
      <trkpt lat="44.10656" lon="5.98852">
        <ele>537.63</ele>
        <time>2026-07-01T09:45:58Z</time>
      </trkpt>
      <trkpt lat="44.10669" lon="5.98876">
        <ele>539.3</ele>
        <time>2026-07-01T09:46:10Z</time>
      </trkpt>
      <trkpt lat="44.10673" lon="5.98882">
        <ele>539.32</ele>
        <time>2026-07-01T09:46:13Z</time>
      </trkpt>
      <trkpt lat="44.10678" lon="5.98883">
        <ele>538.75</ele>
        <time>2026-07-01T09:46:19Z</time>
      </trkpt>
      <trkpt lat="44.1068" lon="5.98885">
        <ele>538.72</ele>
        <time>2026-07-01T09:46:20Z</time>
      </trkpt>
      <trkpt lat="44.10681" lon="5.98887">
        <ele>538.84</ele>
        <time>2026-07-01T09:46:21Z</time>
      </trkpt>
      <trkpt lat="44.10684" lon="5.9889">
        <ele>538.86</ele>
        <time>2026-07-01T09:46:22Z</time>
      </trkpt>
      <trkpt lat="44.10686" lon="5.98892">
        <ele>538.89</ele>
        <time>2026-07-01T09:46:23Z</time>
      </trkpt>
      <trkpt lat="44.10689" lon="5.98894">
        <ele>538.71</ele>
        <time>2026-07-01T09:46:24Z</time>
      </trkpt>
      <trkpt lat="44.10692" lon="5.98896">
        <ele>538.42</ele>
        <time>2026-07-01T09:46:25Z</time>
      </trkpt>
      <trkpt lat="44.10695" lon="5.98899">
        <ele>538.3</ele>
        <time>2026-07-01T09:46:26Z</time>
      </trkpt>
      <trkpt lat="44.10697" lon="5.98901">
        <ele>538.29</ele>
        <time>2026-07-01T09:46:27Z</time>
      </trkpt>
      <trkpt lat="44.10719" lon="5.98934">
        <ele>538.93</ele>
        <time>2026-07-01T09:46:39Z</time>
      </trkpt>
      <trkpt lat="44.10738" lon="5.9897">
        <ele>539.12</ele>
        <time>2026-07-01T09:46:49Z</time>
      </trkpt>
      <trkpt lat="44.10752" lon="5.98986">
        <ele>538.2</ele>
        <time>2026-07-01T09:46:53Z</time>
      </trkpt>
      <trkpt lat="44.10761" lon="5.99">
        <ele>537.06</ele>
        <time>2026-07-01T09:46:56Z</time>
      </trkpt>
      <trkpt lat="44.10762" lon="5.99005">
        <ele>536.72</ele>
        <time>2026-07-01T09:46:57Z</time>
      </trkpt>
      <trkpt lat="44.10762" lon="5.99009">
        <ele>536.94</ele>
        <time>2026-07-01T09:46:58Z</time>
      </trkpt>
      <trkpt lat="44.10762" lon="5.99012">
        <ele>536.88</ele>
        <time>2026-07-01T09:46:59Z</time>
      </trkpt>
      <trkpt lat="44.10761" lon="5.99015">
        <ele>537.05</ele>
        <time>2026-07-01T09:47:00Z</time>
      </trkpt>
      <trkpt lat="44.1076" lon="5.99017">
        <ele>537.1</ele>
        <time>2026-07-01T09:47:01Z</time>
      </trkpt>
      <trkpt lat="44.1076" lon="5.99019">
        <ele>536.99</ele>
        <time>2026-07-01T09:47:02Z</time>
      </trkpt>
      <trkpt lat="44.1076" lon="5.99023">
        <ele>536.89</ele>
        <time>2026-07-01T09:47:03Z</time>
      </trkpt>
      <trkpt lat="44.1076" lon="5.99026">
        <ele>536.66</ele>
        <time>2026-07-01T09:47:04Z</time>
      </trkpt>
      <trkpt lat="44.1076" lon="5.99032">
        <ele>536.37</ele>
        <time>2026-07-01T09:47:06Z</time>
      </trkpt>
      <trkpt lat="44.1076" lon="5.99036">
        <ele>536.03</ele>
        <time>2026-07-01T09:47:11Z</time>
      </trkpt>
      <trkpt lat="44.10758" lon="5.99038">
        <ele>536.08</ele>
        <time>2026-07-01T09:47:12Z</time>
      </trkpt>
      <trkpt lat="44.10757" lon="5.9904">
        <ele>536.2</ele>
        <time>2026-07-01T09:47:13Z</time>
      </trkpt>
      <trkpt lat="44.10755" lon="5.99042">
        <ele>536.15</ele>
        <time>2026-07-01T09:47:14Z</time>
      </trkpt>
      <trkpt lat="44.10753" lon="5.99045">
        <ele>536.17</ele>
        <time>2026-07-01T09:47:15Z</time>
      </trkpt>
      <trkpt lat="44.1075" lon="5.99048">
        <ele>536.09</ele>
        <time>2026-07-01T09:47:16Z</time>
      </trkpt>
      <trkpt lat="44.10747" lon="5.99049">
        <ele>536.3</ele>
        <time>2026-07-01T09:47:17Z</time>
      </trkpt>
      <trkpt lat="44.10745" lon="5.99051">
        <ele>536.36</ele>
        <time>2026-07-01T09:47:18Z</time>
      </trkpt>
      <trkpt lat="44.10724" lon="5.9907">
        <ele>535.74</ele>
        <time>2026-07-01T09:47:27Z</time>
      </trkpt>
      <trkpt lat="44.10718" lon="5.99077">
        <ele>535.44</ele>
        <time>2026-07-01T09:47:29Z</time>
      </trkpt>
      <trkpt lat="44.10715" lon="5.99082">
        <ele>535.16</ele>
        <time>2026-07-01T09:47:30Z</time>
      </trkpt>
      <trkpt lat="44.10713" lon="5.99088">
        <ele>534.89</ele>
        <time>2026-07-01T09:47:31Z</time>
      </trkpt>
      <trkpt lat="44.1071" lon="5.99093">
        <ele>534.35</ele>
        <time>2026-07-01T09:47:32Z</time>
      </trkpt>
      <trkpt lat="44.10707" lon="5.99097">
        <ele>534.64</ele>
        <time>2026-07-01T09:47:33Z</time>
      </trkpt>
      <trkpt lat="44.10705" lon="5.99099">
        <ele>534.58</ele>
        <time>2026-07-01T09:47:34Z</time>
      </trkpt>
      <trkpt lat="44.10679" lon="5.99114">
        <ele>537.22</ele>
        <time>2026-07-01T09:47:44Z</time>
      </trkpt>
      <trkpt lat="44.10656" lon="5.99137">
        <ele>538.1</ele>
        <time>2026-07-01T09:47:53Z</time>
      </trkpt>
      <trkpt lat="44.10621" lon="5.99162">
        <ele>538.08</ele>
        <time>2026-07-01T09:48:05Z</time>
      </trkpt>
      <trkpt lat="44.10607" lon="5.99166">
        <ele>539.02</ele>
        <time>2026-07-01T09:48:10Z</time>
      </trkpt>
      <trkpt lat="44.10606" lon="5.99164">
        <ele>539.2</ele>
        <time>2026-07-01T09:48:11Z</time>
      </trkpt>
      <trkpt lat="44.10606" lon="5.99161">
        <ele>539.69</ele>
        <time>2026-07-01T09:48:12Z</time>
      </trkpt>
      <trkpt lat="44.10607" lon="5.9916">
        <ele>540.05</ele>
        <time>2026-07-01T09:48:13Z</time>
      </trkpt>
      <trkpt lat="44.10608" lon="5.99159">
        <ele>540.27</ele>
        <time>2026-07-01T09:48:14Z</time>
      </trkpt>
      <trkpt lat="44.10609" lon="5.99158">
        <ele>540.46</ele>
        <time>2026-07-01T09:48:15Z</time>
      </trkpt>
      <trkpt lat="44.1061" lon="5.99156">
        <ele>540.76</ele>
        <time>2026-07-01T09:48:16Z</time>
      </trkpt>
      <trkpt lat="44.10624" lon="5.99135">
        <ele>543.95</ele>
        <time>2026-07-01T09:48:27Z</time>
      </trkpt>
      <trkpt lat="44.10637" lon="5.99107">
        <ele>546.06</ele>
        <time>2026-07-01T09:48:42Z</time>
      </trkpt>
      <trkpt lat="44.10638" lon="5.99106">
        <ele>545.64</ele>
        <time>2026-07-01T09:48:44Z</time>
      </trkpt>
      <trkpt lat="44.1064" lon="5.99105">
        <ele>545.51</ele>
        <time>2026-07-01T09:48:45Z</time>
      </trkpt>
      <trkpt lat="44.10652" lon="5.99072">
        <ele>546.75</ele>
        <time>2026-07-01T09:48:57Z</time>
      </trkpt>
      <trkpt lat="44.10645" lon="5.99039">
        <ele>548.75</ele>
        <time>2026-07-01T09:49:09Z</time>
      </trkpt>
      <trkpt lat="44.10643" lon="5.99038">
        <ele>549.08</ele>
        <time>2026-07-01T09:49:10Z</time>
      </trkpt>
      <trkpt lat="44.10642" lon="5.99039">
        <ele>549.65</ele>
        <time>2026-07-01T09:49:11Z</time>
      </trkpt>
      <trkpt lat="44.10642" lon="5.99041">
        <ele>549.73</ele>
        <time>2026-07-01T09:49:12Z</time>
      </trkpt>
      <trkpt lat="44.10642" lon="5.99043">
        <ele>550.21</ele>
        <time>2026-07-01T09:49:13Z</time>
      </trkpt>
      <trkpt lat="44.10642" lon="5.99045">
        <ele>550.39</ele>
        <time>2026-07-01T09:49:14Z</time>
      </trkpt>
      <trkpt lat="44.10637" lon="5.99061">
        <ele>551.24</ele>
        <time>2026-07-01T09:49:20Z</time>
      </trkpt>
      <trkpt lat="44.1063" lon="5.99068">
        <ele>552.07</ele>
        <time>2026-07-01T09:49:24Z</time>
      </trkpt>
      <trkpt lat="44.10629" lon="5.9907">
        <ele>552.24</ele>
        <time>2026-07-01T09:49:25Z</time>
      </trkpt>
      <trkpt lat="44.10627" lon="5.99074">
        <ele>552.16</ele>
        <time>2026-07-01T09:49:26Z</time>
      </trkpt>
      <trkpt lat="44.10626" lon="5.99077">
        <ele>552.17</ele>
        <time>2026-07-01T09:49:27Z</time>
      </trkpt>
      <trkpt lat="44.10624" lon="5.9908">
        <ele>552.09</ele>
        <time>2026-07-01T09:49:28Z</time>
      </trkpt>
      <trkpt lat="44.10603" lon="5.99104">
        <ele>553.03</ele>
        <time>2026-07-01T09:49:41Z</time>
      </trkpt>
      <trkpt lat="44.10573" lon="5.99122">
        <ele>555.84</ele>
        <time>2026-07-01T09:49:57Z</time>
      </trkpt>
      <trkpt lat="44.10539" lon="5.9913">
        <ele>555.56</ele>
        <time>2026-07-01T09:50:09Z</time>
      </trkpt>
      <trkpt lat="44.10506" lon="5.99116">
        <ele>557.64</ele>
        <time>2026-07-01T09:50:24Z</time>
      </trkpt>
      <trkpt lat="44.1049" lon="5.99096">
        <ele>559.07</ele>
        <time>2026-07-01T09:50:32Z</time>
      </trkpt>
      <trkpt lat="44.10477" lon="5.99088">
        <ele>557.63</ele>
        <time>2026-07-01T09:50:39Z</time>
      </trkpt>
      <trkpt lat="44.10475" lon="5.99087">
        <ele>557.21</ele>
        <time>2026-07-01T09:51:03Z</time>
      </trkpt>
      <trkpt lat="44.10473" lon="5.99085">
        <ele>557.38</ele>
        <time>2026-07-01T09:51:46Z</time>
      </trkpt>
      <trkpt lat="44.10448" lon="5.99079">
        <ele>555.08</ele>
        <time>2026-07-01T09:52:01Z</time>
      </trkpt>
      <trkpt lat="44.10443" lon="5.99076">
        <ele>554.6</ele>
        <time>2026-07-01T09:52:02Z</time>
      </trkpt>
      <trkpt lat="44.10438" lon="5.99073">
        <ele>554.9</ele>
        <time>2026-07-01T09:52:03Z</time>
      </trkpt>
      <trkpt lat="44.1043" lon="5.99068">
        <ele>554.82</ele>
        <time>2026-07-01T09:52:05Z</time>
      </trkpt>
      <trkpt lat="44.10426" lon="5.99068">
        <ele>555.12</ele>
        <time>2026-07-01T09:52:06Z</time>
      </trkpt>
      <trkpt lat="44.10416" lon="5.99067">
        <ele>554.31</ele>
        <time>2026-07-01T09:52:08Z</time>
      </trkpt>
      <trkpt lat="44.10411" lon="5.99066">
        <ele>553.83</ele>
        <time>2026-07-01T09:52:09Z</time>
      </trkpt>
      <trkpt lat="44.10402" lon="5.99061">
        <ele>553.29</ele>
        <time>2026-07-01T09:52:11Z</time>
      </trkpt>
      <trkpt lat="44.10398" lon="5.99059">
        <ele>553.5</ele>
        <time>2026-07-01T09:52:12Z</time>
      </trkpt>
      <trkpt lat="44.10377" lon="5.99047">
        <ele>555.94</ele>
        <time>2026-07-01T09:52:23Z</time>
      </trkpt>
      <trkpt lat="44.10353" lon="5.9904">
        <ele>556.23</ele>
        <time>2026-07-01T09:52:33Z</time>
      </trkpt>
      <trkpt lat="44.1033" lon="5.99028">
        <ele>557.36</ele>
        <time>2026-07-01T09:52:44Z</time>
      </trkpt>
      <trkpt lat="44.10304" lon="5.9902">
        <ele>559.64</ele>
        <time>2026-07-01T09:52:55Z</time>
      </trkpt>
      <trkpt lat="44.103" lon="5.9902">
        <ele>559.82</ele>
        <time>2026-07-01T09:52:57Z</time>
      </trkpt>
      <trkpt lat="44.10298" lon="5.99021">
        <ele>559.34</ele>
        <time>2026-07-01T09:52:58Z</time>
      </trkpt>
      <trkpt lat="44.10295" lon="5.99021">
        <ele>559.24</ele>
        <time>2026-07-01T09:52:59Z</time>
      </trkpt>
      <trkpt lat="44.10293" lon="5.9902">
        <ele>559.24</ele>
        <time>2026-07-01T09:53:00Z</time>
      </trkpt>
      <trkpt lat="44.10291" lon="5.99019">
        <ele>559.54</ele>
        <time>2026-07-01T09:53:01Z</time>
      </trkpt>
      <trkpt lat="44.10285" lon="5.99016">
        <ele>561.11</ele>
        <time>2026-07-01T09:53:05Z</time>
      </trkpt>
      <trkpt lat="44.10283" lon="5.99016">
        <ele>561.39</ele>
        <time>2026-07-01T09:53:06Z</time>
      </trkpt>
      <trkpt lat="44.10275" lon="5.99015">
        <ele>562.83</ele>
        <time>2026-07-01T09:53:10Z</time>
      </trkpt>
      <trkpt lat="44.10274" lon="5.99014">
        <ele>563.12</ele>
        <time>2026-07-01T09:53:11Z</time>
      </trkpt>
      <trkpt lat="44.10274" lon="5.99012">
        <ele>563.46</ele>
        <time>2026-07-01T09:53:12Z</time>
      </trkpt>
      <trkpt lat="44.10275" lon="5.99012">
        <ele>563.68</ele>
        <time>2026-07-01T09:53:13Z</time>
      </trkpt>
      <trkpt lat="44.10276" lon="5.99011">
        <ele>563.57</ele>
        <time>2026-07-01T09:53:14Z</time>
      </trkpt>
      <trkpt lat="44.10278" lon="5.99011">
        <ele>563.79</ele>
        <time>2026-07-01T09:53:15Z</time>
      </trkpt>
      <trkpt lat="44.10279" lon="5.9901">
        <ele>563.73</ele>
        <time>2026-07-01T09:53:16Z</time>
      </trkpt>
      <trkpt lat="44.10281" lon="5.99008">
        <ele>563.75</ele>
        <time>2026-07-01T09:53:30Z</time>
      </trkpt>
      <trkpt lat="44.10281" lon="5.99007">
        <ele>564.49</ele>
        <time>2026-07-01T09:53:58Z</time>
      </trkpt>
      <trkpt lat="44.10285" lon="5.99006">
        <ele>564.96</ele>
        <time>2026-07-01T09:54:04Z</time>
      </trkpt>
      <trkpt lat="44.10287" lon="5.99005">
        <ele>564.73</ele>
        <time>2026-07-01T09:54:05Z</time>
      </trkpt>
      <trkpt lat="44.1029" lon="5.99005">
        <ele>564.89</ele>
        <time>2026-07-01T09:54:06Z</time>
      </trkpt>
      <trkpt lat="44.10292" lon="5.99006">
        <ele>564.64</ele>
        <time>2026-07-01T09:54:07Z</time>
      </trkpt>
      <trkpt lat="44.10295" lon="5.99006">
        <ele>565.06</ele>
        <time>2026-07-01T09:54:08Z</time>
      </trkpt>
      <trkpt lat="44.10297" lon="5.99006">
        <ele>565.11</ele>
        <time>2026-07-01T09:54:09Z</time>
      </trkpt>
      <trkpt lat="44.10308" lon="5.99002">
        <ele>565.55</ele>
        <time>2026-07-01T09:54:14Z</time>
      </trkpt>
      <trkpt lat="44.1031" lon="5.99">
        <ele>565.99</ele>
        <time>2026-07-01T09:54:15Z</time>
      </trkpt>
      <trkpt lat="44.10311" lon="5.98999">
        <ele>566.28</ele>
        <time>2026-07-01T09:54:16Z</time>
      </trkpt>
      <trkpt lat="44.10317" lon="5.98996">
        <ele>567.71</ele>
        <time>2026-07-01T09:54:20Z</time>
      </trkpt>
      <trkpt lat="44.10319" lon="5.98996">
        <ele>567.98</ele>
        <time>2026-07-01T09:54:21Z</time>
      </trkpt>
      <trkpt lat="44.10321" lon="5.98995">
        <ele>568.37</ele>
        <time>2026-07-01T09:54:22Z</time>
      </trkpt>
      <trkpt lat="44.10322" lon="5.98994">
        <ele>568.41</ele>
        <time>2026-07-01T09:54:23Z</time>
      </trkpt>
      <trkpt lat="44.10323" lon="5.98993">
        <ele>568.95</ele>
        <time>2026-07-01T09:54:24Z</time>
      </trkpt>
      <trkpt lat="44.10325" lon="5.98992">
        <ele>569.1</ele>
        <time>2026-07-01T09:54:25Z</time>
      </trkpt>
      <trkpt lat="44.10332" lon="5.98991">
        <ele>570.41</ele>
        <time>2026-07-01T09:54:30Z</time>
      </trkpt>
      <trkpt lat="44.10359" lon="5.98995">
        <ele>569.38</ele>
        <time>2026-07-01T09:54:40Z</time>
      </trkpt>
      <trkpt lat="44.1036" lon="5.98995">
        <ele>569.69</ele>
        <time>2026-07-01T09:54:41Z</time>
      </trkpt>
      <trkpt lat="44.10362" lon="5.98996">
        <ele>569.31</ele>
        <time>2026-07-01T09:54:42Z</time>
      </trkpt>
      <trkpt lat="44.10364" lon="5.98996">
        <ele>569.77</ele>
        <time>2026-07-01T09:54:43Z</time>
      </trkpt>
      <trkpt lat="44.10366" lon="5.98997">
        <ele>569.89</ele>
        <time>2026-07-01T09:54:44Z</time>
      </trkpt>
      <trkpt lat="44.10368" lon="5.98997">
        <ele>570.16</ele>
        <time>2026-07-01T09:54:45Z</time>
      </trkpt>
      <trkpt lat="44.10371" lon="5.98997">
        <ele>570.01</ele>
        <time>2026-07-01T09:54:46Z</time>
      </trkpt>
      <trkpt lat="44.10373" lon="5.98997">
        <ele>569.64</ele>
        <time>2026-07-01T09:54:47Z</time>
      </trkpt>
      <trkpt lat="44.10375" lon="5.98997">
        <ele>569.97</ele>
        <time>2026-07-01T09:54:48Z</time>
      </trkpt>
      <trkpt lat="44.10378" lon="5.98996">
        <ele>570.32</ele>
        <time>2026-07-01T09:54:49Z</time>
      </trkpt>
      <trkpt lat="44.10401" lon="5.98991">
        <ele>573.53</ele>
        <time>2026-07-01T09:54:59Z</time>
      </trkpt>
      <trkpt lat="44.10411" lon="5.98986">
        <ele>575.22</ele>
        <time>2026-07-01T09:55:04Z</time>
      </trkpt>
      <trkpt lat="44.10411" lon="5.98984">
        <ele>575.33</ele>
        <time>2026-07-01T09:55:05Z</time>
      </trkpt>
      <trkpt lat="44.1041" lon="5.98982">
        <ele>575.54</ele>
        <time>2026-07-01T09:55:06Z</time>
      </trkpt>
      <trkpt lat="44.10409" lon="5.98981">
        <ele>575.91</ele>
        <time>2026-07-01T09:55:07Z</time>
      </trkpt>
      <trkpt lat="44.10407" lon="5.98979">
        <ele>575.92</ele>
        <time>2026-07-01T09:55:08Z</time>
      </trkpt>
      <trkpt lat="44.10404" lon="5.98976">
        <ele>575.55</ele>
        <time>2026-07-01T09:55:16Z</time>
      </trkpt>
      <trkpt lat="44.10402" lon="5.98975">
        <ele>575.71</ele>
        <time>2026-07-01T09:55:17Z</time>
      </trkpt>
      <trkpt lat="44.104" lon="5.98974">
        <ele>575.9</ele>
        <time>2026-07-01T09:55:18Z</time>
      </trkpt>
      <trkpt lat="44.10397" lon="5.98974">
        <ele>576.07</ele>
        <time>2026-07-01T09:55:19Z</time>
      </trkpt>
      <trkpt lat="44.10395" lon="5.98975">
        <ele>576.4</ele>
        <time>2026-07-01T09:55:20Z</time>
      </trkpt>
      <trkpt lat="44.10393" lon="5.98975">
        <ele>576.7</ele>
        <time>2026-07-01T09:55:21Z</time>
      </trkpt>
      <trkpt lat="44.10391" lon="5.98975">
        <ele>576.94</ele>
        <time>2026-07-01T09:55:22Z</time>
      </trkpt>
      <trkpt lat="44.10388" lon="5.98976">
        <ele>576.97</ele>
        <time>2026-07-01T09:55:23Z</time>
      </trkpt>
      <trkpt lat="44.10385" lon="5.98976">
        <ele>576.7</ele>
        <time>2026-07-01T09:55:24Z</time>
      </trkpt>
      <trkpt lat="44.10382" lon="5.98975">
        <ele>576.62</ele>
        <time>2026-07-01T09:55:25Z</time>
      </trkpt>
      <trkpt lat="44.1038" lon="5.98974">
        <ele>576.85</ele>
        <time>2026-07-01T09:55:26Z</time>
      </trkpt>
      <trkpt lat="44.10378" lon="5.98972">
        <ele>577.2</ele>
        <time>2026-07-01T09:55:27Z</time>
      </trkpt>
      <trkpt lat="44.10376" lon="5.98971">
        <ele>577.5</ele>
        <time>2026-07-01T09:55:28Z</time>
      </trkpt>
      <trkpt lat="44.10348" lon="5.98964">
        <ele>577.19</ele>
        <time>2026-07-01T09:55:39Z</time>
      </trkpt>
      <trkpt lat="44.10316" lon="5.98951">
        <ele>579.66</ele>
        <time>2026-07-01T09:55:52Z</time>
      </trkpt>
      <trkpt lat="44.10302" lon="5.9893">
        <ele>581.64</ele>
        <time>2026-07-01T09:56:02Z</time>
      </trkpt>
      <trkpt lat="44.10292" lon="5.98903">
        <ele>584.1</ele>
        <time>2026-07-01T09:56:11Z</time>
      </trkpt>
      <trkpt lat="44.10285" lon="5.98863">
        <ele>583.85</ele>
        <time>2026-07-01T09:56:22Z</time>
      </trkpt>
      <trkpt lat="44.1029" lon="5.98843">
        <ele>585.39</ele>
        <time>2026-07-01T09:56:30Z</time>
      </trkpt>
      <trkpt lat="44.10291" lon="5.98841">
        <ele>585.32</ele>
        <time>2026-07-01T09:56:31Z</time>
      </trkpt>
      <trkpt lat="44.10293" lon="5.98832">
        <ele>585.71</ele>
        <time>2026-07-01T09:56:43Z</time>
      </trkpt>
      <trkpt lat="44.10294" lon="5.9883">
        <ele>585.62</ele>
        <time>2026-07-01T09:56:52Z</time>
      </trkpt>
      <trkpt lat="44.10295" lon="5.98828">
        <ele>585.45</ele>
        <time>2026-07-01T09:56:53Z</time>
      </trkpt>
      <trkpt lat="44.10297" lon="5.98827">
        <ele>585.6</ele>
        <time>2026-07-01T09:56:54Z</time>
      </trkpt>
      <trkpt lat="44.10298" lon="5.98824">
        <ele>585.4</ele>
        <time>2026-07-01T09:56:55Z</time>
      </trkpt>
      <trkpt lat="44.103" lon="5.98822">
        <ele>585.4</ele>
        <time>2026-07-01T09:56:56Z</time>
      </trkpt>
      <trkpt lat="44.10303" lon="5.98815">
        <ele>586.68</ele>
        <time>2026-07-01T09:56:59Z</time>
      </trkpt>
      <trkpt lat="44.10309" lon="5.98804">
        <ele>587.82</ele>
        <time>2026-07-01T09:57:03Z</time>
      </trkpt>
      <trkpt lat="44.10315" lon="5.98789">
        <ele>589.48</ele>
        <time>2026-07-01T09:57:08Z</time>
      </trkpt>
      <trkpt lat="44.10341" lon="5.98756">
        <ele>590.58</ele>
        <time>2026-07-01T09:57:21Z</time>
      </trkpt>
      <trkpt lat="44.10343" lon="5.98746">
        <ele>590.07</ele>
        <time>2026-07-01T09:57:30Z</time>
      </trkpt>
      <trkpt lat="44.10355" lon="5.98716">
        <ele>590.58</ele>
        <time>2026-07-01T09:57:40Z</time>
      </trkpt>
      <trkpt lat="44.10378" lon="5.98696">
        <ele>588.72</ele>
        <time>2026-07-01T09:57:49Z</time>
      </trkpt>
      <trkpt lat="44.10396" lon="5.98679">
        <ele>589.94</ele>
        <time>2026-07-01T09:57:58Z</time>
      </trkpt>
      <trkpt lat="44.10418" lon="5.98658">
        <ele>590.85</ele>
        <time>2026-07-01T09:58:08Z</time>
      </trkpt>
      <trkpt lat="44.10429" lon="5.9865">
        <ele>589.73</ele>
        <time>2026-07-01T09:58:12Z</time>
      </trkpt>
      <trkpt lat="44.10433" lon="5.98647">
        <ele>588.84</ele>
        <time>2026-07-01T09:58:13Z</time>
      </trkpt>
      <trkpt lat="44.10437" lon="5.98644">
        <ele>588.57</ele>
        <time>2026-07-01T09:58:14Z</time>
      </trkpt>
      <trkpt lat="44.10441" lon="5.98642">
        <ele>588.54</ele>
        <time>2026-07-01T09:58:15Z</time>
      </trkpt>
      <trkpt lat="44.10445" lon="5.98639">
        <ele>588.54</ele>
        <time>2026-07-01T09:58:16Z</time>
      </trkpt>
      <trkpt lat="44.10448" lon="5.98637">
        <ele>588.79</ele>
        <time>2026-07-01T09:58:17Z</time>
      </trkpt>
      <trkpt lat="44.10451" lon="5.98634">
        <ele>588.69</ele>
        <time>2026-07-01T09:58:18Z</time>
      </trkpt>
      <trkpt lat="44.10454" lon="5.98632">
        <ele>588.72</ele>
        <time>2026-07-01T09:58:19Z</time>
      </trkpt>
      <trkpt lat="44.10458" lon="5.98629">
        <ele>588.68</ele>
        <time>2026-07-01T09:58:20Z</time>
      </trkpt>
      <trkpt lat="44.1046" lon="5.98627">
        <ele>588.68</ele>
        <time>2026-07-01T09:58:21Z</time>
      </trkpt>
      <trkpt lat="44.10462" lon="5.98623">
        <ele>588.67</ele>
        <time>2026-07-01T09:58:22Z</time>
      </trkpt>
      <trkpt lat="44.10479" lon="5.98603">
        <ele>589.95</ele>
        <time>2026-07-01T09:58:33Z</time>
      </trkpt>
      <trkpt lat="44.1048" lon="5.98601">
        <ele>589.85</ele>
        <time>2026-07-01T09:58:34Z</time>
      </trkpt>
      <trkpt lat="44.10482" lon="5.986">
        <ele>590.18</ele>
        <time>2026-07-01T09:58:35Z</time>
      </trkpt>
      <trkpt lat="44.10491" lon="5.9859">
        <ele>590.05</ele>
        <time>2026-07-01T09:58:44Z</time>
      </trkpt>
      <trkpt lat="44.10492" lon="5.98588">
        <ele>590.21</ele>
        <time>2026-07-01T09:58:45Z</time>
      </trkpt>
      <trkpt lat="44.10506" lon="5.98571">
        <ele>588.86</ele>
        <time>2026-07-01T09:58:53Z</time>
      </trkpt>
      <trkpt lat="44.10507" lon="5.98568">
        <ele>588.75</ele>
        <time>2026-07-01T09:58:54Z</time>
      </trkpt>
      <trkpt lat="44.10509" lon="5.98566">
        <ele>588.93</ele>
        <time>2026-07-01T09:58:55Z</time>
      </trkpt>
      <trkpt lat="44.1051" lon="5.98567">
        <ele>588.97</ele>
        <time>2026-07-01T09:58:56Z</time>
      </trkpt>
      <trkpt lat="44.10512" lon="5.98568">
        <ele>588.73</ele>
        <time>2026-07-01T09:58:57Z</time>
      </trkpt>
      <trkpt lat="44.10514" lon="5.98568">
        <ele>588.56</ele>
        <time>2026-07-01T09:58:58Z</time>
      </trkpt>
      <trkpt lat="44.10516" lon="5.98567">
        <ele>588.3</ele>
        <time>2026-07-01T09:58:59Z</time>
      </trkpt>
      <trkpt lat="44.10518" lon="5.98565">
        <ele>587.78</ele>
        <time>2026-07-01T09:59:00Z</time>
      </trkpt>
      <trkpt lat="44.10522" lon="5.9856">
        <ele>586.98</ele>
        <time>2026-07-01T09:59:02Z</time>
      </trkpt>
      <trkpt lat="44.10527" lon="5.98554">
        <ele>586.82</ele>
        <time>2026-07-01T09:59:04Z</time>
      </trkpt>
      <trkpt lat="44.10528" lon="5.98552">
        <ele>586.7</ele>
        <time>2026-07-01T09:59:05Z</time>
      </trkpt>
      <trkpt lat="44.10533" lon="5.98541">
        <ele>586.77</ele>
        <time>2026-07-01T09:59:13Z</time>
      </trkpt>
      <trkpt lat="44.10533" lon="5.98538">
        <ele>586.92</ele>
        <time>2026-07-01T09:59:14Z</time>
      </trkpt>
      <trkpt lat="44.10532" lon="5.98521">
        <ele>588.27</ele>
        <time>2026-07-01T09:59:20Z</time>
      </trkpt>
      <trkpt lat="44.10532" lon="5.98518">
        <ele>588.34</ele>
        <time>2026-07-01T09:59:21Z</time>
      </trkpt>
      <trkpt lat="44.10532" lon="5.98515">
        <ele>588.93</ele>
        <time>2026-07-01T09:59:22Z</time>
      </trkpt>
      <trkpt lat="44.10531" lon="5.98513">
        <ele>589.29</ele>
        <time>2026-07-01T09:59:23Z</time>
      </trkpt>
      <trkpt lat="44.1053" lon="5.98511">
        <ele>589.5</ele>
        <time>2026-07-01T09:59:24Z</time>
      </trkpt>
      <trkpt lat="44.1053" lon="5.98508">
        <ele>589.58</ele>
        <time>2026-07-01T09:59:25Z</time>
      </trkpt>
      <trkpt lat="44.10527" lon="5.98495">
        <ele>591.62</ele>
        <time>2026-07-01T09:59:31Z</time>
      </trkpt>
      <trkpt lat="44.10526" lon="5.98493">
        <ele>592.1</ele>
        <time>2026-07-01T09:59:32Z</time>
      </trkpt>
      <trkpt lat="44.10521" lon="5.98488">
        <ele>593.1</ele>
        <time>2026-07-01T09:59:35Z</time>
      </trkpt>
      <trkpt lat="44.1052" lon="5.98486">
        <ele>593.08</ele>
        <time>2026-07-01T09:59:36Z</time>
      </trkpt>
      <trkpt lat="44.1052" lon="5.98484">
        <ele>593.25</ele>
        <time>2026-07-01T09:59:37Z</time>
      </trkpt>
      <trkpt lat="44.1052" lon="5.98482">
        <ele>593.31</ele>
        <time>2026-07-01T09:59:38Z</time>
      </trkpt>
      <trkpt lat="44.1052" lon="5.98479">
        <ele>593.75</ele>
        <time>2026-07-01T09:59:39Z</time>
      </trkpt>
      <trkpt lat="44.10518" lon="5.98473">
        <ele>594.12</ele>
        <time>2026-07-01T09:59:42Z</time>
      </trkpt>
      <trkpt lat="44.10506" lon="5.9845">
        <ele>595.09</ele>
        <time>2026-07-01T09:59:53Z</time>
      </trkpt>
      <trkpt lat="44.10496" lon="5.98428">
        <ele>597.41</ele>
        <time>2026-07-01T10:00:05Z</time>
      </trkpt>
      <trkpt lat="44.10489" lon="5.98425">
        <ele>599.23</ele>
        <time>2026-07-01T10:00:11Z</time>
      </trkpt>
      <trkpt lat="44.10488" lon="5.98423">
        <ele>599.31</ele>
        <time>2026-07-01T10:00:12Z</time>
      </trkpt>
      <trkpt lat="44.10487" lon="5.98422">
        <ele>599.4</ele>
        <time>2026-07-01T10:00:13Z</time>
      </trkpt>
      <trkpt lat="44.10486" lon="5.98421">
        <ele>599.78</ele>
        <time>2026-07-01T10:00:14Z</time>
      </trkpt>
      <trkpt lat="44.10485" lon="5.9842">
        <ele>600.04</ele>
        <time>2026-07-01T10:00:15Z</time>
      </trkpt>
      <trkpt lat="44.10467" lon="5.98409">
        <ele>602.53</ele>
        <time>2026-07-01T10:00:29Z</time>
      </trkpt>
      <trkpt lat="44.10464" lon="5.98405">
        <ele>602.44</ele>
        <time>2026-07-01T10:00:34Z</time>
      </trkpt>
      <trkpt lat="44.10462" lon="5.98403">
        <ele>602.45</ele>
        <time>2026-07-01T10:00:35Z</time>
      </trkpt>
      <trkpt lat="44.1044" lon="5.98382">
        <ele>603.48</ele>
        <time>2026-07-01T10:00:46Z</time>
      </trkpt>
      <trkpt lat="44.10434" lon="5.98381">
        <ele>604.71</ele>
        <time>2026-07-01T10:00:49Z</time>
      </trkpt>
      <trkpt lat="44.1042" lon="5.98376">
        <ele>607.71</ele>
        <time>2026-07-01T10:00:58Z</time>
      </trkpt>
      <trkpt lat="44.1041" lon="5.98374">
        <ele>609</ele>
        <time>2026-07-01T10:01:03Z</time>
      </trkpt>
      <trkpt lat="44.10409" lon="5.98373">
        <ele>609.29</ele>
        <time>2026-07-01T10:01:04Z</time>
      </trkpt>
      <trkpt lat="44.10408" lon="5.98372">
        <ele>609.46</ele>
        <time>2026-07-01T10:01:05Z</time>
      </trkpt>
      <trkpt lat="44.10407" lon="5.98371">
        <ele>609.97</ele>
        <time>2026-07-01T10:01:20Z</time>
      </trkpt>
      <trkpt lat="44.10406" lon="5.9837">
        <ele>609.46</ele>
        <time>2026-07-01T10:01:56Z</time>
      </trkpt>
      <trkpt lat="44.10406" lon="5.98371">
        <ele>609.74</ele>
        <time>2026-07-01T10:02:40Z</time>
      </trkpt>
      <trkpt lat="44.10406" lon="5.9837">
        <ele>610.19</ele>
        <time>2026-07-01T10:03:48Z</time>
      </trkpt>
      <trkpt lat="44.10407" lon="5.9837">
        <ele>608.86</ele>
        <time>2026-07-01T10:04:58Z</time>
      </trkpt>
      <trkpt lat="44.10406" lon="5.98372">
        <ele>608.69</ele>
        <time>2026-07-01T10:05:31Z</time>
      </trkpt>
      <trkpt lat="44.10405" lon="5.9837">
        <ele>609.89</ele>
        <time>2026-07-01T10:06:43Z</time>
      </trkpt>
      <trkpt lat="44.10405" lon="5.98368">
        <ele>611.69</ele>
        <time>2026-07-01T10:07:05Z</time>
      </trkpt>
      <trkpt lat="44.10404" lon="5.98367">
        <ele>612.01</ele>
        <time>2026-07-01T10:07:06Z</time>
      </trkpt>
      <trkpt lat="44.10402" lon="5.98367">
        <ele>612.07</ele>
        <time>2026-07-01T10:07:07Z</time>
      </trkpt>
      <trkpt lat="44.104" lon="5.98366">
        <ele>612.12</ele>
        <time>2026-07-01T10:07:08Z</time>
      </trkpt>
      <trkpt lat="44.10398" lon="5.98365">
        <ele>612.3</ele>
        <time>2026-07-01T10:07:09Z</time>
      </trkpt>
      <trkpt lat="44.10396" lon="5.98364">
        <ele>612.78</ele>
        <time>2026-07-01T10:07:10Z</time>
      </trkpt>
      <trkpt lat="44.10369" lon="5.98356">
        <ele>613.93</ele>
        <time>2026-07-01T10:07:24Z</time>
      </trkpt>
      <trkpt lat="44.10357" lon="5.98349">
        <ele>614.16</ele>
        <time>2026-07-01T10:07:31Z</time>
      </trkpt>
      <trkpt lat="44.10355" lon="5.98349">
        <ele>614.5</ele>
        <time>2026-07-01T10:07:32Z</time>
      </trkpt>
      <trkpt lat="44.10354" lon="5.98349">
        <ele>614.64</ele>
        <time>2026-07-01T10:07:33Z</time>
      </trkpt>
      <trkpt lat="44.10345" lon="5.9835">
        <ele>614.86</ele>
        <time>2026-07-01T10:07:38Z</time>
      </trkpt>
      <trkpt lat="44.10344" lon="5.98349">
        <ele>614.71</ele>
        <time>2026-07-01T10:07:39Z</time>
      </trkpt>
      <trkpt lat="44.10342" lon="5.98347">
        <ele>614.92</ele>
        <time>2026-07-01T10:07:40Z</time>
      </trkpt>
      <trkpt lat="44.10341" lon="5.98345">
        <ele>615.15</ele>
        <time>2026-07-01T10:07:41Z</time>
      </trkpt>
      <trkpt lat="44.1034" lon="5.98343">
        <ele>615.52</ele>
        <time>2026-07-01T10:07:42Z</time>
      </trkpt>
      <trkpt lat="44.10338" lon="5.98342">
        <ele>615.56</ele>
        <time>2026-07-01T10:07:43Z</time>
      </trkpt>
      <trkpt lat="44.1033" lon="5.98337">
        <ele>616.46</ele>
        <time>2026-07-01T10:07:48Z</time>
      </trkpt>
      <trkpt lat="44.10329" lon="5.98335">
        <ele>616.86</ele>
        <time>2026-07-01T10:07:49Z</time>
      </trkpt>
      <trkpt lat="44.10329" lon="5.98333">
        <ele>616.49</ele>
        <time>2026-07-01T10:07:50Z</time>
      </trkpt>
      <trkpt lat="44.10328" lon="5.98329">
        <ele>616.53</ele>
        <time>2026-07-01T10:07:51Z</time>
      </trkpt>
      <trkpt lat="44.10327" lon="5.98324">
        <ele>616.21</ele>
        <time>2026-07-01T10:07:52Z</time>
      </trkpt>
      <trkpt lat="44.10326" lon="5.9832">
        <ele>616.07</ele>
        <time>2026-07-01T10:07:53Z</time>
      </trkpt>
      <trkpt lat="44.10325" lon="5.98317">
        <ele>616.18</ele>
        <time>2026-07-01T10:07:54Z</time>
      </trkpt>
      <trkpt lat="44.10323" lon="5.98315">
        <ele>616.72</ele>
        <time>2026-07-01T10:07:55Z</time>
      </trkpt>
      <trkpt lat="44.10322" lon="5.98314">
        <ele>617.23</ele>
        <time>2026-07-01T10:07:56Z</time>
      </trkpt>
      <trkpt lat="44.1032" lon="5.98313">
        <ele>617.59</ele>
        <time>2026-07-01T10:07:57Z</time>
      </trkpt>
      <trkpt lat="44.10318" lon="5.98312">
        <ele>618.01</ele>
        <time>2026-07-01T10:07:58Z</time>
      </trkpt>
      <trkpt lat="44.10317" lon="5.98311">
        <ele>618.45</ele>
        <time>2026-07-01T10:07:59Z</time>
      </trkpt>
      <trkpt lat="44.10315" lon="5.9831">
        <ele>618.54</ele>
        <time>2026-07-01T10:08:00Z</time>
      </trkpt>
      <trkpt lat="44.10311" lon="5.98306">
        <ele>619.16</ele>
        <time>2026-07-01T10:08:03Z</time>
      </trkpt>
      <trkpt lat="44.10299" lon="5.98302">
        <ele>619.58</ele>
        <time>2026-07-01T10:08:10Z</time>
      </trkpt>
      <trkpt lat="44.10297" lon="5.98301">
        <ele>619.71</ele>
        <time>2026-07-01T10:08:11Z</time>
      </trkpt>
      <trkpt lat="44.10295" lon="5.983">
        <ele>619.56</ele>
        <time>2026-07-01T10:08:12Z</time>
      </trkpt>
      <trkpt lat="44.10265" lon="5.98283">
        <ele>620.82</ele>
        <time>2026-07-01T10:08:26Z</time>
      </trkpt>
      <trkpt lat="44.10263" lon="5.9828">
        <ele>619.47</ele>
        <time>2026-07-01T10:08:40Z</time>
      </trkpt>
      <trkpt lat="44.10267" lon="5.98284">
        <ele>618.83</ele>
        <time>2026-07-01T10:08:48Z</time>
      </trkpt>
      <trkpt lat="44.10271" lon="5.98294">
        <ele>619.72</ele>
        <time>2026-07-01T10:09:01Z</time>
      </trkpt>
      <trkpt lat="44.1027" lon="5.98296">
        <ele>619.47</ele>
        <time>2026-07-01T10:09:02Z</time>
      </trkpt>
      <trkpt lat="44.10269" lon="5.98298">
        <ele>619.48</ele>
        <time>2026-07-01T10:09:03Z</time>
      </trkpt>
      <trkpt lat="44.1026" lon="5.98306">
        <ele>619.11</ele>
        <time>2026-07-01T10:09:08Z</time>
      </trkpt>
      <trkpt lat="44.10259" lon="5.98308">
        <ele>619.15</ele>
        <time>2026-07-01T10:09:09Z</time>
      </trkpt>
      <trkpt lat="44.10257" lon="5.98309">
        <ele>618.94</ele>
        <time>2026-07-01T10:09:10Z</time>
      </trkpt>
      <trkpt lat="44.10255" lon="5.9831">
        <ele>618.79</ele>
        <time>2026-07-01T10:09:11Z</time>
      </trkpt>
      <trkpt lat="44.10252" lon="5.9831">
        <ele>618.55</ele>
        <time>2026-07-01T10:09:12Z</time>
      </trkpt>
      <trkpt lat="44.1025" lon="5.98311">
        <ele>618.26</ele>
        <time>2026-07-01T10:09:13Z</time>
      </trkpt>
      <trkpt lat="44.10244" lon="5.98311">
        <ele>617.65</ele>
        <time>2026-07-01T10:09:18Z</time>
      </trkpt>
      <trkpt lat="44.10242" lon="5.98311">
        <ele>617.49</ele>
        <time>2026-07-01T10:09:19Z</time>
      </trkpt>
      <trkpt lat="44.10241" lon="5.9831">
        <ele>617.54</ele>
        <time>2026-07-01T10:09:20Z</time>
      </trkpt>
      <trkpt lat="44.1024" lon="5.98308">
        <ele>617.53</ele>
        <time>2026-07-01T10:09:21Z</time>
      </trkpt>
      <trkpt lat="44.10238" lon="5.98305">
        <ele>617.62</ele>
        <time>2026-07-01T10:09:22Z</time>
      </trkpt>
      <trkpt lat="44.10236" lon="5.98304">
        <ele>617.79</ele>
        <time>2026-07-01T10:09:23Z</time>
      </trkpt>
      <trkpt lat="44.10234" lon="5.98304">
        <ele>617.71</ele>
        <time>2026-07-01T10:09:24Z</time>
      </trkpt>
      <trkpt lat="44.10232" lon="5.98304">
        <ele>617.71</ele>
        <time>2026-07-01T10:09:25Z</time>
      </trkpt>
      <trkpt lat="44.1023" lon="5.98305">
        <ele>617.45</ele>
        <time>2026-07-01T10:09:26Z</time>
      </trkpt>
      <trkpt lat="44.10228" lon="5.98306">
        <ele>617.15</ele>
        <time>2026-07-01T10:09:27Z</time>
      </trkpt>
      <trkpt lat="44.10225" lon="5.98308">
        <ele>616.98</ele>
        <time>2026-07-01T10:09:28Z</time>
      </trkpt>
      <trkpt lat="44.10223" lon="5.9831">
        <ele>616.58</ele>
        <time>2026-07-01T10:09:29Z</time>
      </trkpt>
      <trkpt lat="44.10221" lon="5.98313">
        <ele>615.95</ele>
        <time>2026-07-01T10:09:30Z</time>
      </trkpt>
      <trkpt lat="44.10219" lon="5.98315">
        <ele>615.9</ele>
        <time>2026-07-01T10:09:31Z</time>
      </trkpt>
      <trkpt lat="44.10218" lon="5.98317">
        <ele>615.54</ele>
        <time>2026-07-01T10:09:32Z</time>
      </trkpt>
      <trkpt lat="44.10216" lon="5.9832">
        <ele>615.4</ele>
        <time>2026-07-01T10:09:33Z</time>
      </trkpt>
      <trkpt lat="44.1021" lon="5.9833">
        <ele>614.38</ele>
        <time>2026-07-01T10:09:43Z</time>
      </trkpt>
      <trkpt lat="44.10201" lon="5.98345">
        <ele>612.62</ele>
        <time>2026-07-01T10:09:49Z</time>
      </trkpt>
      <trkpt lat="44.102" lon="5.9835">
        <ele>611.96</ele>
        <time>2026-07-01T10:09:50Z</time>
      </trkpt>
      <trkpt lat="44.10198" lon="5.98355">
        <ele>611.07</ele>
        <time>2026-07-01T10:09:51Z</time>
      </trkpt>
      <trkpt lat="44.10195" lon="5.98359">
        <ele>610.64</ele>
        <time>2026-07-01T10:09:52Z</time>
      </trkpt>
      <trkpt lat="44.10192" lon="5.98365">
        <ele>610.09</ele>
        <time>2026-07-01T10:09:53Z</time>
      </trkpt>
      <trkpt lat="44.1019" lon="5.98369">
        <ele>609.88</ele>
        <time>2026-07-01T10:09:54Z</time>
      </trkpt>
      <trkpt lat="44.10176" lon="5.98393">
        <ele>609.05</ele>
        <time>2026-07-01T10:10:02Z</time>
      </trkpt>
      <trkpt lat="44.10175" lon="5.98394">
        <ele>609.01</ele>
        <time>2026-07-01T10:10:03Z</time>
      </trkpt>
      <trkpt lat="44.10169" lon="5.984">
        <ele>608.99</ele>
        <time>2026-07-01T10:10:06Z</time>
      </trkpt>
      <trkpt lat="44.10167" lon="5.98402">
        <ele>609.06</ele>
        <time>2026-07-01T10:10:07Z</time>
      </trkpt>
      <trkpt lat="44.10164" lon="5.98404">
        <ele>608.85</ele>
        <time>2026-07-01T10:10:08Z</time>
      </trkpt>
      <trkpt lat="44.10162" lon="5.98406">
        <ele>608.67</ele>
        <time>2026-07-01T10:10:09Z</time>
      </trkpt>
      <trkpt lat="44.10159" lon="5.98406">
        <ele>608.61</ele>
        <time>2026-07-01T10:10:10Z</time>
      </trkpt>
      <trkpt lat="44.10155" lon="5.98407">
        <ele>608.13</ele>
        <time>2026-07-01T10:10:11Z</time>
      </trkpt>
      <trkpt lat="44.10152" lon="5.98409">
        <ele>607.82</ele>
        <time>2026-07-01T10:10:12Z</time>
      </trkpt>
      <trkpt lat="44.1015" lon="5.98412">
        <ele>607.6</ele>
        <time>2026-07-01T10:10:13Z</time>
      </trkpt>
      <trkpt lat="44.10143" lon="5.98422">
        <ele>607.51</ele>
        <time>2026-07-01T10:10:16Z</time>
      </trkpt>
      <trkpt lat="44.10139" lon="5.98424">
        <ele>607.35</ele>
        <time>2026-07-01T10:10:17Z</time>
      </trkpt>
      <trkpt lat="44.10127" lon="5.98426">
        <ele>605.39</ele>
        <time>2026-07-01T10:10:20Z</time>
      </trkpt>
      <trkpt lat="44.10125" lon="5.98424">
        <ele>604.89</ele>
        <time>2026-07-01T10:10:21Z</time>
      </trkpt>
      <trkpt lat="44.10124" lon="5.98421">
        <ele>604.47</ele>
        <time>2026-07-01T10:10:22Z</time>
      </trkpt>
      <trkpt lat="44.10122" lon="5.98422">
        <ele>604.06</ele>
        <time>2026-07-01T10:10:24Z</time>
      </trkpt>
      <trkpt lat="44.10117" lon="5.98422">
        <ele>603.8</ele>
        <time>2026-07-01T10:10:31Z</time>
      </trkpt>
      <trkpt lat="44.10101" lon="5.98424">
        <ele>603.55</ele>
        <time>2026-07-01T10:10:51Z</time>
      </trkpt>
      <trkpt lat="44.10098" lon="5.98426">
        <ele>603.26</ele>
        <time>2026-07-01T10:10:52Z</time>
      </trkpt>
      <trkpt lat="44.10096" lon="5.98428">
        <ele>603.31</ele>
        <time>2026-07-01T10:10:53Z</time>
      </trkpt>
      <trkpt lat="44.10094" lon="5.98428">
        <ele>602.96</ele>
        <time>2026-07-01T10:10:54Z</time>
      </trkpt>
      <trkpt lat="44.10092" lon="5.98429">
        <ele>602.7</ele>
        <time>2026-07-01T10:10:55Z</time>
      </trkpt>
      <trkpt lat="44.10089" lon="5.9843">
        <ele>602.13</ele>
        <time>2026-07-01T10:10:56Z</time>
      </trkpt>
      <trkpt lat="44.10085" lon="5.9843">
        <ele>601.48</ele>
        <time>2026-07-01T10:10:57Z</time>
      </trkpt>
      <trkpt lat="44.1008" lon="5.98429">
        <ele>600.45</ele>
        <time>2026-07-01T10:10:58Z</time>
      </trkpt>
      <trkpt lat="44.10076" lon="5.98427">
        <ele>599.69</ele>
        <time>2026-07-01T10:10:59Z</time>
      </trkpt>
      <trkpt lat="44.10072" lon="5.98424">
        <ele>599.28</ele>
        <time>2026-07-01T10:11:00Z</time>
      </trkpt>
      <trkpt lat="44.10068" lon="5.98422">
        <ele>598.3</ele>
        <time>2026-07-01T10:11:01Z</time>
      </trkpt>
      <trkpt lat="44.10064" lon="5.98422">
        <ele>597.66</ele>
        <time>2026-07-01T10:11:02Z</time>
      </trkpt>
      <trkpt lat="44.1006" lon="5.98423">
        <ele>597.63</ele>
        <time>2026-07-01T10:11:03Z</time>
      </trkpt>
      <trkpt lat="44.10056" lon="5.98425">
        <ele>597.43</ele>
        <time>2026-07-01T10:11:04Z</time>
      </trkpt>
      <trkpt lat="44.10053" lon="5.98427">
        <ele>597.04</ele>
        <time>2026-07-01T10:11:05Z</time>
      </trkpt>
      <trkpt lat="44.1005" lon="5.98428">
        <ele>596.76</ele>
        <time>2026-07-01T10:11:06Z</time>
      </trkpt>
      <trkpt lat="44.10047" lon="5.98429">
        <ele>596.17</ele>
        <time>2026-07-01T10:11:07Z</time>
      </trkpt>
      <trkpt lat="44.10044" lon="5.98429">
        <ele>595.24</ele>
        <time>2026-07-01T10:11:08Z</time>
      </trkpt>
      <trkpt lat="44.10041" lon="5.9843">
        <ele>594.73</ele>
        <time>2026-07-01T10:11:09Z</time>
      </trkpt>
      <trkpt lat="44.10024" lon="5.98439">
        <ele>590.71</ele>
        <time>2026-07-01T10:11:16Z</time>
      </trkpt>
      <trkpt lat="44.10022" lon="5.98441">
        <ele>590.43</ele>
        <time>2026-07-01T10:11:17Z</time>
      </trkpt>
      <trkpt lat="44.10021" lon="5.98443">
        <ele>590.09</ele>
        <time>2026-07-01T10:11:18Z</time>
      </trkpt>
      <trkpt lat="44.10016" lon="5.98449">
        <ele>590.08</ele>
        <time>2026-07-01T10:11:22Z</time>
      </trkpt>
      <trkpt lat="44.09999" lon="5.98464">
        <ele>589.75</ele>
        <time>2026-07-01T10:11:31Z</time>
      </trkpt>
      <trkpt lat="44.0998" lon="5.98473">
        <ele>587.79</ele>
        <time>2026-07-01T10:11:38Z</time>
      </trkpt>
      <trkpt lat="44.09976" lon="5.98475">
        <ele>587.49</ele>
        <time>2026-07-01T10:11:39Z</time>
      </trkpt>
      <trkpt lat="44.09972" lon="5.98477">
        <ele>587.37</ele>
        <time>2026-07-01T10:11:40Z</time>
      </trkpt>
      <trkpt lat="44.09969" lon="5.9848">
        <ele>587.23</ele>
        <time>2026-07-01T10:11:41Z</time>
      </trkpt>
      <trkpt lat="44.09967" lon="5.98482">
        <ele>587.31</ele>
        <time>2026-07-01T10:11:42Z</time>
      </trkpt>
      <trkpt lat="44.09964" lon="5.98484">
        <ele>586.9</ele>
        <time>2026-07-01T10:11:43Z</time>
      </trkpt>
      <trkpt lat="44.09961" lon="5.98487">
        <ele>586.87</ele>
        <time>2026-07-01T10:11:44Z</time>
      </trkpt>
      <trkpt lat="44.09958" lon="5.98488">
        <ele>586.53</ele>
        <time>2026-07-01T10:11:45Z</time>
      </trkpt>
      <trkpt lat="44.09955" lon="5.98491">
        <ele>586.26</ele>
        <time>2026-07-01T10:11:46Z</time>
      </trkpt>
      <trkpt lat="44.09952" lon="5.98492">
        <ele>585.29</ele>
        <time>2026-07-01T10:11:47Z</time>
      </trkpt>
      <trkpt lat="44.09947" lon="5.98494">
        <ele>584.12</ele>
        <time>2026-07-01T10:11:48Z</time>
      </trkpt>
      <trkpt lat="44.09943" lon="5.98495">
        <ele>583.55</ele>
        <time>2026-07-01T10:11:49Z</time>
      </trkpt>
      <trkpt lat="44.09939" lon="5.98495">
        <ele>583.28</ele>
        <time>2026-07-01T10:11:50Z</time>
      </trkpt>
      <trkpt lat="44.09935" lon="5.98495">
        <ele>583.22</ele>
        <time>2026-07-01T10:11:51Z</time>
      </trkpt>
      <trkpt lat="44.09933" lon="5.98495">
        <ele>583.04</ele>
        <time>2026-07-01T10:11:52Z</time>
      </trkpt>
      <trkpt lat="44.09931" lon="5.98495">
        <ele>583.35</ele>
        <time>2026-07-01T10:11:53Z</time>
      </trkpt>
      <trkpt lat="44.09929" lon="5.98495">
        <ele>583.33</ele>
        <time>2026-07-01T10:11:54Z</time>
      </trkpt>
      <trkpt lat="44.09924" lon="5.98494">
        <ele>583.78</ele>
        <time>2026-07-01T10:11:56Z</time>
      </trkpt>
      <trkpt lat="44.09911" lon="5.98497">
        <ele>583.39</ele>
        <time>2026-07-01T10:12:02Z</time>
      </trkpt>
      <trkpt lat="44.09909" lon="5.98498">
        <ele>582.96</ele>
        <time>2026-07-01T10:12:03Z</time>
      </trkpt>
      <trkpt lat="44.09907" lon="5.985">
        <ele>582.59</ele>
        <time>2026-07-01T10:12:04Z</time>
      </trkpt>
      <trkpt lat="44.09904" lon="5.98503">
        <ele>582.43</ele>
        <time>2026-07-01T10:12:05Z</time>
      </trkpt>
      <trkpt lat="44.09903" lon="5.98505">
        <ele>582.23</ele>
        <time>2026-07-01T10:12:06Z</time>
      </trkpt>
      <trkpt lat="44.09901" lon="5.98507">
        <ele>581.98</ele>
        <time>2026-07-01T10:12:07Z</time>
      </trkpt>
      <trkpt lat="44.09895" lon="5.98516">
        <ele>580.42</ele>
        <time>2026-07-01T10:12:18Z</time>
      </trkpt>
      <trkpt lat="44.09893" lon="5.98518">
        <ele>578.3</ele>
        <time>2026-07-01T10:12:19Z</time>
      </trkpt>
      <trkpt lat="44.09877" lon="5.98519">
        <ele>575.22</ele>
        <time>2026-07-01T10:12:24Z</time>
      </trkpt>
      <trkpt lat="44.09853" lon="5.98521">
        <ele>574.34</ele>
        <time>2026-07-01T10:12:31Z</time>
      </trkpt>
      <trkpt lat="44.09841" lon="5.98526">
        <ele>576.33</ele>
        <time>2026-07-01T10:12:41Z</time>
      </trkpt>
      <trkpt lat="44.09837" lon="5.98525">
        <ele>574.38</ele>
        <time>2026-07-01T10:12:44Z</time>
      </trkpt>
      <trkpt lat="44.09835" lon="5.98524">
        <ele>574.04</ele>
        <time>2026-07-01T10:12:45Z</time>
      </trkpt>
      <trkpt lat="44.09833" lon="5.98524">
        <ele>573.7</ele>
        <time>2026-07-01T10:12:46Z</time>
      </trkpt>
      <trkpt lat="44.09831" lon="5.98525">
        <ele>573.5</ele>
        <time>2026-07-01T10:12:47Z</time>
      </trkpt>
      <trkpt lat="44.09829" lon="5.98525">
        <ele>573.23</ele>
        <time>2026-07-01T10:12:48Z</time>
      </trkpt>
      <trkpt lat="44.09826" lon="5.98525">
        <ele>573.02</ele>
        <time>2026-07-01T10:12:52Z</time>
      </trkpt>
      <trkpt lat="44.09824" lon="5.98525">
        <ele>573.1</ele>
        <time>2026-07-01T10:12:53Z</time>
      </trkpt>
      <trkpt lat="44.09822" lon="5.98524">
        <ele>573.07</ele>
        <time>2026-07-01T10:12:54Z</time>
      </trkpt>
      <trkpt lat="44.0982" lon="5.98525">
        <ele>573.07</ele>
        <time>2026-07-01T10:12:55Z</time>
      </trkpt>
      <trkpt lat="44.09818" lon="5.98526">
        <ele>573.17</ele>
        <time>2026-07-01T10:12:56Z</time>
      </trkpt>
      <trkpt lat="44.09802" lon="5.98531">
        <ele>575.68</ele>
        <time>2026-07-01T10:13:04Z</time>
      </trkpt>
      <trkpt lat="44.098" lon="5.98531">
        <ele>575.51</ele>
        <time>2026-07-01T10:13:05Z</time>
      </trkpt>
      <trkpt lat="44.09798" lon="5.9853">
        <ele>574.78</ele>
        <time>2026-07-01T10:13:06Z</time>
      </trkpt>
      <trkpt lat="44.09795" lon="5.9853">
        <ele>573.66</ele>
        <time>2026-07-01T10:13:07Z</time>
      </trkpt>
      <trkpt lat="44.09793" lon="5.98528">
        <ele>572.89</ele>
        <time>2026-07-01T10:13:08Z</time>
      </trkpt>
      <trkpt lat="44.0979" lon="5.98526">
        <ele>572.16</ele>
        <time>2026-07-01T10:13:09Z</time>
      </trkpt>
      <trkpt lat="44.09787" lon="5.98523">
        <ele>571.52</ele>
        <time>2026-07-01T10:13:10Z</time>
      </trkpt>
      <trkpt lat="44.09784" lon="5.9852">
        <ele>571.36</ele>
        <time>2026-07-01T10:13:11Z</time>
      </trkpt>
      <trkpt lat="44.09767" lon="5.98506">
        <ele>572.83</ele>
        <time>2026-07-01T10:13:21Z</time>
      </trkpt>
      <trkpt lat="44.09765" lon="5.98506">
        <ele>571.96</ele>
        <time>2026-07-01T10:13:22Z</time>
      </trkpt>
      <trkpt lat="44.09761" lon="5.98506">
        <ele>571.29</ele>
        <time>2026-07-01T10:13:23Z</time>
      </trkpt>
      <trkpt lat="44.09759" lon="5.98507">
        <ele>570.84</ele>
        <time>2026-07-01T10:13:24Z</time>
      </trkpt>
      <trkpt lat="44.09757" lon="5.98508">
        <ele>571.13</ele>
        <time>2026-07-01T10:13:25Z</time>
      </trkpt>
      <trkpt lat="44.09753" lon="5.98508">
        <ele>570.55</ele>
        <time>2026-07-01T10:13:26Z</time>
      </trkpt>
      <trkpt lat="44.0975" lon="5.98509">
        <ele>570.58</ele>
        <time>2026-07-01T10:13:27Z</time>
      </trkpt>
      <trkpt lat="44.09748" lon="5.98509">
        <ele>570.36</ele>
        <time>2026-07-01T10:13:28Z</time>
      </trkpt>
      <trkpt lat="44.09719" lon="5.98521">
        <ele>571.36</ele>
        <time>2026-07-01T10:13:41Z</time>
      </trkpt>
      <trkpt lat="44.09702" lon="5.98526">
        <ele>568.57</ele>
        <time>2026-07-01T10:13:47Z</time>
      </trkpt>
      <trkpt lat="44.09684" lon="5.98533">
        <ele>566.76</ele>
        <time>2026-07-01T10:13:55Z</time>
      </trkpt>
      <trkpt lat="44.09671" lon="5.9854">
        <ele>564.56</ele>
        <time>2026-07-01T10:13:58Z</time>
      </trkpt>
      <trkpt lat="44.09666" lon="5.98541">
        <ele>564.46</ele>
        <time>2026-07-01T10:13:59Z</time>
      </trkpt>
      <trkpt lat="44.09662" lon="5.98543">
        <ele>564.13</ele>
        <time>2026-07-01T10:14:00Z</time>
      </trkpt>
      <trkpt lat="44.09657" lon="5.98545">
        <ele>564.32</ele>
        <time>2026-07-01T10:14:01Z</time>
      </trkpt>
      <trkpt lat="44.09653" lon="5.98546">
        <ele>564.28</ele>
        <time>2026-07-01T10:14:02Z</time>
      </trkpt>
      <trkpt lat="44.09648" lon="5.98548">
        <ele>564.25</ele>
        <time>2026-07-01T10:14:03Z</time>
      </trkpt>
      <trkpt lat="44.09628" lon="5.98555">
        <ele>563.29</ele>
        <time>2026-07-01T10:14:12Z</time>
      </trkpt>
      <trkpt lat="44.09627" lon="5.98556">
        <ele>563.32</ele>
        <time>2026-07-01T10:14:16Z</time>
      </trkpt>
      <trkpt lat="44.09625" lon="5.98558">
        <ele>563.32</ele>
        <time>2026-07-01T10:14:17Z</time>
      </trkpt>
      <trkpt lat="44.09624" lon="5.98559">
        <ele>563.6</ele>
        <time>2026-07-01T10:14:18Z</time>
      </trkpt>
      <trkpt lat="44.0962" lon="5.98564">
        <ele>563.21</ele>
        <time>2026-07-01T10:14:31Z</time>
      </trkpt>
      <trkpt lat="44.09617" lon="5.98568">
        <ele>562.69</ele>
        <time>2026-07-01T10:14:51Z</time>
      </trkpt>
      <trkpt lat="44.09616" lon="5.9857">
        <ele>562.69</ele>
        <time>2026-07-01T10:14:52Z</time>
      </trkpt>
      <trkpt lat="44.09615" lon="5.98572">
        <ele>562.69</ele>
        <time>2026-07-01T10:14:53Z</time>
      </trkpt>
      <trkpt lat="44.09614" lon="5.98574">
        <ele>562.16</ele>
        <time>2026-07-01T10:14:54Z</time>
      </trkpt>
      <trkpt lat="44.09614" lon="5.98577">
        <ele>562.19</ele>
        <time>2026-07-01T10:14:55Z</time>
      </trkpt>
      <trkpt lat="44.09613" lon="5.98579">
        <ele>562.1</ele>
        <time>2026-07-01T10:14:56Z</time>
      </trkpt>
      <trkpt lat="44.09611" lon="5.98582">
        <ele>562.19</ele>
        <time>2026-07-01T10:14:57Z</time>
      </trkpt>
      <trkpt lat="44.0961" lon="5.98585">
        <ele>562.24</ele>
        <time>2026-07-01T10:14:58Z</time>
      </trkpt>
      <trkpt lat="44.09608" lon="5.98589">
        <ele>562.36</ele>
        <time>2026-07-01T10:14:59Z</time>
      </trkpt>
      <trkpt lat="44.09606" lon="5.98592">
        <ele>562.13</ele>
        <time>2026-07-01T10:15:00Z</time>
      </trkpt>
      <trkpt lat="44.09575" lon="5.98637">
        <ele>562.93</ele>
        <time>2026-07-01T10:15:13Z</time>
      </trkpt>
      <trkpt lat="44.09541" lon="5.98671">
        <ele>562.33</ele>
        <time>2026-07-01T10:15:24Z</time>
      </trkpt>
      <trkpt lat="44.09538" lon="5.98675">
        <ele>562.2</ele>
        <time>2026-07-01T10:15:25Z</time>
      </trkpt>
      <trkpt lat="44.09533" lon="5.98684">
        <ele>561.72</ele>
        <time>2026-07-01T10:15:27Z</time>
      </trkpt>
      <trkpt lat="44.09531" lon="5.9869">
        <ele>561.43</ele>
        <time>2026-07-01T10:15:28Z</time>
      </trkpt>
      <trkpt lat="44.09513" lon="5.98743">
        <ele>559.72</ele>
        <time>2026-07-01T10:15:36Z</time>
      </trkpt>
      <trkpt lat="44.09497" lon="5.98781">
        <ele>558.39</ele>
        <time>2026-07-01T10:15:41Z</time>
      </trkpt>
      <trkpt lat="44.09493" lon="5.98788">
        <ele>558.08</ele>
        <time>2026-07-01T10:15:42Z</time>
      </trkpt>
      <trkpt lat="44.09489" lon="5.98794">
        <ele>558</ele>
        <time>2026-07-01T10:15:43Z</time>
      </trkpt>
      <trkpt lat="44.09441" lon="5.98845">
        <ele>554.93</ele>
        <time>2026-07-01T10:15:53Z</time>
      </trkpt>
      <trkpt lat="44.09408" lon="5.98875">
        <ele>551.45</ele>
        <time>2026-07-01T10:16:01Z</time>
      </trkpt>
      <trkpt lat="44.09403" lon="5.9888">
        <ele>551.16</ele>
        <time>2026-07-01T10:16:02Z</time>
      </trkpt>
      <trkpt lat="44.09381" lon="5.98906">
        <ele>549.81</ele>
        <time>2026-07-01T10:16:07Z</time>
      </trkpt>
      <trkpt lat="44.09377" lon="5.98909">
        <ele>549.54</ele>
        <time>2026-07-01T10:16:08Z</time>
      </trkpt>
      <trkpt lat="44.09363" lon="5.98919">
        <ele>548.69</ele>
        <time>2026-07-01T10:16:12Z</time>
      </trkpt>
      <trkpt lat="44.09358" lon="5.98922">
        <ele>548.21</ele>
        <time>2026-07-01T10:16:13Z</time>
      </trkpt>
      <trkpt lat="44.09352" lon="5.98924">
        <ele>547.92</ele>
        <time>2026-07-01T10:16:14Z</time>
      </trkpt>
      <trkpt lat="44.09346" lon="5.98926">
        <ele>547.39</ele>
        <time>2026-07-01T10:16:15Z</time>
      </trkpt>
      <trkpt lat="44.0934" lon="5.98929">
        <ele>547.27</ele>
        <time>2026-07-01T10:16:16Z</time>
      </trkpt>
      <trkpt lat="44.09324" lon="5.98937">
        <ele>545.32</ele>
        <time>2026-07-01T10:16:19Z</time>
      </trkpt>
      <trkpt lat="44.09316" lon="5.98943">
        <ele>544.11</ele>
        <time>2026-07-01T10:16:21Z</time>
      </trkpt>
      <trkpt lat="44.09312" lon="5.98944">
        <ele>543.81</ele>
        <time>2026-07-01T10:16:22Z</time>
      </trkpt>
      <trkpt lat="44.09291" lon="5.98949">
        <ele>540.29</ele>
        <time>2026-07-01T10:16:26Z</time>
      </trkpt>
      <trkpt lat="44.09288" lon="5.9895">
        <ele>540.08</ele>
        <time>2026-07-01T10:16:27Z</time>
      </trkpt>
      <trkpt lat="44.09276" lon="5.98948">
        <ele>538.54</ele>
        <time>2026-07-01T10:16:31Z</time>
      </trkpt>
      <trkpt lat="44.09273" lon="5.9895">
        <ele>538.39</ele>
        <time>2026-07-01T10:16:32Z</time>
      </trkpt>
      <trkpt lat="44.0927" lon="5.98953">
        <ele>539.28</ele>
        <time>2026-07-01T10:16:33Z</time>
      </trkpt>
      <trkpt lat="44.09269" lon="5.98956">
        <ele>538.84</ele>
        <time>2026-07-01T10:16:34Z</time>
      </trkpt>
      <trkpt lat="44.09267" lon="5.9896">
        <ele>539.44</ele>
        <time>2026-07-01T10:16:35Z</time>
      </trkpt>
      <trkpt lat="44.09266" lon="5.98962">
        <ele>539.19</ele>
        <time>2026-07-01T10:16:36Z</time>
      </trkpt>
      <trkpt lat="44.09265" lon="5.98964">
        <ele>539.04</ele>
        <time>2026-07-01T10:16:48Z</time>
      </trkpt>
      <trkpt lat="44.09265" lon="5.98968">
        <ele>539.88</ele>
        <time>2026-07-01T10:16:58Z</time>
      </trkpt>
      <trkpt lat="44.09265" lon="5.98972">
        <ele>539.97</ele>
        <time>2026-07-01T10:16:59Z</time>
      </trkpt>
      <trkpt lat="44.09262" lon="5.99025">
        <ele>540.79</ele>
        <time>2026-07-01T10:17:11Z</time>
      </trkpt>
      <trkpt lat="44.09263" lon="5.99094">
        <ele>540.64</ele>
        <time>2026-07-01T10:17:24Z</time>
      </trkpt>
      <trkpt lat="44.0926" lon="5.99213">
        <ele>539.52</ele>
        <time>2026-07-01T10:17:42Z</time>
      </trkpt>
      <trkpt lat="44.09267" lon="5.9928">
        <ele>537.4</ele>
        <time>2026-07-01T10:17:52Z</time>
      </trkpt>
      <trkpt lat="44.09274" lon="5.99306">
        <ele>536.97</ele>
        <time>2026-07-01T10:17:59Z</time>
      </trkpt>
      <trkpt lat="44.09276" lon="5.99306">
        <ele>536.77</ele>
        <time>2026-07-01T10:18:00Z</time>
      </trkpt>
      <trkpt lat="44.09276" lon="5.99302">
        <ele>536.67</ele>
        <time>2026-07-01T10:18:02Z</time>
      </trkpt>
      <trkpt lat="44.09274" lon="5.99299">
        <ele>536.4</ele>
        <time>2026-07-01T10:18:03Z</time>
      </trkpt>
      <trkpt lat="44.09272" lon="5.99296">
        <ele>536.45</ele>
        <time>2026-07-01T10:18:04Z</time>
      </trkpt>
      <trkpt lat="44.09263" lon="5.99281">
        <ele>536.59</ele>
        <time>2026-07-01T10:18:10Z</time>
      </trkpt>
      <trkpt lat="44.09263" lon="5.99278">
        <ele>536.59</ele>
        <time>2026-07-01T10:18:11Z</time>
      </trkpt>
      <trkpt lat="44.09264" lon="5.99276">
        <ele>536.36</ele>
        <time>2026-07-01T10:18:12Z</time>
      </trkpt>
      <trkpt lat="44.09265" lon="5.99273">
        <ele>536.48</ele>
        <time>2026-07-01T10:18:21Z</time>
      </trkpt>
      <trkpt lat="44.09265" lon="5.99272">
        <ele>536.76</ele>
        <time>2026-07-01T10:18:36Z</time>
      </trkpt>
      <trkpt lat="44.09267" lon="5.99273">
        <ele>536.74</ele>
        <time>2026-07-01T10:18:40Z</time>
      </trkpt>
      <trkpt lat="44.09269" lon="5.99276">
        <ele>536.65</ele>
        <time>2026-07-01T10:18:42Z</time>
      </trkpt>
      <trkpt lat="44.0927" lon="5.9928">
        <ele>536.65</ele>
        <time>2026-07-01T10:18:43Z</time>
      </trkpt>
      <trkpt lat="44.09271" lon="5.99283">
        <ele>536.73</ele>
        <time>2026-07-01T10:18:44Z</time>
      </trkpt>
      <trkpt lat="44.09289" lon="5.99326">
        <ele>537.35</ele>
        <time>2026-07-01T10:18:55Z</time>
      </trkpt>
      <trkpt lat="44.09327" lon="5.99393">
        <ele>535.88</ele>
        <time>2026-07-01T10:19:09Z</time>
      </trkpt>
      <trkpt lat="44.09367" lon="5.9945">
        <ele>534.77</ele>
        <time>2026-07-01T10:19:21Z</time>
      </trkpt>
      <trkpt lat="44.09413" lon="5.99536">
        <ele>534.97</ele>
        <time>2026-07-01T10:19:37Z</time>
      </trkpt>
      <trkpt lat="44.09418" lon="5.99554">
        <ele>534.51</ele>
        <time>2026-07-01T10:19:40Z</time>
      </trkpt>
      <trkpt lat="44.09427" lon="5.99576">
        <ele>534.2</ele>
        <time>2026-07-01T10:19:44Z</time>
      </trkpt>
      <trkpt lat="44.09441" lon="5.996">
        <ele>532.92</ele>
        <time>2026-07-01T10:19:48Z</time>
      </trkpt>
      <trkpt lat="44.09455" lon="5.99623">
        <ele>531.18</ele>
        <time>2026-07-01T10:19:51Z</time>
      </trkpt>
      <trkpt lat="44.09459" lon="5.99633">
        <ele>530.52</ele>
        <time>2026-07-01T10:19:52Z</time>
      </trkpt>
      <trkpt lat="44.09471" lon="5.99695">
        <ele>527.42</ele>
        <time>2026-07-01T10:19:57Z</time>
      </trkpt>
      <trkpt lat="44.09481" lon="5.99777">
        <ele>523.67</ele>
        <time>2026-07-01T10:20:03Z</time>
      </trkpt>
      <trkpt lat="44.09484" lon="5.99816">
        <ele>520.01</ele>
        <time>2026-07-01T10:20:06Z</time>
      </trkpt>
      <trkpt lat="44.09487" lon="5.99864">
        <ele>516.83</ele>
        <time>2026-07-01T10:20:11Z</time>
      </trkpt>
      <trkpt lat="44.09489" lon="5.99873">
        <ele>516.51</ele>
        <time>2026-07-01T10:20:12Z</time>
      </trkpt>
      <trkpt lat="44.09492" lon="5.99882">
        <ele>516.21</ele>
        <time>2026-07-01T10:20:13Z</time>
      </trkpt>
      <trkpt lat="44.09496" lon="5.99891">
        <ele>515.92</ele>
        <time>2026-07-01T10:20:14Z</time>
      </trkpt>
      <trkpt lat="44.09513" lon="5.99927">
        <ele>512.53</ele>
        <time>2026-07-01T10:20:18Z</time>
      </trkpt>
      <trkpt lat="44.09519" lon="5.99942">
        <ele>510.91</ele>
        <time>2026-07-01T10:20:20Z</time>
      </trkpt>
      <trkpt lat="44.09521" lon="5.99986">
        <ele>508.7</ele>
        <time>2026-07-01T10:20:29Z</time>
      </trkpt>
      <trkpt lat="44.09519" lon="5.9999">
        <ele>508.38</ele>
        <time>2026-07-01T10:20:31Z</time>
      </trkpt>
      <trkpt lat="44.09518" lon="5.99991">
        <ele>508.36</ele>
        <time>2026-07-01T10:20:32Z</time>
      </trkpt>
      <trkpt lat="44.09518" lon="5.99991">
        <ele>508.26</ele>
        <time>2026-07-01T10:20:44Z</time>
      </trkpt>
      <trkpt lat="44.09519" lon="5.99994">
        <ele>507.47</ele>
        <time>2026-07-01T10:21:17Z</time>
      </trkpt>
      <trkpt lat="44.0952" lon="5.99995">
        <ele>507.17</ele>
        <time>2026-07-01T10:21:18Z</time>
      </trkpt>
      <trkpt lat="44.09521" lon="5.99994">
        <ele>507.16</ele>
        <time>2026-07-01T10:21:19Z</time>
      </trkpt>
      <trkpt lat="44.09522" lon="5.99992">
        <ele>507.24</ele>
        <time>2026-07-01T10:21:20Z</time>
      </trkpt>
      <trkpt lat="44.09522" lon="5.99988">
        <ele>507.44</ele>
        <time>2026-07-01T10:21:21Z</time>
      </trkpt>
      <trkpt lat="44.09522" lon="5.99985">
        <ele>507.82</ele>
        <time>2026-07-01T10:21:22Z</time>
      </trkpt>
      <trkpt lat="44.09522" lon="5.99981">
        <ele>507.91</ele>
        <time>2026-07-01T10:21:23Z</time>
      </trkpt>
      <trkpt lat="44.09522" lon="5.99977">
        <ele>508.11</ele>
        <time>2026-07-01T10:21:24Z</time>
      </trkpt>
      <trkpt lat="44.09522" lon="5.99974">
        <ele>508</ele>
        <time>2026-07-01T10:21:25Z</time>
      </trkpt>
      <trkpt lat="44.09519" lon="5.99954">
        <ele>509.06</ele>
        <time>2026-07-01T10:21:32Z</time>
      </trkpt>
      <trkpt lat="44.09518" lon="5.99953">
        <ele>508.85</ele>
        <time>2026-07-01T10:21:47Z</time>
      </trkpt>
      <trkpt lat="44.09517" lon="5.99954">
        <ele>509.24</ele>
        <time>2026-07-01T10:21:51Z</time>
      </trkpt>
      <trkpt lat="44.09517" lon="5.99955">
        <ele>509.43</ele>
        <time>2026-07-01T10:21:52Z</time>
      </trkpt>
      <trkpt lat="44.09517" lon="5.99957">
        <ele>509.57</ele>
        <time>2026-07-01T10:21:53Z</time>
      </trkpt>
      <trkpt lat="44.09518" lon="5.99959">
        <ele>509.51</ele>
        <time>2026-07-01T10:21:54Z</time>
      </trkpt>
      <trkpt lat="44.09519" lon="5.99961">
        <ele>509.42</ele>
        <time>2026-07-01T10:21:55Z</time>
      </trkpt>
      <trkpt lat="44.09522" lon="5.99968">
        <ele>509.13</ele>
        <time>2026-07-01T10:21:57Z</time>
      </trkpt>
      <trkpt lat="44.09523" lon="5.99973">
        <ele>508.97</ele>
        <time>2026-07-01T10:21:58Z</time>
      </trkpt>
      <trkpt lat="44.09523" lon="5.99977">
        <ele>508.78</ele>
        <time>2026-07-01T10:21:59Z</time>
      </trkpt>
      <trkpt lat="44.09523" lon="5.99983">
        <ele>508.67</ele>
        <time>2026-07-01T10:22:00Z</time>
      </trkpt>
      <trkpt lat="44.09522" lon="5.9999">
        <ele>508.32</ele>
        <time>2026-07-01T10:22:01Z</time>
      </trkpt>
      <trkpt lat="44.09521" lon="5.99997">
        <ele>507.93</ele>
        <time>2026-07-01T10:22:02Z</time>
      </trkpt>
      <trkpt lat="44.09518" lon="6.00109">
        <ele>504.77</ele>
        <time>2026-07-01T10:22:14Z</time>
      </trkpt>
      <trkpt lat="44.09521" lon="6.00176">
        <ele>501.62</ele>
        <time>2026-07-01T10:22:20Z</time>
      </trkpt>
      <trkpt lat="44.09526" lon="6.00229">
        <ele>499.5</ele>
        <time>2026-07-01T10:22:25Z</time>
      </trkpt>
      <trkpt lat="44.09528" lon="6.00237">
        <ele>499.23</ele>
        <time>2026-07-01T10:22:26Z</time>
      </trkpt>
      <trkpt lat="44.0953" lon="6.00245">
        <ele>498.78</ele>
        <time>2026-07-01T10:22:27Z</time>
      </trkpt>
      <trkpt lat="44.09532" lon="6.00253">
        <ele>498.4</ele>
        <time>2026-07-01T10:22:28Z</time>
      </trkpt>
      <trkpt lat="44.09536" lon="6.0026">
        <ele>498.23</ele>
        <time>2026-07-01T10:22:29Z</time>
      </trkpt>
      <trkpt lat="44.0954" lon="6.00267">
        <ele>497.98</ele>
        <time>2026-07-01T10:22:30Z</time>
      </trkpt>
      <trkpt lat="44.09545" lon="6.00274">
        <ele>496.97</ele>
        <time>2026-07-01T10:22:31Z</time>
      </trkpt>
      <trkpt lat="44.09577" lon="6.0031">
        <ele>495.12</ele>
        <time>2026-07-01T10:22:36Z</time>
      </trkpt>
      <trkpt lat="44.09605" lon="6.00335">
        <ele>492.11</ele>
        <time>2026-07-01T10:22:40Z</time>
      </trkpt>
      <trkpt lat="44.09611" lon="6.00343">
        <ele>491.92</ele>
        <time>2026-07-01T10:22:41Z</time>
      </trkpt>
      <trkpt lat="44.09616" lon="6.00352">
        <ele>491.31</ele>
        <time>2026-07-01T10:22:42Z</time>
      </trkpt>
      <trkpt lat="44.09621" lon="6.00362">
        <ele>491.06</ele>
        <time>2026-07-01T10:22:43Z</time>
      </trkpt>
      <trkpt lat="44.09626" lon="6.00372">
        <ele>490.84</ele>
        <time>2026-07-01T10:22:44Z</time>
      </trkpt>
      <trkpt lat="44.0963" lon="6.00382">
        <ele>490.3</ele>
        <time>2026-07-01T10:22:45Z</time>
      </trkpt>
      <trkpt lat="44.09634" lon="6.00393">
        <ele>489.87</ele>
        <time>2026-07-01T10:22:46Z</time>
      </trkpt>
      <trkpt lat="44.09638" lon="6.00404">
        <ele>489.53</ele>
        <time>2026-07-01T10:22:47Z</time>
      </trkpt>
      <trkpt lat="44.09658" lon="6.00477">
        <ele>487.15</ele>
        <time>2026-07-01T10:22:55Z</time>
      </trkpt>
      <trkpt lat="44.09658" lon="6.00482">
        <ele>487.08</ele>
        <time>2026-07-01T10:22:56Z</time>
      </trkpt>
      <trkpt lat="44.09657" lon="6.00486">
        <ele>486.8</ele>
        <time>2026-07-01T10:22:57Z</time>
      </trkpt>
      <trkpt lat="44.09656" lon="6.00489">
        <ele>486.75</ele>
        <time>2026-07-01T10:22:58Z</time>
      </trkpt>
      <trkpt lat="44.09654" lon="6.00492">
        <ele>486.55</ele>
        <time>2026-07-01T10:23:02Z</time>
      </trkpt>
      <trkpt lat="44.09652" lon="6.00493">
        <ele>486.51</ele>
        <time>2026-07-01T10:23:03Z</time>
      </trkpt>
      <trkpt lat="44.0965" lon="6.00495">
        <ele>486.26</ele>
        <time>2026-07-01T10:23:04Z</time>
      </trkpt>
      <trkpt lat="44.09625" lon="6.00508">
        <ele>485.78</ele>
        <time>2026-07-01T10:23:11Z</time>
      </trkpt>
      <trkpt lat="44.09588" lon="6.0052">
        <ele>484.78</ele>
        <time>2026-07-01T10:23:19Z</time>
      </trkpt>
      <trkpt lat="44.0955" lon="6.00548">
        <ele>484.43</ele>
        <time>2026-07-01T10:23:27Z</time>
      </trkpt>
      <trkpt lat="44.09542" lon="6.00557">
        <ele>484.12</ele>
        <time>2026-07-01T10:23:29Z</time>
      </trkpt>
      <trkpt lat="44.095" lon="6.00582">
        <ele>480.94</ele>
        <time>2026-07-01T10:23:39Z</time>
      </trkpt>
      <trkpt lat="44.09497" lon="6.0058">
        <ele>480.93</ele>
        <time>2026-07-01T10:23:40Z</time>
      </trkpt>
      <trkpt lat="44.09494" lon="6.00578">
        <ele>480.92</ele>
        <time>2026-07-01T10:23:41Z</time>
      </trkpt>
      <trkpt lat="44.0949" lon="6.00574">
        <ele>480.91</ele>
        <time>2026-07-01T10:23:42Z</time>
      </trkpt>
      <trkpt lat="44.09473" lon="6.00555">
        <ele>480.33</ele>
        <time>2026-07-01T10:23:46Z</time>
      </trkpt>
      <trkpt lat="44.09467" lon="6.00553">
        <ele>480.11</ele>
        <time>2026-07-01T10:23:47Z</time>
      </trkpt>
      <trkpt lat="44.0946" lon="6.00554">
        <ele>479.74</ele>
        <time>2026-07-01T10:23:48Z</time>
      </trkpt>
      <trkpt lat="44.09454" lon="6.00556">
        <ele>479.32</ele>
        <time>2026-07-01T10:23:49Z</time>
      </trkpt>
      <trkpt lat="44.09447" lon="6.0056">
        <ele>479</ele>
        <time>2026-07-01T10:23:50Z</time>
      </trkpt>
      <trkpt lat="44.09394" lon="6.0059">
        <ele>475.89</ele>
        <time>2026-07-01T10:23:57Z</time>
      </trkpt>
      <trkpt lat="44.09388" lon="6.00596">
        <ele>475.36</ele>
        <time>2026-07-01T10:23:58Z</time>
      </trkpt>
      <trkpt lat="44.09385" lon="6.00603">
        <ele>475.05</ele>
        <time>2026-07-01T10:23:59Z</time>
      </trkpt>
      <trkpt lat="44.09381" lon="6.0061">
        <ele>474.36</ele>
        <time>2026-07-01T10:24:00Z</time>
      </trkpt>
      <trkpt lat="44.09378" lon="6.00617">
        <ele>473.88</ele>
        <time>2026-07-01T10:24:01Z</time>
      </trkpt>
      <trkpt lat="44.09376" lon="6.00625">
        <ele>473.59</ele>
        <time>2026-07-01T10:24:02Z</time>
      </trkpt>
      <trkpt lat="44.09373" lon="6.00632">
        <ele>473.25</ele>
        <time>2026-07-01T10:24:03Z</time>
      </trkpt>
      <trkpt lat="44.09371" lon="6.00637">
        <ele>472.87</ele>
        <time>2026-07-01T10:24:04Z</time>
      </trkpt>
      <trkpt lat="44.09368" lon="6.00662">
        <ele>471.04</ele>
        <time>2026-07-01T10:24:12Z</time>
      </trkpt>
      <trkpt lat="44.09366" lon="6.00666">
        <ele>470.38</ele>
        <time>2026-07-01T10:24:13Z</time>
      </trkpt>
      <trkpt lat="44.09363" lon="6.0067">
        <ele>470.05</ele>
        <time>2026-07-01T10:24:14Z</time>
      </trkpt>
      <trkpt lat="44.0936" lon="6.00674">
        <ele>469.54</ele>
        <time>2026-07-01T10:24:15Z</time>
      </trkpt>
      <trkpt lat="44.09356" lon="6.00677">
        <ele>469.11</ele>
        <time>2026-07-01T10:24:16Z</time>
      </trkpt>
      <trkpt lat="44.09353" lon="6.00682">
        <ele>468.47</ele>
        <time>2026-07-01T10:24:17Z</time>
      </trkpt>
      <trkpt lat="44.09351" lon="6.00688">
        <ele>468.55</ele>
        <time>2026-07-01T10:24:18Z</time>
      </trkpt>
      <trkpt lat="44.09348" lon="6.00694">
        <ele>468.53</ele>
        <time>2026-07-01T10:24:19Z</time>
      </trkpt>
      <trkpt lat="44.09346" lon="6.00702">
        <ele>468.6</ele>
        <time>2026-07-01T10:24:20Z</time>
      </trkpt>
      <trkpt lat="44.09335" lon="6.00736">
        <ele>466.88</ele>
        <time>2026-07-01T10:24:24Z</time>
      </trkpt>
      <trkpt lat="44.0931" lon="6.008">
        <ele>463.38</ele>
        <time>2026-07-01T10:24:30Z</time>
      </trkpt>
      <trkpt lat="44.09296" lon="6.00846">
        <ele>460.24</ele>
        <time>2026-07-01T10:24:36Z</time>
      </trkpt>
      <trkpt lat="44.09295" lon="6.00863">
        <ele>460.13</ele>
        <time>2026-07-01T10:24:39Z</time>
      </trkpt>
      <trkpt lat="44.09293" lon="6.00868">
        <ele>459.78</ele>
        <time>2026-07-01T10:24:40Z</time>
      </trkpt>
      <trkpt lat="44.09286" lon="6.009">
        <ele>459.26</ele>
        <time>2026-07-01T10:24:51Z</time>
      </trkpt>
      <trkpt lat="44.09285" lon="6.00905">
        <ele>459.22</ele>
        <time>2026-07-01T10:25:01Z</time>
      </trkpt>
      <trkpt lat="44.09292" lon="6.00917">
        <ele>459.34</ele>
        <time>2026-07-01T10:25:06Z</time>
      </trkpt>
      <trkpt lat="44.09358" lon="6.00962">
        <ele>457.58</ele>
        <time>2026-07-01T10:25:18Z</time>
      </trkpt>
      <trkpt lat="44.0938" lon="6.00974">
        <ele>456.23</ele>
        <time>2026-07-01T10:25:21Z</time>
      </trkpt>
      <trkpt lat="44.09394" lon="6.00979">
        <ele>455.24</ele>
        <time>2026-07-01T10:25:23Z</time>
      </trkpt>
      <trkpt lat="44.09401" lon="6.0098">
        <ele>455.04</ele>
        <time>2026-07-01T10:25:24Z</time>
      </trkpt>
      <trkpt lat="44.09413" lon="6.00978">
        <ele>454.12</ele>
        <time>2026-07-01T10:25:26Z</time>
      </trkpt>
      <trkpt lat="44.09428" lon="6.00979">
        <ele>454.85</ele>
        <time>2026-07-01T10:25:29Z</time>
      </trkpt>
      <trkpt lat="44.09465" lon="6.0098">
        <ele>455.45</ele>
        <time>2026-07-01T10:25:38Z</time>
      </trkpt>
      <trkpt lat="44.09478" lon="6.00977">
        <ele>454.61</ele>
        <time>2026-07-01T10:25:41Z</time>
      </trkpt>
      <trkpt lat="44.09493" lon="6.00974">
        <ele>453.88</ele>
        <time>2026-07-01T10:25:45Z</time>
      </trkpt>
      <trkpt lat="44.09495" lon="6.00971">
        <ele>453.79</ele>
        <time>2026-07-01T10:25:46Z</time>
      </trkpt>
      <trkpt lat="44.09497" lon="6.00963">
        <ele>454.59</ele>
        <time>2026-07-01T10:25:55Z</time>
      </trkpt>
      <trkpt lat="44.09496" lon="6.00962">
        <ele>454.53</ele>
        <time>2026-07-01T10:26:05Z</time>
      </trkpt>
      <trkpt lat="44.09497" lon="6.00962">
        <ele>453.16</ele>
        <time>2026-07-01T10:26:32Z</time>
      </trkpt>
      <trkpt lat="44.09491" lon="6.00961">
        <ele>452.88</ele>
        <time>2026-07-01T10:27:06Z</time>
      </trkpt>
      <trkpt lat="44.09493" lon="6.00959">
        <ele>453.18</ele>
        <time>2026-07-01T10:27:48Z</time>
      </trkpt>
      <trkpt lat="44.09495" lon="6.00958">
        <ele>453.34</ele>
        <time>2026-07-01T10:28:27Z</time>
      </trkpt>
      <trkpt lat="44.09491" lon="6.0096">
        <ele>454.16</ele>
        <time>2026-07-01T10:29:13Z</time>
      </trkpt>
      <trkpt lat="44.09491" lon="6.0096">
        <ele>453.93</ele>
        <time>2026-07-01T10:29:47Z</time>
      </trkpt>
      <trkpt lat="44.09493" lon="6.00958">
        <ele>454.02</ele>
        <time>2026-07-01T10:30:46Z</time>
      </trkpt>
      <trkpt lat="44.09491" lon="6.00957">
        <ele>454.73</ele>
        <time>2026-07-01T10:31:40Z</time>
      </trkpt>
      <trkpt lat="44.09491" lon="6.00957">
        <ele>455.99</ele>
        <time>2026-07-01T10:32:01Z</time>
      </trkpt>
      <trkpt lat="44.09492" lon="6.0096">
        <ele>455.34</ele>
        <time>2026-07-01T10:32:53Z</time>
      </trkpt>
      <trkpt lat="44.09493" lon="6.0096">
        <ele>455.42</ele>
        <time>2026-07-01T10:33:43Z</time>
      </trkpt>
      <trkpt lat="44.09493" lon="6.00963">
        <ele>455.7</ele>
        <time>2026-07-01T10:33:54Z</time>
      </trkpt>
    </trkseg>
  </trk>
</gpx>